# Wetter Temperatur Luftdruck Luftfeuchtigkeit Sichtweite Windgeschwindigkeit Windrichtung Zeit
1 Clouds 22 1010 100 10000 6.77 143.409 19:57 17.10.2019
2 Clouds 22 1010 100 10000 6.77 143.409 19:38 17.10.2019
3 Clouds 22 1010 100 10000 6.77 143.409 19:19 17.10.2019
4 Clouds 22 1010 100 10000 6.77 143.409 19:19 17.10.2019
5 Clouds 22 1010 100 10000 6.77 143.409 18:43 17.10.2019
6 Clouds 22 1010 100 10000 5.09 138.154 18:21 17.10.2019
7 Clouds 23 1010 94 10000 1.5 140 17:58 17.10.2019
8 Clouds 23 1010 94 10000 1.5 140 17:40 17.10.2019
9 Clouds 23 1010 94 10000 1.5 140 17:22 17.10.2019
10 Clouds 23 1011 94 10000 0.873 189 16:55 17.10.2019
11 Clouds 23 1011 94 10000 0.873 189 16:37 17.10.2019
12 Clouds 23 1011 94 10000 0.873 189 16:18 17.10.2019
13 Clouds 23 1012 94 10000 1.5 140 15:41 17.10.2019
14 Clouds 23 1012 94 10000 1.5 140 15:21 17.10.2019
15 Clouds 25 1013 88 10000 1 180 14:59 17.10.2019
16 Clouds 25 1013 88 10000 1 180 14:59 17.10.2019
17 Clouds 25 1013 88 10000 1 180 14:41 17.10.2019
18 Clouds 25 1013 88 10000 1 180 14:23 17.10.2019
19 Rain 23 1013 89 0 1.216 184 13:42 17.10.2019
20 Clouds 24 1012 94 10000 1.5 180 13:22 17.10.2019
21 Clouds 24 1012 94 10000 1.5 180 12:59 17.10.2019
22 Clouds 24 1012 94 10000 1.5 180 12:40 17.10.2019
23 Clouds 24 1012 94 10000 1.5 180 12:20 17.10.2019
24 Clouds 25 1012 73 10000 1.5 140 11:57 17.10.2019
25 Clouds 25 1012 73 10000 1.5 140 11:39 17.10.2019
26 Clouds 25 1012 73 10000 1.5 140 11:18 17.10.2019
27 Clouds 26 1011 74 10000 2.1 160 10:42 17.10.2019
28 Clouds 26 1011 74 10000 2.1 160 10:20 17.10.2019
29 Clouds 29 1010 62 10000 4.1 90 09:59 17.10.2019
30 Clouds 29 1010 62 10000 4.1 90 09:41 17.10.2019
31 Clouds 29 1010 62 10000 4.1 90 09:21 17.10.2019
32 Clouds 30 1010 51 10000 4.6 90 08:58 17.10.2019
33 Clouds 30 1010 51 10000 4.6 90 08:38 17.10.2019
34 Clouds 30 1010 51 10000 4.6 90 08:18 17.10.2019
35 Clouds 31 1009 62 10000 8.2 70 07:50 17.10.2019
36 Clouds 31 1009 62 10000 8.2 70 07:21 17.10.2019
37 Clouds 31 1009 62 10000 8.2 70 07:21 17.10.2019
38 Clouds 31 1009 58 10000 6.7 70 06:58 17.10.2019
39 Clouds 31 1009 58 10000 6.7 70 06:39 17.10.2019
40 Clouds 31 1009 58 10000 6.7 70 06:19 17.10.2019
41 Clouds 31 1010 58 10000 5.7 70 05:41 17.10.2019
42 Clouds 31 1010 58 10000 5.7 70 05:20 17.10.2019
43 Clouds 31 1010 66 10000 7.2 50 04:50 17.10.2019
44 Clouds 31 1011 66 10000 6.2 50 03:49 17.10.2019
45 Clouds 30 1012 55 10000 6.7 70 02:35 17.10.2019
46 Clouds 29 1012 62 10000 1 140 00:43 17.10.2019
47 Clouds 29 1012 62 10000 1 140 00:21 17.10.2019
48 Clouds 25 1012 88 10000 1.5 140 23:59 16.10.2019
49 Clouds 25 1012 88 10000 1.5 140 23:41 16.10.2019
50 Clouds 25 1012 88 10000 1.5 140 23:41 16.10.2019
51 Clouds 25 1012 88 10000 1.5 140 23:19 16.10.2019
52 Clouds 21 1012 94 10000 2.1 140 22:54 16.10.2019
53 Clouds 21 1012 94 10000 2.1 140 22:36 16.10.2019
54 Clouds 21 1012 94 10000 2.1 140 22:18 16.10.2019
55 Clouds 21 1011 94 10000 1 140 21:54 16.10.2019
56 Clouds 21 1011 94 10000 1 140 21:36 16.10.2019
57 Clouds 21 1011 94 10000 1 140 21:18 16.10.2019
58 Clouds 21 1010 100 10000 1 160 20:56 16.10.2019
59 Clouds 21 1010 100 10000 1 160 20:56 16.10.2019
60 Clouds 21 1010 100 10000 1 160 20:37 16.10.2019
61 Clouds 21 1010 100 10000 1 160 20:37 16.10.2019
62 Clouds 21 1010 100 10000 1 160 20:37 16.10.2019
63 Clouds 21 1010 100 10000 1 160 20:19 16.10.2019
64 Clouds 21 1010 94 10000 2.1 160 19:40 16.10.2019
65 Clouds 21 1010 94 10000 2.1 160 19:21 16.10.2019
66 Clouds 21 1011 100 10000 2.1 160 18:58 16.10.2019
67 Clouds 21 1011 100 10000 2.1 160 18:38 16.10.2019
68 Clouds 21 1011 100 10000 2.1 160 18:18 16.10.2019
69 Clouds 22 1010 94 10000 1.5 140 17:55 16.10.2019
70 Clouds 22 1010 94 10000 1.5 140 17:36 16.10.2019
71 Clouds 22 1010 94 10000 1.5 140 17:18 16.10.2019
72 Clouds 24 1011 94 10000 1.5 140 16:43 16.10.2019
73 Clouds 24 1011 94 10000 1.5 140 16:23 16.10.2019
74 Clouds 24 1011 94 10000 1.5 140 15:59 16.10.2019
75 Clouds 21 1011 82 0 2.028 178 15:39 16.10.2019
76 Clouds 21 1011 82 0 2.028 178 15:39 16.10.2019
77 Clouds 25 1011 94 10000 2.1 140 15:19 16.10.2019
78 Clouds 25 1011 94 10000 2.1 140 14:58 16.10.2019
79 Clouds 25 1011 94 10000 2.1 140 14:39 16.10.2019
80 Clouds 25 1011 94 10000 2.1 140 14:20 16.10.2019
81 Clouds 25 1011 100 10000 1.5 140 13:57 16.10.2019
82 Clouds 25 1011 100 10000 1.5 140 13:39 16.10.2019
83 Clouds 25 1011 100 10000 1.5 140 13:20 16.10.2019
84 Clouds 27 1011 88 10000 1.836 167 12:42 16.10.2019
85 Clouds 27 1011 88 10000 1.079 189 12:20 16.10.2019
86 Clouds 27 1010 88 10000 1.079 189 11:45 16.10.2019
87 Clouds 27 1010 88 10000 1.079 189 11:19 16.10.2019
88 Clouds 28 1010 74 10000 1 20 10:56 16.10.2019
89 Clouds 28 1010 74 10000 1 20 10:36 16.10.2019
90 Clouds 28 1010 74 10000 1 20 10:18 16.10.2019
91 Clouds 29 1009 70 10000 1 20 09:40 16.10.2019
92 Clouds 29 1009 70 10000 1 20 09:21 16.10.2019
93 Clouds 30 1009 66 10000 3.1 360 08:46 16.10.2019
94 Clouds 30 1009 66 10000 3.1 360 08:26 16.10.2019
95 Clouds 30 1008 70 10000 3.6 360 07:58 16.10.2019
96 Clouds 30 1008 70 10000 3.6 360 07:40 16.10.2019
97 Clouds 30 1008 70 10000 3.6 360 07:21 16.10.2019
98 Clouds 31 1009 66 10000 3.6 340 06:46 16.10.2019
99 Clouds 30 1009 70 10000 3.6 360 06:27 16.10.2019
100 Clouds 30 1010 70 10000 3.6 50 04:24 16.10.2019
101 Clouds 30 1011 70 10000 4.6 50 02:50 16.10.2019
102 Clouds 29 1012 79 10000 1.128 29 01:20 16.10.2019
103 Clouds 28 1011 78 10000 1.5 110 00:58 16.10.2019
104 Clouds 28 1011 78 10000 1.5 110 00:39 16.10.2019
105 Clouds 27 1012 83 10000 0.473 173 23:42 15.10.2019
106 Clouds 27 1012 83 10000 0.473 173 23:23 15.10.2019
107 Clouds 24 1011 100 10000 1 230 22:58 15.10.2019
108 Clouds 24 1011 100 10000 1 230 22:40 15.10.2019
109 Clouds 24 1011 100 10000 1 230 22:21 15.10.2019
110 Clouds 24 1010 100 10000 1 180 21:57 15.10.2019
111 Clouds 24 1010 100 10000 1 180 21:38 15.10.2019
112 Clouds 24 1010 100 10000 1 180 21:20 15.10.2019
113 Drizzle 24 1009 100 10000 1 200 20:58 15.10.2019
114 Drizzle 24 1009 100 10000 1 200 20:39 15.10.2019
115 Drizzle 24 1009 100 10000 1 200 20:21 15.10.2019
116 Rain 23 1010 89 0 1.36 179 19:59 15.10.2019
117 -273 0 0 0 0 0 19:40 15.10.2019
118 Clouds 24 1009 100 10000 1 200 19:20 15.10.2019
119 Clouds 24 1009 100 10000 1 200 18:47 15.10.2019
120 Clouds 24 1009 100 10000 1 200 18:29 15.10.2019
121 Drizzle 25 1009 94 10000 2.1 160 17:59 15.10.2019
122 Drizzle 25 1009 94 10000 2.1 160 17:40 15.10.2019
123 Drizzle 25 1009 94 10000 2.1 160 17:20 15.10.2019
124 Clouds 25 1009 94 10000 2.1 230 16:57 15.10.2019
125 Clouds 25 1009 94 10000 2.1 230 16:38 15.10.2019
126 Clouds 25 1009 94 10000 2.1 230 16:20 15.10.2019
127 Rain 23 1009 91 0 1.61 189 15:43 15.10.2019
128 Clouds 25 1010 94 10000 1.181 201 15:21 15.10.2019
129 Clouds 25 1010 94 10000 1.181 201 14:59 15.10.2019
130 Clouds 25 1010 94 10000 1.205 188 14:38 15.10.2019
131 Clouds 25 1010 94 10000 1.205 188 14:20 15.10.2019
132 Clouds 25 1010 94 10000 1.205 188 13:56 15.10.2019
133 Clouds 25 1010 94 10000 1.205 188 13:37 15.10.2019
134 Clouds 25 1010 94 10000 1.205 188 13:19 15.10.2019
135 Clouds 25 1010 100 10000 1.205 188 12:42 15.10.2019
136 Clouds 25 1010 100 10000 0.709 202 12:21 15.10.2019
137 Clouds 26 1009 94 10000 0.709 202 11:56 15.10.2019
138 Clouds 26 1009 94 10000 0.709 202 11:56 15.10.2019
139 Clouds 26 1009 94 10000 0.709 202 11:37 15.10.2019
140 Clouds 26 1009 94 10000 0.709 202 11:18 15.10.2019
141 Clouds 27 1009 88 10000 1.5 180 10:43 15.10.2019
142 Clouds 27 1009 88 10000 1.5 180 10:19 15.10.2019
143 Clouds 29 1008 74 10000 9.83 160.916 09:57 15.10.2019
144 Clouds 29 1008 74 10000 9.83 160.916 09:37 15.10.2019
145 Clouds 29 1008 74 10000 9.83 160.916 09:37 15.10.2019
146 Clouds 29 1008 74 10000 10.79 163.655 09:19 15.10.2019
147 Clouds 30 1008 70 10000 3.1 70 08:43 15.10.2019
148 Clouds 30 1008 70 10000 3.1 70 08:22 15.10.2019
149 Clouds 29 1007 79 10000 2.6 20 07:56 15.10.2019
150 Clouds 29 1007 79 10000 2.6 20 07:56 15.10.2019
151 Clouds 29 1007 79 10000 2.6 20 07:38 15.10.2019
152 Clouds 29 1007 79 10000 2.6 20 07:19 15.10.2019
153 Clouds 31 1007 70 10000 4.1 360 06:44 15.10.2019
154 Clouds 31 1007 70 10000 4.1 360 06:26 15.10.2019
155 Clouds 31 1007 66 10000 2.6 340 05:41 15.10.2019
156 Clouds 31 1007 66 10000 2.6 340 05:23 15.10.2019
157 Clouds 31 1008 70 10000 2.1 320 04:25 15.10.2019
158 Clouds 30 1009 70 10000 3.1 340 03:37 15.10.2019
159 Clouds 30 1009 70 10000 3.1 340 03:37 15.10.2019
160 Clouds 30 1010 66 10000 2.1 20 02:24 15.10.2019
161 Clouds 30 1010 70 10000 3.6 50 01:47 15.10.2019
162 Clouds 30 1010 70 10000 3.6 50 01:19 15.10.2019
163 Clouds 29 1011 79 10000 2.6 90 00:48 15.10.2019
164 Clouds 29 1011 79 10000 2.6 90 00:21 15.10.2019
165 Clouds 26 1010 88 10000 1.5 110 23:43 14.10.2019
166 Clouds 26 1010 88 10000 1.5 110 23:20 14.10.2019
167 Clouds 25 1010 94 10000 1.5 110 22:55 14.10.2019
168 Clouds 25 1010 94 10000 1.5 110 22:37 14.10.2019
169 Clouds 25 1010 94 10000 1.5 110 22:18 14.10.2019
170 Clouds 24 1009 94 10000 6.77 148.124 21:40 14.10.2019
171 Clouds 24 1009 94 10000 7.22 148.78 21:21 14.10.2019
172 Clouds 24 1010 94 10000 1.5 180 20:59 14.10.2019
173 Clouds 24 1010 94 10000 1.5 180 20:39 14.10.2019
174 Clouds 24 1010 94 10000 1.5 180 20:20 14.10.2019
175 Clouds 25 1009 88 10000 7.26 148.159 19:58 14.10.2019
176 Clouds 25 1009 88 10000 1.34 182 19:40 14.10.2019
177 Clouds 25 1009 88 10000 1.34 182 19:21 14.10.2019
178 Clouds 25 1009 88 10000 1 180 18:57 14.10.2019
179 Clouds 25 1009 88 10000 1 180 18:57 14.10.2019
180 Clouds 25 1009 88 10000 1 180 18:38 14.10.2019
181 Clouds 25 1009 88 10000 1 180 18:18 14.10.2019
182 Clouds 25 1010 88 10000 1.5 180 17:44 14.10.2019
183 Clouds 25 1010 88 10000 1.5 180 17:25 14.10.2019
184 Clouds 25 1010 94 10000 1.5 230 16:56 14.10.2019
185 Clouds 25 1010 94 10000 1.5 230 16:38 14.10.2019
186 Clouds 25 1010 94 10000 1.5 230 16:19 14.10.2019
187 Clouds 25 1011 94 10000 1.5 200 15:41 14.10.2019
188 Clouds 25 1011 94 10000 1.5 200 15:21 14.10.2019
189 Clouds 25 1012 94 10000 1.5 200 14:44 14.10.2019
190 Clouds 25 1012 94 10000 1.5 200 14:44 14.10.2019
191 -273 0 0 0 0 0 14:25 14.10.2019
192 Clouds 25 1012 94 0 7.13 144.546 13:58 14.10.2019
193 Clouds 25 1012 94 0 7.13 144.546 13:40 14.10.2019
194 Clouds 25 1012 94 0 7.16 142.943 13:20 14.10.2019
195 Clouds 25 1012 94 0 7.16 142.943 12:41 14.10.2019
196 Clouds 25 1012 94 0 8.21 155.649 12:21 14.10.2019
197 Clouds 26 1011 88 0 8.21 155.649 11:55 14.10.2019
198 Clouds 26 1011 88 0 8.21 155.649 11:36 14.10.2019
199 Clouds 26 1011 88 0 8.21 155.649 11:18 14.10.2019
200 Clouds 28 1011 79 0 8.21 155.649 10:43 14.10.2019
201 Clouds 29 1009 74 10000 1 20 10:21 14.10.2019
202 Clouds 29 1009 74 10000 1 20 09:59 14.10.2019
203 Clouds 29 1009 74 10000 1 20 09:38 14.10.2019
204 Clouds 29 1009 74 10000 1 20 09:38 14.10.2019
205 Clouds 29 1009 74 10000 1 20 09:19 14.10.2019
206 Clouds 29 1009 74 10000 2.1 340 08:47 14.10.2019
207 Clouds 29 1009 74 10000 2.1 340 08:23 14.10.2019
208 Clouds 30 1008 70 10000 2.1 360 07:44 14.10.2019
209 Clouds 30 1008 70 10000 2.1 360 07:21 14.10.2019
210 Clouds 30 1009 74 10000 3.1 360 06:55 14.10.2019
211 Clouds 30 1009 74 10000 3.1 360 06:27 14.10.2019
212 Clouds 31 1009 70 10000 2.6 20 05:51 14.10.2019
213 Clouds 31 1010 74 10000 4.6 360 04:50 14.10.2019
214 Clouds 31 1011 74 10000 4.6 20 03:48 14.10.2019
215 Clouds 31 1011 74 10000 4.6 20 03:21 14.10.2019
216 Clouds 31 1012 66 10000 2.6 50 01:36 14.10.2019
217 Clouds 31 1012 66 10000 2.6 50 01:18 14.10.2019
218 Clouds 30 1012 66 10000 2.1 70 00:21 14.10.2019
219 Clouds 28 1012 74 10000 4.24 129.899 23:46 13.10.2019
220 Clouds 28 1012 74 10000 4.24 129.899 23:21 13.10.2019
221 Clouds 25 1011 88 10000 1 200 22:59 13.10.2019
222 Clouds 25 1011 88 10000 1 200 22:41 13.10.2019
223 Clouds 25 1011 88 10000 1 200 22:21 13.10.2019
224 Clouds 22 1010 100 10000 1.5 230 21:58 13.10.2019
225 Clouds 22 1010 100 10000 1.5 230 21:38 13.10.2019
226 Clouds 22 1010 100 10000 1.5 230 21:19 13.10.2019
227 Clouds 23 1009 94 10000 2.58 140.234 20:58 13.10.2019
228 Clouds 23 1009 94 10000 4.88 188.841 20:39 13.10.2019
229 Clouds 23 1009 94 10000 4.88 188.841 20:21 13.10.2019
230 Clouds 23 1009 94 10000 4.88 188.841 19:59 13.10.2019
231 Clouds 23 1009 94 10000 4.88 188.841 19:39 13.10.2019
232 Clouds 23 1009 94 10000 4.88 188.841 19:39 13.10.2019
233 Clouds 23 1009 94 10000 4.88 188.841 19:21 13.10.2019
234 Clouds 23 1009 100 10000 4.88 188.841 18:57 13.10.2019
235 Clouds 23 1009 100 10000 4.88 188.841 18:57 13.10.2019
236 Clouds 23 1009 100 10000 4.88 188.841 18:37 13.10.2019
237 Clouds 23 1009 100 10000 1.19 164.107 18:19 13.10.2019
238 Clouds 23 1009 100 10000 1.19 164.107 18:19 13.10.2019
239 Clouds 24 1010 94 10000 1.19 164.107 17:57 13.10.2019
240 Clouds 24 1010 94 10000 1.19 164.107 17:38 13.10.2019
241 Clouds 24 1010 94 10000 1.19 164.107 17:38 13.10.2019
242 Clouds 24 1010 94 10000 1.19 164.107 17:20 13.10.2019
243 Clouds 24 1010 94 10000 3.1 160 16:41 13.10.2019
244 Clouds 24 1010 94 10000 3.1 160 16:18 13.10.2019
245 Clouds 25 1011 88 10000 1.19 164.107 15:57 13.10.2019
246 Clouds 25 1011 88 10000 1.19 164.107 15:38 13.10.2019
247 Clouds 25 1011 88 10000 2.99 349.971 15:18 13.10.2019
248 -273 0 0 0 0 0 14:57 13.10.2019
249 Rain 28 1013 73 0 2.99 349.971 14:38 13.10.2019
250 Clouds 25 1012 94 10000 1 230 14:19 13.10.2019
251 Clouds 25 1012 94 10000 1 230 13:41 13.10.2019
252 Clouds 25 1012 94 10000 1 230 13:22 13.10.2019
253 Clouds 25 1012 88 10000 1.5 160 12:59 13.10.2019
254 Clouds 25 1012 88 10000 1.5 160 12:39 13.10.2019
255 Clouds 25 1012 88 10000 1.5 160 12:20 13.10.2019
256 Clouds 26 1011 83 10000 1.5 140 11:58 13.10.2019
257 Clouds 26 1011 83 10000 1.5 140 11:39 13.10.2019
258 Clouds 26 1011 83 10000 1.5 140 11:20 13.10.2019
259 Clouds 27 1010 74 10000 1.5 90 10:43 13.10.2019
260 Clouds 27 1010 74 10000 1.5 90 10:24 13.10.2019
261 Clouds 27 1010 69 10000 2.6 110 09:59 13.10.2019
262 Clouds 27 1010 69 10000 2.6 110 09:59 13.10.2019
263 Clouds 27 1010 69 10000 2.6 110 09:39 13.10.2019
264 Clouds 27 1010 69 10000 2.6 110 09:20 13.10.2019
265 Clouds 29 1011 62 10000 4.1 90 08:43 13.10.2019
266 Clouds 29 1011 62 10000 4.1 90 08:25 13.10.2019
267 Clouds 29 1011 62 10000 4.1 90 08:25 13.10.2019
268 Clouds 30 1010 58 10000 3.1 90 07:51 13.10.2019
269 Clouds 30 1010 58 10000 3.1 90 07:32 13.10.2019
270 Clouds 30 1010 70 10000 4.1 50 06:49 13.10.2019
271 Clouds 30 1010 70 10000 2.6 50 05:59 13.10.2019
272 Clouds 29 1011 79 10000 3.1 50 04:59 13.10.2019
273 Clouds 29 1011 79 10000 3.1 50 04:33 13.10.2019
274 Clouds 29 1011 74 10000 1.5 360 02:50 13.10.2019
275 Clouds 29 1011 74 10000 1.5 360 02:25 13.10.2019
276 Clouds 27 1012 83 10000 1.78 110.714 01:34 13.10.2019
277 Clouds 27 1012 83 10000 1.78 110.714 01:34 13.10.2019
278 Clouds 26 1013 88 10000 1.63 146.037 00:53 13.10.2019
279 Clouds 26 1013 88 10000 1.78 96.921 00:22 13.10.2019
280 Clouds 26 1012 88 10000 1.5 160 23:59 12.10.2019
281 Clouds 26 1012 88 10000 1.5 160 23:40 12.10.2019
282 Clouds 26 1012 88 10000 1.5 160 23:21 12.10.2019
283 Clouds 25 1012 94 10000 1.78 96.921 22:58 12.10.2019
284 Clouds 25 1012 94 10000 1.78 96.921 22:58 12.10.2019
285 Clouds 25 1012 94 10000 1.78 96.921 22:39 12.10.2019
286 Clouds 25 1012 94 10000 1.78 96.921 22:20 12.10.2019
287 Clouds 24 1010 94 10000 1.78 96.921 21:55 12.10.2019
288 Clouds 24 1010 94 10000 1.78 96.921 21:55 12.10.2019
289 Clouds 24 1010 94 10000 1.78 96.921 21:37 12.10.2019
290 Clouds 24 1010 94 10000 3.19 122.645 21:19 12.10.2019
291 Clouds 24 1009 88 10000 1.5 140 20:43 12.10.2019
292 Clouds 24 1009 88 10000 1.5 140 20:25 12.10.2019
293 Clouds 24 1009 94 10000 3.21 123.408 19:40 12.10.2019
294 Clouds 24 1009 94 10000 3.21 123.408 19:22 12.10.2019
295 Clouds 24 1009 94 10000 3.21 123.408 19:22 12.10.2019
296 Clouds 24 1009 94 10000 1.5 180 18:59 12.10.2019
297 Clouds 24 1009 94 10000 1.5 180 18:40 12.10.2019
298 Clouds 24 1009 94 10000 1.5 180 18:22 12.10.2019
299 Clouds 24 1010 94 10000 4.59 136.394 17:44 12.10.2019
300 Clouds 24 1010 94 10000 4.59 136.394 17:19 12.10.2019
301 Clouds 24 1010 100 10000 4.59 136.394 16:55 12.10.2019
302 Clouds 24 1010 100 10000 4.59 136.394 16:36 12.10.2019
303 Clouds 24 1010 100 10000 4.59 136.394 16:36 12.10.2019
304 Clouds 24 1010 100 10000 4.59 136.394 16:18 12.10.2019
305 Clouds 25 1010 94 10000 4.59 136.394 15:44 12.10.2019
306 Clouds 25 1010 94 10000 4.11 143.024 15:25 12.10.2019
307 Clouds 26 1011 88 10000 4.11 143.024 14:43 12.10.2019
308 Clouds 26 1011 88 10000 4.11 143.024 14:22 12.10.2019
309 Clouds 26 1011 94 10000 1.5 180 13:58 12.10.2019
310 Clouds 26 1011 94 10000 1.5 180 13:40 12.10.2019
311 Clouds 26 1011 94 10000 1.5 180 13:40 12.10.2019
312 Clouds 26 1011 94 10000 1.5 180 13:21 12.10.2019
313 Clouds 26 1011 94 10000 1.5 230 12:39 12.10.2019
314 Clouds 26 1011 94 10000 1.5 230 12:21 12.10.2019
315 Clouds 27 1010 88 10000 2.1 200 11:58 12.10.2019
316 Clouds 27 1010 88 10000 2.1 200 11:39 12.10.2019
317 Clouds 27 1010 88 10000 2.1 200 11:19 12.10.2019
318 Clouds 28 1009 83 10000 2.54 145.765 10:41 12.10.2019
319 Clouds 28 1009 83 10000 2.54 145.765 10:23 12.10.2019
320 Clouds 29 1008 79 10000 1.5 20 09:58 12.10.2019
321 Clouds 29 1008 79 10000 1.5 20 09:39 12.10.2019
322 Clouds 29 1008 79 10000 1.5 20 09:21 12.10.2019
323 Clouds 30 1008 70 10000 2.1 20 08:57 12.10.2019
324 Clouds 30 1008 70 10000 2.1 20 08:57 12.10.2019
325 Clouds 30 1008 70 10000 2.1 20 08:37 12.10.2019
326 Clouds 31 1008 70 10000 2.6 50 08:18 12.10.2019
327 Clouds 31 1007 70 10000 2.6 50 07:33 12.10.2019
328 Clouds 32 1007 62 10000 4.1 360 06:50 12.10.2019
329 Clouds 32 1008 62 10000 5.1 360 05:46 12.10.2019
330 Clouds 31 1008 66 10000 5.1 20 04:52 12.10.2019
331 Clouds 31 1009 62 10000 4.1 360 03:57 12.10.2019
332 Clouds 31 1010 55 10000 3.1 50 02:57 12.10.2019
333 Clouds 31 1010 70 10000 4.1 70 01:36 12.10.2019
334 Clouds 30 1010 74 10000 4.1 110 00:58 12.10.2019
335 Clouds 30 1010 74 10000 4.1 110 00:39 12.10.2019
336 Clouds 28 1010 78 10000 1.44 99.279 23:56 11.10.2019
337 Clouds 28 1010 78 10000 1.44 99.279 23:37 11.10.2019
338 Clouds 28 1010 78 10000 1.44 99.279 23:19 11.10.2019
339 Clouds 25 1010 88 10000 1.44 99.279 22:39 11.10.2019
340 Clouds 25 1010 88 10000 1.44 99.279 22:20 11.10.2019
341 Clouds 23 1009 94 10000 1.44 99.279 21:55 11.10.2019
342 Clouds 23 1009 94 10000 1.44 99.279 21:36 11.10.2019
343 Clouds 23 1009 94 10000 2.77 69.793 21:18 11.10.2019
344 Clouds 23 1008 94 10000 1 140 20:42 11.10.2019
345 Clouds 23 1008 94 10000 1 140 20:24 11.10.2019
346 Clouds 23 1008 100 10000 1 200 19:56 11.10.2019
347 Clouds 23 1008 100 10000 1 200 19:38 11.10.2019
348 Clouds 23 1008 100 10000 1 200 19:18 11.10.2019
349 Clouds 23 1008 100 10000 1 180 18:56 11.10.2019
350 Clouds 23 1008 100 10000 1 180 18:56 11.10.2019
351 Rain 28 1009 76 0 2.63 69.646 18:37 11.10.2019
352 Clouds 24 1008 94 10000 1.5 140 18:18 11.10.2019
353 Clouds 24 1008 94 10000 1.5 140 17:57 11.10.2019
354 Clouds 24 1008 94 10000 1.5 140 17:37 11.10.2019
355 Clouds 24 1008 94 10000 1.5 140 17:18 11.10.2019
356 Clouds 24 1008 94 10000 1.5 140 17:18 11.10.2019
357 Clouds 24 1009 100 10000 1.5 110 16:41 11.10.2019
358 Clouds 24 1009 100 10000 1.5 110 16:20 11.10.2019
359 Clouds 24 1009 100 10000 1.5 110 16:20 11.10.2019
360 Clouds 24 1010 100 10000 2.2 95.874 15:58 11.10.2019
361 Clouds 24 1010 100 10000 2.2 95.874 15:38 11.10.2019
362 Clouds 24 1010 100 10000 3.83 139.863 15:19 11.10.2019
363 Clouds 25 1009 94 10000 3.83 139.863 14:47 11.10.2019
364 Clouds 25 1009 94 10000 3.83 139.863 14:29 11.10.2019
365 Clouds 25 1010 94 10000 3.83 139.863 13:56 11.10.2019
366 Clouds 25 1010 94 10000 3.83 139.863 13:37 11.10.2019
367 Clouds 25 1010 94 10000 2.97 120.699 13:18 11.10.2019
368 Clouds 26 1009 88 10000 2.97 120.699 12:42 11.10.2019
369 Clouds 26 1009 88 10000 4.89 144.912 12:22 11.10.2019
370 Clouds 27 1010 88 10000 1 180 12:00 11.10.2019
371 Clouds 27 1010 88 10000 1 180 11:40 11.10.2019
372 Clouds 27 1010 88 10000 1 180 11:21 11.10.2019
373 Clouds 28 1008 78 10000 1 50 10:56 11.10.2019
374 Clouds 28 1008 78 10000 1 50 10:38 11.10.2019
375 Clouds 28 1008 78 10000 1 50 10:20 11.10.2019
376 Clouds 28 1008 78 10000 1 50 10:20 11.10.2019
377 Clouds 29 1007 74 10000 1 110 09:54 11.10.2019
378 Clouds 29 1007 74 10000 1 110 09:54 11.10.2019
379 Clouds 29 1007 74 10000 1 110 09:36 11.10.2019
380 Clouds 29 1007 74 10000 1 110 09:18 11.10.2019
381 Clouds 30 1006 70 10000 2.1 70 08:39 11.10.2019
382 Clouds 30 1006 70 10000 2.1 70 08:21 11.10.2019
383 Rain 31 1006 70 10000 3.1 50 07:58 11.10.2019
384 Rain 31 1006 70 10000 3.1 50 07:40 11.10.2019
385 Rain 31 1006 70 10000 3.1 50 07:20 11.10.2019
386 Clouds 31 1006 70 10000 5.1 70 06:43 11.10.2019
387 Clouds 31 1006 70 10000 5.1 70 06:20 11.10.2019
388 Clouds 31 1006 66 10000 5.1 50 05:32 11.10.2019
389 Clouds 31 1007 70 10000 5.1 50 04:59 11.10.2019
390 Clouds 30 1008 79 10000 3.1 20 03:46 11.10.2019
391 Clouds 31 1010 70 10000 2.6 20 01:57 11.10.2019
392 Clouds 30 1010 70 10000 3.1 90 00:42 11.10.2019
393 Clouds 30 1010 70 10000 3.1 90 00:22 11.10.2019
394 Clouds 28 1010 78 10000 2.41 76.465 23:41 10.10.2019
395 Clouds 28 1010 78 10000 2.41 76.465 23:20 10.10.2019
396 Clouds 25 1009 94 10000 2.41 76.465 22:57 10.10.2019
397 Clouds 25 1009 94 10000 2.41 76.465 22:36 10.10.2019
398 Clouds 25 1009 94 10000 2.41 76.465 22:18 10.10.2019
399 Clouds 24 1008 94 10000 2.41 76.465 21:42 10.10.2019
400 Clouds 24 1008 94 10000 2.41 76.465 21:42 10.10.2019
401 Clouds 24 1008 94 10000 5.15 132.67 21:22 10.10.2019
402 Clouds 24 1008 94 10000 4.53 131.939 20:59 10.10.2019
403 Clouds 24 1008 94 10000 4.53 131.939 20:40 10.10.2019
404 Clouds 24 1008 94 10000 4.53 131.939 20:20 10.10.2019
405 Clouds 24 1007 100 10000 4.53 131.939 19:57 10.10.2019
406 Clouds 24 1007 100 10000 4.53 131.939 19:39 10.10.2019
407 Clouds 24 1007 100 10000 4.53 131.939 19:19 10.10.2019
408 Clouds 24 1007 100 10000 4.53 131.939 18:42 10.10.2019
409 Clouds 24 1007 100 10000 5.32 142.318 18:21 10.10.2019
410 Clouds 24 1008 100 10000 5.32 142.318 17:59 10.10.2019
411 Clouds 24 1008 100 10000 5.32 142.318 17:40 10.10.2019
412 Clouds 24 1008 100 10000 5.32 142.318 17:40 10.10.2019
413 Clouds 24 1008 100 10000 5.32 142.318 17:19 10.10.2019
414 Clouds 25 1008 94 10000 1.5 160 16:56 10.10.2019
415 Clouds 25 1008 94 10000 1.5 160 16:56 10.10.2019
416 Clouds 25 1008 94 10000 1.5 160 16:37 10.10.2019
417 Clouds 25 1008 94 10000 1.5 160 16:18 10.10.2019
418 Clouds 25 1009 94 10000 5.32 142.318 15:40 10.10.2019
419 Clouds 25 1009 94 10000 6.74 139.392 15:22 10.10.2019
420 Clouds 25 1009 94 10000 6.74 139.392 15:22 10.10.2019
421 Clouds 25 1010 94 10000 6.74 139.392 14:57 10.10.2019
422 Clouds 25 1010 94 10000 6.74 139.392 14:37 10.10.2019
423 Clouds 25 1010 94 10000 6.74 139.392 14:19 10.10.2019
424 Clouds 25 1009 94 10000 6.74 139.392 13:55 10.10.2019
425 Clouds 25 1009 94 10000 6.74 139.392 13:37 10.10.2019
426 Clouds 25 1009 94 10000 5.88 137.516 13:18 10.10.2019
427 Clouds 26 1009 88 10000 5.88 137.516 12:42 10.10.2019
428 Clouds 26 1009 88 10000 6.56 142.989 12:20 10.10.2019
429 Clouds 27 1009 83 10000 6.56 142.989 11:58 10.10.2019
430 Clouds 27 1009 83 10000 6.56 142.989 11:58 10.10.2019
431 Clouds 27 1009 83 10000 6.56 142.989 11:39 10.10.2019
432 Clouds 27 1009 83 10000 6.56 142.989 11:19 10.10.2019
433 Clouds 28 1008 78 10000 6.56 142.989 10:45 10.10.2019
434 Clouds 28 1008 78 10000 6.56 142.989 10:27 10.10.2019
435 Clouds 29 1007 74 10000 6.56 142.989 09:58 10.10.2019
436 Clouds 29 1007 74 10000 6.56 142.989 09:39 10.10.2019
437 Clouds 29 1007 74 10000 6.86 160.152 09:21 10.10.2019
438 Clouds 30 1007 66 10000 4.1 90 08:58 10.10.2019
439 Clouds 30 1007 66 10000 4.1 90 08:38 10.10.2019
440 Clouds 30 1007 66 10000 4.1 90 08:19 10.10.2019
441 Clouds 30 1007 66 10000 4.1 90 08:19 10.10.2019
442 Clouds 30 1006 70 10000 2.1 50 07:45 10.10.2019
443 Clouds 30 1006 70 10000 2.1 50 07:22 10.10.2019
444 Clouds 29 1007 74 10000 1 320 06:48 10.10.2019
445 Clouds 29 1007 74 10000 1 320 06:29 10.10.2019
446 Thunderstorm 31 1007 66 10000 4.1 340 05:28 10.10.2019
447 Thunderstorm 31 1007 66 10000 3.1 360 04:48 10.10.2019
448 Clouds 31 1008 66 10000 3.6 340 04:26 10.10.2019
449 Clouds 31 1010 70 10000 4.6 20 01:44 10.10.2019
450 Clouds 31 1010 70 10000 4.6 20 01:25 10.10.2019
451 Clouds 30 1011 74 10000 1.5 90 00:54 10.10.2019
452 Clouds 30 1011 74 10000 1.5 90 00:54 10.10.2019
453 Clouds 30 1011 74 10000 1.5 90 00:22 10.10.2019
454 Clouds 27 1011 78 10000 1.5 160 23:40 09.10.2019
455 Clouds 27 1011 78 10000 1.5 160 23:21 09.10.2019
456 Clouds 25 1010 83 10000 1.5 200 22:56 09.10.2019
457 Clouds 25 1010 83 10000 1.5 200 22:38 09.10.2019
458 Clouds 25 1010 83 10000 1.5 200 22:20 09.10.2019
459 Clouds 23 1009 94 10000 2.6 200 21:40 09.10.2019
460 Clouds 23 1009 94 10000 2.6 200 21:21 09.10.2019
461 Clouds 23 1009 94 10000 1.5 180 20:56 09.10.2019
462 Clouds 23 1009 94 10000 1.5 180 20:38 09.10.2019
463 Clouds 23 1009 94 10000 1.5 180 20:38 09.10.2019
464 Clouds 23 1009 94 10000 1.5 180 20:19 09.10.2019
465 Clouds 23 1008 94 10000 3.25 155.258 19:57 09.10.2019
466 Clouds 23 1008 94 10000 3.25 155.258 19:39 09.10.2019
467 Clouds 23 1008 94 10000 3.25 155.258 19:20 09.10.2019
468 Clouds 23 1008 94 10000 1.5 200 18:38 09.10.2019
469 Clouds 23 1008 94 10000 1.5 200 18:19 09.10.2019
470 Clouds 24 1009 88 10000 2.1 200 17:56 09.10.2019
471 Clouds 24 1009 88 10000 2.1 200 17:37 09.10.2019
472 Clouds 24 1009 88 10000 2.1 200 17:18 09.10.2019
473 Clouds 24 1010 94 10000 1.5 180 16:41 09.10.2019
474 Clouds 24 1010 94 10000 1.5 180 16:23 09.10.2019
475 Clouds 24 1010 94 10000 1 180 15:58 09.10.2019
476 Clouds 24 1010 94 10000 1 180 15:39 09.10.2019
477 Clouds 24 1010 94 10000 1 180 15:20 09.10.2019
478 Clouds 25 1011 88 10000 6.36 157.429 14:58 09.10.2019
479 Clouds 25 1011 88 10000 6.36 157.429 14:58 09.10.2019
480 Clouds 25 1011 88 10000 6.36 157.429 14:40 09.10.2019
481 Clouds 25 1011 88 10000 6.36 157.429 14:18 09.10.2019
482 Clouds 25 1011 94 10000 1 200 13:40 09.10.2019
483 Clouds 25 1011 94 10000 1 200 13:21 09.10.2019
484 Clouds 25 1010 94 10000 7.05 149.588 12:59 09.10.2019
485 Clouds 25 1010 94 10000 7.05 149.588 12:40 09.10.2019
486 Clouds 25 1010 94 10000 6.62 174.341 12:21 09.10.2019
487 Clouds 26 1010 88 10000 1 200 11:55 09.10.2019
488 Clouds 26 1010 88 10000 1 200 11:36 09.10.2019
489 Clouds 26 1010 88 10000 1 200 11:18 09.10.2019
490 Clouds 26 1010 88 10000 1 200 11:18 09.10.2019
491 Clouds 28 1009 83 10000 1 180 10:43 09.10.2019
492 Clouds 28 1009 83 10000 1 180 10:21 09.10.2019
493 Clouds 28 1009 83 10000 1 180 09:57 09.10.2019
494 Clouds 28 1009 83 10000 1 180 09:57 09.10.2019
495 Clouds 28 1009 83 10000 1 180 09:38 09.10.2019
496 Clouds 28 1009 83 10000 1 180 09:18 09.10.2019
497 Clouds 29 1008 79 10000 1 180 08:40 09.10.2019
498 Clouds 29 1008 79 10000 1 180 08:21 09.10.2019
499 Clouds 29 1008 79 10000 7.49 208.374 07:54 09.10.2019
500 Clouds 29 1008 79 10000 7.49 208.374 07:36 09.10.2019
501 Clouds 29 1008 79 10000 7.49 208.374 07:18 09.10.2019
502 Thunderstorm 30 1008 74 10000 7.49 208.374 06:47 09.10.2019
503 Thunderstorm 30 1009 74 10000 1.6 6.332 05:55 09.10.2019
504 Clouds 30 1009 74 10000 2.6 50 05:19 09.10.2019
505 Thunderstorm 30 1010 74 10000 4.1 340 03:54 09.10.2019
506 Clouds 30 1011 74 10000 2.6 20 02:42 09.10.2019
507 Clouds 31 1011 74 10000 3.1 20 01:39 09.10.2019
508 Clouds 31 1011 74 10000 3.1 20 01:19 09.10.2019
509 Clouds 30 1012 74 10000 1.5 180 00:55 09.10.2019
510 Clouds 30 1012 74 10000 1.5 180 00:37 09.10.2019
511 Clouds 30 1012 74 10000 1.5 180 00:19 09.10.2019
512 Clouds 27 1011 83 10000 2.1 200 23:39 08.10.2019
513 Clouds 27 1011 83 10000 2.1 200 23:39 08.10.2019
514 Clouds 27 1011 83 10000 2.1 200 23:18 08.10.2019
515 Clouds 25 1010 94 10000 1.5 160 22:55 08.10.2019
516 Clouds 25 1010 94 10000 1.5 160 22:37 08.10.2019
517 Clouds 25 1010 94 10000 1.5 160 22:18 08.10.2019
518 Clouds 24 1009 94 10000 1 160 21:56 08.10.2019
519 Clouds 24 1009 94 10000 1 160 21:36 08.10.2019
520 Clouds 24 1009 94 10000 1 160 21:18 08.10.2019
521 Clouds 24 1009 94 10000 1 200 20:55 08.10.2019
522 Clouds 24 1009 94 10000 1 200 20:55 08.10.2019
523 Clouds 24 1009 94 10000 1 200 20:36 08.10.2019
524 Clouds 24 1009 94 10000 1 200 20:18 08.10.2019
525 Clouds 24 1008 94 10000 2.1 180 19:42 08.10.2019
526 Clouds 24 1008 94 10000 2.1 180 19:24 08.10.2019
527 Clouds 24 1008 100 10000 2.1 92.781 18:59 08.10.2019
528 Clouds 24 1008 100 10000 2.1 92.781 18:40 08.10.2019
529 Clouds 24 1008 100 10000 3.75 131.432 18:22 08.10.2019
530 Clouds 24 1009 100 10000 1.5 200 17:56 08.10.2019
531 Clouds 24 1009 100 10000 1.5 200 17:56 08.10.2019
532 Clouds 24 1009 100 10000 1.5 200 17:38 08.10.2019
533 Clouds 24 1009 100 10000 1.5 200 17:18 08.10.2019
534 Clouds 24 1010 100 10000 1 160 16:41 08.10.2019
535 Clouds 24 1010 100 10000 1 160 16:22 08.10.2019
536 Clouds 24 1010 100 10000 3.75 131.432 15:57 08.10.2019
537 Clouds 24 1010 100 10000 3.75 131.432 15:37 08.10.2019
538 Clouds 24 1010 100 10000 5.34 139.789 15:19 08.10.2019
539 Clouds 24 1010 100 10000 5.34 139.789 15:19 08.10.2019
540 Clouds 25 1011 94 10000 5.34 139.789 14:42 08.10.2019
541 Clouds 25 1011 94 10000 5.34 139.789 14:21 08.10.2019
542 Clouds 25 1011 100 10000 1.5 110 13:58 08.10.2019
543 Clouds 25 1011 100 10000 1.5 110 13:39 08.10.2019
544 Clouds 25 1011 100 10000 1.5 110 13:39 08.10.2019
545 Clouds 25 1011 100 10000 1.5 110 13:20 08.10.2019
546 Clouds 26 1010 94 10000 1.5 110 12:59 08.10.2019
547 Clouds 26 1010 94 10000 1.5 110 12:38 08.10.2019
548 Clouds 26 1010 94 10000 1.5 110 12:19 08.10.2019
549 Clouds 26 1010 94 10000 1.5 140 11:43 08.10.2019
550 Clouds 26 1010 94 10000 1.5 140 11:24 08.10.2019
551 Clouds 27 1009 88 10000 4.1 70 10:58 08.10.2019
552 Clouds 27 1009 88 10000 4.1 70 10:38 08.10.2019
553 Clouds 27 1009 88 10000 4.1 70 10:20 08.10.2019
554 Clouds 28 1009 83 10000 4.1 70 09:56 08.10.2019
555 Clouds 28 1009 83 10000 4.1 70 09:56 08.10.2019
556 Clouds 28 1009 83 10000 4.1 70 09:37 08.10.2019
557 Clouds 28 1009 83 10000 4.1 70 09:19 08.10.2019
558 Clouds 28 1008 83 10000 1.5 140 08:42 08.10.2019
559 Clouds 28 1008 83 10000 1.5 140 08:23 08.10.2019
560 Clouds 28 1008 83 10000 1.5 140 08:23 08.10.2019
561 Clouds 28 1008 83 10000 1.5 140 08:23 08.10.2019
562 Clouds 30 1007 70 10000 5.1 90 07:45 08.10.2019
563 Clouds 30 1007 70 10000 5.1 90 07:21 08.10.2019
564 Clouds 29 1007 79 10000 1.5 110 06:51 08.10.2019
565 Clouds 29 1007 79 10000 1.5 110 06:28 08.10.2019
566 Clouds 28 1008 83 10000 3.1 140 05:46 08.10.2019
567 Clouds 28 1008 83 10000 3.1 140 05:26 08.10.2019
568 Drizzle 28 1009 83 10000 5.1 140 04:31 08.10.2019
569 Thunderstorm 30 1009 79 10000 6.2 70 03:27 08.10.2019
570 Rain 31 1010 70 10000 6.2 70 02:36 08.10.2019
571 Clouds 31 1010 70 10000 4.1 70 01:47 08.10.2019
572 Clouds 31 1010 70 10000 4.1 70 01:27 08.10.2019
573 Clouds 29 1011 79 10000 3.6 50 00:46 08.10.2019
574 Clouds 29 1011 79 10000 3.6 50 00:20 08.10.2019
575 Clouds 27 1010 88 10000 7.19 140.471 23:39 07.10.2019
576 Clouds 27 1010 88 10000 7.19 140.471 23:20 07.10.2019
577 Clouds 24 1010 100 10000 7.19 140.471 22:56 07.10.2019
578 Clouds 24 1010 100 10000 7.19 140.471 22:38 07.10.2019
579 Clouds 24 1010 100 10000 7.19 140.471 22:19 07.10.2019
580 Clouds 24 1009 100 10000 1.5 140 21:55 07.10.2019
581 Clouds 24 1009 100 10000 1.5 140 21:37 07.10.2019
582 Clouds 24 1009 100 10000 1.5 140 21:18 07.10.2019
583 Clouds 24 1008 100 10000 6.97 137.22 20:57 07.10.2019
584 Clouds 24 1008 100 10000 6.97 137.22 20:38 07.10.2019
585 Clouds 24 1008 100 10000 6.97 137.22 20:19 07.10.2019
586 Clouds 24 1008 100 10000 6.97 137.22 19:55 07.10.2019
587 Clouds 24 1008 100 10000 6.97 137.22 19:54 07.10.2019
588 Clouds 24 1008 100 10000 6.97 137.22 19:54 07.10.2019
589 Clouds 24 1008 100 10000 6.97 137.22 19:36 07.10.2019
590 Clouds 24 1008 100 10000 6.97 137.22 19:18 07.10.2019
591 Clouds 24 1008 100 10000 6.97 137.22 18:41 07.10.2019
592 Clouds 24 1008 100 10000 6.7 134.425 18:19 07.10.2019
593 Clouds 25 1008 94 10000 6.7 134.425 17:58 07.10.2019
594 Clouds 25 1008 94 10000 6.7 134.425 17:40 07.10.2019
595 Clouds 25 1008 94 10000 6.7 134.425 17:18 07.10.2019
596 Clouds 25 1009 100 10000 6.7 134.425 16:44 07.10.2019
597 Clouds 25 1009 100 10000 6.7 134.425 16:26 07.10.2019
598 Clouds 26 1010 94 10000 6.7 134.425 15:57 07.10.2019
599 Clouds 26 1010 94 10000 6.7 134.425 15:57 07.10.2019
600 Clouds 26 1010 94 10000 6.7 134.425 15:38 07.10.2019
601 Clouds 26 1010 94 10000 6.93 135.392 15:20 07.10.2019
602 Clouds 25 1010 94 10000 2.1 230 14:41 07.10.2019
603 Clouds 25 1010 94 10000 2.1 230 14:23 07.10.2019
604 Clouds 26 1010 94 10000 1.5 200 13:45 07.10.2019
605 Clouds 26 1010 94 10000 1.5 200 13:21 07.10.2019
606 Clouds 26 1009 100 10000 3.1 70 12:57 07.10.2019
607 Clouds 26 1009 100 10000 3.1 70 12:57 07.10.2019
608 Clouds 26 1009 100 10000 3.1 70 12:39 07.10.2019
609 Clouds 26 1009 100 10000 3.1 70 12:20 07.10.2019
610 Clouds 26 1009 100 10000 3.1 70 12:20 07.10.2019
611 Clouds 27 1009 94 10000 3.6 140 11:59 07.10.2019
612 Clouds 27 1009 94 10000 3.6 140 11:39 07.10.2019
613 Clouds 27 1009 94 10000 3.6 140 11:20 07.10.2019
614 Clouds 29 1008 83 10000 3.6 110 10:42 07.10.2019
615 Clouds 29 1008 83 10000 3.6 110 10:21 07.10.2019
616 Clouds 29 1007 83 10000 5.1 90 09:56 07.10.2019
617 Clouds 29 1007 83 10000 5.1 90 09:38 07.10.2019
618 Clouds 29 1007 83 10000 5.1 90 09:19 07.10.2019
619 Clouds 30 1006 74 10000 4.6 70 08:42 07.10.2019
620 Clouds 30 1006 74 10000 4.6 70 08:20 07.10.2019
621 Clouds 31 1006 74 10000 2.6 230 07:46 07.10.2019
622 Clouds 31 1006 74 10000 2.6 230 07:27 07.10.2019
623 Rain 32 1006 70 10000 4.1 50 06:57 07.10.2019
624 Rain 32 1006 70 10000 4.1 50 06:38 07.10.2019
625 Rain 32 1007 70 10000 4.6 70 05:56 07.10.2019
626 Rain 32 1007 70 10000 4.6 70 05:25 07.10.2019
627 Rain 31 1008 79 10000 5.7 50 04:47 07.10.2019
628 Clouds 30 1010 79 10000 3.6 340 03:45 07.10.2019
629 Clouds 30 1010 79 10000 3.6 340 03:45 07.10.2019
630 Clouds 30 1010 79 10000 3.6 340 03:23 07.10.2019
631 Rain 30 1010 74 10000 2.6 340 02:23 07.10.2019
632 Rain 30 1010 74 10000 2.6 340 02:23 07.10.2019
633 Rain 31 1011 70 10000 3.6 20 01:58 07.10.2019
634 Rain 31 1011 70 10000 3.6 20 01:23 07.10.2019
635 Rain 31 1011 70 10000 1.5 140 00:45 07.10.2019
636 Rain 31 1011 70 10000 1.5 140 00:23 07.10.2019
637 Clouds 27 1011 88 10000 1 160 23:56 06.10.2019
638 Clouds 27 1011 88 10000 1 160 23:38 06.10.2019
639 Clouds 27 1011 88 10000 1 160 23:18 06.10.2019
640 Clouds 25 1010 94 10000 1.5 180 22:42 06.10.2019
641 Clouds 25 1010 94 10000 1.5 180 22:22 06.10.2019
642 Clouds 24 1010 94 10000 6.37 142.59 21:58 06.10.2019
643 Clouds 24 1010 94 10000 6.37 142.59 21:58 06.10.2019
644 Clouds 24 1010 94 10000 6.37 142.59 21:38 06.10.2019
645 Clouds 24 1010 94 10000 8.21 141.307 21:19 06.10.2019
646 Clouds 24 1009 94 10000 8.21 141.307 20:59 06.10.2019
647 Clouds 24 1009 94 10000 8.21 141.307 20:59 06.10.2019
648 Clouds 24 1009 94 10000 7.71 143.621 20:40 06.10.2019
649 Clouds 24 1009 94 10000 7.71 143.621 20:21 06.10.2019
650 Clouds 24 1008 100 10000 1 90 19:58 06.10.2019
651 Clouds 24 1008 100 10000 1 90 19:38 06.10.2019
652 Clouds 24 1008 100 10000 1 90 19:20 06.10.2019
653 Rain 27 1010 81 0 7.71 143.621 18:57 06.10.2019
654 Rain 27 1010 81 0 7.71 143.621 18:39 06.10.2019
655 Clouds 25 1009 94 10000 6.87 137.904 18:20 06.10.2019
656 Clouds 25 1009 94 10000 6.87 137.904 17:59 06.10.2019
657 Clouds 25 1009 94 10000 6.87 137.904 17:39 06.10.2019
658 Clouds 25 1009 94 10000 6.87 137.904 17:19 06.10.2019
659 Clouds 26 1010 94 10000 6.87 137.904 16:43 06.10.2019
660 Clouds 26 1010 94 10000 6.87 137.904 16:24 06.10.2019
661 Clouds 26 1010 94 10000 6.87 137.904 16:24 06.10.2019
662 Clouds 26 1010 88 10000 6.87 137.904 15:59 06.10.2019
663 Clouds 26 1010 88 10000 6.87 137.904 15:41 06.10.2019
664 Clouds 26 1010 88 10000 6.03 137.044 15:19 06.10.2019
665 Clouds 26 1011 94 10000 2.1 180 14:43 06.10.2019
666 Clouds 26 1011 94 10000 2.1 180 14:24 06.10.2019
667 Clouds 26 1011 94 10000 1.5 140 13:58 06.10.2019
668 Clouds 26 1011 94 10000 1.5 140 13:39 06.10.2019
669 Clouds 26 1011 94 10000 1.5 140 13:20 06.10.2019
670 Clouds 26 1011 94 10000 1.5 140 13:20 06.10.2019
671 Clouds 26 1011 94 10000 1 160 12:57 06.10.2019
672 Clouds 26 1011 94 10000 1 160 12:57 06.10.2019
673 Clouds 26 1011 94 10000 1 160 12:57 06.10.2019
674 Clouds 26 1011 94 10000 1 160 12:39 06.10.2019
675 Clouds 26 1011 94 10000 1 160 12:20 06.10.2019
676 Clouds 27 1010 88 10000 1.5 160 11:56 06.10.2019
677 Clouds 27 1010 88 10000 1.5 160 11:37 06.10.2019
678 Clouds 27 1010 88 10000 1.5 160 11:18 06.10.2019
679 Clouds 27 1009 94 10000 1 230 10:43 06.10.2019
680 Clouds 27 1009 94 10000 1 230 10:25 06.10.2019
681 Clouds 29 1009 79 10000 1 340 09:58 06.10.2019
682 Clouds 29 1009 79 10000 1 340 09:39 06.10.2019
683 Clouds 29 1009 79 10000 1 340 09:18 06.10.2019
684 Clouds 31 1008 66 10000 2.6 70 08:43 06.10.2019
685 Clouds 31 1008 66 10000 2.6 70 08:20 06.10.2019
686 Clouds 31 1008 70 10000 5.1 70 07:44 06.10.2019
687 Clouds 31 1008 70 10000 5.1 70 07:19 06.10.2019
688 Clouds 30 1008 74 10000 4.1 50 06:20 06.10.2019
689 Clouds 31 1008 70 10000 5.1 70 05:33 06.10.2019
690 Clouds 30 1010 74 10000 4.1 50 03:41 06.10.2019
691 Clouds 30 1010 70 10000 3.1 20 02:42 06.10.2019
692 Clouds 30 1010 70 10000 3.1 20 02:20 06.10.2019
693 Clouds 30 1011 70 10000 1.5 20 01:40 06.10.2019
694 Clouds 30 1011 70 10000 1.5 20 01:21 06.10.2019
695 Clouds 30 1011 74 10000 2.44 160.672 00:46 06.10.2019
696 Clouds 30 1011 74 10000 2.44 160.672 00:25 06.10.2019
697 Clouds 27 1011 78 10000 1 180 23:44 05.10.2019
698 Clouds 27 1011 78 10000 1 180 23:22 05.10.2019
699 Clouds 24 1011 94 10000 1.52 135.905 22:58 05.10.2019
700 Clouds 24 1011 94 10000 1.52 135.905 22:39 05.10.2019
701 Clouds 24 1011 94 10000 1.52 135.905 22:20 05.10.2019
702 Clouds 23 1011 94 10000 1.52 135.905 21:43 05.10.2019
703 Clouds 23 1011 94 10000 1.52 135.905 21:24 05.10.2019
704 Clouds 23 1010 100 10000 1.31 78.501 20:59 05.10.2019
705 Clouds 23 1010 100 10000 1.4 68.312 20:40 05.10.2019
706 Clouds 23 1010 100 10000 1.4 68.312 20:20 05.10.2019
707 Clouds 23 1009 100 10000 1.5 230 19:58 05.10.2019
708 Clouds 23 1009 100 10000 1.5 230 19:37 05.10.2019
709 Clouds 23 1009 100 10000 1.5 230 19:18 05.10.2019
710 Clouds 23 1010 100 10000 1.5 200 18:55 05.10.2019
711 Clouds 23 1010 100 10000 1.5 200 18:36 05.10.2019
712 Clouds 23 1010 100 10000 1.5 200 18:18 05.10.2019
713 Clouds 23 1010 100 10000 2.1 140 17:42 05.10.2019
714 Clouds 23 1010 100 10000 2.1 140 17:22 05.10.2019
715 Clouds 24 1012 100 10000 1.41 89.43 16:56 05.10.2019
716 Clouds 24 1012 100 10000 1.41 89.43 16:37 05.10.2019
717 Clouds 24 1012 100 10000 1.41 89.43 16:18 05.10.2019
718 Clouds 24 1012 100 10000 1.41 89.43 15:56 05.10.2019
719 Clouds 24 1012 100 10000 1.41 89.43 15:37 05.10.2019
720 Clouds 24 1012 100 10000 1.37 77.748 15:19 05.10.2019
721 Clouds 25 1012 94 10000 1.37 77.748 14:42 05.10.2019
722 Clouds 25 1012 94 10000 1.37 77.748 14:23 05.10.2019
723 Clouds 25 1012 94 10000 2.1 180 13:44 05.10.2019
724 Clouds 25 1012 94 10000 2.1 180 13:26 05.10.2019
725 Clouds 26 1012 94 10000 2.1 160 12:59 05.10.2019
726 Clouds 26 1012 94 10000 2.1 160 12:41 05.10.2019
727 Clouds 26 1012 94 10000 2.1 160 12:19 05.10.2019
728 Clouds 27 1011 78 10000 1.5 140 11:41 05.10.2019
729 Clouds 27 1011 78 10000 1.5 140 11:20 05.10.2019
730 Clouds 27 1010 83 10000 2.1 200 10:57 05.10.2019
731 Clouds 27 1010 83 10000 2.1 200 10:38 05.10.2019
732 Clouds 27 1010 83 10000 2.1 200 10:38 05.10.2019
733 Clouds 27 1010 83 10000 2.1 200 10:19 05.10.2019
734 Clouds 29 1009 79 10000 1.5 360 09:40 05.10.2019
735 Clouds 29 1009 79 10000 1.5 360 09:22 05.10.2019
736 Clouds 30 1009 70 10000 3.1 340 08:42 05.10.2019
737 Clouds 30 1009 70 10000 3.1 340 08:22 05.10.2019
738 Clouds 31 1008 66 10000 3.1 340 07:59 05.10.2019
739 Clouds 31 1008 66 10000 3.1 340 07:38 05.10.2019
740 Clouds 31 1008 66 10000 3.1 340 07:19 05.10.2019
741 Clouds 31 1008 66 10000 3.6 360 06:29 05.10.2019
742 Clouds 31 1008 66 10000 3.6 360 06:29 05.10.2019
743 Clouds 31 1008 66 10000 3.6 340 05:59 05.10.2019
744 Clouds 31 1009 70 10000 4.6 360 04:42 05.10.2019
745 Clouds 31 1010 66 10000 3.6 360 03:29 05.10.2019
746 Clouds 31 1011 70 10000 3.6 20 01:55 05.10.2019
747 Clouds 31 1011 70 10000 3.6 20 01:23 05.10.2019
748 Clouds 30 1011 70 10000 3.1 70 00:46 05.10.2019
749 Clouds 30 1011 70 10000 3.1 70 00:27 05.10.2019
750 Clouds 28 1011 78 10000 1.5 160 23:45 04.10.2019
751 Clouds 28 1011 78 10000 1.5 160 23:26 04.10.2019
752 Clouds 24 1010 100 10000 2.27 78.571 22:59 04.10.2019
753 Clouds 24 1010 100 10000 2.27 78.571 22:41 04.10.2019
754 Clouds 24 1010 100 10000 2.27 78.571 22:22 04.10.2019
755 Clouds 22 1010 100 10000 1.5 180 21:58 04.10.2019
756 Clouds 22 1010 100 10000 1.5 180 21:39 04.10.2019
757 Clouds 22 1010 100 10000 1.5 180 21:21 04.10.2019
758 Clouds 23 1010 94 10000 1 200 20:57 04.10.2019
759 Clouds 23 1010 94 10000 1 200 20:57 04.10.2019
760 Clouds 23 1010 94 10000 1 200 20:38 04.10.2019
761 Clouds 23 1010 94 10000 1 200 20:38 04.10.2019
762 -273 0 0 0 0 0 20:20 04.10.2019
763 Clouds 23 1009 100 10000 2.22 53.089 19:48 04.10.2019
764 Clouds 23 1009 100 10000 2.22 53.089 19:29 04.10.2019
765 Clouds 23 1009 100 10000 1 160 18:59 04.10.2019
766 Clouds 23 1009 100 10000 1 160 18:38 04.10.2019
767 Clouds 23 1009 100 10000 1 160 18:19 04.10.2019
768 Clouds 24 1010 94 10000 1.5 110 17:55 04.10.2019
769 Clouds 24 1010 94 10000 1.5 110 17:36 04.10.2019
770 Clouds 24 1010 94 10000 1.5 110 17:18 04.10.2019
771 Clouds 24 1010 100 10000 1.5 160 16:41 04.10.2019
772 Clouds 24 1010 100 10000 1.5 160 16:19 04.10.2019
773 Clouds 24 1011 100 10000 1.5 160 15:58 04.10.2019
774 Clouds 24 1011 100 10000 1.5 160 15:40 04.10.2019
775 Clouds 24 1011 100 10000 1.5 160 15:21 04.10.2019
776 Clouds 25 1011 94 10000 1.5 160 14:58 04.10.2019
777 Clouds 25 1011 94 10000 1.5 160 14:58 04.10.2019
778 Clouds 25 1011 94 10000 1.5 160 14:39 04.10.2019
779 Clouds 25 1011 94 10000 1.5 160 14:21 04.10.2019
780 Clouds 26 1011 94 10000 1 110 13:46 04.10.2019
781 Clouds 26 1011 94 10000 1 110 13:24 04.10.2019
782 Clouds 26 1011 94 10000 1 160 12:58 04.10.2019
783 Clouds 26 1011 94 10000 1 160 12:40 04.10.2019
784 Clouds 26 1011 94 10000 1 160 12:21 04.10.2019
785 Clouds 27 1010 88 10000 1.5 110 11:43 04.10.2019
786 Clouds 27 1010 88 10000 1.5 110 11:43 04.10.2019
787 Clouds 27 1010 88 10000 1.5 110 11:42 04.10.2019
788 Clouds 27 1010 88 10000 1.5 110 11:22 04.10.2019
789 Clouds 28 1009 78 10000 2.79 167.291 10:55 04.10.2019
790 Clouds 28 1009 78 10000 2.79 167.291 10:37 04.10.2019
791 Clouds 28 1009 78 10000 2.79 167.291 10:18 04.10.2019
792 Clouds 29 1009 74 10000 3.1 70 09:41 04.10.2019
793 Clouds 29 1009 74 10000 3.1 70 09:23 04.10.2019
794 Clouds 30 1008 70 10000 3.6 70 08:45 04.10.2019
795 Clouds 30 1008 70 10000 3.6 70 08:26 04.10.2019
796 Clouds 31 1007 70 10000 3.1 50 07:47 04.10.2019
797 Clouds 31 1007 70 10000 3.1 50 07:26 04.10.2019
798 Clouds 31 1007 70 10000 5.1 110 06:58 04.10.2019
799 Clouds 31 1007 70 10000 5.1 110 06:39 04.10.2019
800 Clouds 31 1007 70 10000 5.1 110 06:20 04.10.2019
801 Clouds 31 1007 70 10000 5.1 110 06:20 04.10.2019
802 Clouds 31 1007 66 10000 3.1 110 05:20 04.10.2019
803 Clouds 29 1008 83 10000 2.1 160 04:37 04.10.2019
804 Clouds 31 1011 70 10000 3.1 70 02:56 04.10.2019
805 Clouds 31 1011 70 10000 3.1 70 02:56 04.10.2019
806 Clouds 31 1011 70 10000 3.1 70 02:37 04.10.2019
807 Clouds 31 1011 70 10000 3.1 70 02:37 04.10.2019
808 Clouds 30 1011 74 10000 4.6 110 01:43 04.10.2019
809 Clouds 30 1011 74 10000 4.6 110 01:25 04.10.2019
810 Clouds 29 1011 74 10000 2.6 110 00:29 04.10.2019
811 Clouds 26 1010 83 10000 1.5 140 23:38 03.10.2019
812 Clouds 26 1010 83 10000 1.5 140 23:20 03.10.2019
813 Clouds 24 1010 94 10000 1 140 22:57 03.10.2019
814 Clouds 24 1010 94 10000 1 140 22:39 03.10.2019
815 Clouds 24 1010 94 10000 1 140 22:39 03.10.2019
816 Clouds 24 1010 94 10000 1 140 22:21 03.10.2019
817 Clouds 23 1009 94 10000 1.5 140 21:56 03.10.2019
818 Clouds 23 1009 94 10000 1.5 140 21:38 03.10.2019
819 Clouds 23 1009 94 10000 1.5 140 21:19 03.10.2019
820 Clouds 23 1009 94 10000 1.5 140 20:57 03.10.2019
821 Clouds 23 1009 94 10000 1.5 140 20:37 03.10.2019
822 Clouds 23 1009 94 10000 1.5 140 20:19 03.10.2019
823 Clouds 23 1009 100 10000 1 140 19:55 03.10.2019
824 Clouds 23 1009 100 10000 1 140 19:36 03.10.2019
825 Clouds 23 1009 100 10000 1 140 19:18 03.10.2019
826 Clouds 23 1009 100 10000 1 160 18:40 03.10.2019
827 Clouds 23 1009 100 10000 1 160 18:19 03.10.2019
828 Clouds 24 1009 94 10000 1 160 17:59 03.10.2019
829 Clouds 24 1009 94 10000 1 160 17:41 03.10.2019
830 Clouds 24 1009 94 10000 1 160 17:20 03.10.2019
831 Clouds 27 1009 73 0 2.61 149.462 16:44 03.10.2019
832 Clouds 25 1010 94 10000 1.5 160 16:26 03.10.2019
833 Clouds 25 1010 94 10000 1.5 160 15:57 03.10.2019
834 Clouds 25 1010 94 10000 1.5 160 15:39 03.10.2019
835 Clouds 25 1010 94 10000 1.5 160 15:21 03.10.2019
836 Clouds 25 1010 94 10000 1 160 14:47 03.10.2019
837 Clouds 25 1010 94 10000 1 160 14:27 03.10.2019
838 Clouds 25 1010 94 10000 1.5 160 13:59 03.10.2019
839 Clouds 25 1010 94 10000 1.5 160 13:41 03.10.2019
840 Clouds 25 1010 94 10000 1.5 160 13:19 03.10.2019
841 Rain 27 1011 74 0 1.94 67.814 12:56 03.10.2019
842 Rain 27 1011 74 0 1.94 67.814 12:38 03.10.2019
843 Clouds 26 1009 88 10000 4.75 137.323 12:19 03.10.2019
844 Clouds 26 1009 88 10000 4.75 137.323 11:41 03.10.2019
845 Clouds 26 1009 88 10000 4.75 137.323 11:41 03.10.2019
846 Clouds 26 1009 88 10000 4.75 137.323 11:23 03.10.2019
847 Rain 27 1010 77 0 4.75 137.323 10:59 03.10.2019
848 Rain 27 1010 77 0 4.75 137.323 10:40 03.10.2019
849 Rain 28 1008 78 10000 3.1 110 10:19 03.10.2019
850 Rain 28 1008 78 10000 3.1 110 09:58 03.10.2019
851 Rain 28 1008 78 10000 3.1 110 09:40 03.10.2019
852 Rain 28 1008 78 10000 3.1 110 09:20 03.10.2019
853 Clouds 28 1008 88 10000 5.1 90 08:45 03.10.2019
854 Clouds 28 1008 88 10000 5.1 90 08:27 03.10.2019
855 Rain 31 1007 66 10000 5.1 110 07:57 03.10.2019
856 Rain 31 1007 66 10000 5.1 110 07:39 03.10.2019
857 Rain 31 1007 66 10000 5.1 110 07:19 03.10.2019
858 Rain 31 1007 66 10000 5.1 110 07:19 03.10.2019
859 Rain 30 1007 66 10000 6.2 110 06:47 03.10.2019
860 Rain 30 1007 66 10000 6.2 110 06:24 03.10.2019
861 Clouds 32 1008 59 10000 6.2 90 05:44 03.10.2019
862 Clouds 31 1009 62 10000 2.6 90 04:56 03.10.2019
863 Clouds 31 1009 62 10000 2.6 90 04:25 03.10.2019
864 Clouds 31 1010 66 10000 4.6 110 03:23 03.10.2019
865 Clouds 31 1011 66 10000 5.1 110 02:38 03.10.2019
866 Clouds 30 1011 70 10000 6.2 140 01:51 03.10.2019
867 Clouds 30 1011 70 10000 6.2 140 01:32 03.10.2019
868 Rain 29 1011 74 10000 49.4 140 00:47 03.10.2019
869 Rain 29 1011 74 10000 49.4 140 00:18 03.10.2019
870 Clouds 26 1011 78 10000 3.6 140 23:43 02.10.2019
871 Clouds 26 1011 78 10000 3.6 140 23:21 02.10.2019
872 Clouds 24 1010 94 10000 2.6 140 22:44 02.10.2019
873 Clouds 24 1010 94 10000 2.6 140 22:44 02.10.2019
874 Clouds 24 1010 94 10000 2.6 140 22:21 02.10.2019
875 Clouds 23 1010 94 10000 2.6 140 21:56 02.10.2019
876 Clouds 23 1010 94 10000 2.6 140 21:56 02.10.2019
877 Clouds 23 1010 94 10000 2.6 140 21:38 02.10.2019
878 Clouds 23 1010 94 10000 2.6 140 21:20 02.10.2019
879 Clouds 23 1009 94 10000 3.1 160 20:56 02.10.2019
880 Clouds 23 1009 94 10000 3.1 160 20:38 02.10.2019
881 Clouds 23 1009 94 10000 3.1 160 20:20 02.10.2019
882 Clouds 23 1009 100 10000 2.84 79.269 19:54 02.10.2019
883 Clouds 23 1009 100 10000 2.84 79.269 19:54 02.10.2019
884 Clouds 23 1009 100 10000 2.84 79.269 19:36 02.10.2019
885 Clouds 23 1009 100 10000 2.84 79.269 19:18 02.10.2019
886 Clouds 23 1009 100 10000 2.84 79.269 18:42 02.10.2019
887 Clouds 23 1009 100 10000 4.64 104.573 18:22 02.10.2019
888 Clouds 24 1009 94 10000 4.64 104.573 17:59 02.10.2019
889 Clouds 24 1009 94 10000 4.64 104.573 17:40 02.10.2019
890 Clouds 24 1009 94 10000 4.64 104.573 17:21 02.10.2019
891 Clouds 23 1010 100 10000 4.64 104.573 16:58 02.10.2019
892 Clouds 23 1010 100 10000 4.64 104.573 16:38 02.10.2019
893 Clouds 24 1011 94 10000 4.64 104.573 16:20 02.10.2019
894 Clouds 24 1011 94 10000 4.64 104.573 15:56 02.10.2019
895 Clouds 24 1011 94 10000 4.64 104.573 15:37 02.10.2019
896 Clouds 24 1011 94 10000 4.77 160.604 15:18 02.10.2019
897 Clouds 24 1012 88 10000 1.5 160 14:43 02.10.2019
898 Clouds 24 1012 88 10000 1.5 160 14:23 02.10.2019
899 Clouds 24 1012 94 10000 2.6 110 13:57 02.10.2019
900 Clouds 24 1012 94 10000 2.6 110 13:38 02.10.2019
901 Clouds 24 1012 94 10000 2.6 110 13:20 02.10.2019
902 Clouds 25 1012 88 10000 2.1 110 12:40 02.10.2019
903 Clouds 25 1012 88 10000 2.1 110 12:22 02.10.2019
904 Clouds 25 1011 88 10000 1 140 11:58 02.10.2019
905 Clouds 25 1011 88 10000 1 140 11:40 02.10.2019
906 Clouds 25 1011 88 10000 1 140 11:18 02.10.2019
907 Clouds 26 1011 83 10000 3.6 110 10:38 02.10.2019
908 Clouds 26 1011 83 10000 3.6 110 10:19 02.10.2019
909 Clouds 27 1009 74 10000 4.1 110 09:40 02.10.2019
910 Clouds 27 1009 74 10000 4.1 110 09:20 02.10.2019
911 Clouds 29 1009 70 10000 6.2 90 08:55 02.10.2019
912 Clouds 29 1009 70 10000 6.2 90 08:36 02.10.2019
913 Clouds 29 1009 70 10000 6.2 90 08:18 02.10.2019
914 Clouds 29 1008 74 10000 6.2 90 07:39 02.10.2019
915 Clouds 29 1008 74 10000 6.2 90 07:21 02.10.2019
916 Clouds 31 1009 66 10000 8.7 70 06:47 02.10.2019
917 Clouds 31 1010 62 10000 7.7 70 05:56 02.10.2019
918 Clouds 31 1010 62 10000 7.7 70 05:25 02.10.2019
919 Rain 25 1010 82 0 3.81 59.542 04:53 02.10.2019
920 Clouds 30 1011 74 10000 6.2 70 03:52 02.10.2019
921 Clouds 29 1012 79 10000 4.6 70 02:43 02.10.2019
922 Clouds 29 1012 79 10000 4.6 70 02:23 02.10.2019
923 Clouds 30 1011 66 10000 4.1 70 01:40 02.10.2019
924 Clouds 27 1011 88 10000 2.6 140 00:50 02.10.2019
925 Clouds 27 1011 88 10000 2.6 140 00:27 02.10.2019
926 Clouds 25 1012 88 10000 1.5 160 23:44 01.10.2019
927 Clouds 25 1012 88 10000 1.5 160 23:25 01.10.2019
928 Clouds 23 1011 100 10000 1 110 22:59 01.10.2019
929 Clouds 23 1011 100 10000 1 110 22:40 01.10.2019
930 Clouds 23 1011 100 10000 1 110 22:20 01.10.2019
931 Clouds 23 1011 100 10000 1 110 21:57 01.10.2019
932 Clouds 23 1011 100 10000 1 110 21:39 01.10.2019
933 Clouds 23 1011 100 10000 1 110 21:20 01.10.2019
934 Clouds 24 1011 94 10000 4.6 110 20:56 01.10.2019
935 Clouds 24 1011 94 10000 4.6 110 20:38 01.10.2019
936 Clouds 24 1011 94 10000 4.6 110 20:19 01.10.2019
937 Clouds 23 1011 100 10000 2.1 200 19:56 01.10.2019
938 Clouds 23 1011 100 10000 2.1 200 19:38 01.10.2019
939 Clouds 23 1011 100 10000 2.1 200 19:18 01.10.2019
940 Clouds 23 1011 100 10000 1 140 18:40 01.10.2019
941 Clouds 23 1011 100 10000 1 140 18:21 01.10.2019
942 Clouds 23 1011 100 10000 1 140 17:58 01.10.2019
943 Clouds 23 1011 100 10000 1.5 140 17:39 01.10.2019
944 Clouds 23 1011 100 10000 1.5 140 17:19 01.10.2019
945 Clouds 23 1011 100 10000 2.1 140 16:57 01.10.2019
946 Clouds 23 1011 100 10000 2.1 140 16:39 01.10.2019
947 Clouds 23 1011 100 10000 2.1 140 16:20 01.10.2019
948 Drizzle 23 1012 100 10000 2.1 140 15:42 01.10.2019
949 Drizzle 23 1012 100 10000 2.1 140 15:22 01.10.2019
950 Drizzle 23 1013 100 10000 2.1 140 14:41 01.10.2019
951 Drizzle 23 1013 100 10000 2.1 140 14:20 01.10.2019
952 Drizzle 23 1013 100 10000 2.1 140 14:20 01.10.2019
953 Clouds 23 1013 100 10000 1.5 140 13:58 01.10.2019
954 Clouds 23 1013 100 10000 1.5 140 13:39 01.10.2019
955 Clouds 23 1013 100 10000 1.5 140 13:39 01.10.2019
956 Clouds 23 1013 100 10000 1.5 140 13:39 01.10.2019
957 Clouds 23 1013 100 10000 1.5 140 13:39 01.10.2019
958 Clouds 23 1013 100 10000 1.5 140 13:20 01.10.2019
959 Clouds 23 1012 100 10000 1 180 12:57 01.10.2019
960 Clouds 23 1012 100 10000 1 180 12:39 01.10.2019
961 Clouds 23 1012 100 10000 1 180 12:39 01.10.2019
962 Clouds 24 1012 94 10000 1 360 12:18 01.10.2019
963 Clouds 24 1012 94 10000 1 360 11:57 01.10.2019
964 Clouds 24 1012 94 10000 1 360 11:37 01.10.2019
965 Clouds 24 1012 94 10000 1 360 11:18 01.10.2019
966 Drizzle 24 1012 94 10000 1 160 10:48 01.10.2019
967 Drizzle 24 1012 94 10000 1 160 10:28 01.10.2019
968 Rain 24 1011 94 0 3.6 110 09:47 01.10.2019
969 Rain 24 1011 94 0 3.6 110 09:27 01.10.2019
970 Thunderstorm 24 1011 100 10000 3.6 140 08:46 01.10.2019
971 Thunderstorm 24 1011 100 10000 3.6 140 08:28 01.10.2019
972 Thunderstorm 25 1010 94 0 4.6 110 07:59 01.10.2019
973 Thunderstorm 25 1010 94 0 3.6 140 07:41 01.10.2019
974 Thunderstorm 25 1010 94 0 3.6 140 07:20 01.10.2019
975 Rain 26 1010 94 10000 4.1 110 06:43 01.10.2019
976 Clouds 30 1010 70 10000 5.1 110 06:18 01.10.2019
977 Clouds 30 1010 70 10000 5.1 110 05:45 01.10.2019
978 Clouds 30 1011 74 10000 5.7 90 04:46 01.10.2019
979 Clouds 30 1011 79 10000 1.94 281.988 03:49 01.10.2019
980 Clouds 29 1012 79 10000 3.6 90 02:20 01.10.2019
981 Drizzle 26 1012 94 10000 1.5 160 01:56 01.10.2019
982 Clouds 25 1012 94 10000 2.1 180 00:52 01.10.2019
983 Clouds 25 1012 94 10000 2.1 180 00:26 01.10.2019
984 Drizzle 23 1013 94 10000 1.5 180 23:42 30.09.2019
985 Drizzle 23 1013 94 10000 1.5 180 23:42 30.09.2019
986 Drizzle 23 1013 94 10000 1.5 180 23:23 30.09.2019
987 Clouds 23 1012 94 10000 1 140 22:59 30.09.2019
988 Clouds 23 1012 94 10000 1 140 22:59 30.09.2019
989 Clouds 23 1012 94 10000 1 140 22:40 30.09.2019
990 Clouds 23 1012 94 10000 1 140 22:21 30.09.2019
991 Clouds 22 1011 100 10000 2.1 200 21:55 30.09.2019
992 Clouds 22 1011 100 10000 2.1 200 21:37 30.09.2019
993 Clouds 22 1011 100 10000 2.1 200 21:19 30.09.2019
994 Clouds 22 1010 100 10000 1.86 97.613 20:55 30.09.2019
995 Clouds 22 1010 100 10000 1.6 132.541 20:37 30.09.2019
996 Clouds 22 1010 100 10000 1.6 132.541 20:19 30.09.2019
997 Clouds 22 1010 100 10000 1.6 132.541 20:19 30.09.2019
998 Clouds 22 1010 100 10000 1.6 132.541 19:55 30.09.2019
999 Clouds 22 1010 100 10000 1.6 132.541 19:37 30.09.2019
1000 Clouds 22 1010 94 10000 1.6 132.541 19:18 30.09.2019
1001 Clouds 22 1010 94 10000 1.6 132.541 19:18 30.09.2019
1002 Clouds 22 1010 94 10000 1.6 132.541 19:18 30.09.2019
1003 Clouds 22 1010 94 10000 1.6 132.541 18:41 30.09.2019
1004 Clouds 23 1011 94 10000 2.1 200 18:22 30.09.2019
1005 Clouds 23 1011 94 10000 2.1 200 17:57 30.09.2019
1006 Clouds 23 1011 94 10000 2.1 200 17:39 30.09.2019
1007 Clouds 23 1011 94 10000 2.1 200 17:20 30.09.2019
1008 Clouds 23 1012 100 10000 2.51 125.458 16:54 30.09.2019
1009 Clouds 23 1012 100 10000 2.51 125.458 16:36 30.09.2019
1010 Clouds 23 1012 100 10000 2.51 125.458 16:18 30.09.2019
1011 Clouds 23 1012 100 10000 2.51 125.458 16:18 30.09.2019
1012 Clouds 23 1012 100 10000 2.51 125.458 15:39 30.09.2019
1013 Clouds 23 1012 100 10000 2.51 125.458 15:39 30.09.2019
1014 Clouds 23 1012 100 10000 3.92 134.586 15:20 30.09.2019
1015 Clouds 23 1012 94 10000 1.5 160 14:59 30.09.2019
1016 Clouds 23 1012 94 10000 1.5 160 14:38 30.09.2019
1017 Clouds 23 1012 94 10000 1.5 160 14:19 30.09.2019
1018 Clouds 23 1012 94 10000 1.5 110 14:00 30.09.2019
1019 Clouds 23 1012 94 10000 1.5 110 13:41 30.09.2019
1020 Drizzle 23 1012 94 10000 2.1 160 13:22 30.09.2019
1021 Drizzle 23 1012 94 10000 2.1 160 12:56 30.09.2019
1022 Drizzle 23 1012 94 10000 2.1 160 12:38 30.09.2019
1023 Clouds 24 1012 88 0 4.1 140 12:18 30.09.2019
1024 Clouds 24 1012 88 0 4.1 140 11:43 30.09.2019
1025 Clouds 24 1012 88 0 4.1 140 11:21 30.09.2019
1026 Clouds 23 1012 94 0 5.1 140 10:57 30.09.2019
1027 Clouds 23 1012 94 10000 5.1 140 10:37 30.09.2019
1028 Clouds 23 1012 94 10000 5.1 140 10:18 30.09.2019
1029 Clouds 23 1012 94 10000 5.1 140 10:18 30.09.2019
1030 Clouds 24 1013 94 0 8.7 110 09:55 30.09.2019
1031 Clouds 25 1012 94 0 12.3 90 09:36 30.09.2019
1032 Clouds 25 1012 94 0 12.3 90 09:18 30.09.2019
1033 Clouds 29 1010 74 10000 5.7 90 08:45 30.09.2019
1034 Clouds 29 1010 74 10000 5.7 90 08:27 30.09.2019
1035 Clouds 30 1009 70 10000 5.7 90 07:40 30.09.2019
1036 Clouds 30 1009 70 10000 5.7 90 07:40 30.09.2019
1037 Clouds 30 1009 70 10000 5.7 90 07:18 30.09.2019
1038 Clouds 30 1009 70 10000 5.7 90 06:42 30.09.2019
1039 Clouds 31 1010 66 10000 7.7 90 06:23 30.09.2019
1040 Clouds 31 1010 66 10000 7.7 90 05:40 30.09.2019
1041 Clouds 26 1013 88 10000 2.1 160 02:53 30.09.2019
1042 Clouds 26 1013 88 10000 2.1 160 02:25 30.09.2019
1043 Drizzle 25 1014 94 10000 1 140 01:24 30.09.2019
1044 Drizzle 25 1014 94 10000 2.6 110 00:38 30.09.2019
1045 Drizzle 25 1014 94 10000 2.6 110 00:19 30.09.2019
1046 Drizzle 24 1013 100 10000 3.19 105.49 23:42 29.09.2019
1047 Drizzle 24 1013 100 10000 3.19 105.49 23:21 29.09.2019
1048 Clouds 24 1012 100 10000 1.5 110 22:45 29.09.2019
1049 Clouds 24 1012 100 10000 1.5 110 22:25 29.09.2019
1050 Clouds 24 1012 100 10000 2.6 50 21:59 29.09.2019
1051 Clouds 24 1012 100 10000 2.6 50 21:39 29.09.2019
1052 Clouds 24 1012 100 10000 2.6 50 21:20 29.09.2019
1053 Clouds 24 1011 100 10000 3.1 160 20:59 29.09.2019
1054 Clouds 24 1011 100 10000 3.1 160 20:41 29.09.2019
1055 Clouds 24 1011 100 10000 3.1 160 20:19 29.09.2019
1056 Clouds 25 1011 94 10000 5.1 110 19:56 29.09.2019
1057 Clouds 25 1011 94 10000 5.1 110 19:55 29.09.2019
1058 Clouds 25 1011 94 10000 5.1 110 19:36 29.09.2019
1059 Clouds 25 1011 94 10000 5.1 110 19:18 29.09.2019
1060 Clouds 25 1011 94 10000 5.1 110 18:55 29.09.2019
1061 Thunderstorm 25 1011 94 10000 2.64 113.558 18:36 29.09.2019
1062 Thunderstorm 26 1011 94 10000 0.95 45.727 18:18 29.09.2019
1063 Thunderstorm 26 1011 94 10000 0.95 45.727 17:55 29.09.2019
1064 Clouds 26 1011 94 10000 0.95 45.727 17:36 29.09.2019
1065 Clouds 26 1011 94 10000 0.95 45.727 17:18 29.09.2019
1066 Clouds 25 1011 88 10000 2.1 90 16:41 29.09.2019
1067 Clouds 25 1011 88 10000 2.1 90 16:20 29.09.2019
1068 Clouds 25 1012 88 10000 2.1 160 15:59 29.09.2019
1069 Clouds 28 1011 75 0 0.95 45.727 15:39 29.09.2019
1070 Clouds 26 1013 83 10000 3.1 140 15:19 29.09.2019
1071 Clouds 26 1013 83 10000 3.1 140 14:58 29.09.2019
1072 Clouds 26 1013 83 10000 3.1 140 14:38 29.09.2019
1073 Clouds 26 1013 83 10000 3.1 140 14:19 29.09.2019
1074 Clouds 26 1013 88 10000 2.1 140 13:56 29.09.2019
1075 Clouds 26 1013 88 10000 2.1 140 13:37 29.09.2019
1076 Clouds 26 1013 88 10000 2.1 140 13:18 29.09.2019
1077 Clouds 26 1013 88 10000 2.1 140 12:56 29.09.2019
1078 Clouds 26 1013 88 10000 2.1 140 12:38 29.09.2019
1079 Clouds 26 1013 88 10000 2.1 140 12:20 29.09.2019
1080 Clouds 27 1013 83 10000 2.6 110 11:41 29.09.2019
1081 Clouds 27 1013 83 10000 2.6 110 11:20 29.09.2019
1082 Clouds 28 1011 78 10000 3.6 110 10:58 29.09.2019
1083 Clouds 28 1011 78 10000 3.6 110 10:39 29.09.2019
1084 Clouds 28 1011 78 10000 3.6 110 10:20 29.09.2019
1085 Clouds 29 1010 70 10000 4.6 110 09:57 29.09.2019
1086 Clouds 29 1010 70 10000 4.6 110 09:39 29.09.2019
1087 Clouds 29 1010 70 10000 4.6 110 09:19 29.09.2019
1088 Clouds 32 1010 55 10000 5.1 90 08:43 29.09.2019
1089 Clouds 32 1010 55 10000 5.1 90 08:22 29.09.2019
1090 Clouds 33 1010 55 10000 5.1 90 07:44 29.09.2019
1091 Clouds 33 1010 55 10000 5.1 90 07:26 29.09.2019
1092 Thunderstorm 33 1010 63 10000 8.2 70 06:49 29.09.2019
1093 Thunderstorm 33 1010 63 10000 7.2 70 05:58 29.09.2019
1094 Clouds 33 1010 63 10000 6.7 70 04:45 29.09.2019
1095 Clouds 33 1010 63 10000 6.7 70 04:45 29.09.2019
1096 Clouds 33 1010 63 10000 6.7 70 04:23 29.09.2019
1097 Clouds 33 1012 63 10000 6.2 110 02:58 29.09.2019
1098 Clouds 33 1012 63 10000 6.2 110 02:19 29.09.2019
1099 Clouds 30 1013 70 10000 3.6 110 01:40 29.09.2019
1100 Clouds 30 1013 74 10000 4.1 140 00:55 29.09.2019
1101 Clouds 30 1013 74 10000 4.1 140 00:36 29.09.2019
1102 Clouds 27 1013 83 10000 2.1 160 00:18 29.09.2019
1103 Clouds 27 1013 83 10000 2.1 160 23:37 28.09.2019
1104 Clouds 27 1013 83 10000 2.1 160 23:18 28.09.2019
1105 Clouds 25 1012 94 10000 1 160 22:40 28.09.2019
1106 Clouds 25 1012 94 10000 1 160 22:21 28.09.2019
1107 Clouds 24 1011 94 10000 1.5 140 21:57 28.09.2019
1108 Clouds 24 1011 94 10000 1.5 140 21:39 28.09.2019
1109 Clouds 24 1011 94 10000 1.5 140 21:21 28.09.2019
1110 Clouds 25 1010 94 10000 1.5 160 20:57 28.09.2019
1111 Clouds 25 1010 94 10000 1.5 160 20:38 28.09.2019
1112 Clouds 25 1010 94 10000 1.5 160 20:18 28.09.2019
1113 Clouds 25 1010 94 10000 1.5 140 19:56 28.09.2019
1114 Clouds 25 1010 94 10000 1.5 140 19:56 28.09.2019
1115 Clouds 25 1010 94 10000 1.5 140 19:37 28.09.2019
1116 Clouds 25 1010 94 10000 1.5 140 19:19 28.09.2019
1117 Clouds 25 1011 94 10000 1.5 160 18:43 28.09.2019
1118 Clouds 25 1011 94 10000 1.5 160 18:22 28.09.2019
1119 Clouds 25 1011 94 10000 1.5 160 18:00 28.09.2019
1120 Clouds 25 1011 94 10000 1.5 160 18:00 28.09.2019
1121 Clouds 25 1011 94 10000 1.5 160 17:41 28.09.2019
1122 Clouds 25 1011 94 10000 1.5 160 17:22 28.09.2019
1123 Clouds 25 1012 94 10000 2.1 160 16:56 28.09.2019
1124 Clouds 25 1012 94 10000 2.1 160 16:56 28.09.2019
1125 Clouds 25 1012 94 10000 2.1 160 16:37 28.09.2019
1126 Clouds 25 1012 94 10000 2.1 160 16:18 28.09.2019
1127 Clouds 26 1013 88 10000 1.5 140 15:40 28.09.2019
1128 Clouds 26 1013 88 10000 1.5 140 15:22 28.09.2019
1129 Clouds 26 1013 88 10000 1 140 14:55 28.09.2019
1130 Clouds 26 1013 88 10000 1 140 14:55 28.09.2019
1131 Clouds 26 1013 88 10000 1 140 14:37 28.09.2019
1132 Clouds 26 1013 88 10000 1 140 14:19 28.09.2019
1133 Clouds 25 1012 94 10000 1 140 13:43 28.09.2019
1134 Clouds 26 1012 94 10000 2.1 140 13:20 28.09.2019
1135 Clouds 26 1012 94 10000 2.1 140 12:57 28.09.2019
1136 Clouds 26 1012 94 10000 2.1 140 12:39 28.09.2019
1137 Clouds 27 1012 88 10000 2.1 140 12:18 28.09.2019
1138 Clouds 27 1012 88 10000 2.1 140 11:41 28.09.2019
1139 Clouds 27 1012 88 10000 2.1 140 11:20 28.09.2019
1140 Clouds 28 1010 83 10000 1 140 10:56 28.09.2019
1141 Clouds 28 1010 83 10000 1 140 10:38 28.09.2019
1142 Clouds 28 1010 83 10000 1 140 10:18 28.09.2019
1143 Rain 30 1009 79 10000 3.1 50 09:41 28.09.2019
1144 Rain 30 1009 79 10000 3.1 50 09:19 28.09.2019
1145 Rain 30 1009 79 10000 3.1 50 09:19 28.09.2019
1146 Clouds 31 1009 74 10000 3.1 50 08:48 28.09.2019
1147 Clouds 31 1009 74 10000 3.1 50 08:29 28.09.2019
1148 Clouds 31 1009 74 10000 3.6 50 07:57 28.09.2019
1149 Clouds 31 1009 74 10000 3.6 50 07:38 28.09.2019
1150 Clouds 31 1009 74 10000 4.1 50 07:19 28.09.2019
1151 Clouds 31 1009 74 10000 4.1 50 06:38 28.09.2019
1152 Clouds 31 1010 70 10000 4.1 50 06:20 28.09.2019
1153 Clouds 31 1010 70 10000 4.1 50 05:25 28.09.2019
1154 Clouds 31 1010 70 10000 2.6 50 04:54 28.09.2019
1155 Clouds 31 1010 70 10000 3.1 20 04:29 28.09.2019
1156 Clouds 30 1011 74 10000 3.1 20 03:35 28.09.2019
1157 Clouds 31 1012 70 10000 3.1 50 02:58 28.09.2019
1158 Clouds 31 1012 70 10000 3.1 50 02:37 28.09.2019
1159 Clouds 31 1012 70 10000 3.1 50 02:18 28.09.2019
1160 Clouds 31 1013 70 10000 3.6 50 01:41 28.09.2019
1161 Clouds 31 1013 70 10000 3.6 70 01:19 28.09.2019
1162 Clouds 30 1013 70 10000 2.1 140 00:44 28.09.2019
1163 Clouds 30 1013 70 10000 2.1 140 00:26 28.09.2019
1164 Clouds 28 1013 78 10000 1.5 180 23:39 27.09.2019
1165 Clouds 28 1013 78 10000 1.5 180 23:39 27.09.2019
1166 Clouds 28 1013 78 10000 1.5 180 23:21 27.09.2019
1167 Clouds 25 1012 94 10000 3.79 30.386 22:49 27.09.2019
1168 Clouds 25 1012 94 10000 3.79 30.386 22:21 27.09.2019
1169 Clouds 24 1012 94 10000 3.79 30.386 21:59 27.09.2019
1170 Clouds 24 1012 94 10000 3.79 30.386 21:59 27.09.2019
1171 Clouds 24 1012 94 10000 3.79 30.386 21:40 27.09.2019
1172 Clouds 24 1012 94 10000 1.35 60.482 21:20 27.09.2019
1173 Clouds 24 1012 94 10000 1.35 60.482 21:20 27.09.2019
1174 -273 0 0 0 0 0 20:58 27.09.2019
1175 Clouds 24 1011 94 10000 1.5 180 20:40 27.09.2019
1176 Clouds 24 1011 94 10000 1.5 180 20:40 27.09.2019
1177 Clouds 24 1011 94 10000 1.5 180 20:19 27.09.2019
1178 Clouds 24 1011 94 10000 1.5 180 20:19 27.09.2019
1179 Clouds 24 1011 94 10000 2.1 160 19:57 27.09.2019
1180 Clouds 24 1011 94 10000 2.1 160 19:38 27.09.2019
1181 Clouds 24 1011 94 10000 2.1 160 19:38 27.09.2019
1182 Clouds 24 1011 100 10000 1.09 73.23 19:19 27.09.2019
1183 Clouds 24 1011 100 10000 1.09 73.23 18:41 27.09.2019
1184 Clouds 24 1011 100 10000 2.11 91.224 18:23 27.09.2019
1185 Clouds 25 1011 94 10000 2.11 91.224 17:56 27.09.2019
1186 Clouds 25 1011 94 10000 2.11 91.224 17:56 27.09.2019
1187 Clouds 25 1011 94 10000 2.11 91.224 17:37 27.09.2019
1188 Clouds 25 1011 94 10000 2.11 91.224 17:18 27.09.2019
1189 Clouds 25 1012 100 10000 2.11 91.224 16:57 27.09.2019
1190 Clouds 25 1012 100 10000 2.11 91.224 16:37 27.09.2019
1191 Clouds 25 1012 100 10000 2.11 91.224 16:18 27.09.2019
1192 Clouds 26 1012 94 10000 1.5 180 15:45 27.09.2019
1193 Clouds 26 1012 94 10000 1.5 180 15:21 27.09.2019
1194 Clouds 27 1013 88 10000 1 230 14:57 27.09.2019
1195 Clouds 27 1013 88 10000 1 230 14:39 27.09.2019
1196 Clouds 27 1013 88 10000 1 230 14:20 27.09.2019
1197 Clouds 27 1013 94 10000 3.06 113.032 13:57 27.09.2019
1198 Clouds 27 1013 94 10000 3.06 113.032 13:38 27.09.2019
1199 Clouds 27 1012 94 10000 2.52 119.311 13:19 27.09.2019
1200 Clouds 27 1012 94 10000 2.52 119.311 12:51 27.09.2019
1201 Clouds 27 1012 94 10000 0.95 49.863 12:23 27.09.2019
1202 Clouds 28 1012 83 10000 1.5 140 11:57 27.09.2019
1203 Clouds 28 1012 83 10000 1.5 140 11:37 27.09.2019
1204 Clouds 28 1012 83 10000 1.5 140 11:19 27.09.2019
1205 Clouds 29 1011 79 10000 2.6 110 10:42 27.09.2019
1206 Clouds 29 1011 79 10000 2.6 110 10:21 27.09.2019
1207 Clouds 29 1011 79 10000 2.1 70 09:56 27.09.2019
1208 Clouds 29 1011 79 10000 2.1 70 09:56 27.09.2019
1209 Clouds 29 1011 79 10000 2.1 70 09:37 27.09.2019
1210 Clouds 29 1011 79 10000 2.1 70 09:18 27.09.2019
1211 Clouds 29 1010 79 10000 2.6 70 08:41 27.09.2019
1212 Clouds 29 1010 79 10000 2.6 70 08:20 27.09.2019
1213 Clouds 29 1010 79 10000 2.6 70 08:20 27.09.2019
1214 Clouds 29 1010 79 10000 2.6 70 08:20 27.09.2019
1215 Clouds 31 1010 70 10000 2.6 20 07:49 27.09.2019
1216 Clouds 31 1010 70 10000 2.6 20 07:24 27.09.2019
1217 Clouds 31 1010 70 10000 4.1 360 06:46 27.09.2019
1218 Clouds 31 1010 70 10000 4.1 360 06:46 27.09.2019
1219 Clouds 31 1010 70 10000 4.1 360 06:27 27.09.2019
1220 Clouds 32 1010 62 10000 2.1 50 05:52 27.09.2019
1221 Clouds 32 1010 62 10000 2.1 50 05:33 27.09.2019
1222 Clouds 31 1012 66 10000 2.6 20 03:59 27.09.2019
1223 Clouds 31 1012 66 10000 2.6 20 03:37 27.09.2019
1224 Clouds 30 1013 74 10000 3.1 20 01:53 27.09.2019
1225 Clouds 30 1013 74 10000 3.1 20 01:29 27.09.2019
1226 Clouds 30 1013 74 10000 1 70 00:34 27.09.2019
1227 Clouds 27 1014 83 10000 1.5 160 23:57 26.09.2019
1228 Clouds 27 1014 83 10000 1.5 160 23:38 26.09.2019
1229 Clouds 27 1014 83 10000 1.5 160 23:19 26.09.2019
1230 Clouds 24 1013 94 10000 2.1 200 22:57 26.09.2019
1231 Clouds 24 1013 94 10000 2.1 200 22:39 26.09.2019
1232 Clouds 23 1012 100 10000 4.06 28.239 22:18 26.09.2019
1233 Clouds 23 1012 100 10000 4.06 28.239 21:57 26.09.2019
1234 Clouds 23 1012 100 10000 4.06 28.239 21:37 26.09.2019
1235 Clouds 23 1012 100 10000 3.92 24.916 21:19 26.09.2019
1236 Clouds 23 1012 100 10000 3.92 24.916 21:19 26.09.2019
1237 Clouds 23 1012 100 10000 3.62 33.159 20:58 26.09.2019
1238 Clouds 23 1012 100 10000 3.62 33.159 20:39 26.09.2019
1239 Clouds 23 1012 100 10000 3.62 33.159 20:21 26.09.2019
1240 Clouds 24 1012 100 10000 1.5 140 19:41 26.09.2019
1241 Clouds 24 1012 100 10000 1.5 140 19:21 26.09.2019
1242 Clouds 24 1012 100 10000 1.5 140 18:59 26.09.2019
1243 Clouds 24 1011 100 10000 3.62 33.159 18:41 26.09.2019
1244 Clouds 24 1011 100 10000 2.86 26.798 18:22 26.09.2019
1245 Clouds 24 1011 100 10000 2.86 26.798 17:58 26.09.2019
1246 Clouds 25 1011 94 10000 2.86 26.798 17:37 26.09.2019
1247 Clouds 25 1011 94 10000 2.86 26.798 17:37 26.09.2019
1248 Clouds 25 1012 94 10000 2.86 26.798 17:18 26.09.2019
1249 -273 0 0 0 0 0 16:54 26.09.2019
1250 Clouds 25 1012 94 10000 2.86 26.798 16:36 26.09.2019
1251 Clouds 25 1012 94 10000 2.86 26.798 16:18 26.09.2019
1252 Clouds 25 1013 94 10000 2.86 26.798 15:40 26.09.2019
1253 Clouds 25 1013 94 10000 1.26 61.994 15:22 26.09.2019
1254 Clouds 25 1013 94 10000 1.26 61.994 14:57 26.09.2019
1255 Clouds 25 1013 94 10000 1.26 61.994 14:38 26.09.2019
1256 Clouds 25 1013 94 10000 1.26 61.994 14:20 26.09.2019
1257 Clouds 25 1013 94 10000 1.26 61.994 13:55 26.09.2019
1258 Clouds 25 1013 94 10000 1.26 61.994 13:36 26.09.2019
1259 Clouds 25 1013 94 10000 1 180 13:18 26.09.2019
1260 Clouds 25 1013 94 10000 1 180 12:41 26.09.2019
1261 Clouds 25 1013 94 10000 1 180 12:21 26.09.2019
1262 Clouds 26 1012 88 10000 1.5 140 11:42 26.09.2019
1263 Clouds 26 1012 88 10000 1.5 140 11:23 26.09.2019
1264 Clouds 28 1011 78 10000 1 180 10:58 26.09.2019
1265 Clouds 28 1011 78 10000 1 180 10:58 26.09.2019
1266 Clouds 28 1011 78 10000 1 180 10:39 26.09.2019
1267 Clouds 28 1011 78 10000 1 180 10:20 26.09.2019
1268 Clouds 29 1011 70 10000 2.1 320 09:45 26.09.2019
1269 Clouds 29 1011 70 10000 2.1 320 09:26 26.09.2019
1270 Clouds 31 1010 58 10000 2.1 360 08:58 26.09.2019
1271 Clouds 31 1010 58 10000 2.1 360 08:40 26.09.2019
1272 Clouds 31 1010 58 10000 2.1 360 08:22 26.09.2019
1273 Clouds 31 1010 58 10000 2.6 320 07:44 26.09.2019
1274 Clouds 31 1010 70 10000 3.1 20 07:21 26.09.2019
1275 Clouds 31 1010 70 10000 3.1 20 06:47 26.09.2019
1276 Clouds 31 1010 70 10000 3.1 20 06:27 26.09.2019
1277 Clouds 32 1011 66 10000 3.1 20 05:44 26.09.2019
1278 Clouds 32 1011 66 10000 3.1 20 05:25 26.09.2019
1279 Clouds 31 1013 62 10000 3.6 50 02:53 26.09.2019
1280 Clouds 30 1014 74 10000 4.6 90 01:54 26.09.2019
1281 Clouds 30 1014 74 10000 4.6 90 01:29 26.09.2019
1282 Clouds 30 1014 74 10000 3.6 110 00:56 26.09.2019
1283 Clouds 30 1014 74 10000 3.6 110 00:37 26.09.2019
1284 Clouds 28 1014 74 10000 2.6 110 23:57 25.09.2019
1285 Clouds 28 1014 74 10000 2.6 110 23:38 25.09.2019
1286 Clouds 28 1014 74 10000 2.6 110 23:18 25.09.2019
1287 Clouds 24 1013 94 10000 1 160 22:41 25.09.2019
1288 Clouds 24 1013 94 10000 1 160 22:20 25.09.2019
1289 Clouds 23 1013 100 10000 1 160 21:57 25.09.2019
1290 Clouds 23 1013 100 10000 1 160 21:39 25.09.2019
1291 Clouds 23 1013 100 10000 1 160 21:19 25.09.2019
1292 Clouds 23 1012 100 10000 1 180 20:57 25.09.2019
1293 Clouds 23 1012 100 10000 1 180 20:39 25.09.2019
1294 Clouds 23 1012 100 10000 1 180 20:20 25.09.2019
1295 Clouds 24 1012 94 10000 1 160 19:43 25.09.2019
1296 Clouds 24 1012 94 10000 1 160 19:25 25.09.2019
1297 Clouds 24 1012 94 10000 1 160 18:58 25.09.2019
1298 Clouds 24 1012 94 10000 1.5 180 18:39 25.09.2019
1299 Clouds 24 1012 100 10000 1.5 160 18:21 25.09.2019
1300 Clouds 24 1012 100 10000 1.5 160 17:59 25.09.2019
1301 Clouds 24 1012 100 10000 1.5 160 17:38 25.09.2019
1302 Clouds 24 1012 100 10000 1.5 160 17:19 25.09.2019
1303 Clouds 24 1013 100 10000 1.33 87.85 16:45 25.09.2019
1304 Clouds 24 1013 100 10000 1.33 87.85 16:27 25.09.2019
1305 Clouds 25 1013 94 10000 1.5 140 15:58 25.09.2019
1306 Clouds 25 1013 94 10000 1.5 140 15:40 25.09.2019
1307 Clouds 25 1013 94 10000 1.5 140 15:21 25.09.2019
1308 Clouds 25 1014 94 10000 2.51 126.318 14:55 25.09.2019
1309 Clouds 25 1014 94 10000 2.51 126.318 14:36 25.09.2019
1310 Clouds 25 1014 94 10000 2.51 126.318 14:36 25.09.2019
1311 Clouds 25 1014 94 10000 2.51 126.318 14:36 25.09.2019
1312 Clouds 25 1014 94 10000 2.51 126.318 14:36 25.09.2019
1313 Clouds 25 1014 94 10000 2.51 126.318 14:18 25.09.2019
1314 Clouds 25 1014 94 10000 2.51 126.318 13:41 25.09.2019
1315 Clouds 26 1013 88 10000 2.1 140 13:20 25.09.2019
1316 Clouds 26 1013 88 10000 2.1 140 12:58 25.09.2019
1317 Clouds 26 1013 88 10000 2.1 140 12:39 25.09.2019
1318 Clouds 26 1013 94 10000 2.1 110 12:21 25.09.2019
1319 Clouds 26 1013 94 10000 2.1 110 11:42 25.09.2019
1320 Clouds 26 1013 94 10000 2.1 110 11:21 25.09.2019
1321 Clouds 27 1012 88 10000 4.68 113.828 10:57 25.09.2019
1322 Clouds 27 1012 88 10000 4.68 113.828 10:38 25.09.2019
1323 Clouds 27 1012 88 10000 4.68 113.828 10:19 25.09.2019
1324 Clouds 27 1012 88 10000 4.68 113.828 10:19 25.09.2019
1325 Clouds 27 1012 88 10000 4.68 113.828 10:19 25.09.2019
1326 Clouds 28 1011 78 10000 4.68 113.828 09:55 25.09.2019
1327 Clouds 28 1011 78 10000 4.68 113.828 09:36 25.09.2019
1328 Clouds 28 1011 78 10000 6.89 156.474 09:18 25.09.2019
1329 Clouds 29 1011 74 10000 8.29 167.806 08:41 25.09.2019
1330 Clouds 29 1011 74 10000 8.29 167.806 08:20 25.09.2019
1331 Clouds 29 1010 74 10000 2.1 340 07:55 25.09.2019
1332 -273 0 0 0 0 0 07:55 25.09.2019
1333 Clouds 29 1010 74 10000 2.1 340 07:36 25.09.2019
1334 Clouds 29 1010 74 10000 4.6 50 07:18 25.09.2019
1335 Clouds 29 1010 74 10000 4.6 50 06:37 25.09.2019
1336 Clouds 29 1010 74 10000 4.6 50 06:37 25.09.2019
1337 Clouds 29 1011 79 10000 4.1 50 05:52 25.09.2019
1338 Clouds 29 1011 79 10000 4.1 50 05:26 25.09.2019
1339 Clouds 29 1013 74 10000 2.1 50 03:21 25.09.2019
1340 Clouds 27 1014 78 10000 2.6 20 01:39 25.09.2019
1341 Clouds 26 1014 88 10000 1 90 00:41 25.09.2019
1342 Clouds 26 1014 88 10000 1 90 00:23 25.09.2019
1343 Clouds 24 1014 94 10000 2.1 160 23:44 24.09.2019
1344 Clouds 24 1014 94 10000 2.1 160 23:22 24.09.2019
1345 Clouds 23 1013 100 10000 3.18 163.535 22:58 24.09.2019
1346 Clouds 23 1013 100 10000 3.18 163.535 22:38 24.09.2019
1347 Clouds 23 1013 100 10000 3.18 163.535 22:19 24.09.2019
1348 Clouds 23 1013 100 10000 3.18 163.535 22:19 24.09.2019
1349 Clouds 22 1012 100 10000 9.23 191.282 21:55 24.09.2019
1350 Clouds 22 1012 100 10000 9.23 191.282 21:55 24.09.2019
1351 Clouds 22 1012 100 10000 9.23 191.282 21:37 24.09.2019
1352 Clouds 22 1012 100 10000 4.51 157.691 21:18 24.09.2019
1353 Clouds 23 1012 94 10000 1.5 160 20:56 24.09.2019
1354 Clouds 23 1012 94 10000 1.5 160 20:38 24.09.2019
1355 Clouds 23 1012 94 10000 1.5 160 20:19 24.09.2019
1356 Clouds 22 1012 100 10000 4.51 157.691 19:43 24.09.2019
1357 Clouds 22 1012 100 10000 1 150 19:20 24.09.2019
1358 Clouds 22 1012 100 10000 1 150 18:58 24.09.2019
1359 Clouds 22 1012 100 10000 1 150 18:39 24.09.2019
1360 -273 0 0 0 0 0 18:20 24.09.2019
1361 Rain 25 1011 92 0 7.19 141.543 18:20 24.09.2019
1362 Rain 25 1011 92 0 7.19 141.543 17:57 24.09.2019
1363 Rain 25 1011 92 0 7.19 141.543 17:38 24.09.2019
1364 Drizzle 22 1013 100 10000 7.19 141.543 17:19 24.09.2019
1365 Drizzle 22 1013 100 10000 7.19 141.543 16:42 24.09.2019
1366 Drizzle 22 1013 100 10000 7.19 141.543 16:21 24.09.2019
1367 Rain 22 1014 100 10000 2.6 140 15:58 24.09.2019
1368 Rain 22 1014 100 10000 2.6 140 15:40 24.09.2019
1369 Rain 22 1014 100 10000 2.6 140 15:21 24.09.2019
1370 Rain 22 1015 100 10000 4.1 140 14:40 24.09.2019
1371 Rain 22 1015 100 10000 4.1 140 14:18 24.09.2019
1372 Rain 22 1016 100 10000 3.1 140 13:45 24.09.2019
1373 Rain 22 1016 100 10000 3.1 140 13:45 24.09.2019
1374 Rain 23 1015 100 10000 2.1 160 13:22 24.09.2019
1375 Rain 23 1015 100 10000 2.1 160 12:56 24.09.2019
1376 Rain 23 1015 100 10000 2.1 160 12:36 24.09.2019
1377 Clouds 23 1015 100 0 3.1 20 12:18 24.09.2019
1378 Rain 27 1013 76 0 0.9 41.078 11:41 24.09.2019
1379 Rain 27 1013 76 0 0.9 41.078 11:21 24.09.2019
1380 Rain 27 1013 76 0 0.9 41.078 10:42 24.09.2019
1381 Rain 27 1013 76 0 0.9 41.078 10:23 24.09.2019
1382 Rain 27 1013 76 0 0.9 41.078 09:59 24.09.2019
1383 Drizzle 27 1011 78 10000 3.1 110 09:41 24.09.2019
1384 Drizzle 27 1011 78 10000 3.1 110 09:20 24.09.2019
1385 Drizzle 27 1011 78 10000 3.1 110 08:56 24.09.2019
1386 Drizzle 27 1011 78 10000 3.1 110 08:38 24.09.2019
1387 Drizzle 27 1011 78 10000 3.1 110 08:38 24.09.2019
1388 Drizzle 27 1011 78 10000 3.1 110 08:19 24.09.2019
1389 Clouds 29 1010 74 10000 7.7 90 07:46 24.09.2019
1390 Clouds 29 1010 74 10000 7.7 90 07:24 24.09.2019
1391 Clouds 30 1010 66 10000 7.7 90 06:48 24.09.2019
1392 Clouds 30 1010 66 10000 7.7 90 06:30 24.09.2019
1393 Clouds 31 1010 66 10000 6.7 90 05:51 24.09.2019
1394 Clouds 31 1010 66 10000 6.7 90 05:18 24.09.2019
1395 Clouds 31 1010 66 10000 6.7 90 05:18 24.09.2019
1396 Clouds 31 1012 70 10000 2.6 90 03:43 24.09.2019
1397 Clouds 28 1013 78 10000 2.45 189.647 02:46 24.09.2019
1398 Drizzle 26 1013 88 10000 3.6 160 01:45 24.09.2019
1399 Clouds 26 1013 83 10000 2.1 90 00:43 24.09.2019
1400 Clouds 26 1013 83 10000 2.1 90 00:23 24.09.2019
1401 Clouds 24 1013 94 10000 1 140 23:45 23.09.2019
1402 -273 0 0 0 0 0 23:24 23.09.2019
1403 Clouds 23 1012 100 10000 1.67 39.638 22:59 23.09.2019
1404 Clouds 23 1012 100 10000 1.67 39.638 22:39 23.09.2019
1405 Clouds 23 1012 94 10000 1 90 22:20 23.09.2019
1406 Clouds 23 1012 94 10000 1 90 21:56 23.09.2019
1407 Clouds 23 1012 94 10000 1 90 21:37 23.09.2019
1408 Clouds 23 1012 94 10000 1 90 21:19 23.09.2019
1409 Clouds 23 1012 94 10000 1 90 21:19 23.09.2019
1410 Rain 27 1012 76 0 3.13 78.442 20:41 23.09.2019
1411 Clouds 23 1011 100 10000 2.1 180 20:20 23.09.2019
1412 Clouds 23 1011 100 10000 2.1 180 19:56 23.09.2019
1413 Clouds 23 1011 100 10000 2.1 180 19:38 23.09.2019
1414 Clouds 23 1011 94 10000 3.13 78.442 19:20 23.09.2019
1415 Clouds 23 1011 94 10000 3.13 78.442 18:42 23.09.2019
1416 Clouds 23 1011 100 10000 2.6 180 18:21 23.09.2019
1417 Clouds 23 1011 100 10000 2.6 180 17:59 23.09.2019
1418 Clouds 23 1011 100 10000 2.6 180 17:39 23.09.2019
1419 Clouds 23 1011 100 10000 2.6 180 17:21 23.09.2019
1420 Clouds 23 1011 100 10000 1 110 16:58 23.09.2019
1421 Clouds 23 1011 100 10000 1 110 16:37 23.09.2019
1422 Clouds 24 1012 94 10000 1 110 16:19 23.09.2019
1423 Clouds 24 1012 94 10000 1 110 15:57 23.09.2019
1424 Clouds 24 1012 94 10000 1 110 15:38 23.09.2019
1425 Clouds 24 1012 94 10000 1 110 15:19 23.09.2019
1426 Clouds 28 1013 77 0 7.6 134.515 14:40 23.09.2019
1427 Clouds 28 1013 77 0 7.6 134.515 14:40 23.09.2019
1428 Clouds 28 1013 77 0 7.6 134.515 14:21 23.09.2019
1429 Clouds 28 1013 77 0 7.6 134.515 13:59 23.09.2019
1430 Clouds 28 1013 77 0 7.6 134.515 13:59 23.09.2019
1431 Clouds 28 1013 77 0 7.6 134.515 13:39 23.09.2019
1432 Clouds 25 1013 88 10000 2.1 110 13:18 23.09.2019
1433 Clouds 25 1013 88 10000 2.1 110 12:55 23.09.2019
1434 Clouds 25 1013 88 10000 2.1 110 12:36 23.09.2019
1435 Clouds 26 1013 83 10000 2.1 110 12:18 23.09.2019
1436 Clouds 26 1013 83 10000 2.1 110 11:43 23.09.2019
1437 Clouds 26 1013 83 10000 2.1 110 11:25 23.09.2019
1438 Clouds 27 1012 78 10000 4.6 90 10:49 23.09.2019
1439 Clouds 27 1012 78 10000 4.6 90 10:23 23.09.2019
1440 Clouds 27 1012 78 10000 4.6 90 09:59 23.09.2019
1441 Clouds 27 1012 78 10000 4.6 90 09:38 23.09.2019
1442 Clouds 27 1012 78 10000 4.6 90 09:20 23.09.2019
1443 Clouds 29 1011 74 10000 6.2 70 08:50 23.09.2019
1444 Clouds 29 1011 74 10000 6.2 70 08:30 23.09.2019
1445 Clouds 30 1010 70 10000 5.7 90 07:58 23.09.2019
1446 Clouds 30 1010 70 10000 5.7 90 07:58 23.09.2019
1447 Clouds 30 1010 70 10000 5.7 90 07:58 23.09.2019
1448 Clouds 30 1010 70 10000 5.7 90 07:30 23.09.2019
1449 Clouds 30 1010 70 10000 5.7 70 06:40 23.09.2019
1450 Clouds 31 1010 62 10000 5.7 110 05:54 23.09.2019
1451 Clouds 31 1010 62 10000 5.7 110 05:21 23.09.2019
1452 Clouds 30 1010 70 10000 6.7 90 04:54 23.09.2019
1453 Clouds 29 1012 70 10000 5.7 90 03:33 23.09.2019
1454 Clouds 29 1013 79 10000 4.1 140 01:18 23.09.2019
1455 Clouds 27 1013 83 10000 3.6 110 00:23 23.09.2019
1456 Clouds 25 1013 94 10000 2.1 70 23:52 22.09.2019
1457 Clouds 25 1013 94 10000 2.1 70 23:32 22.09.2019
1458 Clouds 24 1012 100 10000 2.6 180 22:58 22.09.2019
1459 Clouds 24 1012 100 10000 2.6 180 22:40 22.09.2019
1460 Clouds 24 1012 100 10000 2.6 180 22:40 22.09.2019
1461 Clouds 24 1012 100 10000 2.6 180 22:22 22.09.2019
1462 Clouds 25 1012 94 10000 7.02 134.446 21:43 22.09.2019
1463 Clouds 25 1012 94 10000 7.18 125.369 21:22 22.09.2019
1464 Clouds 25 1012 94 10000 7.18 125.369 21:22 22.09.2019
1465 Clouds 24 1012 100 10000 7.18 125.369 20:58 22.09.2019
1466 Clouds 24 1012 100 10000 7.18 125.369 20:40 22.09.2019
1467 Clouds 24 1011 100 10000 8.46 125.616 20:22 22.09.2019
1468 Clouds 24 1011 100 10000 8.46 125.616 19:41 22.09.2019
1469 Clouds 24 1011 100 10000 8.46 125.616 19:41 22.09.2019
1470 Clouds 24 1011 100 10000 8.46 125.616 19:23 22.09.2019
1471 Clouds 24 1011 100 10000 1.5 250 18:59 22.09.2019
1472 Clouds 24 1011 100 10000 1.5 250 18:39 22.09.2019
1473 Clouds 24 1011 100 10000 1.5 250 18:39 22.09.2019
1474 Drizzle 24 1012 100 10000 1.5 140 18:19 22.09.2019
1475 Drizzle 24 1012 100 10000 1.5 140 17:57 22.09.2019
1476 Drizzle 24 1012 100 10000 1.5 140 17:57 22.09.2019
1477 Drizzle 24 1012 100 10000 1.5 140 17:39 22.09.2019
1478 Drizzle 24 1012 100 10000 1.5 140 17:18 22.09.2019
1479 Clouds 24 1012 100 10000 2.6 70 16:44 22.09.2019
1480 Clouds 24 1012 100 10000 2.6 70 16:25 22.09.2019
1481 Rain 24 1012 100 10000 2.1 180 15:47 22.09.2019
1482 Rain 24 1012 100 10000 2.1 180 15:29 22.09.2019
1483 Rain 25 1014 94 10000 4.6 70 14:59 22.09.2019
1484 Rain 25 1014 94 10000 4.6 70 14:59 22.09.2019
1485 Rain 25 1014 94 10000 4.6 70 14:41 22.09.2019
1486 Rain 25 1014 94 10000 4.6 70 14:22 22.09.2019
1487 Rain 24 1013 100 10000 2.1 180 13:55 22.09.2019
1488 Rain 24 1013 100 10000 2.1 180 13:36 22.09.2019
1489 Clouds 25 1012 94 10000 4.6 110 13:18 22.09.2019
1490 Clouds 25 1012 94 10000 4.6 110 12:42 22.09.2019
1491 Clouds 25 1012 94 10000 4.6 110 12:22 22.09.2019
1492 Clouds 25 1012 94 10000 4.6 110 11:56 22.09.2019
1493 Clouds 25 1012 94 10000 4.6 110 11:38 22.09.2019
1494 Clouds 25 1012 94 10000 4.6 110 11:19 22.09.2019
1495 Clouds 25 1012 94 10000 4.1 90 10:43 22.09.2019
1496 Clouds 25 1012 94 10000 4.1 90 10:20 22.09.2019
1497 Clouds 26 1011 88 10000 3.6 110 09:56 22.09.2019
1498 Clouds 26 1011 88 10000 3.6 110 09:37 22.09.2019
1499 Clouds 26 1011 88 10000 3.6 110 09:19 22.09.2019
1500 Clouds 26 1011 88 10000 3.6 110 08:42 22.09.2019
1501 Clouds 26 1011 88 10000 3.6 110 08:22 22.09.2019
1502 Rain 26 1010 88 10000 6.2 90 07:49 22.09.2019
1503 Rain 26 1010 88 10000 6.2 90 07:31 22.09.2019
1504 Clouds 27 1010 88 10000 8.2 90 06:59 22.09.2019
1505 Clouds 27 1010 88 10000 8.2 90 06:37 22.09.2019
1506 Clouds 31 1010 66 10000 6.2 90 05:18 22.09.2019
1507 Clouds 31 1013 66 10000 7.7 110 02:45 22.09.2019
1508 Clouds 31 1013 66 10000 7.7 110 02:24 22.09.2019
1509 Clouds 30 1013 74 10000 7.7 110 01:43 22.09.2019
1510 Clouds 28 1013 78 10000 7.7 110 00:53 22.09.2019
1511 Clouds 28 1013 78 10000 7.7 110 00:32 22.09.2019
1512 Clouds 26 1013 88 10000 2.1 160 23:54 21.09.2019
1513 Clouds 26 1013 88 10000 2.1 160 23:36 21.09.2019
1514 Clouds 23 1012 100 10000 2.1 160 22:46 21.09.2019
1515 Clouds 23 1012 100 10000 2.1 160 22:25 21.09.2019
1516 Clouds 22 1012 100 10000 1.99 106.843 21:59 21.09.2019
1517 Clouds 23 1011 94 10000 1 180 21:41 21.09.2019
1518 Clouds 23 1010 94 10000 1.71 62.522 21:19 21.09.2019
1519 Clouds 23 1010 94 10000 1.71 62.522 20:55 21.09.2019
1520 Clouds 23 1010 94 10000 2.6 58.892 20:36 21.09.2019
1521 Clouds 23 1010 94 10000 2.6 58.892 20:18 21.09.2019
1522 Clouds 23 1010 94 10000 1 160 19:42 21.09.2019
1523 Clouds 23 1010 94 10000 2.1 160 19:19 21.09.2019
1524 Clouds 23 1010 94 10000 2.1 160 18:40 21.09.2019
1525 Drizzle 23 1011 94 10000 2.1 160 18:21 21.09.2019
1526 Drizzle 23 1011 94 10000 2.1 160 17:42 21.09.2019
1527 Drizzle 23 1011 94 10000 2.1 160 17:42 21.09.2019
1528 Drizzle 23 1011 94 10000 2.1 160 17:23 21.09.2019
1529 Drizzle 23 1011 94 10000 2.1 160 17:23 21.09.2019
1530 Drizzle 23 1011 94 10000 2.1 160 17:23 21.09.2019
1531 Drizzle 23 1011 94 10000 2.1 160 17:23 21.09.2019
1532 Clouds 23 1012 100 10000 1.5 140 16:56 21.09.2019
1533 Clouds 23 1012 100 10000 1.5 140 16:37 21.09.2019
1534 Clouds 23 1012 100 10000 1.5 140 16:18 21.09.2019
1535 Clouds 23 1012 100 10000 1.5 140 15:42 21.09.2019
1536 Clouds 23 1012 100 10000 1.5 140 15:20 21.09.2019
1537 Clouds 24 1013 94 10000 2.1 160 14:47 21.09.2019
1538 Clouds 24 1013 94 10000 2.1 160 14:28 21.09.2019
1539 Drizzle 23 1013 100 10000 3.1 160 13:45 21.09.2019
1540 Drizzle 24 1013 94 10000 1.5 90 13:25 21.09.2019
1541 Drizzle 24 1013 94 10000 1.5 90 13:25 21.09.2019
1542 Drizzle 24 1013 94 10000 1.5 90 12:58 21.09.2019
1543 Drizzle 24 1013 94 10000 1.5 90 12:39 21.09.2019
1544 Clouds 24 1012 94 10000 1 140 12:20 21.09.2019
1545 Clouds 24 1012 94 10000 1 140 12:20 21.09.2019
1546 Clouds 24 1012 94 10000 1 140 11:57 21.09.2019
1547 Clouds 24 1012 94 10000 1 140 11:38 21.09.2019
1548 Clouds 24 1012 94 10000 1 140 11:18 21.09.2019
1549 Clouds 25 1012 88 10000 2.1 110 10:40 21.09.2019
1550 Clouds 25 1012 88 10000 2.1 110 10:20 21.09.2019
1551 Clouds 25 1012 88 10000 2.1 110 10:20 21.09.2019
1552 Clouds 25 1011 88 10000 2.1 160 09:55 21.09.2019
1553 Clouds 25 1011 88 10000 2.1 160 09:37 21.09.2019
1554 Clouds 25 1011 88 10000 2.1 160 09:19 21.09.2019
1555 Clouds 27 1011 78 10000 7.2 140 08:45 21.09.2019
1556 Clouds 28 1010 78 10000 6.2 110 07:59 21.09.2019
1557 Clouds 30 1010 74 10000 7.7 70 07:40 21.09.2019
1558 Clouds 30 1010 74 10000 5.1 70 07:20 21.09.2019
1559 Clouds 30 1010 74 10000 5.1 70 06:36 21.09.2019
1560 Clouds 31 1010 70 10000 4.6 50 05:51 21.09.2019
1561 Clouds 30 1011 74 10000 3.1 20 04:39 21.09.2019
1562 Clouds 29 1012 74 10000 2.1 50 03:34 21.09.2019
1563 Clouds 29 1011 70 10000 1 320 02:25 21.09.2019
1564 Clouds 29 1011 70 10000 1 320 01:48 21.09.2019
1565 Clouds 29 1011 70 10000 1 320 01:25 21.09.2019
1566 Clouds 27 1011 83 10000 2.91 132.385 00:23 21.09.2019
1567 Clouds 24 1011 94 10000 2.91 132.385 23:49 20.09.2019
1568 Clouds 24 1011 94 10000 2.91 132.385 23:30 20.09.2019
1569 Clouds 23 1011 100 10000 2.91 132.385 22:55 20.09.2019
1570 Clouds 23 1011 100 10000 2.91 132.385 22:55 20.09.2019
1571 Clouds 23 1011 100 10000 2.91 132.385 22:36 20.09.2019
1572 Clouds 23 1011 100 10000 2.91 132.385 22:18 20.09.2019
1573 Clouds 24 1010 94 10000 2.91 132.385 21:40 20.09.2019
1574 Clouds 24 1010 94 10000 3.86 118.755 21:22 20.09.2019
1575 Clouds 24 1010 94 10000 3.86 118.755 20:59 20.09.2019
1576 Clouds 24 1010 94 10000 4.5 101.535 20:41 20.09.2019
1577 Clouds 24 1010 94 10000 4.5 101.535 20:20 20.09.2019
1578 Rain 23 1010 100 10000 1 140 19:56 20.09.2019
1579 Rain 23 1010 100 10000 1 140 19:37 20.09.2019
1580 Drizzle 23 1010 100 10000 2.1 140 19:18 20.09.2019
1581 Drizzle 23 1010 100 10000 2.1 140 18:39 20.09.2019
1582 Drizzle 24 1011 94 10000 2.1 180 18:20 20.09.2019
1583 Drizzle 24 1011 94 10000 2.1 180 17:47 20.09.2019
1584 Drizzle 24 1011 94 10000 2.1 180 17:27 20.09.2019
1585 Drizzle 24 1011 100 10000 4.64 62.838 16:59 20.09.2019
1586 Drizzle 24 1011 100 10000 4.64 62.838 16:37 20.09.2019
1587 Drizzle 24 1011 100 10000 4.64 62.838 16:19 20.09.2019
1588 Clouds 24 1012 100 10000 4.64 62.838 15:42 20.09.2019
1589 Clouds 24 1012 100 10000 3.78 64.83 15:23 20.09.2019
1590 Clouds 24 1012 100 10000 3.78 64.83 14:55 20.09.2019
1591 Clouds 24 1012 100 10000 3.78 64.83 14:36 20.09.2019
1592 Rain 28 1013 75 0 3.78 64.83 14:18 20.09.2019
1593 Rain 28 1013 75 0 3.78 64.83 13:41 20.09.2019
1594 Clouds 24 1012 100 0 1.5 180 13:22 20.09.2019
1595 Clouds 24 1012 100 0 1.5 180 12:41 20.09.2019
1596 Clouds 24 1012 100 0 1.5 180 12:22 20.09.2019
1597 Clouds 24 1012 100 0 1.5 180 11:51 20.09.2019
1598 Clouds 24 1012 100 0 3.6 160 11:26 20.09.2019
1599 Clouds 24 1011 100 0 2.1 250 10:58 20.09.2019
1600 Clouds 24 1011 100 0 2.1 250 10:40 20.09.2019
1601 Clouds 24 1011 100 0 2.1 250 10:22 20.09.2019
1602 Clouds 25 1010 94 10000 5.1 20 09:38 20.09.2019
1603 Clouds 25 1010 94 10000 5.1 20 09:19 20.09.2019
1604 Clouds 25 1010 94 10000 2.6 160 08:47 20.09.2019
1605 Clouds 25 1010 94 10000 2.6 160 08:28 20.09.2019
1606 Clouds 26 1009 83 10000 6.7 110 07:51 20.09.2019
1607 Clouds 26 1009 83 10000 6.7 110 07:29 20.09.2019
1608 Clouds 31 1009 66 10000 5.7 110 06:59 20.09.2019
1609 Clouds 31 1009 66 10000 5.7 110 06:40 20.09.2019
1610 Clouds 32 1009 62 10000 6.7 70 05:59 20.09.2019
1611 Clouds 32 1009 66 10000 6.7 70 04:29 20.09.2019
1612 Clouds 32 1010 66 10000 7.2 70 03:26 20.09.2019
1613 Clouds 29 1011 79 10000 4.6 110 01:58 20.09.2019
1614 Clouds 29 1011 79 10000 4.6 110 01:37 20.09.2019
1615 Clouds 26 1011 88 10000 1.5 180 00:33 20.09.2019
1616 Clouds 24 1010 100 10000 1.5 160 23:46 19.09.2019
1617 Clouds 24 1010 100 10000 1.5 160 23:27 19.09.2019
1618 Clouds 23 1010 100 10000 5.4 133.207 22:58 19.09.2019
1619 Clouds 23 1010 100 10000 5.4 133.207 22:39 19.09.2019
1620 Clouds 23 1010 100 10000 5.4 133.207 22:21 19.09.2019
1621 Clouds 23 1009 100 10000 1.5 180 21:57 19.09.2019
1622 Clouds 23 1009 100 10000 1.5 180 21:38 19.09.2019
1623 Clouds 23 1009 100 10000 1.5 180 21:19 19.09.2019
1624 Clouds 24 1009 100 10000 5.85 136.559 20:43 19.09.2019
1625 Clouds 24 1009 100 10000 5.85 136.559 20:43 19.09.2019
1626 Clouds 24 1009 100 10000 5.61 135.636 20:23 19.09.2019
1627 Clouds 24 1009 100 10000 1.5 200 19:57 19.09.2019
1628 Clouds 24 1009 100 10000 1.5 200 19:38 19.09.2019
1629 Clouds 24 1009 100 10000 1.5 200 19:19 19.09.2019
1630 Clouds 24 1010 100 10000 2.1 140 18:55 19.09.2019
1631 Clouds 24 1010 100 10000 2.1 140 18:36 19.09.2019
1632 Clouds 24 1010 100 10000 6.16 136.941 18:18 19.09.2019
1633 Clouds 24 1010 100 10000 6.16 136.941 17:42 19.09.2019
1634 Clouds 24 1010 100 10000 6.16 136.941 17:23 19.09.2019
1635 Rain 24 1011 100 10000 2.1 230 16:57 19.09.2019
1636 Rain 24 1011 100 10000 2.1 230 16:38 19.09.2019
1637 Rain 24 1011 100 10000 2.1 230 16:18 19.09.2019
1638 Clouds 25 1011 94 10000 2.1 110 15:39 19.09.2019
1639 Clouds 25 1012 94 10000 1.5 110 15:18 19.09.2019
1640 Clouds 25 1012 94 10000 1.5 110 14:42 19.09.2019
1641 Clouds 25 1012 94 10000 1.5 110 14:23 19.09.2019
1642 Clouds 25 1013 94 10000 2.1 160 13:59 19.09.2019
1643 Clouds 25 1013 94 10000 2.1 160 13:39 19.09.2019
1644 Clouds 25 1013 94 10000 2.1 160 13:39 19.09.2019
1645 Clouds 25 1013 94 10000 2.1 160 13:19 19.09.2019
1646 Clouds 27 1013 88 10000 7.7 70 12:39 19.09.2019
1647 Thunderstorm 27 1012 83 10000 1 110 12:19 19.09.2019
1648 Thunderstorm 27 1012 83 10000 1 110 12:19 19.09.2019
1649 Clouds 27 1012 83 10000 1 110 11:56 19.09.2019
1650 Clouds 27 1012 83 10000 1 110 11:38 19.09.2019
1651 Clouds 27 1012 83 10000 1 110 11:19 19.09.2019
1652 Clouds 27 1011 83 10000 2.1 160 10:40 19.09.2019
1653 Clouds 27 1011 83 10000 2.1 160 10:21 19.09.2019
1654 Clouds 29 1010 74 10000 3.6 90 09:58 19.09.2019
1655 Clouds 29 1010 74 10000 3.6 90 09:40 19.09.2019
1656 Clouds 29 1010 74 10000 3.6 90 09:40 19.09.2019
1657 Clouds 29 1010 74 10000 3.6 90 09:40 19.09.2019
1658 Clouds 29 1010 74 10000 3.6 90 09:19 19.09.2019
1659 Clouds 31 1009 62 10000 4.1 90 08:51 19.09.2019
1660 Clouds 31 1009 62 10000 4.1 90 08:24 19.09.2019
1661 Clouds 31 1009 66 10000 6.2 90 07:44 19.09.2019
1662 Clouds 31 1009 62 10000 6.7 90 07:22 19.09.2019
1663 Clouds 31 1009 62 10000 6.7 90 06:57 19.09.2019
1664 Clouds 31 1009 62 10000 6.7 90 06:37 19.09.2019
1665 Clouds 32 1009 62 10000 6.2 70 06:19 19.09.2019
1666 Clouds 32 1009 62 10000 6.2 70 05:42 19.09.2019
1667 Clouds 32 1010 59 10000 7.2 90 04:18 19.09.2019
1668 Clouds 31 1011 62 10000 4.1 110 03:19 19.09.2019
1669 Clouds 30 1012 74 10000 10.71 148.748 01:36 19.09.2019
1670 Clouds 28 1012 83 10000 1.5 200 00:53 19.09.2019
1671 Clouds 28 1012 83 10000 1.5 200 00:27 19.09.2019
1672 Clouds 26 1012 88 10000 1 360 23:57 18.09.2019
1673 Clouds 26 1012 88 10000 1 360 23:36 18.09.2019
1674 Clouds 26 1012 88 10000 1 360 23:18 18.09.2019
1675 Clouds 25 1010 94 10000 9.56 140.059 22:37 18.09.2019
1676 Clouds 25 1010 94 10000 9.56 140.059 22:19 18.09.2019
1677 Clouds 24 1010 100 10000 1.5 200 21:57 18.09.2019
1678 Clouds 24 1010 100 10000 1.5 200 21:38 18.09.2019
1679 Clouds 24 1010 100 10000 1.5 200 21:18 18.09.2019
1680 Clouds 24 1010 100 10000 2.1 140 20:56 18.09.2019
1681 Clouds 24 1010 100 10000 2.1 140 20:38 18.09.2019
1682 Clouds 24 1010 100 10000 9.16 144.657 20:20 18.09.2019
1683 Clouds 24 1010 100 10000 9.16 144.657 19:55 18.09.2019
1684 Clouds 24 1010 100 10000 9.16 144.657 19:37 18.09.2019
1685 Clouds 25 1010 94 10000 9.16 144.657 19:18 18.09.2019
1686 Clouds 25 1010 94 10000 9.16 144.657 18:54 18.09.2019
1687 Clouds 25 1010 94 10000 9.16 144.657 18:54 18.09.2019
1688 Clouds 25 1010 94 10000 9.16 144.657 18:36 18.09.2019
1689 Clouds 25 1010 94 10000 8.03 128.7 18:18 18.09.2019
1690 Clouds 25 1011 94 10000 8.03 128.7 17:41 18.09.2019
1691 Clouds 25 1011 94 10000 8.03 128.7 17:19 18.09.2019
1692 Clouds 25 1012 100 10000 1.5 180 16:58 18.09.2019
1693 Clouds 25 1012 100 10000 1.5 180 16:39 18.09.2019
1694 Clouds 25 1012 100 10000 1.5 180 16:21 18.09.2019
1695 Clouds 25 1012 94 10000 1 160 15:56 18.09.2019
1696 Clouds 25 1012 94 10000 1 160 15:38 18.09.2019
1697 Clouds 25 1012 94 10000 1 160 15:20 18.09.2019
1698 Clouds 26 1012 88 10000 1 180 14:58 18.09.2019
1699 Clouds 26 1012 88 10000 1 180 14:39 18.09.2019
1700 Clouds 26 1012 88 10000 1 180 14:21 18.09.2019
1701 Clouds 26 1012 88 10000 1 180 14:21 18.09.2019
1702 Clouds 27 1012 88 10000 3.1 200 13:54 18.09.2019
1703 Clouds 27 1012 88 10000 3.1 200 13:36 18.09.2019
1704 Clouds 28 1013 81 0 8.16 147.5 13:18 18.09.2019
1705 Clouds 28 1013 81 0 8.16 147.5 12:37 18.09.2019
1706 Clouds 27 1011 83 10000 2.6 160 12:19 18.09.2019
1707 Clouds 27 1011 83 10000 2.6 160 11:40 18.09.2019
1708 Clouds 27 1011 83 10000 2.6 160 11:20 18.09.2019
1709 Clouds 28 1011 78 10000 3.1 140 10:55 18.09.2019
1710 Clouds 28 1011 78 10000 3.1 140 10:37 18.09.2019
1711 Clouds 28 1011 78 10000 3.1 140 10:18 18.09.2019
1712 Clouds 29 1010 74 10000 4.1 90 09:41 18.09.2019
1713 Clouds 29 1010 74 10000 4.1 90 09:22 18.09.2019
1714 Clouds 31 1010 74 10000 4.6 90 08:57 18.09.2019
1715 Clouds 31 1010 74 10000 4.6 90 08:39 18.09.2019
1716 Clouds 31 1010 70 10000 2.6 320 08:19 18.09.2019
1717 Clouds 31 1010 70 10000 2.6 320 07:43 18.09.2019
1718 Clouds 32 1010 66 10000 5.1 90 07:23 18.09.2019
1719 Clouds 32 1010 66 10000 5.1 90 06:45 18.09.2019
1720 Clouds 32 1011 70 10000 7.2 70 06:21 18.09.2019
1721 Clouds 32 1011 70 10000 7.2 70 05:26 18.09.2019
1722 Clouds 31 1012 74 10000 5.1 90 03:38 18.09.2019
1723 Clouds 30 1013 79 10000 3.6 50 02:40 18.09.2019
1724 Clouds 30 1014 79 10000 2.6 70 01:37 18.09.2019
1725 Clouds 27 1014 88 10000 1 250 00:51 18.09.2019
1726 Clouds 27 1014 88 10000 1 250 00:28 18.09.2019
1727 Clouds 25 1014 94 10000 2.6 200 23:47 17.09.2019
1728 Clouds 25 1014 94 10000 2.6 200 23:23 17.09.2019
1729 Clouds 25 1014 94 10000 2.6 200 23:23 17.09.2019
1730 Clouds 24 1013 94 0 2.1 160 22:45 17.09.2019
1731 Clouds 24 1013 94 0 2.1 160 22:25 17.09.2019
1732 Clouds 24 1012 94 10000 2.1 140 21:56 17.09.2019
1733 Clouds 24 1012 94 10000 2.1 140 21:37 17.09.2019
1734 Clouds 24 1012 94 10000 2.1 140 21:19 17.09.2019
1735 Clouds 24 1012 94 10000 2.1 140 21:19 17.09.2019
1736 Clouds 24 1012 94 10000 2.1 140 21:19 17.09.2019
1737 Clouds 24 1012 94 10000 2.44 119.401 20:59 17.09.2019
1738 Clouds 24 1012 94 10000 2.55 128.895 20:41 17.09.2019
1739 Clouds 24 1012 94 10000 2.55 128.895 20:22 17.09.2019
1740 Clouds 23 1011 100 10000 2.55 128.895 19:59 17.09.2019
1741 Clouds 23 1011 100 10000 2.55 128.895 19:39 17.09.2019
1742 Clouds 24 1011 94 10000 2.55 128.895 19:20 17.09.2019
1743 Clouds 24 1011 94 10000 2.55 128.895 18:57 17.09.2019
1744 Clouds 24 1011 94 10000 2.55 128.895 18:57 17.09.2019
1745 Clouds 24 1011 94 10000 2.55 128.895 18:39 17.09.2019
1746 Clouds 24 1012 94 10000 1.5 180 18:21 17.09.2019
1747 Clouds 24 1012 94 10000 1.5 180 17:46 17.09.2019
1748 Clouds 24 1012 94 10000 1.5 180 17:20 17.09.2019
1749 Clouds 24 1012 100 10000 1.75 138.193 16:59 17.09.2019
1750 Clouds 24 1012 100 10000 1.75 138.193 16:40 17.09.2019
1751 Clouds 24 1012 100 10000 1.75 138.193 16:22 17.09.2019
1752 Clouds 24 1013 100 10000 1.75 138.193 15:40 17.09.2019
1753 Clouds 24 1013 100 10000 2.14 114.001 15:21 17.09.2019
1754 Clouds 24 1013 100 10000 2.14 114.001 15:21 17.09.2019
1755 Clouds 24 1013 100 10000 1.5 140 14:57 17.09.2019
1756 Clouds 24 1013 100 10000 1.5 140 14:39 17.09.2019
1757 Clouds 24 1013 100 10000 1.5 140 14:19 17.09.2019
1758 Clouds 25 1013 94 10000 2.14 114.001 13:57 17.09.2019
1759 Clouds 25 1013 94 10000 2.14 114.001 13:38 17.09.2019
1760 Clouds 26 1013 88 10000 1.5 180 13:20 17.09.2019
1761 Clouds 26 1013 88 10000 1.5 180 12:42 17.09.2019
1762 Clouds 26 1013 88 10000 1.3 140.962 12:20 17.09.2019
1763 Clouds 26 1013 88 10000 1.3 140.962 11:47 17.09.2019
1764 Clouds 26 1013 88 10000 1.3 140.962 11:28 17.09.2019
1765 Clouds 27 1011 88 10000 1.5 230 10:59 17.09.2019
1766 Clouds 27 1011 88 10000 1.5 230 10:41 17.09.2019
1767 Clouds 27 1011 88 10000 1.5 230 10:21 17.09.2019
1768 Clouds 30 1010 74 10000 2.6 70 09:55 17.09.2019
1769 Clouds 30 1010 74 10000 2.6 70 09:37 17.09.2019
1770 Clouds 30 1010 74 10000 2.6 70 09:19 17.09.2019
1771 Clouds 31 1010 70 10000 3.6 70 08:43 17.09.2019
1772 Clouds 31 1010 70 10000 3.6 70 08:25 17.09.2019
1773 Clouds 31 1010 70 10000 5.1 50 07:44 17.09.2019
1774 Clouds 31 1010 70 10000 5.1 50 07:26 17.09.2019
1775 Clouds 32 1009 66 10000 7.2 50 06:54 17.09.2019
1776 Clouds 32 1009 66 10000 7.2 50 06:29 17.09.2019
1777 Clouds 32 1010 62 10000 5.7 50 05:53 17.09.2019
1778 Clouds 32 1011 66 10000 4.6 50 04:55 17.09.2019
1779 Clouds 32 1012 70 10000 5.1 50 03:41 17.09.2019
1780 Clouds 32 1013 62 10000 6.2 70 02:39 17.09.2019
1781 Clouds 31 1013 66 10000 4.6 90 01:50 17.09.2019
1782 Clouds 30 1013 74 10000 5.1 110 00:46 17.09.2019
1783 Clouds 28 1013 78 10000 2.1 140 23:41 16.09.2019
1784 Clouds 28 1013 78 10000 2.1 140 23:20 16.09.2019
1785 Clouds 25 1013 88 10000 1.5 180 22:58 16.09.2019
1786 Clouds 25 1013 88 10000 1.5 180 22:40 16.09.2019
1787 Clouds 25 1013 88 10000 1.5 180 22:21 16.09.2019
1788 Clouds 25 1013 88 10000 1.5 180 22:21 16.09.2019
1789 Clouds 24 1012 94 10000 1.5 180 21:56 16.09.2019
1790 Clouds 24 1012 94 10000 1.5 180 21:37 16.09.2019
1791 Clouds 23 1011 100 10000 2.1 200 21:18 16.09.2019
1792 Clouds 23 1011 100 10000 2.1 200 20:41 16.09.2019
1793 Clouds 23 1011 100 10000 2.1 200 20:23 16.09.2019
1794 Clouds 23 1011 100 10000 2.1 180 19:57 16.09.2019
1795 Clouds 23 1011 100 10000 2.1 180 19:39 16.09.2019
1796 Clouds 23 1011 100 10000 1.5 180 19:20 16.09.2019
1797 Clouds 23 1011 100 10000 1.5 180 18:48 16.09.2019
1798 Clouds 23 1011 100 10000 1.5 180 18:30 16.09.2019
1799 Clouds 23 1011 94 10000 1 180 17:59 16.09.2019
1800 Clouds 23 1011 94 10000 1 180 17:59 16.09.2019
1801 Clouds 23 1011 94 10000 1 180 17:41 16.09.2019
1802 Clouds 23 1011 94 10000 1 180 17:22 16.09.2019
1803 Clouds 23 1011 100 10000 2.1 200 16:55 16.09.2019
1804 Clouds 23 1011 100 10000 2.1 200 16:37 16.09.2019
1805 Clouds 23 1012 100 10000 1 180 16:18 16.09.2019
1806 Clouds 23 1012 100 10000 1 180 15:55 16.09.2019
1807 Clouds 23 1012 100 10000 1 180 15:37 16.09.2019
1808 Clouds 23 1012 100 10000 1 180 15:37 16.09.2019
1809 Clouds 23 1012 100 10000 1 180 15:18 16.09.2019
1810 Clouds 23 1012 100 10000 1.5 160 14:43 16.09.2019
1811 Clouds 23 1012 100 10000 1.5 160 14:23 16.09.2019
1812 Clouds 24 1012 94 10000 1.5 160 13:57 16.09.2019
1813 Clouds 24 1012 94 10000 1.5 160 13:38 16.09.2019
1814 Clouds 24 1012 94 10000 1.5 160 13:38 16.09.2019
1815 Clouds 24 1013 94 10000 1 140 13:20 16.09.2019
1816 Clouds 24 1013 94 10000 1 140 12:42 16.09.2019
1817 Clouds 24 1013 94 10000 1 140 12:24 16.09.2019
1818 Clouds 25 1013 88 10000 1.5 110 11:54 16.09.2019
1819 Clouds 25 1013 88 10000 1.5 110 11:54 16.09.2019
1820 Clouds 25 1013 88 10000 1.5 110 11:36 16.09.2019
1821 Clouds 26 1012 83 10000 1.5 140 11:18 16.09.2019
1822 Clouds 26 1012 83 10000 1.5 140 10:38 16.09.2019
1823 Clouds 26 1012 83 10000 1.5 140 10:19 16.09.2019
1824 Clouds 27 1012 83 10000 3.1 160 09:57 16.09.2019
1825 Clouds 27 1012 83 10000 3.1 160 09:38 16.09.2019
1826 Clouds 27 1012 83 10000 3.1 160 09:38 16.09.2019
1827 Clouds 27 1012 83 10000 3.1 160 09:18 16.09.2019
1828 Clouds 30 1011 66 10000 1.5 160 08:42 16.09.2019
1829 Clouds 30 1011 66 10000 1.5 160 08:24 16.09.2019
1830 Clouds 31 1011 74 10000 6.2 70 07:44 16.09.2019
1831 Clouds 31 1011 74 10000 6.2 70 07:25 16.09.2019
1832 Clouds 31 1011 70 10000 6.2 50 06:58 16.09.2019
1833 Clouds 31 1011 70 10000 6.2 50 06:39 16.09.2019
1834 Clouds 31 1011 70 10000 5.1 50 06:21 16.09.2019
1835 Clouds 31 1011 70 10000 5.1 50 05:43 16.09.2019
1836 Clouds 31 1011 70 10000 5.1 50 05:21 16.09.2019
1837 Clouds 32 1012 66 10000 6.2 50 03:46 16.09.2019
1838 Clouds 31 1014 70 10000 5.7 110 01:40 16.09.2019
1839 Clouds 30 1014 70 10000 1 90 00:38 16.09.2019
1840 Clouds 30 1014 70 10000 1 90 00:20 16.09.2019
1841 Clouds 27 1014 78 10000 1.5 160 23:39 15.09.2019
1842 Clouds 27 1014 78 10000 1.5 160 23:20 15.09.2019
1843 Clouds 24 1014 88 10000 1.5 180 22:40 15.09.2019
1844 Clouds 24 1014 88 10000 1.5 180 22:21 15.09.2019
1845 Clouds 23 1012 94 10000 2.6 100 21:58 15.09.2019
1846 Clouds 23 1012 94 10000 2.6 100 21:39 15.09.2019
1847 Clouds 23 1012 94 10000 2.6 100 21:39 15.09.2019
1848 Clouds 23 1012 94 10000 2.6 100 21:39 15.09.2019
1849 Clouds 23 1012 100 10000 2.6 160 21:21 15.09.2019
1850 Clouds 23 1012 100 10000 2.6 160 20:57 15.09.2019
1851 Clouds 23 1012 100 10000 2.6 160 20:57 15.09.2019
1852 Clouds 23 1012 100 10000 2.6 160 20:38 15.09.2019
1853 Clouds 23 1012 100 10000 2.6 160 20:20 15.09.2019
1854 Clouds 23 1012 100 10000 6.68 135.152 19:42 15.09.2019
1855 Clouds 23 1012 100 10000 6.68 135.152 19:22 15.09.2019
1856 Clouds 24 1012 94 10000 6.68 135.152 18:42 15.09.2019
1857 Clouds 24 1011 94 10000 7.8 145.175 18:24 15.09.2019
1858 Clouds 24 1011 94 10000 7.8 145.175 17:56 15.09.2019
1859 Clouds 24 1011 94 10000 7.8 145.175 17:37 15.09.2019
1860 Clouds 24 1012 94 10000 7.8 145.175 17:19 15.09.2019
1861 Clouds 24 1012 94 10000 7.8 145.175 17:19 15.09.2019
1862 Clouds 24 1012 94 10000 7.8 145.175 16:42 15.09.2019
1863 Clouds 24 1012 94 10000 7.8 145.175 16:24 15.09.2019
1864 Clouds 24 1013 100 10000 7.8 145.175 15:58 15.09.2019
1865 Clouds 24 1013 100 10000 7.8 145.175 15:39 15.09.2019
1866 Clouds 24 1013 100 10000 9.45 144.58 15:20 15.09.2019
1867 Clouds 25 1014 94 10000 9.45 144.58 14:57 15.09.2019
1868 Clouds 25 1014 94 10000 9.45 144.58 14:38 15.09.2019
1869 Clouds 25 1014 94 10000 9.45 144.58 14:20 15.09.2019
1870 Clouds 25 1014 94 10000 9.45 144.58 13:45 15.09.2019
1871 Clouds 26 1014 83 10000 8.5 138.468 13:24 15.09.2019
1872 Clouds 26 1014 83 10000 8.5 138.468 12:44 15.09.2019
1873 Clouds 26 1014 83 10000 7.07 137.504 12:25 15.09.2019
1874 Clouds 26 1014 83 10000 7.07 137.504 11:59 15.09.2019
1875 Clouds 26 1014 83 10000 7.07 137.504 11:41 15.09.2019
1876 Clouds 26 1014 83 10000 7.07 137.504 11:22 15.09.2019
1877 Clouds 27 1013 78 10000 1.5 110 10:55 15.09.2019
1878 Clouds 27 1013 78 10000 1.5 110 10:37 15.09.2019
1879 Clouds 28 1012 78 10000 2.1 110 10:18 15.09.2019
1880 Clouds 28 1012 78 10000 2.1 110 09:39 15.09.2019
1881 Clouds 28 1012 78 10000 2.1 110 09:19 15.09.2019
1882 Clouds 30 1011 70 10000 4.1 90 08:47 15.09.2019
1883 Clouds 30 1011 70 10000 4.1 90 08:27 15.09.2019
1884 Clouds 30 1010 70 10000 6.2 90 07:49 15.09.2019
1885 Clouds 30 1010 70 10000 6.2 90 07:28 15.09.2019
1886 Clouds 30 1010 74 10000 7.2 70 06:43 15.09.2019
1887 Clouds 31 1012 70 10000 5.7 50 03:31 15.09.2019
1888 Clouds 32 1013 62 10000 4.6 50 02:35 15.09.2019
1889 Clouds 30 1013 70 10000 3.1 70 01:40 15.09.2019
1890 Clouds 28 1014 78 10000 2.1 70 01:19 15.09.2019
1891 Clouds 28 1014 78 10000 2.1 70 00:43 15.09.2019
1892 Clouds 28 1014 78 10000 2.1 70 00:21 15.09.2019
1893 Clouds 27 1013 83 10000 2.6 110 23:58 14.09.2019
1894 Clouds 27 1013 83 10000 2.6 110 23:58 14.09.2019
1895 Clouds 27 1013 83 10000 2.6 110 23:39 14.09.2019
1896 Clouds 27 1013 83 10000 2.6 110 23:21 14.09.2019
1897 Clouds 25 1013 88 10000 1.5 110 22:59 14.09.2019
1898 Clouds 25 1013 88 10000 1.5 110 22:40 14.09.2019
1899 Clouds 25 1013 88 10000 1.5 110 22:40 14.09.2019
1900 Clouds 25 1013 88 10000 1.5 110 22:19 14.09.2019
1901 Clouds 23 1012 94 10000 1.5 200 21:41 14.09.2019
1902 Clouds 23 1012 94 10000 1.5 200 21:22 14.09.2019
1903 Clouds 24 1011 94 10000 8.38 137.665 20:59 14.09.2019
1904 Clouds 24 1011 94 10000 8.91 141.052 20:40 14.09.2019
1905 Clouds 24 1011 94 10000 8.91 141.052 20:40 14.09.2019
1906 Clouds 24 1011 94 10000 8.91 141.052 20:22 14.09.2019
1907 Clouds 24 1011 94 10000 8.91 141.052 19:52 14.09.2019
1908 Clouds 24 1011 94 10000 8.91 141.052 19:23 14.09.2019
1909 Clouds 24 1011 94 10000 8.91 141.052 18:59 14.09.2019
1910 Clouds 24 1011 94 10000 8.91 141.052 18:40 14.09.2019
1911 Clouds 24 1011 94 10000 7.21 136.81 18:21 14.09.2019
1912 Clouds 24 1011 94 10000 7.21 136.81 17:57 14.09.2019
1913 Clouds 24 1011 94 10000 7.21 136.81 17:39 14.09.2019
1914 Clouds 24 1011 94 10000 7.21 136.81 17:20 14.09.2019
1915 Clouds 24 1012 94 10000 7.21 136.81 16:43 14.09.2019
1916 Clouds 24 1012 94 10000 7.21 136.81 16:21 14.09.2019
1917 Clouds 24 1012 94 10000 1.5 140 15:42 14.09.2019
1918 Clouds 24 1012 94 10000 1.5 140 15:23 14.09.2019
1919 Clouds 24 1012 100 10000 2.1 180 14:58 14.09.2019
1920 Clouds 24 1012 100 10000 2.1 180 14:39 14.09.2019
1921 Clouds 24 1012 100 10000 2.1 180 14:18 14.09.2019
1922 Clouds 24 1012 100 10000 2.1 90 13:47 14.09.2019
1923 Clouds 24 1012 100 10000 2.1 90 13:47 14.09.2019
1924 Clouds 24 1012 100 10000 2.1 90 13:47 14.09.2019
1925 Clouds 25 1012 94 10000 7.78 144.149 13:22 14.09.2019
1926 Clouds 25 1012 94 10000 7.78 144.149 12:47 14.09.2019
1927 Clouds 25 1012 94 10000 7.78 144.149 12:25 14.09.2019
1928 Clouds 26 1011 88 10000 7.38 137.449 11:42 14.09.2019
1929 Clouds 26 1011 88 10000 7.38 137.449 11:21 14.09.2019
1930 Clouds 26 1010 88 10000 1.5 180 10:55 14.09.2019
1931 Clouds 26 1010 88 10000 1.5 180 10:36 14.09.2019
1932 Clouds 26 1010 88 10000 1.5 180 10:18 14.09.2019
1933 Clouds 28 1010 78 10000 7.38 137.449 09:41 14.09.2019
1934 Clouds 28 1010 78 10000 8.28 148.071 09:21 14.09.2019
1935 Clouds 30 1009 66 10000 3.1 200 08:59 14.09.2019
1936 Clouds 30 1009 66 10000 3.1 200 08:41 14.09.2019
1937 Clouds 30 1009 66 10000 3.1 200 08:21 14.09.2019
1938 Clouds 29 1009 70 10000 3.1 200 07:43 14.09.2019
1939 Clouds 31 1009 74 10000 6.2 70 07:23 14.09.2019
1940 Clouds 31 1009 74 10000 6.2 70 06:35 14.09.2019
1941 Clouds 31 1009 74 10000 6.2 70 05:53 14.09.2019
1942 Clouds 31 1009 70 10000 6.7 50 04:27 14.09.2019
1943 Clouds 32 1010 70 10000 4.1 50 03:20 14.09.2019
1944 Clouds 32 1011 62 10000 5.1 50 02:42 14.09.2019
1945 Clouds 32 1011 62 10000 5.1 50 02:42 14.09.2019
1946 Clouds 31 1012 70 10000 4.6 90 01:45 14.09.2019
1947 Clouds 30 1012 70 10000 3.6 110 01:19 14.09.2019
1948 Clouds 30 1012 70 10000 3.6 110 00:40 14.09.2019
1949 Clouds 30 1012 70 10000 3.6 110 00:21 14.09.2019
1950 Clouds 30 1012 70 10000 3.6 110 23:55 13.09.2019
1951 Clouds 25 1011 94 10000 2.16 128.714 23:36 13.09.2019
1952 Clouds 25 1011 94 10000 2.16 128.714 23:18 13.09.2019
1953 Clouds 25 1011 94 10000 2.16 128.714 22:40 13.09.2019
1954 Clouds 25 1011 94 10000 2.16 128.714 22:22 13.09.2019
1955 Clouds 24 1010 100 10000 2.16 128.714 21:58 13.09.2019
1956 Clouds 24 1010 100 10000 2.16 128.714 21:38 13.09.2019
1957 Clouds 24 1010 100 10000 2.73 93.817 21:19 13.09.2019
1958 Clouds 25 1010 94 10000 2.73 93.817 20:57 13.09.2019
1959 Clouds 25 1010 94 10000 2.58 128.622 20:36 13.09.2019
1960 Clouds 24 1010 100 10000 1 110 20:18 13.09.2019
1961 Clouds 24 1010 100 10000 1 110 19:43 13.09.2019
1962 Clouds 24 1010 100 10000 2.58 128.622 19:22 13.09.2019
1963 Clouds 24 1010 100 10000 2.58 128.622 18:58 13.09.2019
1964 Clouds 24 1010 100 10000 2.58 128.622 18:37 13.09.2019
1965 Clouds 24 1010 100 10000 2.4 87.539 18:19 13.09.2019
1966 Clouds 24 1010 100 10000 2.4 87.539 17:43 13.09.2019
1967 Clouds 24 1010 100 10000 2.4 87.539 17:20 13.09.2019
1968 Clouds 25 1010 94 10000 1 160 16:55 13.09.2019
1969 Clouds 25 1010 94 10000 1 160 16:55 13.09.2019
1970 Clouds 25 1010 94 10000 1 160 16:37 13.09.2019
1971 Clouds 25 1010 94 10000 1 160 16:18 13.09.2019
1972 Clouds 25 1010 94 10000 1 160 16:18 13.09.2019
1973 Clouds 25 1011 100 10000 2.1 160 15:40 13.09.2019
1974 Clouds 25 1011 100 10000 2.1 160 15:21 13.09.2019
1975 Clouds 26 1011 94 10000 3.42 138.494 14:44 13.09.2019
1976 Clouds 26 1011 94 10000 3.42 138.494 14:23 13.09.2019
1977 Clouds 26 1011 94 10000 1.5 200 13:58 13.09.2019
1978 Clouds 26 1011 94 10000 1.5 200 13:39 13.09.2019
1979 Clouds 26 1011 94 10000 2.1 140 13:21 13.09.2019
1980 Clouds 26 1011 94 10000 2.1 140 12:44 13.09.2019
1981 Clouds 27 1011 94 10000 1.5 90 12:24 13.09.2019
1982 Clouds 27 1011 94 10000 1.5 90 11:56 13.09.2019
1983 Clouds 27 1011 94 10000 1.5 90 11:20 13.09.2019
1984 Clouds 28 1011 88 10000 2.6 50 10:41 13.09.2019
1985 -273 0 0 0 0 0 10:41 13.09.2019
1986 Clouds 28 1011 88 10000 2.6 50 10:20 13.09.2019
1987 Clouds 28 1010 88 10000 2.6 50 09:47 13.09.2019
1988 Clouds 28 1010 88 10000 2.6 50 09:26 13.09.2019
1989 Clouds 29 1010 79 10000 2.6 50 08:59 13.09.2019
1990 Clouds 29 1010 79 10000 2.6 50 08:41 13.09.2019
1991 Clouds 29 1010 79 10000 2.6 50 08:41 13.09.2019
1992 Clouds 29 1010 79 10000 2.6 50 08:21 13.09.2019
1993 Clouds 30 1009 74 10000 2.6 90 07:56 13.09.2019
1994 Clouds 30 1009 74 10000 2.6 90 07:38 13.09.2019
1995 Rain 29 1009 79 10000 3.6 360 06:49 13.09.2019
1996 Clouds 30 1010 74 10000 2.6 20 05:50 13.09.2019
1997 Clouds 30 1010 74 10000 4.1 50 05:18 13.09.2019
1998 Clouds 32 1011 70 10000 4.1 50 03:40 13.09.2019
1999 Clouds 31 1012 70 10000 3.6 50 02:22 13.09.2019
2000 Clouds 31 1012 70 10000 3.6 90 01:59 13.09.2019
2001 Clouds 31 1012 70 10000 3.6 90 01:34 13.09.2019
2002 Clouds 30 1012 74 10000 2.6 140 00:58 13.09.2019
2003 Clouds 30 1012 74 10000 2.6 140 00:23 13.09.2019
2004 Clouds 26 1011 83 10000 0.83 21.943 23:39 12.09.2019
2005 Clouds 24 1011 100 10000 2.1 160 23:20 12.09.2019
2006 Clouds 24 1011 100 10000 2.1 160 23:20 12.09.2019
2007 Clouds 24 1011 100 10000 2.1 160 22:42 12.09.2019
2008 Clouds 24 1011 100 10000 2.1 160 22:24 12.09.2019
2009 Clouds 24 1010 94 10000 0.83 21.943 21:57 12.09.2019
2010 Clouds 24 1010 94 10000 0.83 21.943 21:38 12.09.2019
2011 Clouds 24 1010 94 10000 0.83 21.943 21:38 12.09.2019
2012 Clouds 24 1010 94 10000 0.94 84.277 21:20 12.09.2019
2013 Clouds 24 1009 94 10000 2.1 140 20:56 12.09.2019
2014 Clouds 24 1009 94 10000 2.1 140 20:38 12.09.2019
2015 Clouds 24 1009 94 10000 2.1 140 20:20 12.09.2019
2016 Clouds 24 1010 100 10000 1.22 158.747 19:54 12.09.2019
2017 Clouds 24 1010 100 10000 1.22 158.747 19:36 12.09.2019
2018 Clouds 24 1010 100 10000 1.22 158.747 19:36 12.09.2019
2019 Clouds 24 1010 100 10000 1.22 158.747 19:18 12.09.2019
2020 Clouds 24 1010 100 10000 1.22 158.747 18:37 12.09.2019
2021 Clouds 25 1010 94 10000 0.78 152.156 18:19 12.09.2019
2022 Clouds 25 1010 94 10000 0.78 152.156 17:56 12.09.2019
2023 Clouds 25 1010 94 10000 0.78 152.156 17:38 12.09.2019
2024 Clouds 25 1010 94 10000 0.78 152.156 17:19 12.09.2019
2025 Clouds 25 1010 94 10000 0.78 152.156 16:41 12.09.2019
2026 Clouds 25 1010 94 10000 0.78 152.156 16:21 12.09.2019
2027 Clouds 25 1011 94 10000 1 180 15:43 12.09.2019
2028 Clouds 25 1011 94 10000 1 180 15:24 12.09.2019
2029 Clouds 26 1012 88 10000 1 180 14:58 12.09.2019
2030 Clouds 26 1012 88 10000 1 180 14:39 12.09.2019
2031 Clouds 26 1012 88 10000 1 180 14:20 12.09.2019
2032 Clouds 26 1012 88 10000 1 180 14:20 12.09.2019
2033 Clouds 26 1012 94 10000 1 110 13:39 12.09.2019
2034 Clouds 26 1012 94 10000 1 110 13:21 12.09.2019
2035 Clouds 26 1011 94 10000 1 140 12:49 12.09.2019
2036 Clouds 26 1011 94 10000 1 140 12:20 12.09.2019
2037 Clouds 26 1011 94 10000 1 140 11:58 12.09.2019
2038 Clouds 26 1011 94 10000 1 140 11:58 12.09.2019
2039 Clouds 26 1011 94 10000 1 140 11:40 12.09.2019
2040 Clouds 26 1011 94 10000 1 140 11:21 12.09.2019
2041 Clouds 27 1011 88 10000 1 110 10:49 12.09.2019
2042 Clouds 27 1011 88 10000 1 110 10:28 12.09.2019
2043 Clouds 28 1010 83 10000 2.1 90 09:56 12.09.2019
2044 Clouds 28 1010 83 10000 2.1 90 09:38 12.09.2019
2045 Clouds 28 1010 83 10000 2.1 90 09:18 12.09.2019
2046 Clouds 30 1010 70 10000 3.6 90 08:43 12.09.2019
2047 Clouds 30 1010 70 10000 3.6 90 08:23 12.09.2019
2048 Clouds 30 1010 74 10000 6.2 70 07:47 12.09.2019
2049 Clouds 31 1009 70 10000 6.2 70 07:20 12.09.2019
2050 Clouds 31 1009 70 10000 6.2 70 06:52 12.09.2019
2051 Clouds 31 1009 70 10000 6.2 70 06:31 12.09.2019
2052 Clouds 32 1009 62 10000 6.7 90 05:52 12.09.2019
2053 Clouds 32 1009 62 10000 6.7 90 05:34 12.09.2019
2054 Clouds 32 1010 66 10000 8.2 70 04:41 12.09.2019
2055 Clouds 31 1012 62 10000 7.2 90 03:18 12.09.2019
2056 Clouds 29 1012 79 10000 3.1 90 01:38 12.09.2019
2057 Clouds 27 1012 88 10000 2.6 110 01:19 12.09.2019
2058 Clouds 27 1012 88 10000 2.6 110 00:45 12.09.2019
2059 Clouds 27 1012 88 10000 2.6 110 00:25 12.09.2019
2060 Clouds 25 1012 94 10000 1.5 140 23:43 11.09.2019
2061 Clouds 25 1012 94 10000 1.5 140 23:24 11.09.2019
2062 Clouds 25 1012 94 10000 1.5 140 23:24 11.09.2019
2063 Clouds 24 1012 100 10000 2.6 90 22:57 11.09.2019
2064 Clouds 24 1012 100 10000 2.6 90 22:37 11.09.2019
2065 Clouds 24 1012 100 10000 2.6 90 22:19 11.09.2019
2066 Clouds 24 1011 100 10000 1 160 21:43 11.09.2019
2067 Clouds 24 1011 100 10000 1 160 21:25 11.09.2019
2068 Rain 24 1010 100 10000 1.5 160 20:58 11.09.2019
2069 Rain 24 1010 100 10000 1.5 160 20:40 11.09.2019
2070 Rain 24 1010 100 10000 1.5 160 20:20 11.09.2019
2071 Clouds 24 1010 100 10000 2.1 110 19:58 11.09.2019
2072 Clouds 24 1010 100 10000 2.1 110 19:40 11.09.2019
2073 Clouds 25 1010 88 10000 1.5 110 19:21 11.09.2019
2074 Clouds 25 1010 88 10000 1.5 110 18:58 11.09.2019
2075 Clouds 25 1010 88 10000 1.5 110 18:40 11.09.2019
2076 Clouds 25 1011 88 10000 1.5 180 18:22 11.09.2019
2077 Clouds 25 1011 88 10000 1.5 180 17:56 11.09.2019
2078 Clouds 25 1011 88 10000 1.5 180 17:37 11.09.2019
2079 Clouds 25 1011 88 10000 1.5 180 17:19 11.09.2019
2080 Clouds 25 1011 94 10000 1.5 180 16:48 11.09.2019
2081 Clouds 25 1011 94 10000 1.5 180 16:25 11.09.2019
2082 Clouds 25 1011 94 10000 1 180 15:54 11.09.2019
2083 Clouds 25 1011 94 10000 1 180 15:54 11.09.2019
2084 Clouds 25 1011 94 10000 1 180 15:36 11.09.2019
2085 Clouds 25 1012 94 10000 2.6 110 15:18 11.09.2019
2086 Clouds 25 1012 94 10000 2.6 110 14:41 11.09.2019
2087 Clouds 25 1012 94 10000 2.6 110 14:21 11.09.2019
2088 Clouds 25 1012 94 10000 1 180 13:59 11.09.2019
2089 Clouds 25 1012 94 10000 1 180 13:37 11.09.2019
2090 Clouds 26 1012 88 10000 1 90 13:19 11.09.2019
2091 Clouds 26 1012 88 10000 1 90 12:44 11.09.2019
2092 Clouds 26 1012 88 10000 1.5 180 12:23 11.09.2019
2093 Clouds 26 1012 88 10000 1.5 180 11:59 11.09.2019
2094 Clouds 26 1012 88 10000 1.5 180 11:39 11.09.2019
2095 Clouds 26 1012 88 10000 1.5 180 11:39 11.09.2019
2096 Clouds 26 1012 88 10000 1.5 180 11:21 11.09.2019
2097 Clouds 27 1011 83 10000 4.1 110 10:55 11.09.2019
2098 Clouds 27 1011 83 10000 4.1 110 10:37 11.09.2019
2099 Clouds 29 1010 74 10000 4.6 90 10:18 11.09.2019
2100 Clouds 29 1010 74 10000 4.6 90 09:37 11.09.2019
2101 Clouds 29 1010 74 10000 4.6 90 09:19 11.09.2019
2102 Clouds 31 1009 62 10000 4.1 90 08:42 11.09.2019
2103 Clouds 31 1009 70 10000 6.2 70 08:21 11.09.2019
2104 Clouds 31 1009 70 10000 6.2 70 07:57 11.09.2019
2105 Clouds 31 1009 70 10000 6.2 70 07:38 11.09.2019
2106 Clouds 32 1008 62 10000 6.2 70 07:19 11.09.2019
2107 Clouds 32 1008 62 10000 6.2 70 06:38 11.09.2019
2108 Clouds 32 1009 62 10000 6.2 70 06:19 11.09.2019
2109 Clouds 32 1009 62 10000 6.2 70 05:33 11.09.2019
2110 Clouds 31 1010 74 10000 6.2 70 04:52 11.09.2019
2111 Clouds 31 1011 70 10000 4.6 50 03:58 11.09.2019
2112 Clouds 31 1011 70 10000 4.6 50 03:25 11.09.2019
2113 Clouds 30 1011 74 10000 9.63 145.747 02:28 11.09.2019
2114 Clouds 28 1012 83 10000 1.5 180 01:28 11.09.2019
2115 Clouds 28 1012 78 10000 4.1 140 00:31 11.09.2019
2116 Clouds 26 1012 88 10000 1 200 23:58 10.09.2019
2117 Clouds 26 1012 88 10000 1 200 23:39 10.09.2019
2118 Clouds 26 1012 88 10000 1 200 23:20 10.09.2019
2119 Clouds 25 1011 88 10000 1 110 22:41 10.09.2019
2120 Clouds 25 1011 88 10000 1 110 22:20 10.09.2019
2121 Clouds 24 1009 94 10000 1 110 21:57 10.09.2019
2122 Clouds 24 1009 94 10000 1 110 21:38 10.09.2019
2123 Clouds 24 1009 94 10000 1 110 21:20 10.09.2019
2124 Drizzle 24 1009 100 10000 1 180 20:58 10.09.2019
2125 Drizzle 24 1009 100 10000 1 180 20:40 10.09.2019
2126 Drizzle 24 1009 100 10000 1 180 20:22 10.09.2019
2127 Clouds 24 1009 100 10000 1 160 19:57 10.09.2019
2128 Clouds 24 1009 100 10000 1 160 19:38 10.09.2019
2129 Clouds 24 1009 100 10000 1 200 19:19 10.09.2019
2130 Clouds 24 1009 100 10000 1 200 18:56 10.09.2019
2131 Clouds 24 1009 100 10000 1 200 18:37 10.09.2019
2132 Clouds 24 1009 100 10000 1 200 18:37 10.09.2019
2133 Clouds 25 1009 94 10000 2.6 160 18:19 10.09.2019
2134 Clouds 25 1009 94 10000 2.6 160 17:43 10.09.2019
2135 Clouds 25 1009 94 10000 2.6 160 17:23 10.09.2019
2136 Clouds 25 1011 94 10000 12.52 157.364 16:59 10.09.2019
2137 Clouds 25 1011 94 10000 12.52 157.364 16:39 10.09.2019
2138 Clouds 25 1011 94 10000 12.52 157.364 16:21 10.09.2019
2139 Clouds 25 1011 94 10000 12.52 157.364 15:58 10.09.2019
2140 Clouds 25 1011 94 10000 12.52 157.364 15:39 10.09.2019
2141 Clouds 25 1011 94 10000 12.66 160.516 15:20 10.09.2019
2142 Clouds 25 1011 94 10000 1.5 160 14:41 10.09.2019
2143 Clouds 25 1011 94 10000 1.5 160 14:23 10.09.2019
2144 Clouds 25 1010 94 10000 2.1 160 13:54 10.09.2019
2145 Clouds 25 1010 94 10000 2.1 160 13:36 10.09.2019
2146 Clouds 25 1010 94 10000 2.1 160 13:36 10.09.2019
2147 Clouds 26 1010 94 10000 11.38 155.902 13:18 10.09.2019
2148 Clouds 26 1010 94 10000 11.38 155.902 12:42 10.09.2019
2149 Clouds 26 1010 94 10000 2.1 70 12:24 10.09.2019
2150 Clouds 26 1010 94 10000 2.1 70 11:54 10.09.2019
2151 Clouds 26 1010 94 10000 2.1 70 11:36 10.09.2019
2152 Clouds 26 1009 94 10000 10.13 155.965 11:18 10.09.2019
2153 Clouds 26 1009 94 10000 10.13 155.965 10:39 10.09.2019
2154 Clouds 27 1008 94 10000 3.1 110 10:19 10.09.2019
2155 Clouds 27 1008 94 10000 3.1 110 09:50 10.09.2019
2156 Clouds 28 1007 88 10000 4.1 90 09:20 10.09.2019
2157 Clouds 28 1007 88 10000 4.1 90 08:59 10.09.2019
2158 Clouds 28 1007 88 10000 4.1 90 08:41 10.09.2019
2159 Clouds 29 1006 83 10000 4.1 70 08:22 10.09.2019
2160 Clouds 29 1006 83 10000 4.1 70 07:44 10.09.2019
2161 Clouds 29 1006 83 10000 4.1 70 07:26 10.09.2019
2162 Clouds 30 1006 79 10000 5.1 50 06:51 10.09.2019
2163 Clouds 30 1006 79 10000 5.1 50 06:31 10.09.2019
2164 Clouds 31 1007 74 10000 5.1 50 04:57 10.09.2019
2165 Clouds 30 1009 66 10000 4.6 110 02:46 10.09.2019
2166 Rain 27 1009 84 0 10 147.267 02:22 10.09.2019
2167 Rain 27 1009 84 0 10 147.267 02:22 10.09.2019
2168 Rain 27 1009 84 0 10 147.267 02:22 10.09.2019
2169 Rain 27 1009 84 0 10 147.267 01:54 10.09.2019
2170 Clouds 27 1009 83 10000 1 160 01:24 10.09.2019
2171 Clouds 27 1009 83 10000 1 160 00:44 10.09.2019
2172 Clouds 25 1009 94 10000 1.5 180 00:23 10.09.2019
2173 Clouds 25 1009 94 10000 1.5 180 23:41 09.09.2019
2174 Clouds 24 1008 100 10000 5.03 139.748 23:19 09.09.2019
2175 Clouds 24 1008 100 10000 5.03 139.748 22:55 09.09.2019
2176 Clouds 24 1008 100 10000 5.03 139.748 22:37 09.09.2019
2177 Clouds 24 1007 94 10000 2.1 160 22:19 09.09.2019
2178 Clouds 24 1007 94 10000 2.1 160 21:56 09.09.2019
2179 Clouds 24 1007 94 10000 2.1 160 21:37 09.09.2019
2180 Clouds 24 1007 94 10000 2.1 160 21:37 09.09.2019
2181 Clouds 24 1006 94 10000 1.5 110 21:19 09.09.2019
2182 Clouds 24 1006 94 10000 1.5 110 20:55 09.09.2019
2183 Clouds 24 1006 94 10000 1.5 110 20:36 09.09.2019
2184 Clouds 24 1006 94 10000 1.5 140 20:18 09.09.2019
2185 Clouds 24 1006 94 10000 1.5 140 19:56 09.09.2019
2186 Clouds 24 1006 94 10000 1.5 140 19:37 09.09.2019
2187 Clouds 24 1007 94 10000 1.5 140 19:19 09.09.2019
2188 Clouds 24 1007 94 10000 1.5 140 18:55 09.09.2019
2189 Clouds 24 1007 94 10000 1.5 140 18:37 09.09.2019
2190 Clouds 24 1007 94 10000 10.04 150.825 18:18 09.09.2019
2191 Clouds 24 1007 94 10000 10.04 150.825 17:56 09.09.2019
2192 Clouds 24 1007 94 10000 10.04 150.825 17:37 09.09.2019
2193 Clouds 25 1007 94 10000 2.6 200 17:19 09.09.2019
2194 Clouds 25 1007 94 10000 2.6 200 16:40 09.09.2019
2195 Clouds 25 1008 94 10000 1 200 16:21 09.09.2019
2196 Clouds 25 1008 94 10000 1 200 15:56 09.09.2019
2197 Clouds 25 1008 94 10000 1 200 15:38 09.09.2019
2198 Clouds 25 1008 94 10000 1 200 15:19 09.09.2019
2199 Clouds 25 1008 94 10000 1 200 14:57 09.09.2019
2200 Clouds 25 1008 94 10000 2.1 110 14:38 09.09.2019
2201 Clouds 25 1008 94 10000 2.1 110 14:20 09.09.2019
2202 Clouds 25 1008 88 10000 1 160 13:45 09.09.2019
2203 Clouds 25 1008 88 10000 1 160 13:21 09.09.2019
2204 Clouds 25 1008 88 10000 1 160 12:58 09.09.2019
2205 Clouds 25 1008 88 10000 2.1 140 12:40 09.09.2019
2206 Clouds 25 1008 88 10000 2.1 140 12:40 09.09.2019
2207 Clouds 26 1007 78 10000 2.1 110 12:21 09.09.2019
2208 Clouds 26 1007 78 10000 2.1 110 11:48 09.09.2019
2209 Clouds 26 1007 78 10000 2.1 110 11:24 09.09.2019
2210 Clouds 26 1007 78 10000 2.1 110 10:59 09.09.2019
2211 Clouds 27 1007 78 10000 3.6 110 10:41 09.09.2019
2212 Clouds 27 1007 78 10000 3.6 110 10:21 09.09.2019
2213 Clouds 27 1007 78 10000 3.6 110 09:57 09.09.2019
2214 Clouds 28 1006 74 10000 3.6 110 09:38 09.09.2019
2215 Clouds 28 1006 74 10000 3.6 110 09:19 09.09.2019
2216 Clouds 31 1005 62 10000 2.6 110 08:39 09.09.2019
2217 Rain 26 1006 89 0 6.49 153.597 08:20 09.09.2019
2218 Rain 26 1006 89 0 6.49 153.597 08:20 09.09.2019
2219 Rain 26 1006 89 0 6.49 153.597 08:20 09.09.2019
2220 Rain 26 1006 89 0 6.49 153.597 07:46 09.09.2019
2221 Clouds 30 1004 74 10000 5.1 110 07:23 09.09.2019
2222 Clouds 30 1004 74 10000 5.1 110 06:57 09.09.2019
2223 Clouds 30 1004 74 10000 5.1 110 06:57 09.09.2019
2224 Clouds 30 1004 74 10000 5.1 110 06:35 09.09.2019
2225 Clouds 30 1006 74 10000 3.6 50 04:56 09.09.2019
2226 Clouds 30 1007 70 10000 3.1 20 02:54 09.09.2019
2227 Clouds 30 1008 70 10000 1.5 360 02:34 09.09.2019
2228 Clouds 28 1009 78 10000 2.17 164.421 00:41 09.09.2019
2229 Clouds 25 1009 94 10000 2.26 94.702 00:21 09.09.2019
2230 Clouds 25 1009 94 10000 2.26 94.702 23:44 08.09.2019
2231 Clouds 25 1009 94 10000 2.26 94.702 23:23 08.09.2019
2232 Clouds 23 1008 100 10000 1 140 22:56 08.09.2019
2233 Clouds 23 1008 100 10000 1 140 22:37 08.09.2019
2234 Clouds 22 1008 100 10000 2.26 94.702 22:19 08.09.2019
2235 Clouds 22 1008 100 10000 2.26 94.702 21:42 08.09.2019
2236 Clouds 22 1008 100 10000 2.26 94.702 21:42 08.09.2019
2237 Clouds 22 1008 100 10000 4.22 140.413 21:22 08.09.2019
2238 Clouds 23 1007 94 10000 1 180 20:58 08.09.2019
2239 Clouds 23 1007 94 10000 1 180 20:39 08.09.2019
2240 Rain 26 1007 82 0 3.65 159.51 20:20 08.09.2019
2241 Rain 26 1007 82 0 3.65 159.51 19:58 08.09.2019
2242 Rain 26 1007 82 0 3.65 159.51 19:37 08.09.2019
2243 Clouds 23 1007 100 10000 2.1 160 19:19 08.09.2019
2244 Clouds 23 1007 100 10000 2.1 160 18:56 08.09.2019
2245 Clouds 23 1007 100 10000 2.1 160 18:37 08.09.2019
2246 Clouds 24 1007 94 10000 1.82 104.181 18:18 08.09.2019
2247 Clouds 24 1007 94 10000 1.82 104.181 17:38 08.09.2019
2248 Drizzle 24 1008 100 10000 1 200 17:19 08.09.2019
2249 Drizzle 24 1008 100 10000 1 200 16:59 08.09.2019
2250 Drizzle 24 1008 100 10000 1 200 16:41 08.09.2019
2251 Clouds 24 1009 100 10000 1 200 16:21 08.09.2019
2252 Clouds 24 1009 100 10000 1 200 15:57 08.09.2019
2253 Clouds 24 1009 100 10000 1 200 15:39 08.09.2019
2254 Drizzle 24 1010 100 10000 1 140 15:20 08.09.2019
2255 Drizzle 24 1010 100 10000 1 140 14:41 08.09.2019
2256 Drizzle 24 1010 100 10000 1 140 14:41 08.09.2019
2257 Drizzle 24 1010 100 10000 1 140 14:22 08.09.2019
2258 Drizzle 25 1010 100 10000 1 140 13:58 08.09.2019
2259 Drizzle 25 1010 100 10000 1 140 13:40 08.09.2019
2260 Clouds 25 1010 100 10000 1 180 13:22 08.09.2019
2261 Clouds 25 1010 100 10000 1 180 12:58 08.09.2019
2262 Clouds 25 1010 100 10000 1 180 12:40 08.09.2019
2263 Drizzle 25 1009 94 10000 1.5 160 12:22 08.09.2019
2264 Drizzle 25 1009 94 10000 1.5 160 11:57 08.09.2019
2265 Drizzle 25 1009 94 10000 1.5 160 11:37 08.09.2019
2266 Clouds 26 1009 94 10000 2.1 270 11:19 08.09.2019
2267 Clouds 26 1009 94 10000 2.1 270 10:43 08.09.2019
2268 Clouds 26 1008 94 10000 1 270 10:23 08.09.2019
2269 Clouds 26 1008 94 10000 1 270 09:56 08.09.2019
2270 Clouds 26 1008 94 10000 1 270 09:37 08.09.2019
2271 Drizzle 26 1008 94 10000 4.73 144.509 09:19 08.09.2019
2272 Drizzle 26 1008 94 10000 4.73 144.509 09:19 08.09.2019
2273 Drizzle 26 1008 94 10000 3.23 148.756 08:40 08.09.2019
2274 Drizzle 26 1008 94 10000 3.23 148.756 08:40 08.09.2019
2275 Drizzle 26 1008 94 10000 3.23 148.756 08:19 08.09.2019
2276 Drizzle 26 1008 94 10000 3.23 148.756 07:58 08.09.2019
2277 Clouds 26 1008 94 10000 3.23 148.756 07:37 08.09.2019
2278 Clouds 26 1008 94 10000 3.23 148.756 07:19 08.09.2019
2279 Clouds 26 1008 94 10000 2.1 160 06:41 08.09.2019
2280 Drizzle 26 1008 94 10000 1.5 180 05:40 08.09.2019
2281 Drizzle 26 1008 94 10000 1.5 180 05:21 08.09.2019
2282 Clouds 26 1010 94 10000 7.41 148.51 03:23 08.09.2019
2283 Drizzle 25 1011 94 10000 1 140 02:48 08.09.2019
2284 Drizzle 25 1012 94 10000 2.1 140 01:54 08.09.2019
2285 Drizzle 25 1012 94 10000 2.1 140 01:27 08.09.2019
2286 Rain 25 1012 94 10000 5.16 138.877 00:49 08.09.2019
2287 Rain 25 1012 94 10000 5.16 138.877 00:30 08.09.2019
2288 Drizzle 24 1011 100 10000 8.82 144.954 23:57 07.09.2019
2289 Drizzle 24 1011 100 10000 8.82 144.954 23:37 07.09.2019
2290 Drizzle 24 1010 100 10000 1.5 180 23:18 07.09.2019
2291 Drizzle 24 1010 100 10000 1.5 180 22:43 07.09.2019
2292 Drizzle 24 1010 100 10000 1.5 180 22:23 07.09.2019
2293 Drizzle 24 1010 100 10000 1.5 180 21:56 07.09.2019
2294 Drizzle 24 1010 100 10000 8.82 144.954 21:37 07.09.2019
2295 Drizzle 24 1010 100 10000 9.4 148.958 21:19 07.09.2019
2296 Clouds 24 1009 100 10000 8.45 144.93 20:39 07.09.2019
2297 Clouds 24 1009 94 10000 8.45 144.93 20:21 07.09.2019
2298 Clouds 24 1009 94 10000 8.45 144.93 19:56 07.09.2019
2299 Clouds 24 1009 94 10000 8.45 144.93 19:38 07.09.2019
2300 Clouds 24 1008 94 10000 1.5 160 19:19 07.09.2019
2301 Clouds 24 1008 94 10000 1.5 160 19:19 07.09.2019
2302 Clouds 24 1008 94 10000 1.5 160 18:58 07.09.2019
2303 Clouds 24 1008 94 10000 1.5 160 18:58 07.09.2019
2304 Clouds 24 1008 94 10000 1.5 160 18:38 07.09.2019
2305 Clouds 24 1008 94 10000 1.5 160 18:20 07.09.2019
2306 Clouds 24 1009 94 10000 1.5 140 17:56 07.09.2019
2307 Clouds 24 1009 94 10000 1.5 140 17:38 07.09.2019
2308 Clouds 24 1009 100 10000 2.1 110 17:18 07.09.2019
2309 Clouds 24 1009 100 10000 2.1 110 16:43 07.09.2019
2310 Clouds 24 1009 100 10000 2.1 110 16:43 07.09.2019
2311 Clouds 24 1009 100 10000 2.1 110 16:43 07.09.2019
2312 Clouds 24 1010 100 10000 1.5 140 16:23 07.09.2019
2313 Clouds 24 1010 100 10000 1.5 140 15:58 07.09.2019
2314 Clouds 24 1010 100 10000 1.5 140 15:40 07.09.2019
2315 Clouds 26 1010 83 10000 3.6 110 15:21 07.09.2019
2316 Clouds 26 1010 83 10000 3.6 110 14:55 07.09.2019
2317 Clouds 26 1010 83 10000 3.6 110 14:55 07.09.2019
2318 Clouds 26 1010 83 10000 3.6 110 14:36 07.09.2019
2319 Clouds 26 1010 83 10000 1.5 140 14:18 07.09.2019
2320 Clouds 26 1010 83 10000 1.5 140 13:44 07.09.2019
2321 Clouds 26 1010 88 10000 2.1 110 13:25 07.09.2019
2322 Clouds 26 1010 88 10000 2.1 110 12:54 07.09.2019
2323 Clouds 26 1010 88 10000 2.1 110 12:36 07.09.2019
2324 Clouds 26 1010 88 10000 2.1 110 12:36 07.09.2019
2325 Clouds 26 1009 83 10000 2.6 200 12:18 07.09.2019
2326 Clouds 26 1009 83 10000 2.6 200 11:40 07.09.2019
2327 Clouds 27 1009 78 10000 2.1 230 11:21 07.09.2019
2328 Clouds 27 1009 78 10000 2.1 230 10:41 07.09.2019
2329 Clouds 29 1008 70 10000 3.6 250 10:22 07.09.2019
2330 Clouds 29 1008 70 10000 3.6 250 09:58 07.09.2019
2331 Clouds 29 1008 70 10000 3.6 250 09:39 07.09.2019
2332 Clouds 29 1008 66 10000 3.1 290 09:20 07.09.2019
2333 Clouds 29 1008 66 10000 3.1 290 08:45 07.09.2019
2334 Clouds 29 1008 66 10000 3.1 290 08:26 07.09.2019
2335 Clouds 30 1008 62 10000 3.1 320 07:48 07.09.2019
2336 Clouds 30 1008 62 10000 3.1 320 07:28 07.09.2019
2337 Clouds 31 1008 62 10000 3.1 360 06:55 07.09.2019
2338 Clouds 31 1008 62 10000 3.1 360 06:35 07.09.2019
2339 Clouds 31 1009 62 10000 3.1 360 05:32 07.09.2019
2340 Clouds 31 1009 62 10000 4.1 20 04:25 07.09.2019
2341 Clouds 30 1011 58 10000 2.1 360 02:57 07.09.2019
2342 Clouds 30 1012 62 10000 1 20 02:21 07.09.2019
2343 Clouds 30 1012 62 10000 1 20 01:26 07.09.2019
2344 Clouds 29 1012 66 10000 4.5 156.609 00:44 07.09.2019
2345 Clouds 29 1012 66 10000 4.41 129.847 00:21 07.09.2019
2346 Clouds 26 1012 83 10000 4.41 129.847 23:43 06.09.2019
2347 Clouds 26 1012 83 10000 4.41 129.847 23:23 06.09.2019
2348 Clouds 26 1012 83 10000 4.41 129.847 23:23 06.09.2019
2349 Clouds 26 1012 83 10000 4.41 129.847 22:59 06.09.2019
2350 Clouds 24 1011 94 10000 4.41 129.847 22:40 06.09.2019
2351 Clouds 24 1011 94 10000 4.41 129.847 22:19 06.09.2019
2352 Clouds 24 1011 94 10000 4.41 129.847 21:58 06.09.2019
2353 Clouds 24 1011 94 10000 4.41 129.847 21:39 06.09.2019
2354 Clouds 24 1010 94 10000 4.95 135.27 21:21 06.09.2019
2355 Clouds 24 1010 94 10000 4.95 135.27 20:58 06.09.2019
2356 Clouds 24 1010 94 10000 5.07 135.688 20:39 06.09.2019
2357 Clouds 26 1011 73 0 5.07 135.688 20:21 06.09.2019
2358 Clouds 26 1011 73 0 5.07 135.688 20:21 06.09.2019
2359 Clouds 26 1011 73 0 5.07 135.688 19:57 06.09.2019
2360 Clouds 26 1011 73 0 5.07 135.688 19:39 06.09.2019
2361 Clouds 24 1010 94 10000 5.07 135.688 19:20 06.09.2019
2362 Clouds 26 1011 73 0 5.07 135.688 18:46 06.09.2019
2363 Clouds 24 1010 94 10000 5.5 139.418 18:25 06.09.2019
2364 Clouds 24 1010 94 10000 5.5 139.418 17:59 06.09.2019
2365 Clouds 24 1010 94 10000 5.5 139.418 17:38 06.09.2019
2366 Clouds 24 1010 94 10000 5.5 139.418 17:19 06.09.2019
2367 Clouds 24 1011 88 10000 1.5 160 16:41 06.09.2019
2368 Clouds 24 1011 88 10000 1.5 160 16:19 06.09.2019
2369 Clouds 24 1011 88 10000 1.5 160 16:19 06.09.2019
2370 Clouds 24 1011 94 10000 2.6 90 15:42 06.09.2019
2371 Clouds 24 1011 94 10000 2.6 90 15:24 06.09.2019
2372 -273 0 0 0 0 0 14:55 06.09.2019
2373 Clouds 24 1011 78 10000 1.5 140 14:37 06.09.2019
2374 Clouds 24 1011 78 10000 1.5 140 14:37 06.09.2019
2375 Clouds 24 1011 83 10000 1 160 14:18 06.09.2019
2376 Clouds 24 1011 83 10000 1 160 13:41 06.09.2019
2377 Clouds 24 1011 83 10000 1 160 13:41 06.09.2019
2378 Clouds 24 1011 78 10000 1 140 13:20 06.09.2019
2379 Clouds 24 1011 78 10000 1 140 12:38 06.09.2019
2380 Clouds 25 1010 78 10000 2.1 110 12:19 06.09.2019
2381 Clouds 25 1010 78 10000 2.1 110 11:54 06.09.2019
2382 Clouds 25 1010 78 10000 2.1 110 11:36 06.09.2019
2383 Clouds 26 1009 78 10000 2.1 110 11:18 06.09.2019
2384 Clouds 26 1009 78 10000 2.1 110 10:40 06.09.2019
2385 Clouds 28 1009 74 10000 2.1 110 10:21 06.09.2019
2386 Clouds 28 1009 74 10000 2.1 110 09:57 06.09.2019
2387 Clouds 28 1009 74 10000 2.1 110 09:36 06.09.2019
2388 Clouds 29 1008 66 10000 1.5 270 09:18 06.09.2019
2389 Clouds 29 1008 66 10000 1.5 270 08:42 06.09.2019
2390 Clouds 29 1008 66 10000 1.5 270 08:42 06.09.2019
2391 Clouds 29 1008 66 10000 1.5 270 08:24 06.09.2019
2392 Clouds 29 1008 66 10000 3.1 360 07:47 06.09.2019
2393 Clouds 29 1008 66 10000 3.1 360 07:27 06.09.2019
2394 Clouds 29 1009 66 10000 3.6 70 06:57 06.09.2019
2395 Clouds 29 1009 70 10000 3.6 340 06:21 06.09.2019
2396 Clouds 29 1009 70 10000 3.6 340 05:43 06.09.2019
2397 Clouds 29 1009 70 10000 3.6 360 04:48 06.09.2019
2398 Clouds 29 1010 74 10000 2.6 320 03:52 06.09.2019
2399 Clouds 28 1011 78 10000 1.5 360 01:54 06.09.2019
2400 Clouds 27 1011 83 10000 9.62 151.035 00:41 06.09.2019
2401 Clouds 25 1011 83 10000 1 160 23:45 05.09.2019
2402 Clouds 25 1011 83 10000 1 160 23:45 05.09.2019
2403 Clouds 25 1011 83 10000 1 160 23:26 05.09.2019
2404 Clouds 24 1010 83 10000 10.38 146.974 22:58 05.09.2019
2405 Clouds 24 1010 83 10000 10.38 146.974 22:58 05.09.2019
2406 Clouds 24 1010 83 10000 10.38 146.974 22:40 05.09.2019
2407 Clouds 24 1010 83 10000 10.38 146.974 22:40 05.09.2019
2408 Clouds 24 1010 83 10000 1.5 200 22:22 05.09.2019
2409 Clouds 24 1010 83 10000 1.5 200 21:56 05.09.2019
2410 Clouds 24 1010 83 10000 1.5 200 21:37 05.09.2019
2411 Clouds 24 1009 83 10000 1.5 110 21:19 05.09.2019
2412 Clouds 24 1009 83 10000 1.5 110 20:56 05.09.2019
2413 Clouds 24 1009 83 10000 1.5 110 20:37 05.09.2019
2414 Clouds 24 1009 94 10000 11.03 149.304 20:19 05.09.2019
2415 Clouds 24 1009 94 10000 11.03 149.304 19:42 05.09.2019
2416 Clouds 24 1009 94 10000 1.5 160 19:24 05.09.2019
2417 Clouds 24 1009 94 10000 1.5 160 18:58 05.09.2019
2418 Clouds 24 1009 94 10000 1.5 160 18:39 05.09.2019
2419 Clouds 24 1009 94 10000 1.5 160 18:20 05.09.2019
2420 Clouds 24 1009 94 10000 1.5 160 17:55 05.09.2019
2421 Clouds 24 1009 94 10000 1.5 160 17:37 05.09.2019
2422 Clouds 24 1010 94 10000 10.67 147.767 17:18 05.09.2019
2423 Clouds 24 1010 94 10000 10.67 147.767 16:40 05.09.2019
2424 Clouds 24 1010 88 10000 10.67 147.767 16:20 05.09.2019
2425 Clouds 24 1010 88 10000 10.67 147.767 15:58 05.09.2019
2426 Clouds 24 1010 88 10000 10.67 147.767 15:38 05.09.2019
2427 Clouds 25 1011 83 10000 10.9 146.81 15:18 05.09.2019
2428 Clouds 25 1011 83 10000 10.9 146.81 15:18 05.09.2019
2429 Clouds 25 1011 83 10000 10.9 146.81 14:43 05.09.2019
2430 Clouds 24 1010 88 10000 10.9 146.81 14:21 05.09.2019
2431 Clouds 24 1010 88 10000 10.9 146.81 13:44 05.09.2019
2432 Clouds 24 1010 88 10000 10.9 146.81 13:44 05.09.2019
2433 Clouds 25 1010 83 10000 1.5 110 13:23 05.09.2019
2434 Clouds 25 1010 83 10000 1.5 110 12:59 05.09.2019
2435 Clouds 25 1010 83 10000 1.5 110 12:40 05.09.2019
2436 Clouds 25 1010 83 10000 1.5 110 12:21 05.09.2019
2437 Clouds 26 1010 78 10000 11.76 148.995 11:44 05.09.2019
2438 Clouds 27 1009 83 10000 1.5 230 11:20 05.09.2019
2439 -273 0 0 0 0 0 10:55 05.09.2019
2440 Clouds 27 1009 83 10000 1.5 230 10:36 05.09.2019
2441 Clouds 28 1008 78 10000 3.1 270 10:18 05.09.2019
2442 Clouds 28 1008 78 10000 3.1 270 09:40 05.09.2019
2443 Clouds 28 1008 78 10000 3.1 270 09:40 05.09.2019
2444 -273 0 0 0 0 0 09:20 05.09.2019
2445 Clouds 30 1007 66 10000 4.6 270 08:46 05.09.2019
2446 Clouds 30 1007 66 10000 4.6 270 08:27 05.09.2019
2447 Clouds 31 1007 66 10000 4.1 250 07:48 05.09.2019
2448 Clouds 31 1007 66 10000 4.1 250 07:29 05.09.2019
2449 Clouds 31 1007 62 10000 4.1 270 06:58 05.09.2019
2450 Clouds 31 1007 62 10000 4.1 270 06:33 05.09.2019
2451 Clouds 31 1007 62 10000 4.1 270 06:33 05.09.2019
2452 Clouds 32 1008 55 10000 3.1 320 05:59 05.09.2019
2453 Clouds 32 1008 55 10000 3.1 320 05:37 05.09.2019
2454 Clouds 31 1008 62 10000 2.1 320 05:19 05.09.2019
2455 Clouds 31 1008 62 10000 2.1 320 04:29 05.09.2019
2456 Clouds 30 1009 70 10000 4.1 290 03:40 05.09.2019
2457 Clouds 29 1010 70 10000 3.6 320 02:54 05.09.2019
2458 Clouds 29 1010 70 10000 3.6 320 02:27 05.09.2019
2459 Clouds 29 1010 79 10000 2.1 360 01:41 05.09.2019
2460 Clouds 28 1010 78 10000 2.1 20 00:48 05.09.2019
2461 Clouds 28 1010 78 10000 2.1 20 00:22 05.09.2019
2462 Clouds 25 1010 88 10000 13.28 150.004 23:56 04.09.2019
2463 Clouds 25 1010 88 10000 13.28 150.004 23:37 04.09.2019
2464 Clouds 23 1010 94 10000 1.5 110 23:18 04.09.2019
2465 Clouds 23 1010 94 10000 1.5 110 22:46 04.09.2019
2466 Clouds 22 1009 100 10000 1.5 140 22:19 04.09.2019
2467 Clouds 22 1009 100 10000 1.5 140 21:40 04.09.2019
2468 Clouds 23 1009 94 10000 12.97 156.139 21:20 04.09.2019
2469 Clouds 23 1009 94 10000 12.97 156.139 21:20 04.09.2019
2470 Clouds 23 1009 94 10000 12.97 156.139 21:20 04.09.2019
2471 Clouds 23 1009 94 10000 12.97 156.139 20:57 04.09.2019
2472 Clouds 23 1009 94 10000 12.97 156.139 20:57 04.09.2019
2473 Clouds 23 1009 94 10000 12.97 156.139 20:39 04.09.2019
2474 Clouds 23 1009 94 10000 12.97 156.139 20:19 04.09.2019
2475 Clouds 23 1009 94 10000 12.97 156.139 19:57 04.09.2019
2476 Clouds 23 1009 94 10000 12.97 156.139 19:38 04.09.2019
2477 Clouds 23 1009 94 10000 12.97 156.139 19:38 04.09.2019
2478 Clouds 23 1009 94 10000 12.97 156.139 19:19 04.09.2019
2479 Clouds 22 1009 100 10000 12.97 156.139 18:38 04.09.2019
2480 Clouds 22 1009 100 10000 10.9 152.045 18:20 04.09.2019
2481 Clouds 22 1009 100 10000 10.9 152.045 17:42 04.09.2019
2482 Clouds 22 1009 100 10000 10.9 152.045 17:24 04.09.2019
2483 Clouds 23 1010 100 10000 1 160 16:58 04.09.2019
2484 Clouds 23 1010 100 10000 1 160 16:40 04.09.2019
2485 Clouds 23 1010 100 10000 1 160 16:22 04.09.2019
2486 Clouds 23 1010 100 10000 1 160 15:56 04.09.2019
2487 Clouds 23 1010 100 10000 1 160 15:55 04.09.2019
2488 Clouds 23 1010 100 10000 1 160 15:37 04.09.2019
2489 Clouds 24 1010 94 10000 2.1 140 15:19 04.09.2019
2490 Clouds 24 1010 94 10000 2.1 140 14:54 04.09.2019
2491 Clouds 24 1010 94 10000 2.1 140 14:36 04.09.2019
2492 Clouds 24 1010 94 10000 2.1 140 14:18 04.09.2019
2493 Clouds 24 1010 94 10000 1.5 160 13:40 04.09.2019
2494 Clouds 24 1010 94 10000 1.5 160 13:21 04.09.2019
2495 Clouds 24 1010 94 10000 1.5 160 13:21 04.09.2019
2496 Clouds 24 1010 100 10000 2.1 200 12:46 04.09.2019
2497 Clouds 24 1010 100 10000 2.1 200 12:27 04.09.2019
2498 Clouds 24 1010 100 10000 10.78 148.167 11:59 04.09.2019
2499 Clouds 24 1010 100 10000 10.78 148.167 11:41 04.09.2019
2500 Clouds 24 1010 100 10000 10.78 148.167 11:21 04.09.2019
2501 Clouds 24 1010 100 10000 10.78 148.167 10:58 04.09.2019
2502 Clouds 25 1009 94 10000 1 230 10:39 04.09.2019
2503 Clouds 25 1009 94 10000 1 230 10:21 04.09.2019
2504 Clouds 25 1008 94 10000 2.1 230 09:46 04.09.2019
2505 Clouds 26 1008 88 10000 1.5 110 09:21 04.09.2019
2506 Clouds 26 1008 88 10000 1.5 110 08:43 04.09.2019
2507 Clouds 26 1008 88 10000 1.5 110 08:24 04.09.2019
2508 Clouds 26 1008 88 10000 1.5 110 08:00 04.09.2019
2509 Clouds 26 1008 94 10000 1.5 160 07:40 04.09.2019
2510 Clouds 26 1008 94 10000 1.5 160 07:22 04.09.2019
2511 Clouds 25 1008 100 10000 2.1 250 06:39 04.09.2019
2512 Clouds 25 1008 100 10000 2.1 250 06:39 04.09.2019
2513 Rain 25 1010 100 0 2.1 200 04:55 04.09.2019
2514 Rain 25 1010 100 0 2.1 200 04:24 04.09.2019
2515 Drizzle 26 1010 94 10000 2.1 180 03:21 04.09.2019
2516 Clouds 28 1010 83 10000 1.5 140 01:20 04.09.2019
2517 Clouds 27 1010 88 10000 2.1 160 00:45 04.09.2019
2518 Clouds 25 1010 94 10000 1.5 180 00:27 04.09.2019
2519 Clouds 25 1010 94 10000 1.5 180 23:51 03.09.2019
2520 Clouds 25 1010 94 10000 1.5 180 23:27 03.09.2019
2521 Clouds 24 1009 100 10000 8.63 151.155 22:43 03.09.2019
2522 Clouds 24 1008 100 10000 1.5 200 22:24 03.09.2019
2523 Clouds 24 1008 100 10000 1.5 200 21:59 03.09.2019
2524 Clouds 24 1008 100 10000 1.5 200 21:38 03.09.2019
2525 Clouds 24 1008 100 10000 1.5 200 21:38 03.09.2019
2526 Clouds 24 1008 100 10000 1.5 200 21:20 03.09.2019
2527 Clouds 24 1008 100 10000 1.5 200 20:56 03.09.2019
2528 Clouds 24 1008 100 10000 1.5 200 20:37 03.09.2019
2529 Clouds 24 1008 100 10000 1.5 200 20:19 03.09.2019
2530 Clouds 24 1008 100 10000 7.02 148.804 19:43 03.09.2019
2531 Clouds 24 1008 100 10000 7.02 148.804 19:20 03.09.2019
2532 Clouds 25 1008 100 10000 1.5 140 18:59 03.09.2019
2533 Clouds 25 1008 100 10000 1.5 140 18:59 03.09.2019
2534 Clouds 25 1008 100 10000 1.5 140 18:40 03.09.2019
2535 Clouds 25 1009 100 10000 1.5 180 18:19 03.09.2019
2536 -273 0 0 0 0 0 17:55 03.09.2019
2537 Clouds 25 1009 100 10000 1.5 180 17:55 03.09.2019
2538 Clouds 25 1009 100 10000 1.5 180 17:55 03.09.2019
2539 Clouds 25 1009 100 10000 1.5 180 17:36 03.09.2019
2540 Clouds 25 1009 100 10000 1 110 17:18 03.09.2019
2541 Clouds 25 1009 100 10000 1 110 16:42 03.09.2019
2542 Clouds 25 1010 100 10000 1.5 90 16:22 03.09.2019
2543 Clouds 25 1010 100 10000 1.5 90 15:55 03.09.2019
2544 Clouds 25 1010 100 10000 1.5 90 15:37 03.09.2019
2545 Rain 25 1010 100 10000 4.56 149.226 15:19 03.09.2019
2546 Rain 25 1010 100 10000 4.56 149.226 14:41 03.09.2019
2547 Rain 25 1010 100 10000 3.1 140 14:22 03.09.2019
2548 Rain 25 1010 100 10000 3.1 140 13:58 03.09.2019
2549 Rain 25 1010 100 10000 3.1 140 13:38 03.09.2019
2550 Rain 25 1010 100 10000 3.1 140 13:20 03.09.2019
2551 Clouds 26 1010 94 10000 1.5 180 12:57 03.09.2019
2552 Clouds 26 1010 94 10000 1.5 180 12:39 03.09.2019
2553 Clouds 26 1010 94 10000 1.5 180 12:39 03.09.2019
2554 Clouds 27 1009 88 10000 1.5 180 12:21 03.09.2019
2555 Clouds 27 1009 88 10000 1.5 180 11:42 03.09.2019
2556 Clouds 27 1009 88 10000 4.47 153.217 11:23 03.09.2019
2557 Clouds 27 1009 88 10000 4.47 153.217 10:57 03.09.2019
2558 Clouds 27 1009 88 10000 4.47 153.217 10:39 03.09.2019
2559 Clouds 28 1008 78 10000 4.47 153.217 10:20 03.09.2019
2560 Clouds 28 1008 78 10000 5.39 153.088 09:44 03.09.2019
2561 Clouds 28 1008 78 10000 5.39 153.088 09:26 03.09.2019
2562 Clouds 30 1007 66 10000 2.6 50 08:56 03.09.2019
2563 Clouds 30 1007 66 10000 2.6 50 08:56 03.09.2019
2564 Clouds 30 1007 66 10000 2.6 50 08:37 03.09.2019
2565 Clouds 30 1007 66 10000 2.6 50 08:18 03.09.2019
2566 Clouds 31 1007 70 10000 3.1 20 07:41 03.09.2019
2567 Clouds 31 1007 70 10000 3.1 20 07:23 03.09.2019
2568 Clouds 31 1007 70 10000 2.6 340 06:45 03.09.2019
2569 Clouds 31 1008 74 10000 5.1 340 05:53 03.09.2019
2570 Clouds 31 1009 70 10000 3.1 20 03:42 03.09.2019
2571 Clouds 30 1010 74 10000 3.1 50 02:46 03.09.2019
2572 Clouds 31 1010 70 10000 2.6 50 02:24 03.09.2019
2573 Clouds 31 1010 70 10000 2.6 50 01:50 03.09.2019
2574 Clouds 31 1010 70 10000 2.6 50 01:32 03.09.2019
2575 Clouds 30 1010 70 10000 2.6 90 00:43 03.09.2019
2576 Clouds 26 1010 88 10000 2.1 180 00:23 03.09.2019
2577 Clouds 26 1010 88 10000 2.1 180 00:23 03.09.2019
2578 Clouds 26 1010 88 10000 2.1 180 23:40 02.09.2019
2579 Clouds 26 1010 88 10000 2.1 180 23:20 02.09.2019
2580 Clouds 26 1010 88 10000 2.1 180 22:56 02.09.2019
2581 Clouds 24 1010 100 10000 1.5 180 22:38 02.09.2019
2582 Clouds 24 1010 100 10000 1.5 180 22:38 02.09.2019
2583 Clouds 23 1009 100 10000 1.32 81.441 22:19 02.09.2019
2584 Clouds 23 1009 100 10000 1.32 81.441 21:56 02.09.2019
2585 Clouds 23 1009 100 10000 1.2 85.327 21:38 02.09.2019
2586 Clouds 23 1009 94 10000 2.16 91.245 21:20 02.09.2019
2587 Clouds 23 1009 94 10000 2.16 91.245 21:20 02.09.2019
2588 Clouds 23 1009 94 10000 2.16 91.245 20:55 02.09.2019
2589 Clouds 23 1009 94 10000 2.16 91.245 20:37 02.09.2019
2590 Clouds 23 1009 94 10000 2.16 91.245 20:18 02.09.2019
2591 Rain 28 1009 75 0 2.16 91.245 19:55 02.09.2019
2592 Clouds 23 1009 100 10000 1.5 200 19:37 02.09.2019
2593 Clouds 23 1009 100 10000 1.5 200 19:18 02.09.2019
2594 Clouds 23 1009 100 10000 1.5 200 18:38 02.09.2019
2595 Clouds 23 1009 100 10000 1.5 200 18:20 02.09.2019
2596 Clouds 24 1010 100 10000 1.5 180 17:56 02.09.2019
2597 Clouds 24 1010 100 10000 1.5 180 17:37 02.09.2019
2598 Clouds 24 1010 100 10000 1.5 180 17:19 02.09.2019
2599 Clouds 24 1010 100 10000 2.93 134.446 16:41 02.09.2019
2600 Clouds 24 1010 100 10000 2.93 134.446 16:21 02.09.2019
2601 Clouds 24 1010 100 10000 2.93 134.446 16:21 02.09.2019
2602 Clouds 24 1010 100 10000 2.93 134.446 15:54 02.09.2019
2603 Clouds 24 1010 100 10000 2.93 134.446 15:36 02.09.2019
2604 Clouds 24 1011 100 10000 1 160 15:18 02.09.2019
2605 Clouds 24 1011 100 10000 1 160 14:55 02.09.2019
2606 Clouds 24 1011 100 10000 1 160 14:36 02.09.2019
2607 Clouds 25 1011 100 10000 1.5 140 14:18 02.09.2019
2608 Clouds 25 1011 100 10000 1.5 140 13:41 02.09.2019
2609 Clouds 25 1011 100 10000 1.5 140 13:23 02.09.2019
2610 Clouds 26 1011 94 10000 2.54 54.074 12:45 02.09.2019
2611 Clouds 27 1011 88 10000 1 200 12:26 02.09.2019
2612 Clouds 27 1011 88 10000 1 200 11:59 02.09.2019
2613 Clouds 27 1011 88 10000 1 200 11:40 02.09.2019
2614 Clouds 28 1010 83 10000 2.1 50 11:21 02.09.2019
2615 Clouds 28 1010 83 10000 2.1 50 10:58 02.09.2019
2616 Clouds 28 1010 83 10000 2.1 50 10:39 02.09.2019
2617 Clouds 29 1009 79 10000 2.1 70 10:20 02.09.2019
2618 Clouds 29 1009 79 10000 2.1 70 09:57 02.09.2019
2619 Clouds 29 1009 79 10000 2.1 70 09:37 02.09.2019
2620 Clouds 29 1008 83 10000 3.1 50 09:18 02.09.2019
2621 Clouds 29 1008 83 10000 3.1 50 08:39 02.09.2019
2622 Clouds 29 1008 83 10000 3.1 50 08:39 02.09.2019
2623 Clouds 29 1008 83 10000 3.1 50 08:39 02.09.2019
2624 Clouds 30 1008 79 10000 3.6 20 08:18 02.09.2019
2625 Clouds 30 1008 79 10000 3.6 20 07:41 02.09.2019
2626 Clouds 31 1008 74 10000 2.6 20 07:21 02.09.2019
2627 Clouds 31 1008 74 10000 2.6 20 06:46 02.09.2019
2628 Clouds 31 1008 70 10000 3.6 20 06:25 02.09.2019
2629 Clouds 31 1008 70 10000 3.6 20 05:48 02.09.2019
2630 Clouds 31 1009 74 10000 4.1 20 05:19 02.09.2019
2631 Clouds 31 1010 70 10000 3.6 20 04:20 02.09.2019
2632 Clouds 31 1011 70 10000 2.6 70 01:46 02.09.2019
2633 Clouds 30 1011 74 10000 1.61 177.394 00:49 02.09.2019
2634 Clouds 30 1011 74 10000 1.61 177.394 00:30 02.09.2019
2635 Clouds 25 1011 94 10000 1.95 118.185 23:45 01.09.2019
2636 Clouds 23 1010 100 10000 1 180 23:23 01.09.2019
2637 Clouds 23 1010 100 10000 1 180 22:59 01.09.2019
2638 Clouds 23 1010 100 10000 1 180 22:40 01.09.2019
2639 Clear 27 1011 74 0 1.95 118.185 22:19 01.09.2019
2640 Clear 27 1011 74 0 1.95 118.185 21:57 01.09.2019
2641 Clear 27 1011 74 0 1.34 102.056 21:38 01.09.2019
2642 Clouds 23 1009 100 10000 1 180 21:20 01.09.2019
2643 Clouds 23 1009 100 10000 1 180 20:56 01.09.2019
2644 Clouds 23 1009 100 10000 1 180 20:36 01.09.2019
2645 Clouds 23 1009 100 10000 1 180 20:18 01.09.2019
2646 Clear 27 1010 76 0 2.5 113.096 19:56 01.09.2019
2647 Clear 27 1010 76 0 2.5 113.096 19:37 01.09.2019
2648 Clouds 23 1009 100 10000 1 140 19:18 01.09.2019
2649 Clouds 23 1009 100 10000 1 140 18:42 01.09.2019
2650 Clouds 23 1009 100 10000 1 140 18:24 01.09.2019
2651 Clouds 23 1009 100 10000 1 160 17:55 01.09.2019
2652 Clouds 23 1009 100 10000 1 160 17:37 01.09.2019
2653 Clouds 24 1010 100 10000 1 180 17:18 01.09.2019
2654 Clouds 24 1010 100 10000 1 180 16:39 01.09.2019
2655 Clouds 24 1010 100 10000 1 180 16:39 01.09.2019
2656 Clouds 24 1010 100 10000 1 180 16:18 01.09.2019
2657 Clouds 24 1010 100 10000 1 180 15:46 01.09.2019
2658 Clouds 24 1010 100 10000 1 180 15:26 01.09.2019
2659 Clouds 25 1011 94 10000 1 180 14:56 01.09.2019
2660 Clouds 25 1011 94 10000 1 180 14:37 01.09.2019
2661 Clouds 24 1011 100 10000 3.14 134.098 14:19 01.09.2019
2662 Clouds 24 1011 100 10000 3.14 134.098 13:42 01.09.2019
2663 Clouds 24 1011 100 10000 2.81 135.13 13:23 01.09.2019
2664 -273 0 0 0 0 0 12:55 01.09.2019
2665 Rain 28 1012 79 0 2.81 135.13 12:55 01.09.2019
2666 Rain 28 1012 79 0 2.81 135.13 12:36 01.09.2019
2667 Clouds 26 1011 94 10000 1 200 12:18 01.09.2019
2668 Clouds 26 1011 94 10000 1 200 11:39 01.09.2019
2669 Clouds 27 1010 88 10000 1.5 90 11:19 01.09.2019
2670 Clouds 27 1010 88 10000 1.5 90 10:45 01.09.2019
2671 Clouds 27 1010 88 10000 1.5 90 10:23 01.09.2019
2672 Clouds 28 1009 78 10000 1.5 50 09:56 01.09.2019
2673 Clouds 28 1009 78 10000 1.5 50 09:38 01.09.2019
2674 Clouds 30 1009 74 10000 2.1 70 09:19 01.09.2019
2675 Clouds 30 1009 74 10000 2.1 70 08:42 01.09.2019
2676 Clouds 30 1008 70 10000 2.1 50 08:21 01.09.2019
2677 Clouds 30 1008 70 10000 2.1 50 07:42 01.09.2019
2678 Clouds 30 1008 70 10000 2.1 50 07:21 01.09.2019
2679 Clouds 30 1009 70 10000 2.6 20 06:39 01.09.2019
2680 Clouds 30 1009 70 10000 2.6 20 05:59 01.09.2019
2681 Clouds 30 1009 70 10000 2.6 20 05:59 01.09.2019
2682 Clouds 29 1010 79 10000 2.6 360 04:53 01.09.2019
2683 Clouds 30 1010 74 10000 2.6 320 03:51 01.09.2019
2684 Clouds 30 1010 74 10000 2.6 320 03:32 01.09.2019
2685 Clouds 29 1010 79 10000 2.6 320 02:40 01.09.2019
2686 Clouds 28 1011 83 10000 1.5 360 02:19 01.09.2019
2687 Clouds 28 1011 83 10000 1.5 360 01:30 01.09.2019
2688 Clouds 26 1011 88 10000 1.5 270 00:57 01.09.2019
2689 Clouds 26 1011 88 10000 1.5 270 00:38 01.09.2019
2690 Clouds 24 1010 94 10000 2.1 140 00:19 01.09.2019
2691 Clouds 24 1010 94 10000 2.1 140 23:41 31.08.2019
2692 Clouds 24 1010 94 10000 2.1 140 23:21 31.08.2019
2693 Clouds 24 1010 94 10000 2.1 140 22:55 31.08.2019
2694 Clouds 23 1010 100 10000 2.1 140 22:55 31.08.2019
2695 Clouds 23 1010 100 10000 2.1 140 22:37 31.08.2019
2696 Clouds 23 1010 100 10000 2.8 122.57 22:19 31.08.2019
2697 Clouds 23 1010 100 10000 4.12 66.285 21:42 31.08.2019
2698 Clouds 24 1009 94 10000 2.6 110 21:21 31.08.2019
2699 Clouds 24 1009 94 10000 2.6 110 20:59 31.08.2019
2700 Clouds 24 1009 94 10000 2.6 110 20:40 31.08.2019
2701 Clouds 23 1009 100 10000 2.64 106.323 20:22 31.08.2019
2702 Clouds 23 1009 100 10000 2.64 106.323 19:41 31.08.2019
2703 Clouds 23 1009 100 10000 2.64 106.323 19:22 31.08.2019
2704 Clouds 23 1009 100 0 3.6 200 18:55 31.08.2019
2705 Clouds 23 1009 100 0 3.6 200 18:55 31.08.2019
2706 Clouds 23 1009 100 0 3.6 200 18:36 31.08.2019
2707 Clouds 23 1009 100 0 2.1 200 18:18 31.08.2019
2708 Clouds 23 1009 100 0 2.1 200 18:18 31.08.2019
2709 Clouds 24 1009 94 0 5.7 290 17:54 31.08.2019
2710 Clouds 24 1009 94 0 5.7 290 17:36 31.08.2019
2711 Clouds 24 1009 94 0 5.7 290 17:18 31.08.2019
2712 Clouds 25 1009 100 10000 5.1 290 16:41 31.08.2019
2713 Clouds 25 1009 100 10000 5.1 290 16:21 31.08.2019
2714 Clouds 25 1009 100 10000 5.1 290 15:59 31.08.2019
2715 Clouds 25 1009 94 10000 2.74 83.054 15:38 31.08.2019
2716 Thunderstorm 25 1009 94 10000 1.46 93.38 15:18 31.08.2019
2717 Clouds 25 1010 88 10000 1.46 93.38 14:42 31.08.2019
2718 Clouds 25 1009 94 10000 1.46 93.38 14:23 31.08.2019
2719 Clouds 25 1009 94 10000 1.46 93.38 13:42 31.08.2019
2720 Clouds 25 1009 100 10000 1.97 61.09 13:23 31.08.2019
2721 Clouds 25 1009 100 10000 1.97 61.09 13:23 31.08.2019
2722 Clouds 25 1009 100 10000 1.97 61.09 12:59 31.08.2019
2723 Clouds 25 1009 100 10000 1.97 61.09 12:59 31.08.2019
2724 Clouds 25 1009 100 10000 1.97 61.09 12:40 31.08.2019
2725 Clouds 26 1009 94 10000 1.84 28.97 12:21 31.08.2019
2726 Clouds 26 1009 94 10000 1.84 28.97 12:21 31.08.2019
2727 Clouds 26 1009 94 10000 1.84 28.97 11:56 31.08.2019
2728 Clouds 26 1009 94 10000 1.84 28.97 11:38 31.08.2019
2729 Clouds 27 1008 88 10000 1.5 230 11:20 31.08.2019
2730 Clouds 27 1008 88 10000 1.5 230 10:43 31.08.2019
2731 Clouds 29 1007 74 10000 1.84 28.97 10:19 31.08.2019
2732 Clouds 29 1007 74 10000 1.84 28.97 09:59 31.08.2019
2733 Clouds 29 1007 74 10000 1.49 144.126 09:38 31.08.2019
2734 Clouds 30 1007 66 10000 2.1 360 09:19 31.08.2019
2735 Clouds 30 1007 66 10000 2.1 360 08:44 31.08.2019
2736 Clouds 30 1007 66 10000 2.1 360 08:25 31.08.2019
2737 Clouds 31 1008 66 10000 3.37 180.51 07:42 31.08.2019
2738 Clouds 31 1006 66 10000 2.1 50 07:23 31.08.2019
2739 Clouds 31 1006 66 10000 2.1 50 06:44 31.08.2019
2740 Clouds 31 1006 66 10000 2.1 50 06:20 31.08.2019
2741 Clouds 31 1007 70 10000 3.1 70 05:34 31.08.2019
2742 Clouds 29 1007 74 10000 2.1 50 04:36 31.08.2019
2743 Clouds 30 1008 74 10000 3.6 50 03:45 31.08.2019
2744 Clouds 29 1009 79 10000 2.6 50 02:49 31.08.2019
2745 Clouds 27 1009 83 10000 2.1 110 01:55 31.08.2019
2746 Clouds 27 1009 83 10000 2.1 110 01:34 31.08.2019
2747 Clouds 25 1009 94 10000 3.1 110 00:52 31.08.2019
2748 Rain 24 1010 100 10000 3.1 110 00:30 31.08.2019
2749 Rain 24 1010 100 10000 3.1 110 23:57 30.08.2019
2750 Rain 24 1010 100 10000 3.1 110 23:39 30.08.2019
2751 Rain 24 1009 100 10000 3.6 90 23:18 30.08.2019
2752 Rain 24 1009 100 10000 3.6 90 22:42 30.08.2019
2753 Rain 24 1008 100 10000 4.43 85.778 22:22 30.08.2019
2754 Rain 24 1008 100 10000 4.43 85.778 21:58 30.08.2019
2755 Rain 24 1008 100 10000 2.31 114.876 21:38 30.08.2019
2756 Clouds 24 1008 100 10000 1.5 110 21:19 30.08.2019
2757 Clouds 24 1008 100 10000 1.5 110 21:19 30.08.2019
2758 Clouds 24 1008 100 10000 1.5 110 21:19 30.08.2019
2759 Clouds 24 1008 100 10000 1.5 110 20:58 30.08.2019
2760 Clouds 24 1008 100 10000 1.5 110 20:39 30.08.2019
2761 Clouds 24 1007 100 10000 2.1 200 20:20 30.08.2019
2762 Clouds 24 1007 100 10000 2.1 200 19:57 30.08.2019
2763 Clouds 24 1007 100 10000 2.1 200 19:38 30.08.2019
2764 Clouds 24 1007 100 10000 2.1 200 19:19 30.08.2019
2765 Clouds 24 1007 100 10000 1 200 18:46 30.08.2019
2766 Clouds 24 1007 100 10000 1 200 18:25 30.08.2019
2767 Clouds 25 1008 94 10000 2.6 160 17:58 30.08.2019
2768 Clouds 25 1008 94 10000 2.6 160 17:40 30.08.2019
2769 Clouds 25 1008 94 10000 1.5 200 17:19 30.08.2019
2770 Clouds 25 1008 94 10000 1.5 200 16:57 30.08.2019
2771 Clouds 25 1008 94 10000 1.5 200 16:39 30.08.2019
2772 Clouds 25 1008 94 10000 2.23 41.531 16:20 30.08.2019
2773 Clouds 25 1008 94 10000 2.23 41.531 15:39 30.08.2019
2774 Clouds 25 1008 94 10000 1.67 98.673 15:20 30.08.2019
2775 Clouds 25 1009 94 10000 1.67 98.673 14:45 30.08.2019
2776 Clouds 25 1009 94 10000 1.67 98.673 14:26 30.08.2019
2777 Clouds 25 1009 94 10000 1.67 98.673 14:26 30.08.2019
2778 Clouds 25 1009 94 10000 1.67 98.673 13:57 30.08.2019
2779 Clouds 25 1009 94 10000 1.5 200 13:39 30.08.2019
2780 Clouds 25 1008 100 10000 1.5 200 13:20 30.08.2019
2781 Clouds 25 1008 100 10000 1.5 200 12:44 30.08.2019
2782 Clouds 26 1008 94 10000 4.73 144.051 12:25 30.08.2019
2783 Clouds 26 1008 94 10000 4.73 144.051 11:55 30.08.2019
2784 Clouds 26 1008 94 10000 4.73 144.051 11:37 30.08.2019
2785 Clouds 26 1008 94 10000 4.73 144.051 11:18 30.08.2019
2786 Clouds 27 1007 83 10000 1 140 10:37 30.08.2019
2787 Clouds 27 1007 83 10000 1 140 10:19 30.08.2019
2788 Clouds 27 1006 83 10000 1.5 160 09:42 30.08.2019
2789 Clouds 29 1006 74 10000 1.5 200 09:20 30.08.2019
2790 Clouds 29 1006 74 10000 1.5 200 09:20 30.08.2019
2791 Clouds 29 1006 74 10000 1.5 200 09:00 30.08.2019
2792 Clouds 29 1006 74 10000 1.5 200 08:41 30.08.2019
2793 Clouds 29 1006 74 10000 1.5 200 08:22 30.08.2019
2794 Clouds 29 1006 74 10000 3.1 200 07:45 30.08.2019
2795 Clouds 29 1006 74 10000 3.1 200 07:25 30.08.2019
2796 Clouds 31 1006 74 10000 5.7 70 06:49 30.08.2019
2797 Clouds 31 1006 74 10000 5.7 70 06:30 30.08.2019
2798 Clouds 31 1006 74 10000 5.7 70 05:59 30.08.2019
2799 Rain 28 1006 73 0 2.31 148.674 04:59 30.08.2019
2800 Clouds 30 1009 79 10000 5.1 50 03:55 30.08.2019
2801 Clouds 30 1009 79 10000 5.1 50 03:55 30.08.2019
2802 Clouds 30 1009 79 10000 5.1 50 03:33 30.08.2019
2803 Clouds 30 1009 74 10000 4.1 50 02:34 30.08.2019
2804 Clouds 30 1010 74 10000 4.1 90 01:38 30.08.2019
2805 Clouds 27 1009 88 10000 2.1 110 00:46 30.08.2019
2806 Clouds 27 1009 88 10000 2.1 110 00:18 30.08.2019
2807 Clouds 27 1009 88 10000 2.1 110 00:18 30.08.2019
2808 Clouds 24 1008 100 10000 1 160 23:41 29.08.2019
2809 Clouds 23 1008 100 10000 1.5 140 23:21 29.08.2019
2810 Clouds 23 1008 100 10000 1.5 140 22:45 29.08.2019
2811 Clouds 23 1008 100 10000 1.5 140 22:45 29.08.2019
2812 Clouds 22 1007 100 10000 1.5 160 22:26 29.08.2019
2813 Clouds 22 1007 100 10000 1.5 160 21:58 29.08.2019
2814 Clouds 22 1007 100 10000 1.5 160 21:39 29.08.2019
2815 Clouds 22 1007 100 10000 2.6 160 21:21 29.08.2019
2816 Clouds 22 1007 100 10000 2.6 160 20:56 29.08.2019
2817 Clouds 22 1007 100 10000 2.6 160 20:37 29.08.2019
2818 Clouds 22 1007 100 10000 2.6 160 20:37 29.08.2019
2819 Rain 28 1007 77 0 2.3 85.114 20:18 29.08.2019
2820 Rain 28 1007 77 0 2.3 85.114 19:46 29.08.2019
2821 Clouds 23 1007 100 10000 2.3 85.114 19:25 29.08.2019
2822 Clouds 23 1007 100 10000 2.3 85.114 18:45 29.08.2019
2823 Clouds 23 1007 100 10000 2.47 225.54 18:22 29.08.2019
2824 Clouds 23 1008 100 10000 1 180 17:58 29.08.2019
2825 Clouds 23 1008 100 10000 1 180 17:39 29.08.2019
2826 Clouds 23 1009 100 10000 1 180 17:20 29.08.2019
2827 Clouds 23 1009 100 10000 1 180 16:59 29.08.2019
2828 Clouds 23 1009 100 10000 1 180 16:41 29.08.2019
2829 Clouds 23 1009 100 10000 1 180 16:22 29.08.2019
2830 Clouds 23 1009 100 10000 1 180 16:22 29.08.2019
2831 Clouds 24 1010 100 10000 2.47 225.54 15:40 29.08.2019
2832 Clouds 24 1010 100 10000 1.5 200 15:21 29.08.2019
2833 Clouds 24 1010 100 10000 1.5 200 14:57 29.08.2019
2834 Clouds 24 1010 100 10000 1.5 200 14:37 29.08.2019
2835 Rain 24 1010 100 10000 1.5 90 14:19 29.08.2019
2836 Rain 24 1010 100 10000 1.5 90 13:54 29.08.2019
2837 Rain 24 1010 100 10000 1.5 90 13:36 29.08.2019
2838 Clouds 24 1010 100 10000 1 140 13:18 29.08.2019
2839 Clouds 24 1010 100 10000 1 140 12:55 29.08.2019
2840 Clouds 24 1010 100 10000 1 140 12:36 29.08.2019
2841 Clouds 24 1010 94 0 5.1 270 12:18 29.08.2019
2842 Clouds 24 1010 94 0 5.1 270 11:40 29.08.2019
2843 Clouds 24 1009 94 0 4.6 200 11:20 29.08.2019
2844 Clouds 24 1009 94 0 4.6 200 10:56 29.08.2019
2845 Clouds 29 1007 79 10000 3.51 178.055 10:38 29.08.2019
2846 Clouds 29 1007 79 10000 3.51 178.055 10:19 29.08.2019
2847 Clouds 29 1007 79 10000 4.8 183.633 09:41 29.08.2019
2848 Clouds 29 1007 79 10000 2.6 20 09:18 29.08.2019
2849 Clouds 29 1007 79 10000 2.6 20 08:41 29.08.2019
2850 Clouds 30 1007 74 10000 3.1 360 08:23 29.08.2019
2851 Clouds 30 1007 74 10000 3.1 360 07:53 29.08.2019
2852 Clouds 30 1007 74 10000 3.1 360 07:33 29.08.2019
2853 Clouds 31 1006 70 10000 3.1 20 06:56 29.08.2019
2854 Clouds 31 1006 70 10000 3.1 20 06:37 29.08.2019
2855 Clouds 31 1007 70 10000 2.6 50 05:51 29.08.2019
2856 Clouds 30 1007 70 10000 3.1 90 04:52 29.08.2019
2857 Clouds 30 1007 70 10000 3.1 90 04:30 29.08.2019
2858 Clouds 30 1008 70 10000 3.1 90 03:54 29.08.2019
2859 Clouds 30 1010 74 10000 5.1 140 01:53 29.08.2019
2860 Clouds 30 1010 74 10000 5.1 140 01:34 29.08.2019
2861 Clouds 30 1010 74 10000 5.1 140 01:34 29.08.2019
2862 Clouds 29 1010 79 10000 4.6 140 00:46 29.08.2019
2863 Clouds 29 1010 79 10000 4.6 140 00:21 29.08.2019
2864 Clouds 26 1009 88 10000 1.5 110 23:56 28.08.2019
2865 Clouds 26 1009 88 10000 1.5 110 23:38 28.08.2019
2866 Clouds 26 1009 88 10000 1.5 110 23:19 28.08.2019
2867 Clouds 24 1009 94 10000 4.71 319.447 22:39 28.08.2019
2868 Clouds 24 1008 94 10000 4.71 319.447 22:19 28.08.2019
2869 Clouds 24 1008 94 10000 1.27 4.531 21:59 28.08.2019
2870 Clouds 24 1008 94 10000 1.27 4.531 21:39 28.08.2019
2871 Clouds 24 1008 94 10000 1.27 4.531 21:39 28.08.2019
2872 Clouds 24 1008 94 10000 1.5 180 21:21 28.08.2019
2873 Clouds 24 1008 94 10000 1.5 180 20:46 28.08.2019
2874 Clouds 24 1008 94 10000 1.5 180 20:27 28.08.2019
2875 Clouds 24 1008 94 10000 1.5 180 19:59 28.08.2019
2876 Clouds 23 1008 100 10000 1.5 160 19:40 28.08.2019
2877 Clouds 23 1008 100 10000 1.5 160 19:21 28.08.2019
2878 Clouds 24 1008 100 10000 3.38 15.178 18:42 28.08.2019
2879 Clouds 24 1008 100 10000 2.17 96.486 18:22 28.08.2019
2880 Clouds 24 1008 100 10000 1.5 110 17:59 28.08.2019
2881 Clouds 24 1008 100 10000 1.5 110 17:37 28.08.2019
2882 Clouds 24 1008 100 10000 1.5 110 17:19 28.08.2019
2883 Clouds 24 1009 100 10000 1.5 160 16:43 28.08.2019
2884 Rain 27 1008 80 0 2.17 96.486 16:19 28.08.2019
2885 Rain 27 1008 80 0 2.17 96.486 15:58 28.08.2019
2886 Clouds 25 1010 100 10000 1 180 15:37 28.08.2019
2887 Clouds 25 1010 100 10000 1 180 15:18 28.08.2019
2888 Clouds 25 1010 100 10000 3.62 137.252 14:56 28.08.2019
2889 Clouds 25 1010 100 10000 3.62 137.252 14:37 28.08.2019
2890 Clouds 25 1010 100 10000 1 160 14:19 28.08.2019
2891 Clouds 25 1010 100 10000 1 160 13:56 28.08.2019
2892 Clouds 25 1010 100 10000 1 160 13:37 28.08.2019
2893 Clouds 25 1010 100 10000 1 160 13:18 28.08.2019
2894 Clouds 25 1010 100 10000 1 140 12:41 28.08.2019
2895 Drizzle 26 1009 94 10000 1.5 250 12:23 28.08.2019
2896 Drizzle 26 1009 94 10000 1.5 250 11:41 28.08.2019
2897 Drizzle 26 1009 94 10000 1.5 250 11:23 28.08.2019
2898 Clouds 26 1009 94 10000 0.7 166.443 10:59 28.08.2019
2899 Clouds 26 1009 94 10000 0.7 166.443 10:41 28.08.2019
2900 Clouds 26 1008 94 10000 3.1 110 10:20 28.08.2019
2901 Clouds 26 1008 94 10000 3.1 110 09:42 28.08.2019
2902 Drizzle 29 1007 74 10000 6.2 70 09:22 28.08.2019
2903 Drizzle 29 1007 74 10000 6.2 70 08:59 28.08.2019
2904 Drizzle 29 1007 74 10000 6.2 70 08:38 28.08.2019
2905 Rain 28 1009 77 0 4.69 129.613 08:19 28.08.2019
2906 Rain 28 1009 77 0 4.69 129.613 07:39 28.08.2019
2907 Rain 28 1009 77 0 4.69 129.613 07:20 28.08.2019
2908 Rain 28 1009 77 0 4.69 129.613 06:49 28.08.2019
2909 Clouds 32 1007 62 10000 5.1 90 05:59 28.08.2019
2910 Clouds 32 1007 62 10000 5.1 90 05:24 28.08.2019
2911 Clouds 31 1010 70 10000 3.1 20 02:18 28.08.2019
2912 Clouds 31 1010 70 10000 3.1 20 01:30 28.08.2019
2913 Clouds 29 1009 79 10000 2.1 140 00:52 28.08.2019
2914 Clouds 29 1009 79 10000 2.1 140 00:33 28.08.2019
2915 Clouds 29 1009 79 10000 2.1 140 23:56 27.08.2019
2916 Clouds 27 1010 83 10000 2.1 110 23:38 27.08.2019
2917 Clouds 27 1010 83 10000 2.1 110 23:19 27.08.2019
2918 Clouds 24 1009 100 10000 2.46 141.446 22:41 27.08.2019
2919 Clouds 24 1009 100 10000 2.46 141.446 22:23 27.08.2019
2920 Clouds 24 1009 100 10000 5.94 136.391 21:57 27.08.2019
2921 Clouds 24 1009 100 10000 2.1 90 21:38 27.08.2019
2922 Clouds 24 1009 100 10000 2.1 90 21:38 27.08.2019
2923 Clouds 24 1009 100 10000 2.1 90 21:38 27.08.2019
2924 Clouds 24 1009 100 10000 2.1 90 21:19 27.08.2019
2925 Clouds 24 1009 100 10000 2.1 90 20:57 27.08.2019
2926 Clouds 25 1008 94 10000 2.1 180 20:38 27.08.2019
2927 Clouds 25 1008 94 10000 2.1 180 20:19 27.08.2019
2928 Clouds 24 1008 100 10000 1.5 230 19:43 27.08.2019
2929 Clouds 24 1008 100 10000 1.5 230 19:25 27.08.2019
2930 Clouds 24 1008 100 10000 8.58 141.699 18:56 27.08.2019
2931 Clouds 24 1008 100 10000 8.58 141.699 18:37 27.08.2019
2932 Clouds 24 1009 100 10000 8.27 142.91 18:18 27.08.2019
2933 Clouds 24 1009 100 10000 8.27 142.91 17:43 27.08.2019
2934 Clouds 24 1009 100 10000 8.27 142.91 17:24 27.08.2019
2935 Clouds 24 1009 100 10000 8.27 142.91 16:57 27.08.2019
2936 Clouds 25 1010 94 10000 1 200 16:36 27.08.2019
2937 Clouds 25 1010 94 10000 1 200 16:18 27.08.2019
2938 Clouds 25 1010 100 10000 8.27 142.91 15:41 27.08.2019
2939 Clouds 25 1011 100 10000 1 160 15:23 27.08.2019
2940 Clouds 25 1011 100 10000 1 160 14:59 27.08.2019
2941 Clouds 25 1011 100 10000 1 160 14:41 27.08.2019
2942 Clouds 26 1011 94 10000 6.22 113.788 14:22 27.08.2019
2943 Clouds 26 1011 94 10000 6.22 113.788 13:43 27.08.2019
2944 Clouds 26 1010 94 10000 2.79 86.694 13:24 27.08.2019
2945 Clouds 26 1010 94 10000 2.79 86.694 12:55 27.08.2019
2946 Clouds 26 1010 94 10000 2.79 86.694 12:37 27.08.2019
2947 Clouds 27 1010 88 10000 5.83 132.325 12:18 27.08.2019
2948 Clouds 27 1010 88 10000 5.83 132.325 11:43 27.08.2019
2949 Clouds 27 1010 88 10000 5.83 132.325 11:25 27.08.2019
2950 Clouds 27 1009 88 10000 1.5 110 10:42 27.08.2019
2951 Clouds 28 1009 83 10000 3.6 70 10:21 27.08.2019
2952 Clouds 28 1009 83 10000 3.6 70 09:58 27.08.2019
2953 Clouds 28 1009 83 10000 3.6 70 09:38 27.08.2019
2954 Clouds 29 1008 74 10000 4.1 50 09:20 27.08.2019
2955 Clouds 29 1008 74 10000 4.1 50 08:48 27.08.2019
2956 Clouds 30 1007 74 10000 3.6 50 08:27 27.08.2019
2957 Clouds 30 1007 74 10000 3.6 50 07:59 27.08.2019
2958 Clouds 30 1007 74 10000 3.6 50 07:38 27.08.2019
2959 Clouds 31 1007 70 10000 6.2 70 07:19 27.08.2019
2960 Clouds 31 1007 70 10000 6.2 70 06:50 27.08.2019
2961 Clouds 31 1007 70 10000 6.2 70 06:50 27.08.2019
2962 Clouds 31 1008 66 10000 6.7 70 06:21 27.08.2019
2963 Clouds 31 1008 66 10000 6.7 70 05:29 27.08.2019
2964 Clouds 31 1010 70 10000 3.1 20 04:20 27.08.2019
2965 Clouds 31 1010 70 10000 3.1 20 03:31 27.08.2019
2966 Clouds 28 1011 83 10000 2.6 160 01:55 27.08.2019
2967 Clouds 28 1011 83 10000 2.6 160 01:30 27.08.2019
2968 Clouds 25 1012 94 10000 2.1 180 00:50 27.08.2019
2969 Clouds 25 1012 94 10000 2.1 180 00:28 27.08.2019
2970 Clouds 24 1012 94 10000 2.6 140 23:44 26.08.2019
2971 Clouds 24 1012 94 10000 2.6 140 23:26 26.08.2019
2972 Clouds 23 1011 100 10000 2.04 53.237 22:59 26.08.2019
2973 Clouds 23 1011 100 10000 2.04 53.237 22:37 26.08.2019
2974 Clouds 23 1011 100 10000 2.04 53.237 22:19 26.08.2019
2975 Drizzle 23 1010 100 10000 1.17 31.367 21:40 26.08.2019
2976 Clouds 23 1009 94 10000 1.8 110.813 21:22 26.08.2019
2977 Clouds 23 1009 94 10000 1.8 110.813 20:59 26.08.2019
2978 Clouds 23 1009 94 10000 1.8 110.813 20:40 26.08.2019
2979 Clouds 23 1009 100 10000 2.1 160 20:20 26.08.2019
2980 Clouds 23 1009 100 10000 2.1 160 19:58 26.08.2019
2981 Clouds 23 1009 100 10000 2.1 160 19:39 26.08.2019
2982 Rain 27 1009 75 0 1.8 110.813 19:19 26.08.2019
2983 Rain 27 1009 75 0 1.8 110.813 18:39 26.08.2019
2984 Rain 27 1009 75 0 1.8 110.813 18:39 26.08.2019
2985 Clouds 24 1009 94 10000 1 250 18:21 26.08.2019
2986 Clouds 24 1009 94 10000 1 250 17:59 26.08.2019
2987 Clouds 24 1009 94 10000 1 250 17:40 26.08.2019
2988 Clouds 24 1010 100 10000 1.5 160 17:19 26.08.2019
2989 Clouds 24 1010 100 10000 1.5 160 16:56 26.08.2019
2990 Clouds 24 1010 100 10000 1.5 160 16:38 26.08.2019
2991 Clouds 24 1010 100 10000 1.5 160 16:38 26.08.2019
2992 Clouds 24 1010 100 10000 1.5 160 16:18 26.08.2019
2993 Clouds 24 1010 100 10000 1.5 160 15:42 26.08.2019
2994 Clouds 24 1010 100 10000 1.5 160 15:21 26.08.2019
2995 Clouds 24 1010 94 10000 1.5 160 14:46 26.08.2019
2996 Clouds 24 1010 94 10000 1.5 160 14:23 26.08.2019
2997 Clouds 24 1011 100 10000 2.1 140 13:59 26.08.2019
2998 Clouds 24 1011 100 10000 2.1 140 13:39 26.08.2019
2999 Drizzle 24 1011 100 10000 1.5 160 13:20 26.08.2019
3000 Drizzle 24 1011 100 10000 1.5 160 12:43 26.08.2019
3001 Drizzle 24 1011 100 10000 1.5 160 12:25 26.08.2019
3002 Drizzle 24 1011 100 10000 2.1 140 11:56 26.08.2019
3003 Drizzle 24 1011 100 10000 2.1 140 11:36 26.08.2019
3004 Clouds 25 1010 94 10000 3.6 140 11:18 26.08.2019
3005 Clouds 25 1010 94 10000 3.6 140 10:42 26.08.2019
3006 Clouds 25 1010 94 10000 3.6 140 10:21 26.08.2019
3007 Clouds 27 1009 88 10000 4.1 90 09:57 26.08.2019
3008 Clouds 27 1009 88 10000 4.1 90 09:57 26.08.2019
3009 Clouds 27 1009 88 10000 4.1 90 09:37 26.08.2019
3010 Clouds 27 1008 83 10000 1.5 90 09:19 26.08.2019
3011 Clouds 27 1008 83 10000 1.5 90 08:42 26.08.2019
3012 Clouds 26 1007 94 10000 6.1 154.086 08:22 26.08.2019
3013 Clouds 26 1007 94 10000 6.1 154.086 07:59 26.08.2019
3014 Clouds 26 1007 94 10000 6.1 154.086 07:59 26.08.2019
3015 Clouds 26 1007 94 10000 6.1 154.086 07:38 26.08.2019
3016 Rain 28 1008 82 0 6.1 154.086 07:20 26.08.2019
3017 Rain 28 1008 82 0 6.1 154.086 06:40 26.08.2019
3018 Rain 28 1008 78 0 4.39 158.417 06:21 26.08.2019
3019 Clouds 24 1009 100 0 3.1 140 05:48 26.08.2019
3020 Clouds 28 1009 83 10000 2.1 140 04:25 26.08.2019
3021 Rain 26 1011 94 10000 3.1 110 02:51 26.08.2019
3022 Rain 26 1011 94 10000 4.1 110 01:27 26.08.2019
3023 Clouds 26 1011 94 10000 3.1 70 00:46 26.08.2019
3024 Clouds 26 1011 94 10000 3.1 70 00:27 26.08.2019
3025 Clouds 25 1010 94 10000 1.5 140 23:55 25.08.2019
3026 Clouds 25 1010 94 10000 1.5 140 23:36 25.08.2019
3027 Clouds 24 1009 100 10000 1 50 23:18 25.08.2019
3028 Clouds 24 1009 100 10000 1 50 22:41 25.08.2019
3029 Clouds 24 1009 100 10000 3.17 99.863 22:21 25.08.2019
3030 Clouds 24 1009 100 10000 3.17 99.863 21:59 25.08.2019
3031 Clouds 24 1009 100 10000 1.4 63.545 21:41 25.08.2019
3032 Drizzle 24 1008 94 10000 4.31 138.822 21:19 25.08.2019
3033 Drizzle 24 1008 94 10000 4.31 138.822 20:56 25.08.2019
3034 Drizzle 24 1008 94 10000 4.31 138.822 20:38 25.08.2019
3035 Rain 24 1008 94 10000 2.1 140 20:19 25.08.2019
3036 Rain 24 1008 94 10000 2.1 140 19:42 25.08.2019
3037 Rain 24 1008 94 10000 2.1 140 19:23 25.08.2019
3038 Rain 24 1008 100 10000 1.5 160 18:59 25.08.2019
3039 Rain 24 1008 100 10000 1.5 160 18:41 25.08.2019
3040 Clouds 24 1009 100 10000 3.6 140 18:22 25.08.2019
3041 Clouds 24 1009 100 10000 3.6 140 17:59 25.08.2019
3042 Clouds 24 1009 100 10000 3.6 140 17:40 25.08.2019
3043 Clouds 24 1009 100 10000 3.6 140 17:20 25.08.2019
3044 Clouds 24 1010 100 10000 3.6 140 16:41 25.08.2019
3045 Clouds 24 1010 100 10000 3.6 140 16:23 25.08.2019
3046 Clouds 24 1010 100 10000 3.1 140 15:50 25.08.2019
3047 Clouds 24 1010 100 10000 3.1 140 15:27 25.08.2019
3048 Clouds 25 1011 94 10000 4.1 110 14:59 25.08.2019
3049 Clouds 25 1011 94 10000 4.1 110 14:39 25.08.2019
3050 Clouds 25 1011 94 10000 4.1 110 14:20 25.08.2019
3051 Clouds 25 1011 94 10000 2.6 110 13:45 25.08.2019
3052 Clouds 25 1011 94 10000 2.6 110 13:21 25.08.2019
3053 Clouds 25 1011 94 10000 3.02 130.632 12:56 25.08.2019
3054 Clouds 25 1011 94 10000 3.02 130.632 12:37 25.08.2019
3055 Clouds 25 1011 94 10000 3.02 130.632 12:37 25.08.2019
3056 Clouds 26 1010 88 10000 2.1 140 12:18 25.08.2019
3057 Clouds 26 1010 88 10000 2.1 140 11:54 25.08.2019
3058 Clouds 26 1010 88 10000 2.1 140 11:36 25.08.2019
3059 Clouds 26 1010 88 10000 1 110 11:18 25.08.2019
3060 Clouds 26 1010 88 10000 1 110 10:40 25.08.2019
3061 Clouds 26 1010 88 10000 1 110 10:20 25.08.2019
3062 Clouds 27 1009 83 10000 4.1 110 09:55 25.08.2019
3063 Clouds 27 1009 83 10000 4.1 110 09:55 25.08.2019
3064 Clouds 27 1009 83 10000 4.1 110 09:37 25.08.2019
3065 Clouds 28 1009 78 10000 5.7 110 09:18 25.08.2019
3066 Clouds 30 1008 70 10000 7.2 110 08:42 25.08.2019
3067 Clouds 30 1008 70 10000 7.2 110 08:21 25.08.2019
3068 Clouds 31 1007 70 10000 5.7 70 07:35 25.08.2019
3069 Clouds 31 1007 70 10000 4.1 50 06:46 25.08.2019
3070 Clouds 31 1008 66 10000 4.1 90 05:47 25.08.2019
3071 Clouds 31 1009 66 10000 5.1 110 04:35 25.08.2019
3072 Clouds 30 1010 70 10000 4.1 90 03:31 25.08.2019
3073 Clouds 27 1011 78 10000 3.6 110 02:39 25.08.2019
3074 Drizzle 25 1011 94 10000 2.1 110 01:20 25.08.2019
3075 Drizzle 25 1011 94 10000 2.1 110 00:38 25.08.2019
3076 Clouds 24 1011 100 10000 3.1 90 00:20 25.08.2019
3077 Clouds 24 1011 100 10000 3.1 90 23:47 24.08.2019
3078 Clouds 24 1011 100 10000 3.1 90 23:22 24.08.2019
3079 Rain 24 1010 100 10000 3.1 110 22:55 24.08.2019
3080 Rain 24 1010 100 10000 3.1 110 22:37 24.08.2019
3081 Drizzle 24 1010 100 10000 2.1 140 22:18 24.08.2019
3082 Drizzle 24 1010 100 10000 2.1 140 21:55 24.08.2019
3083 Drizzle 24 1010 100 10000 2.1 140 21:36 24.08.2019
3084 Clouds 24 1010 100 10000 1 140 21:18 24.08.2019
3085 Clouds 24 1010 100 10000 1 140 20:41 24.08.2019
3086 Clouds 24 1010 100 10000 7.19 135.665 20:20 24.08.2019
3087 Clouds 24 1010 100 10000 7.19 135.665 19:59 24.08.2019
3088 Clouds 24 1010 100 10000 7.19 135.665 19:40 24.08.2019
3089 Clouds 24 1010 100 10000 1.5 200 19:22 24.08.2019
3090 Clouds 24 1010 100 10000 1.5 200 18:56 24.08.2019
3091 Clouds 24 1010 100 10000 1.5 200 18:36 24.08.2019
3092 Drizzle 25 1010 94 10000 1 110 18:18 24.08.2019
3093 Drizzle 25 1010 94 10000 1 110 17:41 24.08.2019
3094 Drizzle 25 1010 94 10000 1 110 17:22 24.08.2019
3095 Clouds 25 1011 94 10000 1 180 16:42 24.08.2019
3096 Clouds 25 1011 94 10000 1 140 16:19 24.08.2019
3097 Clouds 25 1011 94 10000 1 140 15:55 24.08.2019
3098 Clouds 25 1011 94 10000 1 140 15:37 24.08.2019
3099 Clouds 25 1012 94 10000 1 180 15:18 24.08.2019
3100 Clouds 25 1012 94 10000 1 180 14:41 24.08.2019
3101 Clouds 26 1012 88 10000 1 70 14:19 24.08.2019
3102 Clouds 26 1012 88 10000 1 70 13:55 24.08.2019
3103 Clouds 26 1012 88 10000 1 70 13:36 24.08.2019
3104 Clouds 26 1011 88 10000 1 180 13:18 24.08.2019
3105 Clouds 26 1011 88 10000 1 180 12:41 24.08.2019
3106 Clouds 27 1011 83 10000 3.1 110 12:22 24.08.2019
3107 Clouds 27 1011 83 10000 3.1 110 11:54 24.08.2019
3108 Clouds 27 1011 83 10000 3.1 110 11:36 24.08.2019
3109 Clouds 28 1010 78 10000 3.1 90 11:18 24.08.2019
3110 Clouds 28 1010 78 10000 3.1 90 10:40 24.08.2019
3111 Clouds 29 1010 74 10000 3.6 90 10:21 24.08.2019
3112 Clouds 29 1010 74 10000 3.6 90 09:43 24.08.2019
3113 Clouds 31 1009 70 10000 7.2 70 09:19 24.08.2019
3114 Clouds 31 1009 70 10000 7.2 70 08:43 24.08.2019
3115 Clouds 31 1009 70 10000 7.2 70 08:25 24.08.2019
3116 Clouds 32 1008 62 10000 4.6 90 07:53 24.08.2019
3117 Clouds 32 1008 62 10000 4.6 90 07:30 24.08.2019
3118 Clouds 32 1008 62 10000 6.2 90 06:52 24.08.2019
3119 Clouds 32 1009 66 10000 4.54 125.93 06:21 24.08.2019
3120 Clouds 32 1009 66 10000 4.54 125.93 05:36 24.08.2019
3121 Clouds 32 1010 66 10000 6.7 70 03:48 24.08.2019
3122 Clouds 32 1010 66 10000 6.7 70 03:28 24.08.2019
3123 Clouds 31 1012 70 10000 3.6 90 02:18 24.08.2019
3124 Clouds 31 1012 70 10000 3.6 90 01:25 24.08.2019
3125 Clouds 29 1012 79 10000 3.1 70 00:47 24.08.2019
3126 Clouds 26 1011 88 10000 2.52 139.004 00:23 24.08.2019
3127 Clouds 29 1012 79 10000 3.1 70 00:23 24.08.2019
3128 Clouds 26 1011 88 10000 2.52 139.004 23:45 23.08.2019
3129 Clouds 26 1011 88 10000 2.52 139.004 23:20 23.08.2019
3130 Clouds 24 1011 94 10000 2.52 139.004 22:44 23.08.2019
3131 Clouds 24 1011 94 10000 2.52 139.004 22:25 23.08.2019
3132 Clouds 24 1010 94 10000 2.52 139.004 21:56 23.08.2019
3133 Clouds 24 1010 94 10000 1.64 100.483 21:37 23.08.2019
3134 Clouds 24 1010 94 10000 1.64 100.483 21:37 23.08.2019
3135 Clouds 24 1010 100 10000 1.55 159.631 21:19 23.08.2019
3136 Clouds 24 1010 100 10000 1.55 159.631 20:51 23.08.2019
3137 Clouds 24 1010 100 10000 1.55 159.631 20:33 23.08.2019
3138 Clouds 24 1010 100 10000 1.55 159.631 19:46 23.08.2019
3139 Clouds 24 1010 100 10000 2.1 180 19:19 23.08.2019
3140 Clouds 24 1010 100 10000 2.1 180 18:55 23.08.2019
3141 Clouds 24 1010 100 10000 2.1 180 18:37 23.08.2019
3142 Clouds 25 1010 94 10000 2.17 103.094 18:18 23.08.2019
3143 Clouds 25 1010 94 10000 2.17 103.094 17:41 23.08.2019
3144 Clouds 25 1010 94 10000 2.17 103.094 17:23 23.08.2019
3145 Clouds 25 1011 100 10000 2.17 103.094 16:49 23.08.2019
3146 Clouds 25 1011 100 10000 2.17 103.094 16:49 23.08.2019
3147 Clouds 25 1011 100 10000 2.17 103.094 16:30 23.08.2019
3148 Clouds 25 1012 100 10000 2.17 103.094 15:59 23.08.2019
3149 Clouds 25 1012 100 10000 2.17 103.094 15:39 23.08.2019
3150 Clouds 25 1012 100 10000 2.09 85.912 15:21 23.08.2019
3151 Clouds 25 1012 100 10000 1.5 200 14:44 23.08.2019
3152 Clouds 25 1012 100 10000 1.5 200 14:21 23.08.2019
3153 Clouds 25 1012 100 10000 1.5 200 14:21 23.08.2019
3154 Clouds 26 1012 94 10000 2.09 85.912 13:59 23.08.2019
3155 Clouds 26 1012 94 10000 2.09 85.912 13:41 23.08.2019
3156 Clouds 26 1012 94 10000 2.25 96.394 13:23 23.08.2019
3157 Clouds 26 1012 94 10000 1.5 70 12:58 23.08.2019
3158 Clouds 26 1012 94 10000 1.5 70 12:40 23.08.2019
3159 Clouds 26 1012 94 10000 5.74 138.425 12:21 23.08.2019
3160 Clouds 26 1012 94 10000 5.74 138.425 11:57 23.08.2019
3161 Clouds 26 1012 94 10000 5.74 138.425 11:38 23.08.2019
3162 Clouds 27 1011 83 10000 2.6 90 11:19 23.08.2019
3163 Clouds 27 1011 83 10000 2.6 90 10:45 23.08.2019
3164 Clouds 27 1011 83 10000 2.6 90 10:23 23.08.2019
3165 Clouds 28 1010 83 10000 2.6 70 09:58 23.08.2019
3166 Clouds 28 1010 83 10000 2.6 70 09:40 23.08.2019
3167 Clouds 28 1010 83 10000 2.6 70 09:20 23.08.2019
3168 Clouds 28 1009 78 10000 1.5 20 08:44 23.08.2019
3169 Clouds 29 1009 74 10000 2.1 50 08:20 23.08.2019
3170 Clouds 29 1009 74 10000 2.1 50 07:44 23.08.2019
3171 Clouds 29 1009 74 10000 2.1 50 07:24 23.08.2019
3172 Clouds 29 1009 74 10000 2.1 50 06:59 23.08.2019
3173 Clouds 29 1009 74 10000 2.1 50 06:40 23.08.2019
3174 Clouds 29 1009 70 10000 3.1 50 06:21 23.08.2019
3175 Clouds 29 1009 70 10000 3.1 50 05:43 23.08.2019
3176 Clouds 29 1009 70 10000 3.1 50 05:23 23.08.2019
3177 Clouds 28 1011 83 10000 3.1 110 03:36 23.08.2019
3178 Clouds 27 1012 88 10000 2.6 110 02:24 23.08.2019
3179 Drizzle 26 1012 94 10000 1 160 01:52 23.08.2019
3180 Clouds 25 1012 100 10000 2.1 160 00:46 23.08.2019
3181 Clouds 25 1012 100 10000 1 110 00:22 23.08.2019
3182 Clouds 25 1012 100 10000 1 110 23:50 22.08.2019
3183 Clouds 25 1012 100 10000 1 110 23:32 22.08.2019
3184 Clouds 24 1010 100 10000 3.5 83.586 22:58 22.08.2019
3185 Clouds 24 1010 100 10000 3.5 83.586 22:40 22.08.2019
3186 Clouds 25 1010 94 10000 1 180 22:21 22.08.2019
3187 Clouds 25 1010 94 10000 1 180 21:56 22.08.2019
3188 Clouds 25 1010 94 10000 1 180 21:37 22.08.2019
3189 Clouds 25 1009 94 10000 1 90 21:19 22.08.2019
3190 Clouds 25 1009 94 10000 1 90 20:56 22.08.2019
3191 Clouds 25 1009 94 10000 1 90 20:38 22.08.2019
3192 Clouds 25 1009 100 10000 1 160 20:18 22.08.2019
3193 Clouds 25 1009 100 10000 1 160 19:54 22.08.2019
3194 Clouds 25 1009 100 10000 1 160 19:54 22.08.2019
3195 Clouds 25 1009 100 10000 1 160 19:36 22.08.2019
3196 Clouds 25 1009 100 10000 1 160 19:18 22.08.2019
3197 Clouds 25 1009 100 10000 1 160 18:55 22.08.2019
3198 Clouds 25 1009 100 10000 1 160 18:36 22.08.2019
3199 Clouds 25 1009 94 10000 8.23 139.523 18:18 22.08.2019
3200 Clouds 25 1009 94 10000 8.23 139.523 17:41 22.08.2019
3201 Clouds 25 1009 94 10000 8.23 139.523 17:41 22.08.2019
3202 Clouds 25 1009 94 10000 8.23 139.523 17:20 22.08.2019
3203 Clouds 25 1010 94 10000 1 140 16:57 22.08.2019
3204 Clouds 25 1010 94 10000 1 140 16:38 22.08.2019
3205 Clouds 25 1010 94 10000 1 140 16:20 22.08.2019
3206 Clouds 26 1010 88 10000 3.6 140 16:20 22.08.2019
3207 Clouds 25 1010 94 10000 1 140 16:20 22.08.2019
3208 Clouds 26 1010 88 10000 3.6 140 15:55 22.08.2019
3209 Clouds 26 1010 88 10000 3.6 140 15:36 22.08.2019
3210 Clouds 26 1011 94 10000 1 110 15:18 22.08.2019
3211 Clouds 26 1011 94 10000 1 110 15:18 22.08.2019
3212 Clouds 26 1011 94 10000 1 110 15:18 22.08.2019
3213 Clouds 26 1011 94 10000 1 110 15:18 22.08.2019
3214 Clouds 26 1011 94 10000 1 110 14:41 22.08.2019
3215 Clouds 26 1011 94 10000 1 110 14:22 22.08.2019
3216 Clouds 26 1010 88 10000 1.5 110 13:59 22.08.2019
3217 Clouds 26 1010 88 10000 1.5 110 13:40 22.08.2019
3218 Clouds 26 1010 88 10000 1.5 110 13:21 22.08.2019
3219 Clouds 26 1010 88 10000 1 180 12:56 22.08.2019
3220 Clouds 26 1010 88 10000 1 180 12:38 22.08.2019
3221 Clouds 26 1010 88 10000 1 180 12:38 22.08.2019
3222 Clouds 27 1009 78 10000 1 180 12:19 22.08.2019
3223 Clouds 27 1009 78 10000 1 180 11:42 22.08.2019
3224 Clouds 27 1009 78 10000 1 180 11:21 22.08.2019
3225 Clouds 28 1009 78 10000 1.5 140 10:58 22.08.2019
3226 Clouds 28 1009 78 10000 1.5 140 10:40 22.08.2019
3227 Clouds 28 1009 78 10000 1.5 140 10:40 22.08.2019
3228 Clouds 28 1009 78 10000 1.5 140 10:22 22.08.2019
3229 Clouds 28 1007 78 10000 3.1 110 09:57 22.08.2019
3230 Clouds 28 1007 78 10000 3.1 110 09:39 22.08.2019
3231 Clouds 28 1007 78 10000 3.1 110 09:39 22.08.2019
3232 Clouds 28 1007 78 10000 3.1 110 09:20 22.08.2019
3233 Clouds 30 1007 79 10000 6.2 70 08:54 22.08.2019
3234 Clouds 30 1007 79 10000 6.2 70 08:36 22.08.2019
3235 Clouds 31 1006 66 10000 7.2 90 08:18 22.08.2019
3236 Clouds 31 1006 66 10000 7.2 90 07:39 22.08.2019
3237 Clouds 32 1006 62 10000 4.6 90 07:19 22.08.2019
3238 Clouds 32 1006 62 10000 4.6 90 06:47 22.08.2019
3239 Clouds 30 1007 66 10000 3.6 90 06:22 22.08.2019
3240 Clouds 30 1007 66 10000 3.6 90 05:30 22.08.2019
3241 Clouds 30 1008 74 10000 4.1 110 04:20 22.08.2019
3242 Clouds 28 1010 78 10000 3.6 90 02:38 22.08.2019
3243 Clouds 28 1010 78 10000 4.1 110 01:40 22.08.2019
3244 Clouds 26 1011 88 10000 2.1 140 01:20 22.08.2019
3245 Clouds 26 1011 88 10000 2.1 140 00:41 22.08.2019
3246 Clouds 24 1010 94 10000 11.1 143.936 00:22 22.08.2019
3247 Clouds 24 1010 94 10000 11.1 143.936 23:44 21.08.2019
3248 Clouds 24 1010 94 10000 11.1 143.936 23:25 21.08.2019
3249 Clouds 24 1010 94 10000 1.5 160 22:58 21.08.2019
3250 Clouds 24 1010 94 10000 1.5 160 22:40 21.08.2019
3251 Clouds 24 1009 100 10000 11.1 143.936 22:20 21.08.2019
3252 Clouds 24 1009 100 10000 11.1 143.936 21:56 21.08.2019
3253 Clouds 24 1009 100 10000 10.6 146.097 21:38 21.08.2019
3254 Clouds 24 1008 94 10000 10.97 149.368 21:19 21.08.2019
3255 Clouds 24 1008 94 10000 10.97 149.368 20:56 21.08.2019
3256 Clouds 24 1008 94 10000 10.97 149.368 20:37 21.08.2019
3257 Clouds 24 1008 94 10000 10.97 149.368 20:19 21.08.2019
3258 Clouds 24 1008 100 10000 10.97 149.368 19:42 21.08.2019
3259 Clouds 24 1008 100 10000 10.97 149.368 19:24 21.08.2019
3260 Clouds 24 1008 100 10000 10.97 149.368 18:57 21.08.2019
3261 Clouds 24 1008 94 10000 10.97 149.368 18:38 21.08.2019
3262 Clouds 25 1009 94 10000 1.5 200 18:20 21.08.2019
3263 Clouds 25 1009 94 10000 1.5 200 17:45 21.08.2019
3264 Clouds 25 1009 94 10000 1.5 200 17:22 21.08.2019
3265 Clouds 25 1009 94 10000 1 270 16:58 21.08.2019
3266 Clouds 25 1009 94 10000 1 270 16:39 21.08.2019
3267 Clouds 25 1010 94 10000 1.5 230 16:20 21.08.2019
3268 Clouds 25 1010 94 10000 1.5 230 15:56 21.08.2019
3269 Clouds 25 1010 94 10000 1.5 230 15:38 21.08.2019
3270 Clouds 25 1010 88 10000 2.1 200 15:18 21.08.2019
3271 Clouds 25 1010 88 10000 2.1 200 14:54 21.08.2019
3272 Clouds 25 1010 88 10000 2.1 200 14:36 21.08.2019
3273 Clouds 25 1010 94 10000 8.94 141.037 14:18 21.08.2019
3274 Clouds 25 1010 94 10000 8.94 141.037 13:43 21.08.2019
3275 Clouds 25 1010 94 10000 1.5 110 13:20 21.08.2019
3276 Clouds 25 1010 94 10000 1.5 110 12:57 21.08.2019
3277 Clouds 25 1010 94 10000 1.5 110 12:38 21.08.2019
3278 Clouds 26 1009 88 10000 1.5 140 12:19 21.08.2019
3279 Clouds 26 1009 88 10000 1.5 140 11:44 21.08.2019
3280 Clouds 26 1009 88 10000 1.5 140 11:24 21.08.2019
3281 Clouds 27 1008 83 10000 2.6 110 10:58 21.08.2019
3282 Clouds 27 1008 83 10000 2.6 110 10:38 21.08.2019
3283 Clouds 27 1008 83 10000 2.6 110 10:20 21.08.2019
3284 Clouds 28 1008 78 10000 1 140 09:58 21.08.2019
3285 Clouds 28 1008 78 10000 1 140 09:40 21.08.2019
3286 Clouds 28 1008 78 10000 1 140 09:21 21.08.2019
3287 Clouds 29 1007 74 10000 3.1 110 08:48 21.08.2019
3288 Clouds 29 1007 74 10000 3.1 90 08:24 21.08.2019
3289 Clouds 29 1007 74 10000 3.1 90 07:45 21.08.2019
3290 Clouds 29 1007 74 10000 3.1 90 07:25 21.08.2019
3291 Clouds 27 1008 83 0 11.53 148.591 06:51 21.08.2019
3292 Clouds 30 1007 70 10000 2.1 70 06:32 21.08.2019
3293 Clouds 30 1007 70 10000 2.1 70 05:57 21.08.2019
3294 Clouds 30 1007 70 10000 2.1 70 05:28 21.08.2019
3295 Clouds 30 1008 74 10000 3.1 110 04:35 21.08.2019
3296 Clouds 26 1010 88 10000 2.6 180 01:56 21.08.2019
3297 Clouds 26 1010 88 10000 2.6 180 01:24 21.08.2019
3298 Clouds 25 1011 88 10000 1.5 140 00:39 21.08.2019
3299 Clouds 24 1010 94 10000 1.5 160 00:20 21.08.2019
3300 Clouds 24 1010 94 10000 1.5 160 23:44 20.08.2019
3301 Clouds 23 1010 94 10000 10.54 142.363 23:20 20.08.2019
3302 Clouds 23 1010 94 10000 10.54 142.363 22:58 20.08.2019
3303 Clouds 23 1010 94 10000 10.54 142.363 22:40 20.08.2019
3304 Clouds 23 1010 94 10000 10.54 142.363 22:21 20.08.2019
3305 Clouds 22 1008 100 10000 1.5 160 21:58 20.08.2019
3306 Clouds 22 1008 100 10000 1.5 160 21:39 20.08.2019
3307 Clouds 23 1008 94 10000 2.6 160 21:19 20.08.2019
3308 Clouds 23 1008 94 10000 2.6 160 21:19 20.08.2019
3309 Clouds 23 1008 94 10000 2.6 160 20:56 20.08.2019
3310 Clouds 23 1008 94 10000 2.6 160 20:36 20.08.2019
3311 Clouds 23 1008 94 10000 2.6 160 20:36 20.08.2019
3312 Clouds 23 1008 94 10000 1 140 20:18 20.08.2019
3313 Clouds 23 1008 94 10000 1 140 19:39 20.08.2019
3314 Clouds 23 1008 94 10000 1.5 180 19:21 20.08.2019
3315 Clouds 23 1008 94 10000 1.5 180 18:56 20.08.2019
3316 Clouds 23 1009 94 10000 1.5 140 18:38 20.08.2019
3317 Clouds 23 1009 94 10000 1.5 140 18:19 20.08.2019
3318 Clouds 23 1009 94 10000 1.5 140 17:55 20.08.2019
3319 Clouds 23 1009 94 10000 1.5 140 17:37 20.08.2019
3320 Clouds 22 1009 100 10000 11.09 150.726 17:18 20.08.2019
3321 Clouds 22 1009 100 10000 11.09 150.726 16:41 20.08.2019
3322 Clouds 22 1009 100 10000 11.09 150.726 16:23 20.08.2019
3323 Clouds 23 1010 94 10000 2.1 230 15:42 20.08.2019
3324 Clouds 23 1010 94 10000 11.15 152.135 15:19 20.08.2019
3325 Clouds 23 1010 94 10000 11.15 152.135 14:56 20.08.2019
3326 Clouds 23 1010 94 10000 11.15 152.135 14:38 20.08.2019
3327 Clouds 23 1011 100 10000 1.5 160 14:19 20.08.2019
3328 Clouds 23 1011 100 10000 1.5 160 13:55 20.08.2019
3329 Clouds 23 1011 100 10000 1.5 160 13:36 20.08.2019
3330 Clouds 23 1011 100 10000 1.5 160 13:18 20.08.2019
3331 Clouds 24 1010 94 10000 10.92 150.271 12:45 20.08.2019
3332 Rain 27 1012 81 0 11.6 147.191 12:24 20.08.2019
3333 -273 0 0 0 0 0 11:55 20.08.2019
3334 Clouds 25 1010 88 10000 1.5 140 11:37 20.08.2019
3335 Clouds 25 1010 88 10000 1.5 140 11:18 20.08.2019
3336 Clouds 25 1010 88 10000 1.5 140 10:55 20.08.2019
3337 Clouds 25 1009 88 10000 3.1 160 10:37 20.08.2019
3338 Clouds 26 1009 83 10000 6.2 110 10:18 20.08.2019
3339 Clouds 26 1009 83 10000 6.2 110 09:40 20.08.2019
3340 Clouds 26 1009 83 10000 6.2 110 09:40 20.08.2019
3341 Clouds 28 1009 83 10000 6.2 70 09:21 20.08.2019
3342 Clouds 28 1009 83 10000 6.2 70 08:42 20.08.2019
3343 Clouds 28 1009 83 10000 6.2 70 08:24 20.08.2019
3344 Clouds 29 1008 79 10000 6.2 90 07:58 20.08.2019
3345 Clouds 29 1008 79 10000 6.2 90 07:39 20.08.2019
3346 Clouds 29 1008 79 10000 9.3 70 07:20 20.08.2019
3347 Clouds 29 1008 79 10000 9.3 70 06:44 20.08.2019
3348 Clouds 29 1008 79 10000 9.3 70 06:20 20.08.2019
3349 Clouds 30 1008 74 10000 6.2 70 05:42 20.08.2019
3350 Clouds 32 1009 62 10000 5.7 70 04:26 20.08.2019
3351 Clouds 31 1010 62 10000 3.1 90 02:50 20.08.2019
3352 Clouds 29 1010 70 10000 5.79 139.549 01:53 20.08.2019
3353 Clouds 26 1011 88 10000 5.07 140.669 01:21 20.08.2019
3354 Clouds 26 1011 88 10000 5.07 140.669 00:45 20.08.2019
3355 Clouds 24 1010 94 10000 2.6 200 00:24 20.08.2019
3356 Clouds 24 1010 94 10000 2.6 200 23:44 19.08.2019
3357 Clouds 23 1009 106 10000 1 230 23:19 19.08.2019
3358 Clouds 23 1009 106 10000 1 230 22:58 19.08.2019
3359 Clouds 23 1009 106 10000 1 230 22:40 19.08.2019
3360 Clouds 22 1008 100 10000 1.5 200 22:20 19.08.2019
3361 Clouds 22 1008 100 10000 1.5 200 21:57 19.08.2019
3362 Clouds 22 1008 100 10000 1.5 200 21:38 19.08.2019
3363 Clouds 22 1008 100 10000 1 110 21:19 19.08.2019
3364 Clouds 22 1008 100 10000 1 110 20:40 19.08.2019
3365 Clouds 22 1008 100 10000 1 180 20:21 19.08.2019
3366 Clouds 22 1008 100 10000 1 180 19:59 19.08.2019
3367 Clouds 22 1008 100 10000 1 180 19:41 19.08.2019
3368 Clouds 22 1008 100 10000 1.5 180 19:19 19.08.2019
3369 Clouds 22 1008 100 10000 1.5 180 19:19 19.08.2019
3370 Clouds 22 1008 100 10000 1.5 180 18:59 19.08.2019
3371 Clouds 22 1008 100 10000 1.5 180 18:39 19.08.2019
3372 Clouds 22 1009 100 10000 3.49 107.766 18:21 19.08.2019
3373 Clouds 22 1009 100 10000 3.49 107.766 17:55 19.08.2019
3374 Clouds 22 1009 100 10000 3.49 107.766 17:36 19.08.2019
3375 Clouds 22 1009 100 10000 1 140 17:18 19.08.2019
3376 Clouds 22 1009 100 10000 1 140 16:38 19.08.2019
3377 Clouds 23 1009 100 10000 1 140 16:20 19.08.2019
3378 Clouds 23 1009 100 10000 1 140 15:56 19.08.2019
3379 Clouds 23 1009 100 10000 1 140 15:38 19.08.2019
3380 Clouds 23 1010 100 10000 2.1 180 15:19 19.08.2019
3381 Clouds 23 1010 100 10000 2.1 180 14:43 19.08.2019
3382 Clouds 23 1010 100 10000 2.1 180 14:23 19.08.2019
3383 Clouds 24 1010 100 10000 2.1 160 13:58 19.08.2019
3384 Clouds 24 1010 100 10000 2.1 160 13:38 19.08.2019
3385 Clouds 24 1009 100 10000 2.24 94.042 13:19 19.08.2019
3386 Clouds 24 1009 100 10000 2.24 94.042 12:56 19.08.2019
3387 Clouds 24 1009 100 10000 2.24 94.042 12:36 19.08.2019
3388 Clouds 25 1009 88 10000 1.5 160 12:18 19.08.2019
3389 Clouds 25 1009 88 10000 1.5 160 11:39 19.08.2019
3390 Clouds 25 1009 88 10000 1.5 160 11:21 19.08.2019
3391 Clouds 25 1009 88 10000 1.5 90 10:56 19.08.2019
3392 Clouds 25 1009 88 10000 1.5 90 10:37 19.08.2019
3393 Clouds 25 1009 88 10000 1.5 90 10:37 19.08.2019
3394 Clouds 27 1008 78 10000 2.1 110 10:18 19.08.2019
3395 Clouds 27 1008 78 10000 2.1 110 09:44 19.08.2019
3396 Clouds 27 1008 78 10000 2.1 110 09:23 19.08.2019
3397 Clouds 27 1007 83 10000 1 160 08:56 19.08.2019
3398 Clouds 27 1007 83 10000 1 160 08:38 19.08.2019
3399 Clouds 27 1008 83 10000 3.1 110 08:18 19.08.2019
3400 Clouds 27 1008 83 10000 3.1 110 07:45 19.08.2019
3401 Clouds 27 1008 83 10000 3.1 110 07:27 19.08.2019
3402 Clouds 28 1008 78 10000 4.6 110 06:47 19.08.2019
3403 Clouds 28 1008 78 10000 4.6 110 06:25 19.08.2019
3404 Drizzle 26 1010 88 10000 2.6 110 04:54 19.08.2019
3405 Drizzle 26 1010 88 10000 2.6 110 04:23 19.08.2019
3406 Clouds 27 1010 83 10000 2.6 140 03:20 19.08.2019
3407 Clouds 26 1011 88 10000 2.1 160 01:48 19.08.2019
3408 Clouds 26 1011 88 10000 2.1 160 01:21 19.08.2019
3409 Clouds 25 1011 94 10000 3.1 110 00:43 19.08.2019
3410 Clouds 24 1010 94 10000 2.1 160 00:20 19.08.2019
3411 Clouds 24 1010 94 10000 2.1 160 23:41 18.08.2019
3412 Clouds 24 1010 94 10000 2.1 160 23:21 18.08.2019
3413 Clouds 23 1009 100 10000 6.16 133.751 22:40 18.08.2019
3414 Clouds 23 1009 100 10000 6.16 133.751 22:22 18.08.2019
3415 Clouds 23 1009 100 10000 1.5 160 21:58 18.08.2019
3416 Clouds 23 1009 100 10000 1.5 160 21:40 18.08.2019
3417 Clouds 23 1009 94 10000 2.93 114.03 21:21 18.08.2019
3418 Clouds 23 1009 94 10000 2.93 114.03 20:58 18.08.2019
3419 Clouds 23 1009 94 10000 2.93 114.03 20:40 18.08.2019
3420 Clouds 23 1009 94 10000 2.93 114.03 20:22 18.08.2019
3421 Clouds 24 1008 94 10000 2.93 114.03 19:42 18.08.2019
3422 Clouds 24 1008 94 10000 2.93 114.03 19:24 18.08.2019
3423 Clouds 24 1009 94 10000 2.93 114.03 18:59 18.08.2019
3424 Clouds 24 1009 94 10000 2.93 114.03 18:39 18.08.2019
3425 Clouds 24 1009 94 10000 1.73 118.933 18:21 18.08.2019
3426 Clouds 24 1009 94 10000 1.73 118.933 17:55 18.08.2019
3427 Clouds 24 1009 94 10000 1.73 118.933 17:36 18.08.2019
3428 Clouds 24 1010 100 10000 1.5 140 17:18 18.08.2019
3429 Clouds 24 1010 100 10000 1.5 140 16:43 18.08.2019
3430 Clouds 24 1010 100 10000 1.5 140 16:24 18.08.2019
3431 Clouds 25 1011 94 10000 1.5 160 15:59 18.08.2019
3432 Clouds 25 1011 94 10000 1.5 160 15:39 18.08.2019
3433 Clouds 25 1011 94 10000 1.5 160 15:20 18.08.2019
3434 Clouds 25 1011 94 10000 1.5 140 14:57 18.08.2019
3435 Clouds 25 1011 94 10000 1.5 140 14:38 18.08.2019
3436 Clouds 26 1012 88 10000 1.5 110 14:19 18.08.2019
3437 Clouds 26 1012 88 10000 1.5 110 13:56 18.08.2019
3438 Clouds 26 1012 88 10000 1.5 110 13:38 18.08.2019
3439 Clouds 26 1011 83 10000 3.1 140 13:19 18.08.2019
3440 Clouds 26 1011 83 10000 3.1 140 12:41 18.08.2019
3441 Clouds 26 1011 83 10000 3.1 140 12:22 18.08.2019
3442 Clouds 27 1010 83 10000 4.6 110 11:55 18.08.2019
3443 Clouds 27 1010 83 10000 4.6 110 11:36 18.08.2019
3444 Clouds 27 1010 83 10000 2.62 142.566 11:18 18.08.2019
3445 Clouds 27 1010 83 10000 2.62 142.566 10:41 18.08.2019
3446 Clouds 29 1009 74 10000 2.62 142.566 10:21 18.08.2019
3447 Clouds 29 1009 74 10000 2.62 142.566 09:51 18.08.2019
3448 Clouds 29 1009 74 10000 1.97 98.777 09:23 18.08.2019
3449 Thunderstorm 30 1008 70 10000 5.1 110 08:54 18.08.2019
3450 Thunderstorm 31 1008 70 10000 6.7 70 08:36 18.08.2019
3451 Clouds 31 1007 74 10000 6.2 50 08:18 18.08.2019
3452 Clouds 31 1007 74 10000 6.2 50 07:43 18.08.2019
3453 Clouds 31 1007 74 10000 6.2 50 07:24 18.08.2019
3454 Clouds 32 1008 62 10000 5.1 70 05:47 18.08.2019
3455 Clouds 32 1009 70 10000 4.1 50 04:52 18.08.2019
3456 Clouds 32 1010 66 10000 3.1 20 03:23 18.08.2019
3457 Clouds 30 1011 70 10000 1.5 180 02:46 18.08.2019
3458 Clouds 29 1011 74 10000 1 110 02:19 18.08.2019
3459 Clouds 29 1011 74 10000 1 110 01:30 18.08.2019
3460 Clouds 28 1011 83 10000 1.5 90 00:46 18.08.2019
3461 Clouds 28 1011 83 10000 1.5 90 00:24 18.08.2019
3462 Clouds 26 1011 88 10000 2.08 115.888 23:58 17.08.2019
3463 Clouds 26 1011 88 10000 2.08 115.888 23:40 17.08.2019
3464 Clouds 26 1011 88 10000 2.08 115.888 23:22 17.08.2019
3465 Clouds 24 1011 100 10000 2.6 140 22:59 17.08.2019
3466 Clouds 24 1011 100 10000 2.6 140 22:41 17.08.2019
3467 Clouds 24 1011 100 10000 2.6 140 22:23 17.08.2019
3468 Clouds 27 1012 77 0 2.08 115.888 21:56 17.08.2019
3469 Clouds 27 1012 77 0 2.08 115.888 21:38 17.08.2019
3470 Clouds 27 1012 77 0 2.08 115.888 21:38 17.08.2019
3471 Clouds 25 1010 94 10000 3.1 230 21:20 17.08.2019
3472 Clouds 25 1010 94 10000 3.1 230 20:39 17.08.2019
3473 Rain 27 1010 78 0 1.86 100.657 20:21 17.08.2019
3474 Rain 27 1010 78 0 1.86 100.657 19:56 17.08.2019
3475 Rain 27 1010 78 0 1.86 100.657 19:38 17.08.2019
3476 Clouds 25 1010 94 10000 1.86 100.657 19:19 17.08.2019
3477 Clouds 25 1010 94 10000 1.86 100.657 18:41 17.08.2019
3478 Clouds 25 1011 94 10000 3.62 113.914 18:19 17.08.2019
3479 Clouds 25 1011 94 10000 3.62 113.914 17:56 17.08.2019
3480 Clouds 25 1011 94 10000 3.62 113.914 17:38 17.08.2019
3481 Clouds 25 1011 94 10000 3.62 113.914 17:38 17.08.2019
3482 Clouds 25 1011 94 10000 3.62 113.914 17:20 17.08.2019
3483 Clouds 25 1011 94 10000 3.62 113.914 16:44 17.08.2019
3484 Clouds 25 1011 94 10000 3.62 113.914 16:26 17.08.2019
3485 Clouds 26 1011 88 10000 3.62 113.914 15:58 17.08.2019
3486 Clouds 26 1011 88 10000 3.62 113.914 15:39 17.08.2019
3487 Clouds 26 1011 88 10000 2.12 155.621 15:20 17.08.2019
3488 Clouds 26 1011 83 10000 1 160 14:41 17.08.2019
3489 Clouds 26 1011 83 10000 1 160 14:22 17.08.2019
3490 Clouds 26 1011 88 10000 3.1 180 13:48 17.08.2019
3491 Clouds 26 1011 88 10000 3.1 180 13:23 17.08.2019
3492 Clouds 26 1011 88 10000 3.1 140 12:58 17.08.2019
3493 Clouds 26 1011 88 10000 3.1 140 12:39 17.08.2019
3494 Clouds 27 1011 83 10000 2.6 140 12:19 17.08.2019
3495 Clouds 27 1011 83 10000 2.6 140 11:44 17.08.2019
3496 Clouds 28 1010 83 10000 1 160 11:21 17.08.2019
3497 Clouds 28 1010 83 10000 1 160 10:56 17.08.2019
3498 Clouds 28 1010 83 10000 1 160 10:38 17.08.2019
3499 Clouds 29 1009 74 10000 2.1 140 10:18 17.08.2019
3500 Clouds 29 1009 74 10000 2.1 140 09:44 17.08.2019
3501 Clouds 29 1009 74 10000 2.1 140 09:26 17.08.2019
3502 Clouds 31 1009 70 10000 5.1 90 08:54 17.08.2019
3503 Clouds 31 1009 70 10000 5.1 90 08:25 17.08.2019
3504 Clouds 32 1008 70 10000 7.7 70 07:46 17.08.2019
3505 Clouds 32 1008 70 10000 7.2 70 07:21 17.08.2019
3506 Clouds 32 1008 70 10000 7.2 70 06:42 17.08.2019
3507 Clouds 31 1009 74 10000 6.2 70 05:31 17.08.2019
3508 Clouds 31 1010 70 10000 3.6 20 04:29 17.08.2019
3509 Clouds 29 1012 70 10000 1.5 50 03:19 17.08.2019
3510 Clouds 30 1012 70 10000 1.87 25.305 01:42 17.08.2019
3511 Clouds 30 1012 70 10000 1.73 15.659 01:24 17.08.2019
3512 Clouds 28 1012 78 10000 1.5 200 00:54 17.08.2019
3513 Clouds 28 1012 78 10000 1.5 200 00:28 17.08.2019
3514 Clouds 25 1012 94 10000 1 180 23:48 16.08.2019
3515 Clouds 25 1012 94 10000 1 180 23:26 16.08.2019
3516 Drizzle 24 1012 94 10000 3.89 119.322 22:55 16.08.2019
3517 Drizzle 24 1012 94 10000 3.89 119.322 22:36 16.08.2019
3518 Clouds 24 1011 94 10000 3.89 119.322 22:18 16.08.2019
3519 Clouds 24 1011 94 10000 3.89 119.322 22:18 16.08.2019
3520 Clouds 24 1011 94 10000 3.89 119.322 21:39 16.08.2019
3521 Clouds 24 1011 94 10000 2.82 114.747 21:19 16.08.2019
3522 Clouds 24 1011 94 10000 2.82 114.747 20:55 16.08.2019
3523 Clouds 24 1011 94 10000 2.82 114.747 20:37 16.08.2019
3524 Clouds 24 1010 100 10000 2.82 114.747 20:18 16.08.2019
3525 Clouds 24 1010 100 10000 2.82 114.747 19:40 16.08.2019
3526 Clouds 24 1010 100 10000 2.82 114.747 19:22 16.08.2019
3527 Clouds 24 1010 100 10000 2.82 114.747 18:42 16.08.2019
3528 Clouds 24 1010 100 10000 5.06 123.401 18:23 16.08.2019
3529 Clouds 25 1011 88 10000 5.06 123.401 17:51 16.08.2019
3530 Clouds 25 1011 88 10000 5.06 123.401 17:33 16.08.2019
3531 Clouds 25 1011 88 10000 5.06 123.401 17:33 16.08.2019
3532 Clouds 25 1011 94 10000 3.1 110 16:59 16.08.2019
3533 Clouds 25 1011 94 10000 3.1 110 16:41 16.08.2019
3534 Clouds 25 1013 94 10000 4.1 110 16:21 16.08.2019
3535 Clouds 25 1013 94 10000 4.1 110 15:56 16.08.2019
3536 Clouds 25 1013 94 10000 4.1 110 15:38 16.08.2019
3537 Clouds 26 1012 83 10000 4.1 110 15:20 16.08.2019
3538 Clouds 26 1012 83 10000 4.1 110 14:57 16.08.2019
3539 Clouds 26 1012 83 10000 4.1 110 14:38 16.08.2019
3540 Clouds 26 1012 83 10000 2.1 110 14:18 16.08.2019
3541 Clouds 26 1012 83 10000 2.1 110 13:41 16.08.2019
3542 Clouds 26 1012 83 10000 2.1 110 13:22 16.08.2019
3543 Clouds 27 1012 78 10000 5.1 110 12:42 16.08.2019
3544 Clouds 27 1012 78 10000 5.1 110 12:23 16.08.2019
3545 Clouds 27 1011 83 10000 5.1 110 11:59 16.08.2019
3546 Clouds 27 1011 83 10000 5.1 110 11:40 16.08.2019
3547 Clouds 27 1011 83 10000 5.1 110 11:22 16.08.2019
3548 Clouds 28 1010 74 10000 5.1 90 10:43 16.08.2019
3549 Clouds 28 1010 74 10000 5.1 90 10:21 16.08.2019
3550 Clouds 30 1009 70 10000 5.1 90 09:39 16.08.2019
3551 Clouds 30 1009 70 10000 5.1 90 09:21 16.08.2019
3552 Clouds 32 1008 59 10000 5.1 50 08:59 16.08.2019
3553 Clouds 32 1008 59 10000 5.1 50 08:39 16.08.2019
3554 Clouds 32 1008 62 10000 3.6 110 08:20 16.08.2019
3555 Clouds 32 1008 62 10000 3.6 110 07:49 16.08.2019
3556 Clouds 32 1008 62 10000 3.6 110 07:28 16.08.2019
3557 Clouds 32 1008 62 10000 4.6 90 06:55 16.08.2019
3558 Clouds 32 1009 62 10000 3.1 140 06:19 16.08.2019
3559 Clouds 32 1009 62 10000 3.1 140 05:34 16.08.2019
3560 Clouds 32 1010 66 10000 3.6 20 03:20 16.08.2019
3561 Clouds 30 1012 74 10000 1 140 01:53 16.08.2019
3562 Clouds 30 1012 74 10000 1 140 01:27 16.08.2019
3563 Clouds 26 1012 94 10000 1 180 00:50 16.08.2019
3564 Clouds 26 1012 94 10000 1 180 00:24 16.08.2019
3565 Clouds 26 1012 94 10000 1 180 00:24 16.08.2019
3566 Clouds 24 1012 94 10000 1.5 160 23:59 15.08.2019
3567 Clouds 24 1012 94 10000 1.5 160 23:41 15.08.2019
3568 Clouds 23 1011 100 10000 1.5 140 23:19 15.08.2019
3569 Clouds 23 1011 100 10000 1.5 140 22:41 15.08.2019
3570 Clouds 23 1011 100 10000 1.5 140 22:23 15.08.2019
3571 Clouds 23 1010 94 10000 9.12 140.548 21:59 15.08.2019
3572 Clouds 23 1010 94 10000 9.12 140.548 21:39 15.08.2019
3573 Clouds 23 1010 94 10000 7.21 132.275 21:20 15.08.2019
3574 Clouds 23 1010 94 10000 7.21 132.275 20:58 15.08.2019
3575 Clouds 23 1010 94 10000 7.21 132.275 20:58 15.08.2019
3576 Clouds 23 1010 94 10000 7.21 132.275 20:40 15.08.2019
3577 Clouds 23 1010 94 10000 7.21 132.275 20:21 15.08.2019
3578 Clouds 23 1010 100 10000 7.21 132.275 19:40 15.08.2019
3579 Clouds 23 1010 100 10000 7.21 132.275 19:22 15.08.2019
3580 Rain 28 1010 79 0 7.21 132.275 18:59 15.08.2019
3581 Rain 28 1010 79 0 7.21 132.275 18:41 15.08.2019
3582 Clear 28 1011 80 0 8.14 137.375 18:21 15.08.2019
3583 Clear 28 1011 80 0 8.14 137.375 17:54 15.08.2019
3584 Clear 28 1011 80 0 8.14 137.375 17:36 15.08.2019
3585 Clear 28 1011 80 0 8.14 137.375 17:36 15.08.2019
3586 Clouds 24 1012 100 10000 8.14 137.375 17:18 15.08.2019
3587 Clouds 24 1012 100 10000 8.14 137.375 16:43 15.08.2019
3588 Clouds 24 1012 100 10000 8.14 137.375 16:24 15.08.2019
3589 Clouds 24 1012 100 10000 2.6 110 15:56 15.08.2019
3590 Clouds 24 1012 100 10000 2.6 110 15:37 15.08.2019
3591 Clouds 24 1013 94 10000 1.5 160 15:18 15.08.2019
3592 Clouds 24 1013 94 10000 1.5 160 14:42 15.08.2019
3593 Clouds 26 1012 83 10000 8.65 145.92 14:23 15.08.2019
3594 Clouds 26 1012 83 10000 8.65 145.92 13:57 15.08.2019
3595 Clouds 26 1012 83 10000 8.65 145.92 13:39 15.08.2019
3596 Clouds 26 1012 83 10000 1.5 160 13:20 15.08.2019
3597 Clouds 26 1012 83 10000 1.5 160 12:55 15.08.2019
3598 Clouds 26 1012 83 10000 1.5 160 12:36 15.08.2019
3599 Clouds 27 1011 78 10000 1.5 160 12:18 15.08.2019
3600 Clouds 27 1011 78 10000 1.5 160 11:39 15.08.2019
3601 Clouds 27 1011 78 10000 1.5 160 11:20 15.08.2019
3602 Clouds 28 1011 74 10000 4.1 90 10:59 15.08.2019
3603 Clouds 28 1011 74 10000 4.1 90 10:38 15.08.2019
3604 Clouds 29 1010 70 10000 4.1 90 10:19 15.08.2019
3605 Clouds 29 1010 70 10000 4.1 90 09:44 15.08.2019
3606 Clouds 29 1010 70 10000 4.1 90 09:23 15.08.2019
3607 Clouds 29 1010 73 0 2.06 130.191 08:55 15.08.2019
3608 -273 0 0 0 0 0 08:55 15.08.2019
3609 Clouds 32 1009 62 10000 7.2 90 08:36 15.08.2019
3610 Clouds 32 1009 62 10000 7.2 90 08:18 15.08.2019
3611 Clouds 32 1009 62 10000 7.2 90 07:41 15.08.2019
3612 Clouds 32 1009 62 10000 7.2 90 07:21 15.08.2019
3613 Clouds 32 1010 62 10000 5.1 90 06:53 15.08.2019
3614 Clouds 32 1010 62 10000 5.1 90 06:32 15.08.2019
3615 Clouds 33 1010 55 10000 6.7 70 05:39 15.08.2019
3616 Clouds 33 1010 55 10000 6.7 70 05:21 15.08.2019
3617 Clouds 32 1011 66 10000 4.1 110 04:29 15.08.2019
3618 Clouds 31 1012 66 10000 5.1 70 03:28 15.08.2019
3619 Clouds 31 1013 62 10000 3.6 70 02:35 15.08.2019
3620 Clouds 29 1013 74 10000 0.37 159.372 01:45 15.08.2019
3621 Clouds 29 1013 74 10000 0.25 185.868 01:23 15.08.2019
3622 Clouds 28 1013 74 10000 3.1 110 00:38 15.08.2019
3623 Clouds 26 1013 83 10000 1 110 00:19 15.08.2019
3624 Clouds 26 1013 83 10000 1 110 23:57 14.08.2019
3625 Clouds 26 1013 83 10000 1 110 23:37 14.08.2019
3626 Clouds 23 1012 94 10000 1.5 160 23:19 14.08.2019
3627 Clouds 23 1012 94 10000 1.5 160 22:42 14.08.2019
3628 Clouds 23 1012 94 10000 1.5 160 22:23 14.08.2019
3629 Clouds 23 1012 94 10000 1.5 140 21:57 14.08.2019
3630 Clouds 23 1012 94 10000 1.5 140 21:39 14.08.2019
3631 Clouds 23 1012 94 10000 1.5 140 21:21 14.08.2019
3632 Clouds 23 1011 100 10000 1.5 160 20:57 14.08.2019
3633 Clouds 23 1011 100 10000 1.5 160 20:39 14.08.2019
3634 Clouds 23 1011 100 10000 1.5 160 20:19 14.08.2019
3635 Clouds 28 1011 76 0 2.6 110.677 19:54 14.08.2019
3636 Clouds 28 1011 76 0 2.6 110.677 19:36 14.08.2019
3637 Clouds 23 1011 100 10000 2.1 160 19:18 14.08.2019
3638 Clouds 23 1011 100 10000 2.1 160 19:18 14.08.2019
3639 Clouds 23 1011 100 10000 2.1 160 18:41 14.08.2019
3640 Clouds 24 1011 100 10000 3.23 89.218 18:23 14.08.2019
3641 Clouds 24 1011 100 10000 3.23 89.218 17:59 14.08.2019
3642 Clouds 24 1011 100 10000 3.23 89.218 17:40 14.08.2019
3643 Clouds 24 1011 100 10000 3.23 89.218 17:21 14.08.2019
3644 Clouds 25 1012 94 10000 3.23 89.218 16:56 14.08.2019
3645 Clouds 25 1012 94 10000 3.23 89.218 16:38 14.08.2019
3646 Clouds 25 1012 94 10000 2.1 180 16:19 14.08.2019
3647 Clouds 25 1012 94 10000 2.1 180 15:43 14.08.2019
3648 Clouds 25 1012 94 10000 1 160 15:19 14.08.2019
3649 Clouds 25 1012 94 10000 1 160 15:19 14.08.2019
3650 Clouds 25 1012 94 10000 1 160 15:19 14.08.2019
3651 Clouds 25 1012 94 10000 1 160 14:56 14.08.2019
3652 Clouds 25 1012 94 10000 1 160 14:38 14.08.2019
3653 Clouds 25 1012 94 10000 1 140 14:18 14.08.2019
3654 Rain 28 1013 78 0 5.16 135.314 13:43 14.08.2019
3655 Clouds 26 1012 88 10000 2.6 90 13:24 14.08.2019
3656 Clouds 26 1012 88 10000 2.6 90 12:57 14.08.2019
3657 Clouds 26 1012 88 10000 2.6 90 12:38 14.08.2019
3658 Clouds 26 1012 88 10000 2.6 90 12:38 14.08.2019
3659 Clouds 27 1012 83 10000 2.6 90 12:20 14.08.2019
3660 Clouds 27 1012 83 10000 2.6 90 11:55 14.08.2019
3661 Clouds 27 1012 83 10000 2.6 90 11:37 14.08.2019
3662 Clouds 28 1011 74 10000 6.2 90 11:18 14.08.2019
3663 Clouds 28 1011 74 10000 6.2 90 10:42 14.08.2019
3664 Clouds 30 1010 70 10000 7.2 90 10:23 14.08.2019
3665 Clouds 30 1010 70 10000 7.2 90 09:55 14.08.2019
3666 Clouds 30 1010 70 10000 7.2 90 09:36 14.08.2019
3667 Clouds 33 1009 59 10000 8.2 90 09:18 14.08.2019
3668 Clouds 33 1009 59 10000 8.2 90 08:36 14.08.2019
3669 Clouds 33 1009 63 10000 8.2 70 08:18 14.08.2019
3670 Clouds 33 1009 63 10000 8.2 70 07:45 14.08.2019
3671 Clouds 33 1009 63 10000 8.2 70 07:27 14.08.2019
3672 Clouds 33 1009 63 10000 7.2 70 06:44 14.08.2019
3673 Clouds 33 1010 63 10000 6.2 70 05:48 14.08.2019
3674 Clouds 34 1011 56 10000 6.2 90 04:45 14.08.2019
3675 Clouds 31 1013 62 10000 4.1 70 02:56 14.08.2019
3676 Clouds 31 1013 62 10000 4.1 70 02:26 14.08.2019
3677 Clouds 29 1014 79 10000 2.1 110 01:38 14.08.2019
3678 Clouds 26 1014 94 10000 2.37 42.54 00:51 14.08.2019
3679 Clouds 24 1014 94 10000 3.02 80.672 23:47 13.08.2019
3680 Clouds 24 1014 94 10000 3.02 80.672 23:23 13.08.2019
3681 Clouds 24 1013 94 10000 2.1 200 22:57 13.08.2019
3682 Clouds 24 1013 94 10000 2.1 200 22:39 13.08.2019
3683 Clouds 24 1013 94 10000 2.1 200 22:39 13.08.2019
3684 Clouds 24 1014 94 10000 3.02 80.672 22:20 13.08.2019
3685 Clouds 24 1014 94 10000 3.02 80.672 21:56 13.08.2019
3686 Clouds 24 1014 94 10000 3.02 80.672 21:37 13.08.2019
3687 Clouds 24 1014 94 10000 2.49 94.208 21:18 13.08.2019
3688 Clouds 24 1014 94 10000 2.49 94.208 20:44 13.08.2019
3689 Drizzle 24 1014 100 10000 2.1 140 20:20 13.08.2019
3690 Drizzle 24 1014 100 10000 2.1 140 19:58 13.08.2019
3691 Drizzle 24 1014 100 10000 2.1 140 19:58 13.08.2019
3692 Drizzle 24 1014 100 10000 2.1 140 19:40 13.08.2019
3693 Drizzle 24 1014 100 10000 2.1 140 19:21 13.08.2019
3694 Clouds 24 1014 94 10000 4.1 90 18:42 13.08.2019
3695 Clouds 24 1014 94 10000 2.7 108.146 18:23 13.08.2019
3696 Clouds 24 1014 94 10000 2.7 108.146 17:58 13.08.2019
3697 Clouds 24 1014 94 10000 2.7 108.146 17:39 13.08.2019
3698 Clouds 24 1015 100 10000 1 200 17:19 13.08.2019
3699 Clouds 24 1015 100 10000 1 200 16:56 13.08.2019
3700 Clouds 24 1015 100 10000 1 200 16:37 13.08.2019
3701 Clouds 24 1015 100 10000 1 230 16:19 13.08.2019
3702 Clouds 24 1015 100 10000 1 230 15:39 13.08.2019
3703 Clouds 24 1015 100 10000 1 230 15:20 13.08.2019
3704 Clouds 24 1015 100 10000 1 230 15:20 13.08.2019
3705 Clouds 24 1015 100 10000 1 90 14:55 13.08.2019
3706 Clouds 24 1015 100 10000 1 90 14:37 13.08.2019
3707 Clouds 25 1015 100 10000 2.1 140 14:18 13.08.2019
3708 Clouds 25 1015 100 10000 2.1 140 13:41 13.08.2019
3709 Clouds 25 1015 100 10000 2.1 140 13:21 13.08.2019
3710 Clouds 25 1015 100 10000 2.1 140 13:21 13.08.2019
3711 Clouds 25 1015 100 10000 3.69 119.959 12:57 13.08.2019
3712 Clouds 25 1015 100 10000 3.69 119.959 12:39 13.08.2019
3713 Clouds 25 1015 100 10000 1 180 12:21 13.08.2019
3714 Clouds 25 1015 100 10000 1 180 11:44 13.08.2019
3715 Clouds 25 1015 100 10000 1 180 11:23 13.08.2019
3716 Clouds 25 1013 100 10000 1 90 10:59 13.08.2019
3717 Clouds 25 1013 100 10000 1 90 10:39 13.08.2019
3718 Drizzle 26 1012 88 10000 3.1 90 10:20 13.08.2019
3719 Drizzle 26 1012 88 10000 3.1 90 09:59 13.08.2019
3720 Drizzle 26 1012 88 10000 3.1 90 09:40 13.08.2019
3721 Drizzle 26 1012 88 10000 3.1 90 09:22 13.08.2019
3722 Clouds 28 1011 78 10000 2.6 160 08:42 13.08.2019
3723 Clouds 28 1011 78 10000 2.6 160 08:22 13.08.2019
3724 Clouds 28 1010 78 10000 2.1 160 07:51 13.08.2019
3725 Clouds 28 1010 74 10000 2.6 230 07:31 13.08.2019
3726 Clouds 26 1011 94 10000 2.6 200 06:45 13.08.2019
3727 Clouds 31 1011 70 10000 5.7 140 06:19 13.08.2019
3728 Clouds 31 1011 70 10000 5.7 140 05:32 13.08.2019
3729 Clouds 31 1013 66 10000 3.1 50 02:32 13.08.2019
3730 Clouds 31 1014 66 10000 2.1 20 01:46 13.08.2019
3731 Clouds 30 1014 70 10000 1.94 176.637 00:52 13.08.2019
3732 Clouds 30 1014 70 10000 2.25 37.059 00:22 13.08.2019
3733 Clouds 26 1014 83 10000 2.25 37.059 23:47 12.08.2019
3734 Clouds 26 1014 83 10000 2.25 37.059 23:21 12.08.2019
3735 Clouds 26 1014 83 10000 2.25 37.059 22:55 12.08.2019
3736 Clouds 24 1013 94 10000 1.5 160 22:37 12.08.2019
3737 Clouds 24 1012 94 10000 2.25 37.059 22:18 12.08.2019
3738 Clouds 24 1012 94 10000 2.25 37.059 21:54 12.08.2019
3739 Clouds 24 1012 94 10000 2.25 37.059 21:36 12.08.2019
3740 Clouds 24 1011 94 10000 2.27 82.402 21:18 12.08.2019
3741 Clouds 24 1011 94 10000 2.27 82.402 20:41 12.08.2019
3742 Clouds 24 1011 94 10000 2.27 82.402 20:21 12.08.2019
3743 Clouds 24 1011 94 10000 1.5 180 19:58 12.08.2019
3744 Clouds 24 1011 94 10000 1.5 180 19:39 12.08.2019
3745 Clouds 24 1011 94 10000 1.5 180 19:20 12.08.2019
3746 Clouds 24 1012 94 10000 1 140 18:58 12.08.2019
3747 Clouds 24 1012 94 10000 1 140 18:39 12.08.2019
3748 Clouds 24 1012 94 10000 1.5 160 18:20 12.08.2019
3749 Clouds 24 1012 94 10000 1.5 160 17:48 12.08.2019
3750 Clouds 24 1012 94 10000 1.5 160 17:29 12.08.2019
3751 Clouds 24 1013 100 10000 1.5 180 16:58 12.08.2019
3752 Clouds 24 1013 100 10000 1.5 180 16:39 12.08.2019
3753 Clouds 25 1014 94 10000 1.5 180 16:20 12.08.2019
3754 Clouds 25 1014 94 10000 1.5 180 15:59 12.08.2019
3755 Clouds 25 1014 94 10000 1.5 180 15:41 12.08.2019
3756 Clouds 25 1014 94 10000 1.5 180 15:21 12.08.2019
3757 Clouds 25 1014 100 10000 1.5 160 14:58 12.08.2019
3758 Clouds 25 1014 100 10000 1.5 160 14:39 12.08.2019
3759 Clouds 25 1014 100 10000 1.5 160 14:39 12.08.2019
3760 -273 0 0 0 0 0 14:20 12.08.2019
3761 -273 0 0 0 0 0 14:20 12.08.2019
3762 Clouds 25 1014 100 10000 0.71 216.918 13:47 12.08.2019
3763 Clouds 25 1014 100 10000 1.08 214.001 13:24 12.08.2019
3764 Clouds 26 1013 94 10000 1.5 160 12:59 12.08.2019
3765 Clouds 26 1013 94 10000 1.5 160 12:41 12.08.2019
3766 -273 0 0 0 0 0 12:19 12.08.2019
3767 Clouds 27 1012 88 10000 1.46 189.443 12:18 12.08.2019
3768 Clouds 27 1012 88 10000 1.46 189.443 11:43 12.08.2019
3769 Clouds 27 1012 88 10000 1.46 189.443 11:25 12.08.2019
3770 Clouds 28 1011 88 10000 1 110 10:43 12.08.2019
3771 Clouds 28 1011 88 10000 1 110 10:23 12.08.2019
3772 Clouds 30 1011 74 10000 2.1 50 09:57 12.08.2019
3773 Clouds 30 1011 74 10000 2.1 50 09:38 12.08.2019
3774 Clouds 29 1010 71 0 1.81 217.853 09:19 12.08.2019
3775 Clouds 29 1010 71 0 1.81 217.853 08:58 12.08.2019
3776 Clouds 31 1009 70 10000 4.6 50 08:38 12.08.2019
3777 Clouds 31 1009 70 10000 4.6 50 08:19 12.08.2019
3778 Clouds 31 1009 70 10000 4.6 50 07:52 12.08.2019
3779 Clouds 31 1009 70 10000 4.6 50 07:27 12.08.2019
3780 Clouds 31 1009 70 10000 4.6 50 06:50 12.08.2019
3781 Clouds 32 1010 66 10000 5.7 50 05:39 12.08.2019
3782 Clouds 31 1012 66 10000 4.6 110 02:44 12.08.2019
3783 Clouds 30 1012 74 10000 5.1 90 01:55 12.08.2019
3784 Clouds 28 1012 83 10000 2.1 140 01:21 12.08.2019
3785 Clouds 28 1012 83 10000 2.1 140 00:57 12.08.2019
3786 Clouds 28 1012 83 10000 2.1 140 00:38 12.08.2019
3787 Clouds 24 1012 94 10000 1 140 00:19 12.08.2019
3788 Clouds 24 1012 94 10000 1 140 23:42 11.08.2019
3789 Clouds 24 1012 94 10000 1 140 23:42 11.08.2019
3790 Clouds 23 1011 100 10000 1.25 102.43 23:21 11.08.2019
3791 Clouds 23 1011 100 10000 1.25 102.43 22:59 11.08.2019
3792 Clouds 23 1011 100 10000 1.25 102.43 22:40 11.08.2019
3793 Clouds 23 1011 100 10000 1.25 102.43 22:19 11.08.2019
3794 Clouds 23 1011 100 10000 1.25 102.43 22:19 11.08.2019
3795 Clouds 23 1011 100 10000 1.25 102.43 21:58 11.08.2019
3796 Clouds 23 1011 100 10000 1.25 102.43 21:39 11.08.2019
3797 Clouds 23 1010 100 10000 1 160 21:20 11.08.2019
3798 Clouds 23 1010 100 10000 1 160 20:56 11.08.2019
3799 Clouds 23 1010 100 10000 1 160 20:38 11.08.2019
3800 Clouds 24 1010 100 10000 1 140 20:19 11.08.2019
3801 Clouds 24 1010 100 10000 1 140 19:42 11.08.2019
3802 Clouds 24 1010 100 10000 1 140 19:18 11.08.2019
3803 Clouds 24 1010 100 10000 1 140 19:18 11.08.2019
3804 Clouds 24 1010 100 10000 1 140 18:41 11.08.2019
3805 Clouds 25 1010 100 10000 1 140 18:21 11.08.2019
3806 Clouds 25 1010 100 10000 1 140 17:57 11.08.2019
3807 Clouds 25 1010 100 10000 1 140 17:39 11.08.2019
3808 Clouds 25 1010 100 10000 1 140 17:20 11.08.2019
3809 Clouds 25 1011 100 10000 2.15 124.17 16:55 11.08.2019
3810 Clouds 25 1011 100 10000 2.15 124.17 16:37 11.08.2019
3811 Clouds 25 1011 100 10000 1 140 16:18 11.08.2019
3812 Clouds 25 1011 100 10000 1 140 15:43 11.08.2019
3813 Clouds 25 1011 100 10000 1 140 15:43 11.08.2019
3814 Clouds 25 1011 100 10000 1 140 15:24 11.08.2019
3815 Clouds 25 1012 100 10000 2.1 160 14:56 11.08.2019
3816 Clouds 25 1012 100 10000 2.1 160 14:38 11.08.2019
3817 Clouds 26 1013 100 0 1.5 110 14:19 11.08.2019
3818 Clouds 26 1013 100 0 1.5 110 13:44 11.08.2019
3819 Clouds 26 1013 100 0 1.5 110 13:24 11.08.2019
3820 Clouds 26 1013 100 0 1.5 110 13:24 11.08.2019
3821 Drizzle 26 1012 100 10000 1.5 140 12:48 11.08.2019
3822 Drizzle 26 1012 100 10000 1.5 140 12:23 11.08.2019
3823 Clouds 27 1011 94 10000 1.5 140 11:56 11.08.2019
3824 Clouds 27 1011 94 10000 1.5 140 11:38 11.08.2019
3825 Clouds 27 1011 94 10000 1.5 140 11:20 11.08.2019
3826 Clouds 27 1011 88 10000 1 180 10:41 11.08.2019
3827 Clouds 27 1011 88 10000 1 180 10:22 11.08.2019
3828 Clouds 28 1010 83 10000 1.5 50 09:59 11.08.2019
3829 Clouds 28 1010 83 10000 1.5 50 09:38 11.08.2019
3830 Clouds 29 1009 79 10000 1.5 360 09:20 11.08.2019
3831 Clouds 29 1009 79 10000 1.5 360 08:45 11.08.2019
3832 Clouds 29 1009 79 10000 1.5 360 08:26 11.08.2019
3833 Clouds 29 1009 83 10000 2.6 340 07:54 11.08.2019
3834 Clouds 29 1009 83 10000 2.6 320 07:23 11.08.2019
3835 Clouds 29 1009 83 10000 2.6 320 06:44 11.08.2019
3836 Clouds 30 1009 79 10000 3.1 290 05:35 11.08.2019
3837 Clouds 30 1011 79 10000 4.6 290 03:41 11.08.2019
3838 Clouds 30 1011 74 10000 4.6 320 02:48 11.08.2019
3839 Clouds 29 1012 83 10000 3.1 290 01:38 11.08.2019
3840 Clouds 26 1012 94 10000 1.5 230 01:19 11.08.2019
3841 Clouds 26 1012 94 10000 1.5 230 00:43 11.08.2019
3842 Clouds 26 1012 94 10000 1.5 230 00:23 11.08.2019
3843 Clouds 25 1012 100 10000 1.5 230 23:43 10.08.2019
3844 Clouds 25 1012 100 10000 1.5 230 23:43 10.08.2019
3845 Clouds 25 1012 100 10000 1.5 230 23:23 10.08.2019
3846 Clouds 24 1012 100 10000 4.27 34.375 22:43 10.08.2019
3847 Clouds 24 1012 100 10000 4.27 34.375 22:43 10.08.2019
3848 Clouds 24 1012 100 10000 4.27 34.375 22:24 10.08.2019
3849 Clouds 24 1010 100 10000 1.5 160 21:57 10.08.2019
3850 Clouds 24 1010 100 10000 1.5 160 21:38 10.08.2019
3851 Drizzle 24 1010 100 10000 1.5 160 21:18 10.08.2019
3852 Drizzle 24 1010 100 10000 1.5 160 20:42 10.08.2019
3853 Drizzle 24 1010 100 10000 1.5 160 20:21 10.08.2019
3854 Rain 24 1010 100 10000 2.36 84.773 19:57 10.08.2019
3855 Rain 24 1010 100 10000 2.36 84.773 19:38 10.08.2019
3856 Rain 24 1010 100 10000 1.5 230 19:19 10.08.2019
3857 Rain 24 1010 100 10000 1.5 230 18:39 10.08.2019
3858 Rain 24 1010 100 10000 1.5 230 18:21 10.08.2019
3859 Clouds 24 1010 100 10000 3.6 320 17:44 10.08.2019
3860 Clouds 24 1010 100 10000 3.6 320 17:25 10.08.2019
3861 Rain 24 1011 100 0 1 290 16:47 10.08.2019
3862 Rain 24 1011 100 0 1 290 16:28 10.08.2019
3863 Clouds 24 1012 100 0 2.6 360 15:55 10.08.2019
3864 Clouds 25 1011 94 0 3.1 140 15:25 10.08.2019
3865 Thunderstorm 26 1011 94 10000 1 160 14:45 10.08.2019
3866 Clouds 26 1011 94 10000 1 160 14:23 10.08.2019
3867 Clouds 26 1011 94 10000 1 160 13:55 10.08.2019
3868 Clouds 26 1011 94 10000 1 160 13:37 10.08.2019
3869 Clouds 25 1010 100 10000 1 140 13:18 10.08.2019
3870 Clouds 25 1010 100 10000 1 140 12:41 10.08.2019
3871 Clouds 28 1010 83 10000 2.1 110 12:21 10.08.2019
3872 Clouds 28 1010 83 10000 2.1 110 11:54 10.08.2019
3873 Clouds 28 1010 83 10000 2.1 110 11:54 10.08.2019
3874 Clouds 28 1010 83 10000 2.1 110 11:36 10.08.2019
3875 Clouds 28 1010 83 10000 2.1 110 11:36 10.08.2019
3876 Clouds 29 1009 83 10000 4.1 70 11:18 10.08.2019
3877 Clouds 29 1009 83 10000 4.1 70 10:38 10.08.2019
3878 Clouds 29 1008 83 10000 3.6 70 10:19 10.08.2019
3879 Clouds 29 1008 83 10000 3.6 70 09:43 10.08.2019
3880 Clouds 29 1008 83 10000 3.6 70 09:24 10.08.2019
3881 Clouds 31 1008 70 10000 4.6 70 08:56 10.08.2019
3882 Clouds 31 1008 70 10000 4.6 70 08:37 10.08.2019
3883 Clouds 31 1007 74 10000 4.1 50 08:18 10.08.2019
3884 Clouds 31 1007 74 10000 4.1 50 07:46 10.08.2019
3885 Clouds 31 1007 74 10000 4.1 50 07:22 10.08.2019
3886 Clouds 31 1007 70 10000 4.1 20 06:46 10.08.2019
3887 Clouds 31 1007 70 10000 5.1 50 05:46 10.08.2019
3888 Clouds 32 1008 70 10000 4.1 20 05:20 10.08.2019
3889 Clouds 31 1009 74 10000 4.6 50 03:54 10.08.2019
3890 Clouds 32 1010 62 10000 4.1 50 02:48 10.08.2019
3891 Clouds 31 1011 66 10000 3.1 110 01:44 10.08.2019
3892 Clouds 31 1011 66 10000 3.1 110 01:24 10.08.2019
3893 Clouds 29 1011 74 10000 0.97 200.129 00:59 10.08.2019
3894 Clouds 29 1011 74 10000 0.97 200.129 00:40 10.08.2019
3895 Clouds 25 1011 88 10000 1 180 00:18 10.08.2019
3896 Clouds 25 1011 88 10000 1 180 23:39 09.08.2019
3897 Clouds 23 1010 94 10000 1 180 23:20 09.08.2019
3898 Clouds 23 1010 94 10000 1 180 23:20 09.08.2019
3899 Clouds 23 1010 94 10000 1 180 23:20 09.08.2019
3900 Clouds 23 1010 94 10000 1 180 22:55 09.08.2019
3901 Clouds 23 1010 94 10000 1 180 22:55 09.08.2019
3902 Clouds 23 1010 94 10000 1 180 22:37 09.08.2019
3903 Clouds 23 1010 94 10000 1 230 22:18 09.08.2019
3904 Clouds 23 1010 94 10000 1 230 21:40 09.08.2019
3905 Clouds 23 1010 94 10000 1 230 21:21 09.08.2019
3906 Clouds 23 1009 94 10000 1.63 66.149 20:57 09.08.2019
3907 Clouds 23 1009 94 10000 1.97 69.417 20:38 09.08.2019
3908 Clouds 23 1009 100 10000 1.97 69.417 20:18 09.08.2019
3909 Clouds 23 1009 100 10000 1.97 69.417 19:43 09.08.2019
3910 Clouds 23 1009 100 10000 1 180 19:22 09.08.2019
3911 Clouds 23 1009 100 10000 1 180 18:55 09.08.2019
3912 Clouds 23 1009 100 10000 1 180 18:36 09.08.2019
3913 Clouds 23 1009 100 10000 1 140 18:18 09.08.2019
3914 Clouds 23 1009 100 10000 1 140 17:42 09.08.2019
3915 Clouds 23 1009 100 10000 1 140 17:23 09.08.2019
3916 Clouds 24 1010 94 10000 1 140 16:54 09.08.2019
3917 Clouds 24 1010 94 10000 1 140 16:36 09.08.2019
3918 Clouds 24 1010 100 10000 1 160 16:18 09.08.2019
3919 Clouds 24 1010 100 10000 1 160 15:41 09.08.2019
3920 Clouds 24 1010 100 10000 3.76 131.56 15:21 09.08.2019
3921 -273 0 0 0 0 0 14:57 09.08.2019
3922 Clouds 24 1010 100 10000 3.76 131.56 14:37 09.08.2019
3923 Clear 28 1011 78 0 3.76 131.56 14:19 09.08.2019
3924 Clear 28 1011 78 0 3.76 131.56 13:44 09.08.2019
3925 Clouds 25 1010 94 10000 3.82 124.311 13:20 09.08.2019
3926 Clouds 25 1010 94 10000 3.82 124.311 12:47 09.08.2019
3927 Clouds 26 1010 94 10000 1.5 140 12:25 09.08.2019
3928 Clouds 26 1010 94 10000 1.5 140 11:59 09.08.2019
3929 Clouds 26 1010 94 10000 1.5 140 11:38 09.08.2019
3930 Clouds 28 1009 83 10000 2.1 110 11:19 09.08.2019
3931 Clouds 28 1009 83 10000 2.1 110 10:41 09.08.2019
3932 Clouds 28 1009 83 10000 2.1 110 10:22 09.08.2019
3933 Clouds 28 1009 83 10000 2.1 110 10:22 09.08.2019
3934 Clouds 29 1008 83 10000 2.6 50 09:47 09.08.2019
3935 Clouds 29 1008 83 10000 2.6 50 09:20 09.08.2019
3936 Clouds 29 1008 83 10000 2.6 50 08:59 09.08.2019
3937 Clouds 30 1008 66 10000 3.6 70 08:41 09.08.2019
3938 Clouds 31 1007 70 10000 5.1 70 08:21 09.08.2019
3939 Clouds 31 1007 70 10000 5.1 70 07:53 09.08.2019
3940 Clouds 31 1007 70 10000 5.1 70 07:24 09.08.2019
3941 Clouds 31 1007 70 10000 5.7 20 06:56 09.08.2019
3942 Clouds 31 1007 70 10000 5.7 20 06:36 09.08.2019
3943 Clouds 32 1008 66 10000 4.1 50 05:58 09.08.2019
3944 Clouds 32 1009 70 10000 4.6 50 04:25 09.08.2019
3945 Clouds 31 1011 66 10000 3.1 110 02:18 09.08.2019
3946 Clouds 29 1011 70 10000 2.1 110 00:50 09.08.2019
3947 Clouds 29 1011 70 10000 2.1 110 00:27 09.08.2019
3948 Clouds 25 1010 88 10000 1.5 200 23:59 08.08.2019
3949 Clouds 25 1010 88 10000 1.5 200 23:38 08.08.2019
3950 Clouds 22 1010 100 10000 3.54 86.368 23:20 08.08.2019
3951 Clouds 22 1010 100 10000 3.54 86.368 22:58 08.08.2019
3952 Clouds 22 1010 100 10000 3.54 86.368 22:37 08.08.2019
3953 Clouds 22 1009 100 10000 3.54 86.368 22:18 08.08.2019
3954 Clouds 22 1009 100 10000 3.54 86.368 22:18 08.08.2019
3955 Clouds 22 1009 100 10000 3.54 86.368 21:58 08.08.2019
3956 Clouds 22 1009 100 10000 3.54 86.368 21:57 08.08.2019
3957 Clouds 22 1009 100 10000 3.54 86.368 21:39 08.08.2019
3958 Clouds 22 1009 100 10000 1.5 180 21:20 08.08.2019
3959 Clouds 22 1009 100 10000 1.5 180 20:42 08.08.2019
3960 Clouds 22 1009 100 10000 1.5 180 20:22 08.08.2019
3961 Clouds 23 1009 94 10000 2.14 28.585 19:59 08.08.2019
3962 Clouds 23 1009 94 10000 2.14 28.585 19:40 08.08.2019
3963 Clouds 23 1009 100 10000 1.5 180 19:20 08.08.2019
3964 Clouds 23 1009 100 10000 1.5 180 18:41 08.08.2019
3965 Clouds 23 1009 100 10000 1.5 140 18:22 08.08.2019
3966 Clouds 23 1009 100 10000 1.5 140 17:55 08.08.2019
3967 Clouds 23 1009 100 10000 1.5 140 17:36 08.08.2019
3968 Clouds 24 1010 94 10000 1.5 160 17:18 08.08.2019
3969 Clouds 24 1010 94 10000 1.5 160 16:42 08.08.2019
3970 Clouds 24 1010 94 10000 1.5 160 16:24 08.08.2019
3971 Clouds 24 1010 100 10000 1.5 160 15:58 08.08.2019
3972 Clouds 24 1010 100 10000 1.5 160 15:39 08.08.2019
3973 Clouds 24 1010 100 10000 1.5 160 15:39 08.08.2019
3974 Rain 28 1011 75 0 0.52 233.416 15:20 08.08.2019
3975 Rain 28 1011 75 0 0.52 233.416 15:20 08.08.2019
3976 Rain 28 1011 75 0 0.52 233.416 15:20 08.08.2019
3977 Rain 28 1011 75 0 0.52 233.416 14:40 08.08.2019
3978 Clouds 24 1010 100 10000 1.5 140 14:22 08.08.2019
3979 Clouds 24 1010 100 10000 1.5 140 13:57 08.08.2019
3980 Clouds 24 1010 100 10000 1.5 140 13:36 08.08.2019
3981 Clouds 25 1010 100 10000 1.5 160 13:18 08.08.2019
3982 Clouds 25 1010 100 10000 1.5 160 12:38 08.08.2019
3983 Clouds 26 1010 94 10000 1.5 140 12:19 08.08.2019
3984 Clouds 26 1010 94 10000 1.5 140 11:44 08.08.2019
3985 Clouds 26 1010 94 10000 1.5 140 11:26 08.08.2019
3986 Clouds 27 1009 88 10000 2.1 140 10:56 08.08.2019
3987 Clouds 27 1009 88 10000 2.1 140 10:38 08.08.2019
3988 Clouds 29 1009 79 10000 3.1 70 10:19 08.08.2019
3989 Clouds 29 1009 79 10000 3.1 70 09:42 08.08.2019
3990 Clouds 29 1009 79 10000 3.1 70 09:22 08.08.2019
3991 Clouds 30 1008 66 10000 3.1 70 08:44 08.08.2019
3992 Clouds 30 1008 66 10000 3.1 70 08:22 08.08.2019
3993 Clouds 30 1007 74 10000 3.1 160 07:58 08.08.2019
3994 Clouds 30 1007 74 10000 3.1 160 07:39 08.08.2019
3995 Clouds 32 1008 62 10000 2.1 90 07:18 08.08.2019
3996 Clouds 32 1008 62 10000 2.1 90 06:44 08.08.2019
3997 Clouds 31 1008 66 10000 3.1 360 05:58 08.08.2019
3998 Clouds 31 1008 66 10000 3.1 360 05:39 08.08.2019
3999 Rain 28 1009 77 0 2.97 241.83 04:18 08.08.2019
4000 Rain 28 1009 77 0 2.97 241.83 03:41 08.08.2019
4001 Clouds 29 1011 74 10000 2.66 189.537 01:47 08.08.2019
4002 Clouds 26 1011 94 10000 1.5 230 00:59 08.08.2019
4003 Clouds 24 1011 94 10000 1.5 140 00:22 08.08.2019
4004 Clouds 24 1011 94 10000 1.5 140 23:38 07.08.2019
4005 Clouds 24 1010 94 10000 4.1 140 23:18 07.08.2019
4006 Clouds 24 1010 94 10000 4.1 140 22:41 07.08.2019
4007 Clouds 24 1010 94 10000 4.1 140 22:21 07.08.2019
4008 Rain 24 1010 94 10000 4.1 110 21:58 07.08.2019
4009 Clouds 24 1010 94 10000 4.1 140 21:40 07.08.2019
4010 Clouds 24 1010 94 10000 4.1 140 21:21 07.08.2019
4011 Clouds 24 1009 94 10000 1.5 140 20:59 07.08.2019
4012 Clouds 24 1009 94 10000 1.5 140 20:40 07.08.2019
4013 Clouds 23 1008 100 10000 4.93 158.026 20:20 07.08.2019
4014 Clouds 23 1008 100 10000 4.93 158.026 20:20 07.08.2019
4015 Clouds 23 1008 100 10000 4.93 158.026 19:55 07.08.2019
4016 Clouds 23 1008 100 10000 4.93 158.026 19:36 07.08.2019
4017 Clouds 23 1008 100 10000 4.93 158.026 19:18 07.08.2019
4018 Clouds 23 1008 100 10000 4.93 158.026 18:40 07.08.2019
4019 Clouds 24 1009 94 10000 2.32 87.11 18:20 07.08.2019
4020 Clouds 24 1009 94 10000 2.32 87.11 17:55 07.08.2019
4021 Clouds 24 1009 94 10000 2.32 87.11 17:37 07.08.2019
4022 Clouds 24 1009 100 10000 2.32 87.11 17:18 07.08.2019
4023 Clouds 24 1009 100 10000 2.32 87.11 16:56 07.08.2019
4024 Clouds 24 1009 100 10000 2.32 87.11 16:37 07.08.2019
4025 Clouds 24 1009 100 10000 2.32 87.11 16:37 07.08.2019
4026 Clouds 24 1010 100 10000 2.32 87.11 16:19 07.08.2019
4027 Clouds 24 1010 100 10000 2.32 87.11 15:43 07.08.2019
4028 Clouds 24 1010 100 10000 1 160 15:20 07.08.2019
4029 Clouds 24 1010 100 10000 1 160 14:50 07.08.2019
4030 Clouds 24 1010 100 10000 1 160 14:30 07.08.2019
4031 Clouds 25 1010 100 10000 1 180 13:59 07.08.2019
4032 Clouds 25 1010 100 10000 1 180 13:39 07.08.2019
4033 Clouds 25 1010 100 10000 1.5 200 13:19 07.08.2019
4034 Clouds 25 1010 100 10000 1.5 200 12:57 07.08.2019
4035 Clouds 25 1010 100 10000 1.5 200 12:38 07.08.2019
4036 Clouds 25 1010 94 10000 2.1 90 12:19 07.08.2019
4037 Clouds 25 1010 94 10000 2.1 90 11:55 07.08.2019
4038 Clouds 25 1010 94 10000 2.1 90 11:37 07.08.2019
4039 Clouds 26 1009 94 10000 3.1 140 11:18 07.08.2019
4040 Clouds 26 1009 94 10000 3.1 140 10:40 07.08.2019
4041 Clouds 27 1008 88 10000 2.1 160 10:19 07.08.2019
4042 Clouds 27 1008 88 10000 2.1 160 09:46 07.08.2019
4043 Clouds 27 1008 88 10000 2.1 160 09:24 07.08.2019
4044 Clouds 29 1008 79 10000 3.1 180 08:59 07.08.2019
4045 Clouds 29 1008 79 10000 3.1 180 08:41 07.08.2019
4046 Clouds 29 1008 79 10000 3.1 180 08:23 07.08.2019
4047 Clouds 31 1007 74 10000 3.1 20 07:45 07.08.2019
4048 Clouds 31 1007 74 10000 3.1 20 07:26 07.08.2019
4049 Clouds 31 1008 70 10000 3.1 340 06:41 07.08.2019
4050 Clouds 30 1010 74 10000 2.6 20 06:20 07.08.2019
4051 Clouds 30 1010 74 10000 2.6 20 05:40 07.08.2019
4052 Clouds 30 1010 70 10000 2.6 50 03:23 07.08.2019
4053 Clouds 29 1010 74 10000 1.5 70 02:51 07.08.2019
4054 Clouds 29 1010 74 10000 1.5 70 02:30 07.08.2019
4055 Clouds 30 1011 74 10000 1 360 01:48 07.08.2019
4056 Clouds 28 1011 88 10000 0.88 312.475 00:53 07.08.2019
4057 Clouds 27 1011 88 10000 1 200 00:23 07.08.2019
4058 Clouds 25 1010 94 10000 1.5 160 23:44 06.08.2019
4059 Clouds 25 1010 94 10000 1.5 160 23:23 06.08.2019
4060 Clouds 24 1009 100 10000 1.5 160 22:59 06.08.2019
4061 Clouds 24 1009 100 10000 1.5 160 22:38 06.08.2019
4062 Clouds 24 1009 100 10000 1.5 160 22:20 06.08.2019
4063 Clouds 24 1009 100 10000 2.6 160 21:44 06.08.2019
4064 Clouds 24 1009 100 10000 2.6 160 21:26 06.08.2019
4065 Clouds 24 1009 94 10000 1.5 160 20:59 06.08.2019
4066 Clouds 24 1009 94 10000 1.5 160 20:41 06.08.2019
4067 Clouds 24 1008 100 10000 2.1 160 20:22 06.08.2019
4068 Clouds 24 1008 100 10000 2.1 160 19:45 06.08.2019
4069 Clouds 24 1008 100 10000 2.1 160 19:26 06.08.2019
4070 Clouds 27 1008 74 0 3.38 87.001 18:54 06.08.2019
4071 Clouds 27 1008 74 0 3.38 87.001 18:36 06.08.2019
4072 Clouds 24 1009 100 10000 1.5 160 18:18 06.08.2019
4073 Clouds 24 1009 100 10000 1.5 160 17:54 06.08.2019
4074 Clouds 24 1009 100 10000 1.5 160 17:36 06.08.2019
4075 Clouds 25 1009 94 10000 3.41 65.462 17:18 06.08.2019
4076 Clouds 25 1009 94 10000 3.41 65.462 17:18 06.08.2019
4077 Clouds 25 1009 94 10000 3.41 65.462 16:41 06.08.2019
4078 Clouds 25 1009 94 10000 3.41 65.462 16:21 06.08.2019
4079 Clouds 24 1009 100 10000 2.1 140 15:57 06.08.2019
4080 Clouds 24 1009 100 10000 2.1 140 15:38 06.08.2019
4081 Clouds 25 1010 94 10000 1.5 110 15:19 06.08.2019
4082 Clouds 25 1010 94 10000 1.5 110 14:44 06.08.2019
4083 Clouds 25 1010 94 10000 1.5 110 14:25 06.08.2019
4084 Clouds 25 1010 94 10000 2.1 140 13:58 06.08.2019
4085 Clouds 25 1010 94 10000 2.1 140 13:39 06.08.2019
4086 Clouds 25 1010 100 10000 1.5 140 13:20 06.08.2019
4087 Clouds 25 1010 100 10000 1.5 140 12:57 06.08.2019
4088 Clouds 25 1010 100 10000 1.5 140 12:38 06.08.2019
4089 Clouds 25 1009 100 10000 2.1 110 12:20 06.08.2019
4090 Clouds 25 1009 100 10000 2.1 110 11:41 06.08.2019
4091 Clouds 25 1008 100 10000 1.5 200 11:19 06.08.2019
4092 Clouds 25 1008 100 10000 1.5 200 11:18 06.08.2019
4093 Clouds 25 1008 100 10000 1.5 200 10:41 06.08.2019
4094 Clouds 25 1008 100 10000 1.5 200 10:22 06.08.2019
4095 Clouds 26 1008 94 10000 2.64 35.22 09:49 06.08.2019
4096 Clouds 26 1008 94 10000 3.5 164.462 09:24 06.08.2019
4097 Clouds 26 1007 94 10000 3.5 164.462 08:57 06.08.2019
4098 Clouds 26 1007 94 10000 2.36 154.012 08:38 06.08.2019
4099 Clouds 28 1007 83 10000 2.1 200 08:20 06.08.2019
4100 Clouds 28 1007 83 10000 2.1 200 07:36 06.08.2019
4101 Clouds 31 1007 70 10000 5.1 70 06:51 06.08.2019
4102 Clouds 31 1007 70 10000 5.1 70 06:29 06.08.2019
4103 Clouds 31 1007 66 10000 5.1 50 05:47 06.08.2019
4104 Clouds 28 1010 75 0 1.16 292.232 02:59 06.08.2019
4105 Clouds 29 1009 79 10000 4.6 110 01:46 06.08.2019
4106 Clouds 29 1009 79 10000 4.6 110 01:22 06.08.2019
4107 Clouds 28 1010 83 10000 3.6 110 00:29 06.08.2019
4108 Clouds 25 1009 94 10000 1.5 180 23:40 05.08.2019
4109 Clouds 24 1008 94 10000 1.5 140 23:18 05.08.2019
4110 Clouds 24 1008 94 10000 1.5 140 22:40 05.08.2019
4111 Clouds 24 1008 94 10000 2.1 160 22:22 05.08.2019
4112 Clouds 24 1008 94 10000 2.1 160 21:44 05.08.2019
4113 Clouds 24 1008 94 10000 2.1 160 21:21 05.08.2019
4114 Clouds 24 1008 94 10000 1.5 200 20:59 05.08.2019
4115 Clouds 24 1008 94 10000 1.5 200 20:40 05.08.2019
4116 Clouds 24 1008 94 10000 1.5 200 20:22 05.08.2019
4117 Clouds 25 1008 94 10000 1.5 230 19:59 05.08.2019
4118 Clouds 25 1008 94 10000 1.5 230 19:38 05.08.2019
4119 Clouds 25 1008 94 10000 2.11 91.521 19:20 05.08.2019
4120 Clouds 25 1008 94 10000 2.11 91.521 18:42 05.08.2019
4121 Clouds 25 1008 94 10000 3 115.427 18:21 05.08.2019
4122 Clouds 25 1008 94 10000 3 115.427 17:56 05.08.2019
4123 Clouds 25 1008 94 10000 3 115.427 17:38 05.08.2019
4124 Clouds 25 1009 94 10000 3 115.427 17:20 05.08.2019
4125 Clouds 25 1009 94 10000 3 115.427 16:41 05.08.2019
4126 Clouds 25 1009 94 10000 3 115.427 16:23 05.08.2019
4127 Clouds 24 1009 100 10000 1.5 140 15:43 05.08.2019
4128 Clouds 25 1010 94 10000 1 110 15:20 05.08.2019
4129 Clouds 25 1010 94 10000 1 110 14:42 05.08.2019
4130 Clouds 25 1010 94 10000 1 110 14:42 05.08.2019
4131 Clouds 25 1010 94 10000 1 110 14:22 05.08.2019
4132 Clouds 25 1010 94 10000 1.5 140 13:49 05.08.2019
4133 Clouds 25 1010 94 10000 1 160 13:24 05.08.2019
4134 Clouds 25 1010 94 10000 1 160 12:56 05.08.2019
4135 Clouds 25 1010 94 10000 1 160 12:37 05.08.2019
4136 Clouds 26 1009 88 10000 3.6 90 12:18 05.08.2019
4137 Clouds 26 1009 88 10000 3.6 90 11:42 05.08.2019
4138 Clouds 26 1009 88 10000 3.6 90 11:24 05.08.2019
4139 Clouds 27 1009 83 10000 3.6 90 10:46 05.08.2019
4140 Clouds 27 1009 83 10000 3.6 90 10:28 05.08.2019
4141 Clouds 28 1008 78 10000 2.1 110 09:55 05.08.2019
4142 Clouds 28 1008 78 10000 2.1 110 09:36 05.08.2019
4143 Clouds 30 1007 70 10000 4.1 90 09:18 05.08.2019
4144 Clouds 30 1007 70 10000 4.1 90 08:41 05.08.2019
4145 Clouds 30 1007 70 10000 4.1 90 08:20 05.08.2019
4146 Clouds 31 1007 70 10000 6.2 90 07:45 05.08.2019
4147 Clouds 31 1007 70 10000 6.2 90 07:27 05.08.2019
4148 Clouds 29 1007 74 10000 4.1 110 06:39 05.08.2019
4149 Clouds 29 1007 70 10000 8.7 110 05:52 05.08.2019
4150 Clouds 32 1007 66 10000 8.2 90 05:20 05.08.2019
4151 Clouds 32 1007 66 10000 8.2 90 04:27 05.08.2019
4152 Clouds 32 1008 66 10000 8.7 90 03:38 05.08.2019
4153 Clouds 32 1009 62 10000 6.2 90 02:37 05.08.2019
4154 Clouds 31 1009 70 10000 5.1 110 01:35 05.08.2019
4155 Clouds 31 1009 70 10000 5.1 110 01:35 05.08.2019
4156 Clouds 29 1010 79 10000 6.2 110 00:43 05.08.2019
4157 Clouds 29 1010 79 10000 6.2 110 00:23 05.08.2019
4158 Clouds 26 1009 88 10000 2.6 140 23:58 04.08.2019
4159 Clouds 26 1009 88 10000 2.6 140 23:40 04.08.2019
4160 Clouds 25 1009 94 10000 1 140 23:19 04.08.2019
4161 Clouds 25 1009 94 10000 1 140 22:55 04.08.2019
4162 Clouds 24 1009 94 10000 4.91 126.268 22:37 04.08.2019
4163 Clouds 27 1010 79 0 4.91 126.268 22:18 04.08.2019
4164 Clouds 27 1010 79 0 4.91 126.268 21:43 04.08.2019
4165 Clouds 23 1008 100 10000 1 140 21:20 04.08.2019
4166 Clouds 23 1008 100 10000 1 140 20:46 04.08.2019
4167 Rain 27 1009 81 0 6.88 127.398 20:21 04.08.2019
4168 Rain 27 1009 81 0 6.88 127.398 19:58 04.08.2019
4169 Rain 27 1009 81 0 6.88 127.398 19:38 04.08.2019
4170 Clouds 24 1009 94 10000 2.1 110 19:20 04.08.2019
4171 Clouds 24 1009 94 10000 2.1 110 18:42 04.08.2019
4172 Rain 24 1009 94 10000 2.1 160 18:20 04.08.2019
4173 Rain 27 1010 82 0 9.01 135.405 17:45 04.08.2019
4174 Rain 27 1010 82 0 9.01 135.405 17:25 04.08.2019
4175 Rain 27 1010 82 0 9.01 135.405 16:59 04.08.2019
4176 Rain 27 1010 82 0 9.01 135.405 16:38 04.08.2019
4177 Rain 27 1010 82 0 9.01 135.405 16:19 04.08.2019
4178 Rain 27 1010 82 0 9.01 135.405 15:42 04.08.2019
4179 Rain 25 1010 94 10000 2.6 140 15:21 04.08.2019
4180 Rain 25 1010 94 10000 2.6 140 14:45 04.08.2019
4181 Rain 25 1010 94 10000 2.6 140 14:45 04.08.2019
4182 Rain 25 1010 94 10000 2.6 140 14:26 04.08.2019
4183 Clouds 25 1010 94 10000 2.6 140 13:47 04.08.2019
4184 Clouds 25 1010 94 10000 2.6 140 13:28 04.08.2019
4185 Clouds 27 1010 83 10000 5.1 90 12:59 04.08.2019
4186 Clouds 27 1010 83 10000 5.1 90 12:40 04.08.2019
4187 Clouds 27 1010 83 10000 5.1 90 12:22 04.08.2019
4188 Clouds 28 1009 78 10000 5.1 90 11:49 04.08.2019
4189 Clouds 28 1009 78 10000 5.1 90 11:23 04.08.2019
4190 Clouds 29 1008 74 10000 5.1 90 10:52 04.08.2019
4191 Clouds 29 1008 74 10000 5.1 90 10:24 04.08.2019
4192 Clouds 30 1007 66 10000 6.2 90 09:55 04.08.2019
4193 Clouds 30 1007 66 10000 6.2 90 09:37 04.08.2019
4194 Clouds 32 1007 59 10000 7.2 90 09:18 04.08.2019
4195 Clouds 32 1007 59 10000 7.2 90 08:38 04.08.2019
4196 Clouds 33 1007 63 10000 7.2 90 08:18 04.08.2019
4197 Clouds 33 1007 63 10000 7.2 90 07:44 04.08.2019
4198 Clouds 33 1007 63 10000 7.2 90 06:46 04.08.2019
4199 Clouds 33 1007 63 10000 7.2 90 06:23 04.08.2019
4200 Clouds 33 1009 63 10000 5.1 90 03:38 04.08.2019
4201 Clouds 28 1010 83 10000 1.5 160 01:56 04.08.2019
4202 Clouds 28 1010 83 10000 1.5 160 01:33 04.08.2019
4203 Clouds 26 1011 88 10000 1 110 00:43 04.08.2019
4204 Clouds 26 1011 88 10000 1 110 00:24 04.08.2019
4205 Clouds 25 1010 94 10000 7.44 132.19 23:56 03.08.2019
4206 Clouds 25 1010 94 10000 7.44 132.19 23:37 03.08.2019
4207 Clouds 23 1010 100 10000 7.44 132.19 23:18 03.08.2019
4208 Clouds 23 1010 100 10000 7.44 132.19 22:40 03.08.2019
4209 Clouds 23 1009 100 10000 7.44 132.19 22:19 03.08.2019
4210 Clouds 23 1009 100 10000 7.44 132.19 21:39 03.08.2019
4211 Clouds 23 1009 100 10000 6.94 129.784 21:21 03.08.2019
4212 Clouds 23 1009 100 10000 7.74 129.453 20:45 03.08.2019
4213 Clouds 23 1009 100 10000 7.74 129.453 20:24 03.08.2019
4214 Clouds 24 1009 94 10000 7.74 129.453 19:55 03.08.2019
4215 Clouds 24 1009 94 10000 7.74 129.453 19:37 03.08.2019
4216 Clouds 24 1009 100 10000 7.74 129.453 19:18 03.08.2019
4217 Clouds 24 1009 100 10000 7.74 129.453 18:40 03.08.2019
4218 Clouds 24 1010 100 10000 1.5 180 18:21 03.08.2019
4219 Clouds 24 1010 100 10000 1.5 180 17:42 03.08.2019
4220 Clouds 24 1010 100 10000 7.74 131.946 17:19 03.08.2019
4221 Clouds 24 1010 100 10000 7.74 131.946 16:38 03.08.2019
4222 Clouds 24 1010 100 10000 7.74 131.946 16:20 03.08.2019
4223 Clouds 25 1010 100 10000 7.74 131.946 15:46 03.08.2019
4224 Clouds 25 1010 100 10000 6.31 130.93 15:25 03.08.2019
4225 Rain 24 1010 100 10000 2.1 180 14:48 03.08.2019
4226 Rain 24 1010 100 10000 2.1 180 14:24 03.08.2019
4227 Clouds 25 1010 94 10000 2.1 200 13:57 03.08.2019
4228 Clouds 25 1010 94 10000 2.1 200 13:36 03.08.2019
4229 Clouds 25 1010 94 10000 5.82 123.635 13:18 03.08.2019
4230 Clouds 25 1010 94 10000 5.82 123.635 12:41 03.08.2019
4231 Clouds 25 1010 94 10000 4.03 144.636 12:23 03.08.2019
4232 Clouds 25 1010 94 10000 4.03 144.636 11:52 03.08.2019
4233 Clouds 25 1010 94 10000 4.03 144.636 11:33 03.08.2019
4234 Clouds 25 1010 100 10000 4.03 144.636 10:46 03.08.2019
4235 Clouds 25 1010 100 10000 4.03 144.636 10:24 03.08.2019
4236 Rain 26 1009 94 0 4.6 90 09:45 03.08.2019
4237 Rain 26 1009 94 0 4.6 90 09:24 03.08.2019
4238 Clouds 28 1008 78 10000 3.1 90 08:56 03.08.2019
4239 Clouds 28 1008 78 10000 3.1 90 08:21 03.08.2019
4240 Clouds 28 1008 78 10000 5.7 110 07:37 03.08.2019
4241 Clouds 29 1008 79 10000 7.7 90 06:40 03.08.2019
4242 Clouds 27 1009 83 10000 7.7 90 05:44 03.08.2019
4243 Clouds 30 1011 74 10000 5.1 90 02:41 03.08.2019
4244 Drizzle 26 1011 94 10000 4.1 110 01:50 03.08.2019
4245 Clouds 26 1011 88 10000 1 110 00:50 03.08.2019
4246 Clouds 26 1011 88 10000 1 110 00:28 03.08.2019
4247 Clouds 24 1010 94 10000 1 160 23:41 02.08.2019
4248 Clouds 23 1010 100 10000 1.5 200 23:19 02.08.2019
4249 Clouds 23 1010 100 10000 1.5 200 22:57 02.08.2019
4250 Clouds 22 1010 100 10000 2.88 112.023 22:38 02.08.2019
4251 Clouds 22 1009 100 10000 1 90 22:19 02.08.2019
4252 Clouds 22 1009 100 10000 1 90 21:43 02.08.2019
4253 Clouds 22 1009 100 10000 2.1 180 21:25 02.08.2019
4254 Clouds 22 1009 100 10000 2.1 180 21:25 02.08.2019
4255 Clouds 22 1009 100 10000 2.1 180 20:59 02.08.2019
4256 Clouds 22 1009 100 10000 2.1 180 20:40 02.08.2019
4257 Clouds 27 1010 79 0 6.11 124.489 20:20 02.08.2019
4258 Clouds 27 1010 79 0 6.11 124.489 19:46 02.08.2019
4259 Clouds 22 1008 100 10000 1.5 90 19:26 02.08.2019
4260 Clouds 22 1008 100 10000 1.5 90 18:45 02.08.2019
4261 Clouds 22 1008 100 10000 1.5 90 18:26 02.08.2019
4262 Clouds 23 1009 100 10000 6.3 135.521 17:48 02.08.2019
4263 Clouds 23 1009 100 10000 6.3 135.521 17:25 02.08.2019
4264 Clouds 23 1009 100 10000 6.3 135.521 16:58 02.08.2019
4265 Clouds 23 1009 100 10000 6.3 135.521 16:38 02.08.2019
4266 Clouds 24 1010 94 10000 1 140 16:18 02.08.2019
4267 Clouds 24 1010 94 10000 1 140 15:39 02.08.2019
4268 Clouds 24 1010 94 10000 1 180 15:19 02.08.2019
4269 Clouds 24 1010 94 10000 1 180 14:45 02.08.2019
4270 Clouds 25 1010 88 10000 1 140 14:18 02.08.2019
4271 Clouds 25 1010 88 10000 1 140 13:48 02.08.2019
4272 Clouds 25 1010 88 10000 1 140 13:25 02.08.2019
4273 Clouds 25 1010 88 10000 1 200 12:45 02.08.2019
4274 Clouds 25 1010 88 10000 1 200 12:21 02.08.2019
4275 Clouds 27 1009 83 10000 4.6 110 11:51 02.08.2019
4276 Clouds 27 1009 83 10000 4.6 110 11:32 02.08.2019
4277 Clouds 28 1009 78 10000 4.6 110 10:55 02.08.2019
4278 Clouds 28 1009 78 10000 4.6 110 10:37 02.08.2019
4279 Clouds 29 1007 79 10000 4.6 70 10:19 02.08.2019
4280 Clouds 29 1007 79 10000 4.6 70 09:52 02.08.2019
4281 Clouds 29 1007 79 10000 4.6 70 09:25 02.08.2019
4282 Clouds 31 1007 70 10000 6.7 70 08:47 02.08.2019
4283 Clouds 32 1007 66 10000 6.2 70 08:21 02.08.2019
4284 Clouds 32 1007 66 10000 6.2 70 07:49 02.08.2019
4285 Clouds 32 1007 66 10000 6.2 70 07:31 02.08.2019
4286 Clouds 32 1007 66 10000 6.2 70 06:44 02.08.2019
4287 Clouds 32 1007 55 10000 8.7 90 05:52 02.08.2019
4288 Clouds 31 1009 66 10000 7.2 90 04:19 02.08.2019
4289 Clouds 31 1009 66 10000 7.2 90 03:25 02.08.2019
4290 Clouds 29 1011 79 10000 4.1 110 01:46 02.08.2019
4291 Clouds 26 1011 88 10000 2.1 110 00:35 02.08.2019
4292 Clouds 24 1010 88 10000 1.5 140 23:46 01.08.2019
4293 Clouds 24 1010 88 10000 1.5 140 23:28 01.08.2019
4294 Clouds 23 1009 100 10000 2.1 110 22:56 01.08.2019
4295 Clouds 23 1009 100 10000 2.1 110 22:37 01.08.2019
4296 Clouds 22 1009 100 10000 2.1 160 22:19 01.08.2019
4297 Clouds 22 1009 100 10000 2.1 160 21:42 01.08.2019
4298 Clouds 22 1009 100 10000 2.1 160 21:23 01.08.2019
4299 Clouds 22 1008 100 10000 2.1 180 20:47 01.08.2019
4300 Clouds 22 1008 100 10000 2.1 180 20:23 01.08.2019
4301 Clouds 22 1009 100 10000 1 180 19:59 01.08.2019
4302 Clouds 22 1009 100 10000 1 180 19:38 01.08.2019
4303 Clouds 22 1009 100 10000 1 160 19:18 01.08.2019
4304 Clouds 22 1009 100 10000 1 160 18:43 01.08.2019
4305 Clouds 22 1009 100 10000 1 160 18:24 01.08.2019
4306 Clouds 22 1009 100 10000 1 160 18:24 01.08.2019
4307 Clouds 23 1009 94 10000 1 160 17:49 01.08.2019
4308 Clouds 23 1009 94 10000 1 160 17:30 01.08.2019
4309 Clouds 23 1010 100 10000 5.41 137.136 16:45 01.08.2019
4310 Clouds 23 1010 100 10000 5.41 137.136 16:23 01.08.2019
4311 Clouds 24 1010 100 10000 5.41 137.136 15:54 01.08.2019
4312 Clouds 24 1010 100 10000 5.41 137.136 15:36 01.08.2019
4313 Clouds 25 1010 94 10000 5.42 131.285 15:18 01.08.2019
4314 Clouds 25 1010 94 10000 5.42 131.285 14:41 01.08.2019
4315 Clouds 25 1010 94 10000 5.42 131.285 14:19 01.08.2019
4316 Clouds 25 1010 94 10000 5.42 131.285 13:56 01.08.2019
4317 Clouds 25 1010 94 10000 5.42 131.285 13:56 01.08.2019
4318 Clouds 25 1010 94 10000 5.42 131.285 13:38 01.08.2019
4319 Clouds 25 1010 94 10000 6.4 143.114 13:20 01.08.2019
4320 Clouds 25 1010 94 10000 6.4 143.114 12:41 01.08.2019
4321 Clouds 25 1010 94 10000 8.68 143.274 12:22 01.08.2019
4322 Clouds 25 1010 94 10000 1.5 160 11:43 01.08.2019
4323 Clouds 25 1010 94 10000 1.5 160 11:24 01.08.2019
4324 Clouds 25 1009 94 10000 1.5 110 10:46 01.08.2019
4325 Clouds 25 1009 94 10000 1.5 110 10:28 01.08.2019
4326 Clouds 26 1009 88 10000 4.1 90 09:59 01.08.2019
4327 Clouds 26 1009 88 10000 4.1 90 09:40 01.08.2019
4328 Clouds 26 1009 88 10000 4.1 90 09:22 01.08.2019
4329 Clouds 26 1009 88 10000 4.1 90 09:22 01.08.2019
4330 Clouds 27 1008 78 10000 3.1 90 08:43 01.08.2019
4331 Clouds 28 1007 78 10000 5.1 110 08:20 01.08.2019
4332 Clouds 28 1007 78 10000 5.1 110 07:47 01.08.2019
4333 Clouds 28 1007 78 10000 5.1 110 07:24 01.08.2019
4334 Clouds 29 1008 74 10000 6.7 90 06:48 01.08.2019
4335 Clouds 30 1008 70 10000 7.2 70 05:50 01.08.2019
4336 Clouds 31 1009 70 10000 5.1 90 04:18 01.08.2019
4337 Clouds 30 1010 66 10000 5.1 70 02:32 01.08.2019
4338 Clouds 26 1011 88 10000 10.3 143.082 00:42 01.08.2019
4339 Clouds 26 1011 88 10000 10.26 140.567 00:24 01.08.2019
4340 Clouds 24 1009 94 10000 1.5 180 23:42 31.07.2019
4341 Clouds 24 1009 94 10000 1.5 180 23:20 31.07.2019
4342 Clouds 24 1009 94 10000 2.1 180 22:47 31.07.2019
4343 Clouds 24 1009 94 10000 2.1 180 22:29 31.07.2019
4344 Clouds 24 1008 94 10000 3.1 70 21:45 31.07.2019
4345 Clouds 24 1008 94 10000 3.1 70 21:24 31.07.2019
4346 Rain 24 1008 94 0 3.6 160 20:56 31.07.2019
4347 Rain 24 1008 94 0 3.6 160 20:38 31.07.2019
4348 Rain 24 1009 100 10000 3.6 140 20:20 31.07.2019
4349 Rain 24 1009 100 10000 3.6 140 19:41 31.07.2019
4350 Rain 25 1009 100 10000 7.2 90 19:22 31.07.2019
4351 Rain 25 1009 100 10000 7.2 90 18:41 31.07.2019
4352 Rain 25 1009 100 10000 7.2 90 18:23 31.07.2019
4353 Drizzle 24 1009 100 10000 2.1 90 17:55 31.07.2019
4354 Drizzle 24 1009 100 10000 2.1 90 17:37 31.07.2019
4355 Rain 24 1010 100 10000 1.5 110 17:18 31.07.2019
4356 Rain 24 1010 100 10000 1.5 110 16:41 31.07.2019
4357 Rain 24 1010 100 10000 1.5 110 16:41 31.07.2019
4358 Rain 24 1010 100 10000 1.5 110 16:19 31.07.2019
4359 Rain 24 1010 100 10000 1.5 110 15:44 31.07.2019
4360 Rain 24 1010 100 10000 1.5 110 15:24 31.07.2019
4361 Rain 25 1010 100 10000 4.6 110 14:42 31.07.2019
4362 Rain 25 1010 100 10000 4.6 110 14:21 31.07.2019
4363 Rain 26 1010 94 10000 1.5 70 13:57 31.07.2019
4364 Rain 26 1010 94 10000 1.5 70 13:38 31.07.2019
4365 Clouds 26 1009 94 10000 11.8 143.954 13:19 31.07.2019
4366 Clouds 26 1009 94 10000 11.8 143.954 12:43 31.07.2019
4367 Clouds 26 1009 94 10000 12.08 147.19 12:25 31.07.2019
4368 Rain 27 1009 88 10000 1.5 140 11:41 31.07.2019
4369 Rain 27 1009 88 10000 1.5 140 11:23 31.07.2019
4370 Clouds 27 1009 83 10000 1.5 200 10:57 31.07.2019
4371 Clouds 27 1009 83 10000 1.5 200 10:39 31.07.2019
4372 Clouds 29 1008 74 10000 4.6 70 10:20 31.07.2019
4373 Clouds 29 1008 74 10000 4.6 70 09:43 31.07.2019
4374 Clouds 30 1007 70 10000 5.1 90 09:24 31.07.2019
4375 Clouds 30 1007 70 10000 5.1 90 08:44 31.07.2019
4376 Clouds 30 1007 70 10000 5.1 90 08:24 31.07.2019
4377 Rain 27 1008 82 0 11.54 148.692 07:50 31.07.2019
4378 Clouds 31 1007 66 10000 8.2 90 07:31 31.07.2019
4379 Clouds 30 1008 70 10000 7.2 110 05:24 31.07.2019
4380 Clouds 33 1009 63 10000 8.2 90 04:19 31.07.2019
4381 Clouds 29 1010 79 10000 4.1 110 00:38 31.07.2019
4382 Clouds 26 1010 88 10000 1 110 23:51 30.07.2019
4383 Clouds 26 1010 88 10000 1 110 23:29 30.07.2019
4384 Clouds 23 1009 100 10000 6.36 126.436 22:49 30.07.2019
4385 Clouds 23 1009 100 10000 6.36 126.436 22:26 30.07.2019
4386 Clouds 24 1008 94 10000 1 140 21:59 30.07.2019
4387 Clouds 24 1008 94 10000 1 140 21:37 30.07.2019
4388 Clouds 24 1008 94 10000 1 200 21:19 30.07.2019
4389 Clouds 24 1008 94 10000 1 200 20:55 30.07.2019
4390 Clouds 24 1008 94 10000 1 200 20:36 30.07.2019
4391 Clouds 23 1008 100 10000 1 200 20:18 30.07.2019
4392 Clouds 23 1008 100 10000 1 200 19:42 30.07.2019
4393 Clouds 23 1008 100 10000 1 200 19:24 30.07.2019
4394 Clouds 23 1008 100 10000 5.3 128.769 18:45 30.07.2019
4395 Clouds 24 1008 100 10000 6.51 131.566 18:21 30.07.2019
4396 Clouds 24 1008 100 10000 6.51 131.566 17:43 30.07.2019
4397 Clouds 24 1009 94 10000 1 110 17:20 30.07.2019
4398 Clouds 24 1009 94 10000 1 110 16:53 30.07.2019
4399 Clouds 24 1009 94 10000 1 110 16:22 30.07.2019
4400 Clouds 24 1009 94 10000 1 160 15:59 30.07.2019
4401 Clouds 24 1009 94 10000 1 160 15:38 30.07.2019
4402 Clouds 25 1009 88 10000 1 160 15:19 30.07.2019
4403 Clouds 25 1009 88 10000 1 160 14:43 30.07.2019
4404 Clouds 25 1009 88 10000 1 130 14:22 30.07.2019
4405 Clouds 25 1009 88 10000 1 130 13:48 30.07.2019
4406 Clouds 25 1009 88 10000 1 130 13:29 30.07.2019
4407 Clouds 26 1009 88 10000 3.1 90 12:59 30.07.2019
4408 Clouds 26 1009 88 10000 3.1 90 12:41 30.07.2019
4409 Clouds 26 1009 88 10000 3.1 90 12:23 30.07.2019
4410 Clouds 26 1008 88 10000 2.1 140 11:44 30.07.2019
4411 Clouds 27 1007 83 10000 1 200 11:21 30.07.2019
4412 Clouds 27 1007 83 10000 1 200 11:21 30.07.2019
4413 Clouds 27 1007 83 10000 1 200 10:55 30.07.2019
4414 Clouds 27 1007 83 10000 1 200 10:37 30.07.2019
4415 Clouds 28 1007 78 10000 3.1 90 10:18 30.07.2019
4416 Clouds 28 1007 78 10000 3.1 90 09:44 30.07.2019
4417 Clouds 28 1007 78 10000 3.1 90 09:24 30.07.2019
4418 Clouds 28 1007 78 10000 3.1 90 09:24 30.07.2019
4419 Clouds 30 1006 74 10000 3.1 90 08:32 30.07.2019
4420 Clouds 30 1006 74 10000 6.2 70 07:52 30.07.2019
4421 Clouds 31 1006 74 10000 4.6 70 07:34 30.07.2019
4422 Clouds 32 1006 70 10000 4.6 70 06:50 30.07.2019
4423 Clouds 32 1006 70 10000 4.6 70 06:31 30.07.2019
4424 Clouds 32 1007 62 10000 6.2 70 05:34 30.07.2019
4425 Clouds 31 1009 74 10000 4.6 70 03:29 30.07.2019
4426 Clouds 29 1011 79 10000 3.1 110 01:22 30.07.2019
4427 Drizzle 25 1011 94 10000 1 90 00:25 30.07.2019
4428 Clouds 24 1010 94 10000 3.69 123.303 23:47 29.07.2019
4429 Clouds 24 1010 94 10000 3.69 123.303 23:28 29.07.2019
4430 Clouds 23 1009 100 10000 3.69 123.303 22:58 29.07.2019
4431 Clouds 23 1009 100 10000 3.69 123.303 22:58 29.07.2019
4432 Clouds 23 1009 100 10000 3.69 123.303 22:39 29.07.2019
4433 Clouds 23 1009 100 10000 3.69 123.303 22:20 29.07.2019
4434 Clouds 23 1009 100 10000 3.69 123.303 22:20 29.07.2019
4435 Clouds 23 1009 100 10000 3.69 123.303 21:59 29.07.2019
4436 Clouds 23 1009 100 10000 3.69 123.303 21:41 29.07.2019
4437 Clouds 23 1009 100 10000 2.59 83.012 21:22 29.07.2019
4438 Clouds 23 1008 100 10000 1.5 110 20:55 29.07.2019
4439 Clouds 23 1008 100 10000 1.5 110 20:36 29.07.2019
4440 Clouds 23 1008 100 10000 1.5 140 20:18 29.07.2019
4441 Clouds 23 1008 100 10000 1.5 140 19:41 29.07.2019
4442 Clouds 23 1008 100 10000 1.5 140 19:21 29.07.2019
4443 Clouds 24 1008 94 10000 1.5 110 18:43 29.07.2019
4444 Clouds 24 1009 100 10000 1.5 160 18:23 29.07.2019
4445 Clouds 24 1009 100 10000 1.5 160 17:56 29.07.2019
4446 Clouds 24 1009 100 10000 1.5 160 17:37 29.07.2019
4447 Clouds 24 1009 100 10000 1 160 17:19 29.07.2019
4448 Clouds 24 1009 100 10000 1 160 16:42 29.07.2019
4449 Clouds 24 1009 100 10000 1 160 16:23 29.07.2019
4450 Clouds 24 1010 100 10000 2.1 160 15:53 29.07.2019
4451 Clouds 24 1010 100 10000 2.1 160 15:34 29.07.2019
4452 Clouds 24 1010 100 10000 3.87 128.223 14:56 29.07.2019
4453 Clouds 24 1010 100 10000 3.87 128.223 14:56 29.07.2019
4454 Clouds 24 1010 100 10000 3.87 128.223 14:37 29.07.2019
4455 Clouds 25 1010 100 10000 3.87 128.223 14:19 29.07.2019
4456 Clouds 25 1010 100 10000 3.87 128.223 13:42 29.07.2019
4457 Clouds 25 1010 100 10000 9.02 140.695 13:23 29.07.2019
4458 Clouds 25 1010 100 10000 9.02 140.695 12:42 29.07.2019
4459 Clouds 25 1010 100 10000 6.65 137.138 12:24 29.07.2019
4460 Clouds 26 1010 94 10000 1 140 11:44 29.07.2019
4461 Clouds 26 1010 94 10000 1 140 11:22 29.07.2019
4462 Clouds 27 1008 94 10000 1.5 230 10:46 29.07.2019
4463 Clouds 27 1008 94 10000 1.5 230 10:25 29.07.2019
4464 Clouds 29 1008 79 10000 1.5 360 09:50 29.07.2019
4465 Clouds 29 1008 79 10000 1.5 360 09:28 29.07.2019
4466 Clouds 29 1007 79 10000 2.1 50 08:57 29.07.2019
4467 Clouds 29 1007 79 10000 2.1 50 08:31 29.07.2019
4468 Clouds 29 1007 79 10000 2.6 50 07:58 29.07.2019
4469 Clouds 29 1007 79 10000 2.6 50 07:36 29.07.2019
4470 Clouds 30 1007 74 10000 3.1 50 06:45 29.07.2019
4471 Clouds 31 1008 66 10000 4.1 70 05:46 29.07.2019
4472 Clouds 31 1008 74 10000 4.1 50 04:50 29.07.2019
4473 Clouds 30 1011 74 10000 4.1 110 01:59 29.07.2019
4474 Clouds 30 1011 74 10000 4.1 110 01:41 29.07.2019
4475 Clouds 30 1011 74 10000 4.1 110 01:21 29.07.2019
4476 Clouds 29 1011 74 10000 3.1 160 00:41 29.07.2019
4477 Clouds 25 1010 94 10000 1.5 180 00:18 29.07.2019
4478 Clouds 25 1010 94 10000 1.5 180 23:40 28.07.2019
4479 Clouds 24 1010 100 10000 2.1 200 23:18 28.07.2019
4480 Clouds 24 1010 100 10000 2.1 200 22:37 28.07.2019
4481 Clouds 24 1010 100 10000 2.1 200 22:18 28.07.2019
4482 Drizzle 24 1009 100 10000 1 140 21:43 28.07.2019
4483 Drizzle 24 1009 100 10000 1 140 21:18 28.07.2019
4484 Drizzle 24 1009 100 10000 1 140 20:44 28.07.2019
4485 Drizzle 24 1009 100 10000 1 140 20:26 28.07.2019
4486 Clouds 24 1009 100 10000 4.14 119.855 19:42 28.07.2019
4487 Clouds 24 1009 100 10000 4.14 119.855 19:22 28.07.2019
4488 Clouds 24 1009 100 10000 1 160 18:50 28.07.2019
4489 Clouds 24 1009 100 10000 1 160 18:29 28.07.2019
4490 Clouds 25 1009 94 10000 1 200 17:58 28.07.2019
4491 Clouds 25 1009 94 10000 1 200 17:40 28.07.2019
4492 Clouds 25 1010 94 10000 1 200 17:20 28.07.2019
4493 Clouds 25 1010 94 10000 1 200 16:46 28.07.2019
4494 Clouds 25 1010 94 10000 1 200 16:27 28.07.2019
4495 Clouds 25 1010 94 10000 1 90 15:49 28.07.2019
4496 Clouds 25 1010 94 10000 1 90 15:28 28.07.2019
4497 Clouds 25 1010 94 10000 1 230 14:57 28.07.2019
4498 Clouds 25 1010 94 10000 1 230 14:37 28.07.2019
4499 Clouds 25 1011 100 10000 8.68 145.644 14:18 28.07.2019
4500 Clouds 25 1011 100 10000 8.68 145.644 13:40 28.07.2019
4501 Clouds 25 1011 100 10000 8.02 136.981 13:21 28.07.2019
4502 Clouds 25 1011 100 10000 8.02 136.981 12:47 28.07.2019
4503 Clouds 25 1011 100 10000 8.02 136.981 12:28 28.07.2019
4504 Clouds 25 1010 100 10000 2.1 180 11:52 28.07.2019
4505 Clouds 25 1010 100 10000 2.1 180 11:32 28.07.2019
4506 Clouds 26 1010 94 10000 2.1 110 11:00 28.07.2019
4507 Clouds 26 1010 94 10000 2.1 110 10:39 28.07.2019
4508 Clouds 26 1009 94 10000 1 360 10:19 28.07.2019
4509 Clouds 26 1009 94 10000 1 360 09:41 28.07.2019
4510 Clouds 26 1009 94 10000 1 360 09:23 28.07.2019
4511 Clouds 26 1008 94 10000 1 200 08:44 28.07.2019
4512 Clouds 26 1008 94 10000 1 200 08:26 28.07.2019
4513 Clouds 26 1008 94 10000 1 200 07:44 28.07.2019
4514 Clouds 26 1008 94 10000 1 200 07:26 28.07.2019
4515 Clouds 26 1008 94 10000 2.6 110 06:36 28.07.2019
4516 Clouds 28 1008 88 0 6.7 90 05:22 28.07.2019
4517 Clouds 31 1010 66 10000 3.6 340 02:43 28.07.2019
4518 Clouds 30 1011 70 10000 2.6 360 02:00 28.07.2019
4519 Clouds 29 1011 74 10000 11.2 149.041 01:18 28.07.2019
4520 Clouds 29 1011 74 10000 11.2 149.041 00:43 28.07.2019
4521 Clouds 26 1010 88 10000 11.89 147.631 23:54 27.07.2019
4522 Clouds 26 1010 88 10000 11.89 147.631 23:29 27.07.2019
4523 Clouds 24 1010 94 10000 2.1 180 22:47 27.07.2019
4524 Clouds 24 1010 94 10000 2.1 180 22:29 27.07.2019
4525 Clouds 23 1010 100 10000 1.5 180 21:59 27.07.2019
4526 Clouds 23 1010 100 10000 1.5 180 21:38 27.07.2019
4527 Clouds 24 1009 94 10000 11.25 146.049 21:19 27.07.2019
4528 Clouds 24 1009 94 10000 10.38 146.324 20:45 27.07.2019
4529 Clouds 24 1009 94 10000 10.38 146.324 20:22 27.07.2019
4530 Clouds 23 1009 100 10000 10.38 146.324 19:42 27.07.2019
4531 Clouds 23 1009 100 10000 10.38 146.324 19:22 27.07.2019
4532 Clouds 23 1009 100 10000 10.38 146.324 18:49 27.07.2019
4533 Clouds 23 1009 100 10000 10.38 146.324 18:30 27.07.2019
4534 Clouds 23 1009 100 10000 10.9 143.055 17:52 27.07.2019
4535 Clouds 23 1009 100 10000 10.9 143.055 17:32 27.07.2019
4536 Clouds 23 1010 100 10000 10.9 143.055 16:56 27.07.2019
4537 Clouds 23 1010 100 10000 10.9 143.055 16:37 27.07.2019
4538 Clouds 24 1010 94 10000 10.9 143.055 16:18 27.07.2019
4539 Clouds 24 1010 94 10000 10.9 143.055 15:43 27.07.2019
4540 Clouds 25 1010 88 10000 2.6 180 15:19 27.07.2019
4541 Clouds 25 1010 88 10000 2.6 180 14:45 27.07.2019
4542 Clouds 25 1010 88 10000 2.6 180 14:26 27.07.2019
4543 Clouds 26 1011 83 10000 1.5 110 13:50 27.07.2019
4544 Clouds 26 1011 83 10000 1.5 110 13:24 27.07.2019
4545 Clouds 27 1010 78 10000 1.5 160 12:51 27.07.2019
4546 Clouds 27 1010 78 10000 1.5 160 12:32 27.07.2019
4547 Clouds 27 1010 83 10000 1.5 140 11:57 27.07.2019
4548 Clouds 27 1010 83 10000 1.5 140 11:38 27.07.2019
4549 Clouds 28 1009 74 10000 5.1 110 11:20 27.07.2019
4550 Clouds 28 1009 74 10000 5.1 110 10:41 27.07.2019
4551 Clouds 28 1009 74 10000 5.1 110 10:21 27.07.2019
4552 Clouds 29 1008 70 10000 6.7 90 09:41 27.07.2019
4553 Clouds 29 1008 70 10000 6.7 90 09:23 27.07.2019
4554 Clouds 30 1008 70 10000 7.2 70 08:49 27.07.2019
4555 Clouds 30 1008 70 10000 7.2 70 08:29 27.07.2019
4556 Clouds 30 1007 74 10000 7.2 70 07:54 27.07.2019
4557 Clouds 30 1007 74 10000 7.2 70 07:27 27.07.2019
4558 Clouds 31 1007 70 10000 8.7 70 06:56 27.07.2019
4559 Clouds 31 1007 70 10000 8.7 70 06:31 27.07.2019
4560 Clouds 32 1008 62 10000 4.6 50 05:51 27.07.2019
4561 Clouds 33 1009 59 10000 6.2 70 05:18 27.07.2019
4562 Clouds 33 1009 59 10000 6.2 70 04:30 27.07.2019
4563 Clouds 32 1011 59 10000 7.2 90 02:58 27.07.2019
4564 Clouds 32 1011 59 10000 7.2 90 02:31 27.07.2019
4565 Clouds 28 1011 78 0 4.55 147.002 01:44 27.07.2019
4566 Clouds 28 1011 74 10000 4.1 110 00:59 27.07.2019
4567 Clouds 28 1011 74 10000 4.1 110 00:32 27.07.2019
4568 Clouds 27 1011 78 10000 2.6 140 23:53 26.07.2019
4569 Clouds 25 1011 88 10000 4.1 110 23:32 26.07.2019
4570 Clouds 23 1011 100 10000 2.6 140 22:56 26.07.2019
4571 Clouds 23 1010 94 10000 1.5 110 22:38 26.07.2019
4572 Clouds 23 1009 94 10000 1 200 22:20 26.07.2019
4573 Clouds 23 1009 94 10000 1 200 21:44 26.07.2019
4574 Clouds 23 1009 94 10000 1 200 21:44 26.07.2019
4575 Clouds 23 1009 94 10000 3.53 133.21 21:18 26.07.2019
4576 Clouds 23 1009 94 10000 5.19 134.844 20:42 26.07.2019
4577 Clouds 23 1009 94 10000 5.19 134.844 20:42 26.07.2019
4578 Clouds 23 1009 94 10000 5.19 134.844 20:22 26.07.2019
4579 Clouds 24 1009 94 10000 1.5 160 19:43 26.07.2019
4580 Clouds 24 1009 94 10000 1.5 160 19:24 26.07.2019
4581 Clouds 24 1009 94 10000 2.6 110 18:47 26.07.2019
4582 Clouds 24 1009 94 10000 2.6 110 18:24 26.07.2019
4583 Clouds 25 1010 94 10000 1.5 110 17:58 26.07.2019
4584 Clouds 25 1010 94 10000 1.5 110 17:40 26.07.2019
4585 Clouds 24 1010 100 10000 1.5 180 17:19 26.07.2019
4586 Clouds 24 1010 100 10000 1.5 180 16:56 26.07.2019
4587 Clouds 24 1010 100 10000 1.5 180 16:37 26.07.2019
4588 Clouds 25 1010 94 10000 1.5 180 16:18 26.07.2019
4589 Clouds 25 1010 94 10000 1.5 180 15:45 26.07.2019
4590 Clouds 25 1010 94 10000 1.5 180 15:23 26.07.2019
4591 Clouds 25 1011 94 10000 2.1 140 14:58 26.07.2019
4592 Clouds 25 1011 94 10000 2.1 140 14:40 26.07.2019
4593 Clouds 25 1011 94 10000 2.1 140 14:21 26.07.2019
4594 Clouds 25 1011 94 10000 1.5 160 13:39 26.07.2019
4595 Clouds 25 1011 94 10000 1.5 160 13:21 26.07.2019
4596 Clouds 26 1010 88 10000 5.68 136.17 12:43 26.07.2019
4597 Clouds 27 1009 83 10000 8.1 140.378 12:19 26.07.2019
4598 Clouds 27 1009 83 10000 8.1 140.378 11:39 26.07.2019
4599 Clouds 27 1008 78 10000 1.5 290 11:19 26.07.2019
4600 Clouds 27 1008 78 10000 1.5 290 10:52 26.07.2019
4601 Clouds 27 1008 78 10000 1.5 290 10:34 26.07.2019
4602 Clouds 28 1008 74 10000 2.6 270 09:55 26.07.2019
4603 Clouds 28 1008 74 10000 2.6 270 09:34 26.07.2019
4604 Clouds 30 1008 66 10000 2.6 140 08:43 26.07.2019
4605 Clouds 30 1008 66 10000 2.6 140 08:22 26.07.2019
4606 Clouds 30 1008 70 10000 2.1 50 07:58 26.07.2019
4607 Clouds 30 1008 70 10000 2.1 50 07:28 26.07.2019
4608 Clouds 30 1008 70 10000 8.99 146.412 06:52 26.07.2019
4609 Clouds 30 1009 70 10000 1 20 05:22 26.07.2019
4610 Clouds 30 1009 70 10000 2.1 110 04:22 26.07.2019
4611 Clouds 27 1010 83 10000 11.97 151.501 02:41 26.07.2019
4612 Clouds 27 1011 83 10000 11.97 151.501 01:42 26.07.2019
4613 Clouds 25 1011 94 10000 11.29 151.507 00:43 26.07.2019
4614 Clouds 24 1011 94 10000 1.5 160 23:56 25.07.2019
4615 Clouds 24 1011 94 10000 1.5 160 23:24 25.07.2019
4616 Clouds 24 1010 94 10000 1 160 22:55 25.07.2019
4617 Clouds 24 1010 94 10000 1 160 22:36 25.07.2019
4618 Clouds 24 1009 94 10000 11.77 149.536 22:18 25.07.2019
4619 Clouds 24 1009 94 10000 11.77 149.536 21:42 25.07.2019
4620 Clouds 24 1009 94 10000 11.35 147.562 21:21 25.07.2019
4621 Clouds 23 1009 100 10000 10.94 149.001 20:47 25.07.2019
4622 Clouds 23 1009 100 10000 10.94 149.001 20:22 25.07.2019
4623 Clouds 23 1009 100 10000 10.94 149.001 19:44 25.07.2019
4624 Clouds 23 1009 100 10000 10.94 149.001 19:44 25.07.2019
4625 Clouds 23 1009 100 10000 10.94 149.001 19:25 25.07.2019
4626 Clouds 26 1010 81 0 10.94 149.001 18:56 25.07.2019
4627 Clouds 24 1010 94 10000 10.94 149.001 18:38 25.07.2019
4628 Clouds 24 1010 94 10000 10.76 143.888 18:19 25.07.2019
4629 Clouds 24 1010 94 10000 10.76 143.888 17:40 25.07.2019
4630 Clouds 24 1010 94 10000 10.76 143.888 17:22 25.07.2019
4631 Clouds 24 1010 94 10000 1.5 180 16:43 25.07.2019
4632 Clouds 24 1010 94 10000 1.5 180 16:25 25.07.2019
4633 Clouds 27 1010 80 0 10.76 143.888 15:51 25.07.2019
4634 Clouds 25 1012 94 10000 2.6 160 15:21 25.07.2019
4635 Clouds 25 1012 94 10000 2.6 160 14:44 25.07.2019
4636 Clouds 25 1012 94 10000 2.6 160 14:25 25.07.2019
4637 Clouds 25 1011 88 10000 11.37 140.806 13:59 25.07.2019
4638 Clouds 25 1011 88 10000 11.37 140.806 13:37 25.07.2019
4639 Clouds 26 1010 88 10000 11.39 140.546 13:19 25.07.2019
4640 Clouds 26 1010 88 10000 11.39 140.546 12:34 25.07.2019
4641 Clouds 26 1010 88 10000 1.5 70 11:58 25.07.2019
4642 Clouds 26 1010 88 10000 1.5 70 11:40 25.07.2019
4643 Clouds 26 1010 88 10000 1.5 70 11:21 25.07.2019
4644 Clouds 26 1009 88 10000 12.09 145.467 10:43 25.07.2019
4645 Clouds 26 1009 88 10000 12.09 145.467 10:23 25.07.2019
4646 Clouds 28 1009 74 10000 1 110 09:45 25.07.2019
4647 Clouds 28 1009 74 10000 1 110 09:45 25.07.2019
4648 Clouds 28 1009 74 10000 1 110 09:27 25.07.2019
4649 Clouds 29 1008 79 10000 1 140 08:48 25.07.2019
4650 Clouds 29 1008 79 10000 1 140 08:26 25.07.2019
4651 Clouds 29 1008 79 10000 2.1 160 07:39 25.07.2019
4652 Clouds 30 1008 66 10000 7.7 90 06:45 25.07.2019
4653 Clouds 31 1008 66 10000 5.1 50 05:53 25.07.2019
4654 Clouds 31 1008 66 10000 5.1 50 05:31 25.07.2019
4655 Clouds 30 1009 70 10000 2.6 340 04:39 25.07.2019
4656 Clouds 30 1010 62 10000 2.6 320 02:21 25.07.2019
4657 Clouds 30 1011 66 10000 6.01 132.734 01:21 25.07.2019
4658 Clouds 27 1011 74 10000 8.26 134.764 00:22 25.07.2019
4659 Clouds 24 1011 88 10000 8.26 134.764 23:52 24.07.2019
4660 Clouds 24 1011 88 10000 8.26 134.764 23:31 24.07.2019
4661 Clouds 22 1010 100 10000 2.1 200 22:58 24.07.2019
4662 Clouds 22 1010 100 10000 2.1 200 22:39 24.07.2019
4663 Clouds 22 1010 100 10000 2.1 200 22:20 24.07.2019
4664 Clouds 21 1010 100 10000 8.26 134.764 21:43 24.07.2019
4665 Clouds 21 1010 100 10000 8.88 144.546 21:22 24.07.2019
4666 Clouds 21 1009 100 10000 2.1 110 20:57 24.07.2019
4667 Clouds 21 1009 100 10000 2.1 110 20:38 24.07.2019
4668 Clouds 21 1008 100 10000 8.43 140.089 20:19 24.07.2019
4669 Clouds 21 1008 100 10000 8.43 140.089 19:54 24.07.2019
4670 Clouds 21 1008 100 10000 8.43 140.089 19:36 24.07.2019
4671 Clouds 21 1008 100 10000 8.43 140.089 19:36 24.07.2019
4672 Clouds 21 1008 100 10000 8.43 140.089 19:36 24.07.2019
4673 Clouds 22 1009 94 10000 1.5 180 19:18 24.07.2019
4674 Clouds 22 1009 94 10000 1.5 180 18:37 24.07.2019
4675 Clouds 22 1010 100 10000 8.05 141.529 18:19 24.07.2019
4676 Clouds 22 1010 100 10000 8.05 141.529 17:42 24.07.2019
4677 Clouds 22 1010 100 10000 8.05 141.529 17:20 24.07.2019
4678 Clouds 22 1010 100 10000 8.05 141.529 16:41 24.07.2019
4679 Clouds 22 1011 100 10000 8.05 141.529 16:21 24.07.2019
4680 Clouds 22 1010 100 10000 8.05 141.529 16:21 24.07.2019
4681 Clouds 22 1011 100 10000 8.05 141.529 15:40 24.07.2019
4682 Clouds 22 1011 100 10000 8.67 146.429 15:21 24.07.2019
4683 Clouds 23 1010 100 10000 1.5 110 14:50 24.07.2019
4684 Clouds 23 1010 100 10000 1.5 110 14:24 24.07.2019
4685 Clouds 23 1011 100 10000 1 140 13:59 24.07.2019
4686 Clouds 23 1011 100 10000 1 140 13:36 24.07.2019
4687 Clouds 24 1011 94 10000 1 140 13:18 24.07.2019
4688 Clouds 24 1011 94 10000 1 140 12:46 24.07.2019
4689 Clouds 24 1011 94 10000 1 140 12:24 24.07.2019
4690 Clouds 25 1010 78 10000 1.5 110 11:38 24.07.2019
4691 Clouds 26 1010 78 10000 2.1 140 11:19 24.07.2019
4692 Clouds 26 1010 78 10000 2.1 140 10:43 24.07.2019
4693 Clouds 26 1010 78 10000 2.1 140 10:24 24.07.2019
4694 Clouds 28 1009 69 10000 2.1 90 09:44 24.07.2019
4695 Clouds 28 1009 69 10000 2.1 90 09:44 24.07.2019
4696 Clouds 28 1009 69 10000 2.1 90 09:24 24.07.2019
4697 Clouds 30 1009 58 10000 5.1 70 08:55 24.07.2019
4698 Clouds 30 1009 58 10000 5.1 70 08:30 24.07.2019
4699 Clouds 30 1008 66 10000 5.1 70 07:51 24.07.2019
4700 Clouds 30 1008 66 10000 4.1 70 07:23 24.07.2019
4701 Clouds 30 1008 66 10000 4.1 70 06:28 24.07.2019
4702 Clouds 30 1008 66 10000 4.1 70 06:28 24.07.2019
4703 Clouds 30 1009 66 10000 5.1 50 05:26 24.07.2019
4704 Clouds 30 1011 66 10000 1 110 01:58 24.07.2019
4705 Clouds 30 1011 66 10000 1 110 01:28 24.07.2019
4706 Clouds 29 1011 70 10000 9.87 150.8 00:54 24.07.2019
4707 Clouds 25 1011 88 10000 1 230 00:22 24.07.2019
4708 Clouds 25 1011 88 10000 1 230 23:41 23.07.2019
4709 Clouds 25 1011 88 10000 1 230 23:22 23.07.2019
4710 Clouds 23 1010 100 10000 1 160 22:39 23.07.2019
4711 Clouds 23 1010 100 10000 1 110 22:19 23.07.2019
4712 Clouds 23 1010 100 10000 1 110 21:54 23.07.2019
4713 Clouds 23 1010 100 10000 1 110 21:54 23.07.2019
4714 Clouds 23 1010 100 10000 1 110 21:36 23.07.2019
4715 Clouds 23 1010 100 10000 1 110 21:36 23.07.2019
4716 Clouds 23 1009 94 10000 1.5 110 21:18 23.07.2019
4717 Clouds 23 1009 94 10000 1.5 110 20:41 23.07.2019
4718 Clouds 23 1009 94 10000 1.5 110 20:21 23.07.2019
4719 Clouds 23 1009 100 10000 1 140 19:40 23.07.2019
4720 Clouds 23 1009 100 10000 1 200 19:19 23.07.2019
4721 Clouds 23 1009 100 10000 1 200 18:43 23.07.2019
4722 Clouds 23 1009 100 10000 1 200 18:43 23.07.2019
4723 Rain 26 1010 82 0 12.76 153.19 18:22 23.07.2019
4724 Rain 26 1010 82 0 12.76 153.19 17:44 23.07.2019
4725 Clouds 23 1009 94 10000 1 140 17:24 23.07.2019
4726 Clouds 23 1009 94 10000 1 140 16:50 23.07.2019
4727 Clouds 23 1009 94 10000 1 140 16:28 23.07.2019
4728 Clouds 23 1009 94 10000 1 200 15:58 23.07.2019
4729 Clouds 23 1009 94 10000 1 200 15:39 23.07.2019
4730 Clouds 24 1010 88 10000 1 200 15:21 23.07.2019
4731 Clouds 24 1010 88 10000 1 200 14:37 23.07.2019
4732 Clouds 24 1010 88 10000 1.5 140 14:19 23.07.2019
4733 Clouds 24 1010 88 10000 1.5 140 13:56 23.07.2019
4734 Clouds 24 1010 88 10000 1.5 140 13:38 23.07.2019
4735 Clouds 25 1010 83 10000 3.1 140 13:19 23.07.2019
4736 Clouds 25 1010 83 10000 3.1 140 12:42 23.07.2019
4737 Clouds 25 1010 83 10000 3.1 140 12:24 23.07.2019
4738 Clouds 26 1009 74 10000 1 140 11:42 23.07.2019
4739 Clouds 26 1009 74 10000 1 140 11:23 23.07.2019
4740 Clouds 27 1009 74 10000 2.6 90 10:51 23.07.2019
4741 Clouds 27 1009 74 10000 2.6 90 10:25 23.07.2019
4742 Clouds 30 1008 74 10000 2.1 20 09:43 23.07.2019
4743 -273 0 0 0 0 0 09:22 23.07.2019
4744 Clouds 31 1007 66 10000 2.1 270 08:56 23.07.2019
4745 Clouds 31 1007 66 10000 2.1 270 08:38 23.07.2019
4746 Clouds 31 1007 70 10000 4.6 270 08:18 23.07.2019
4747 Clouds 31 1007 70 10000 4.6 270 07:39 23.07.2019
4748 Clouds 32 1007 66 10000 10.67 143.982 06:58 23.07.2019
4749 Clouds 32 1007 66 10000 10.67 143.982 06:36 23.07.2019
4750 Clouds 32 1009 62 10000 3.1 340 04:28 23.07.2019
4751 Clouds 30 1011 70 10000 2.1 50 01:46 23.07.2019
4752 Clouds 29 1010 74 10000 1.5 20 00:46 23.07.2019
4753 Clouds 25 1010 88 10000 7.04 136.221 00:19 23.07.2019
4754 Clouds 25 1010 88 10000 7.04 136.221 00:19 23.07.2019
4755 Clouds 25 1010 88 10000 7.04 136.221 23:39 22.07.2019
4756 Clouds 23 1010 94 10000 1 200 23:19 22.07.2019
4757 Clouds 23 1010 94 10000 1 200 22:45 22.07.2019
4758 Clouds 23 1010 94 10000 1 200 22:23 22.07.2019
4759 Clouds 22 1010 100 10000 2.1 180 21:44 22.07.2019
4760 Clouds 22 1010 100 10000 2.1 180 21:24 22.07.2019
4761 Clouds 22 1009 100 10000 1 180 21:00 22.07.2019
4762 Clouds 22 1009 100 10000 1 180 20:41 22.07.2019
4763 Clouds 22 1009 100 10000 1 180 20:21 22.07.2019
4764 Clouds 23 1008 94 10000 1 200 19:42 22.07.2019
4765 Clouds 23 1008 94 10000 2.1 200 19:22 22.07.2019
4766 Clouds 23 1008 94 10000 2.1 200 18:48 22.07.2019
4767 Clouds 23 1008 94 10000 2.1 200 18:28 22.07.2019
4768 Clouds 23 1009 100 10000 1 200 17:59 22.07.2019
4769 Clouds 23 1009 100 10000 1 200 17:38 22.07.2019
4770 Clouds 23 1010 100 10000 1 180 17:20 22.07.2019
4771 Clouds 23 1010 100 10000 1 180 16:40 22.07.2019
4772 Clouds 23 1010 100 10000 1 180 16:21 22.07.2019
4773 Clouds 23 1010 100 10000 1.5 200 16:21 22.07.2019
4774 Clouds 23 1010 100 10000 1.5 200 15:44 22.07.2019
4775 Clouds 23 1010 100 10000 1.5 200 15:21 22.07.2019
4776 Clouds 24 1010 94 10000 7.79 147.631 14:44 22.07.2019
4777 Clouds 24 1010 94 10000 7.79 147.631 14:25 22.07.2019
4778 Clouds 24 1010 100 10000 7.79 147.631 13:52 22.07.2019
4779 Clouds 24 1010 100 10000 7.79 147.631 13:32 22.07.2019
4780 Clouds 25 1009 94 10000 7.79 147.631 12:55 22.07.2019
4781 Clouds 25 1009 94 10000 7.79 147.631 12:32 22.07.2019
4782 Clouds 26 1008 88 10000 4.45 139.911 11:57 22.07.2019
4783 Clouds 26 1008 88 10000 4.45 139.911 11:39 22.07.2019
4784 Clouds 28 1008 78 10000 5.1 90 11:19 22.07.2019
4785 Clouds 28 1008 78 10000 5.1 90 10:38 22.07.2019
4786 Clouds 29 1007 74 10000 2.6 90 10:19 22.07.2019
4787 Clouds 29 1007 74 10000 2.6 90 09:40 22.07.2019
4788 Clouds 31 1007 70 10000 5.7 70 09:21 22.07.2019
4789 Clouds 31 1007 70 10000 5.7 70 08:39 22.07.2019
4790 Clouds 32 1007 66 10000 6.2 70 08:20 22.07.2019
4791 Clouds 32 1007 66 10000 6.2 70 07:53 22.07.2019
4792 Clouds 32 1007 66 10000 6.2 70 07:27 22.07.2019
4793 Clouds 32 1008 62 10000 5.7 70 05:30 22.07.2019
4794 Clouds 32 1009 62 10000 3.1 50 03:45 22.07.2019
4795 Clouds 29 1009 74 10000 2.1 140 01:28 22.07.2019
4796 Clouds 27 1010 83 10000 1.5 180 00:49 22.07.2019
4797 Clouds 24 1009 94 10000 2.1 200 00:21 22.07.2019
4798 Clouds 24 1009 94 10000 2.1 200 23:49 21.07.2019
4799 Clouds 22 1009 100 10000 1 160 22:59 21.07.2019
4800 Clouds 22 1009 100 10000 1 160 22:40 21.07.2019
4801 Clouds 22 1009 100 10000 1 160 22:21 21.07.2019
4802 Clouds 21 1008 100 10000 2.6 160 21:49 21.07.2019
4803 Clouds 21 1008 100 10000 2.6 160 21:26 21.07.2019
4804 Clouds 21 1008 100 10000 9.56 138.158 20:59 21.07.2019
4805 Clouds 21 1008 100 10000 9.24 138.635 20:41 21.07.2019
4806 Clouds 21 1008 100 10000 9.24 138.635 20:22 21.07.2019
4807 Clouds 22 1008 100 10000 1 140 19:49 21.07.2019
4808 Clouds 22 1008 100 10000 1 140 19:29 21.07.2019
4809 Clouds 22 1008 100 10000 9.24 138.635 18:51 21.07.2019
4810 Clouds 22 1008 100 10000 6.54 132.308 18:28 21.07.2019
4811 Clouds 22 1009 100 10000 6.54 132.308 17:55 21.07.2019
4812 Clouds 22 1009 100 10000 6.54 132.308 17:36 21.07.2019
4813 Clouds 23 1009 94 10000 1.5 160 17:18 21.07.2019
4814 Clouds 23 1009 94 10000 1.5 160 16:40 21.07.2019
4815 Clouds 23 1010 100 10000 2.6 90 16:22 21.07.2019
4816 Clouds 23 1010 100 10000 2.6 90 16:22 21.07.2019
4817 Clouds 23 1010 100 10000 2.6 90 15:40 21.07.2019
4818 Clouds 23 1010 100 10000 2.6 90 15:20 21.07.2019
4819 Clouds 24 1010 88 10000 8.29 134.321 14:42 21.07.2019
4820 Clouds 24 1010 88 10000 8.29 134.321 14:24 21.07.2019
4821 Clouds 24 1010 94 10000 1.5 160 13:53 21.07.2019
4822 Clouds 24 1010 94 10000 1.5 160 13:32 21.07.2019
4823 Clouds 25 1009 88 10000 1 140 12:46 21.07.2019
4824 Clouds 25 1009 88 10000 1 140 12:28 21.07.2019
4825 Clouds 26 1009 83 10000 1.5 140 11:56 21.07.2019
4826 Clouds 26 1009 83 10000 1.5 140 11:56 21.07.2019
4827 Clouds 26 1009 83 10000 1.5 140 11:38 21.07.2019
4828 Clouds 27 1008 78 10000 4.6 90 11:19 21.07.2019
4829 Clouds 27 1008 78 10000 4.6 90 10:41 21.07.2019
4830 Clouds 27 1008 78 10000 4.6 90 10:23 21.07.2019
4831 Clouds 29 1007 74 10000 5.1 90 09:45 21.07.2019
4832 Clouds 29 1007 74 10000 5.1 90 09:25 21.07.2019
4833 Clouds 31 1007 74 10000 6.2 90 08:45 21.07.2019
4834 Clouds 31 1007 74 10000 6.2 90 08:27 21.07.2019
4835 Clouds 31 1007 74 10000 6.2 90 08:27 21.07.2019
4836 Clouds 31 1006 70 10000 6.2 90 07:39 21.07.2019
4837 Clouds 32 1007 66 10000 9.3 70 06:52 21.07.2019
4838 Clouds 32 1007 66 10000 9.3 70 05:43 21.07.2019
4839 Clouds 32 1010 62 10000 6.2 70 02:58 21.07.2019
4840 Clouds 30 1010 70 10000 3.1 110 01:24 21.07.2019
4841 Clouds 29 1010 74 10000 1.5 110 00:41 21.07.2019
4842 Clouds 25 1010 88 10000 5.62 128.593 00:18 21.07.2019
4843 Clouds 25 1010 88 10000 5.62 128.593 23:41 20.07.2019
4844 Clouds 25 1010 88 10000 5.62 128.593 23:21 20.07.2019
4845 Rain 27 1011 81 0 5.62 128.593 22:44 20.07.2019
4846 Rain 27 1011 81 0 5.62 128.593 22:22 20.07.2019
4847 Rain 27 1011 81 0 5.62 128.593 21:46 20.07.2019
4848 Rain 27 1011 81 0 5.62 128.593 21:28 20.07.2019
4849 Clouds 27 1010 81 0 5.07 133.809 20:58 20.07.2019
4850 Clouds 27 1010 82 0 5.37 136.601 20:38 20.07.2019
4851 Clouds 27 1010 82 0 5.37 136.601 20:18 20.07.2019
4852 Clouds 27 1010 82 0 5.37 136.601 20:18 20.07.2019
4853 Clouds 27 1010 82 0 5.37 136.601 20:18 20.07.2019
4854 Clouds 27 1010 82 0 5.37 136.601 19:44 20.07.2019
4855 Clouds 22 1009 106 10000 2.1 160 19:19 20.07.2019
4856 Clouds 22 1009 106 10000 2.1 160 18:41 20.07.2019
4857 Clouds 23 1010 100 10000 1 180 18:20 20.07.2019
4858 Clouds 23 1010 100 10000 1 180 17:51 20.07.2019
4859 Clouds 23 1010 100 10000 1 180 17:20 20.07.2019
4860 Clouds 23 1010 100 10000 1 180 16:44 20.07.2019
4861 Clouds 23 1010 100 10000 1 180 16:25 20.07.2019
4862 Clouds 24 1011 94 10000 2.1 180 15:57 20.07.2019
4863 Clouds 24 1011 94 10000 2.1 180 15:38 20.07.2019
4864 Clouds 24 1012 94 10000 2.1 140 15:19 20.07.2019
4865 Clouds 24 1012 94 10000 2.1 140 14:43 20.07.2019
4866 Clouds 24 1012 94 10000 4.65 129.395 14:21 20.07.2019
4867 Clouds 24 1012 94 10000 4.65 129.395 13:39 20.07.2019
4868 Clouds 25 1011 94 10000 2.1 200 13:20 20.07.2019
4869 Clouds 25 1011 94 10000 2.1 200 12:52 20.07.2019
4870 Clouds 25 1010 100 10000 1 180 12:21 20.07.2019
4871 Clouds 25 1010 100 10000 1 180 11:55 20.07.2019
4872 Clouds 25 1010 100 10000 1 180 11:23 20.07.2019
4873 Clouds 27 1009 83 10000 1 200 10:55 20.07.2019
4874 Clouds 27 1009 83 10000 1 200 10:26 20.07.2019
4875 Clouds 27 1010 83 10000 3.1 200 09:55 20.07.2019
4876 Clouds 27 1010 83 10000 3.1 200 09:37 20.07.2019
4877 Clouds 30 1009 70 10000 6.2 90 09:18 20.07.2019
4878 Clouds 30 1009 70 10000 6.2 90 08:38 20.07.2019
4879 Clouds 31 1009 70 10000 6.2 70 08:19 20.07.2019
4880 Clouds 31 1008 70 10000 5.7 50 07:18 20.07.2019
4881 Clouds 31 1008 70 10000 5.7 50 06:31 20.07.2019
4882 Clouds 32 1010 66 10000 7.2 70 04:31 20.07.2019
4883 Clouds 32 1011 62 10000 4.1 70 02:36 20.07.2019
4884 Clouds 28 1011 78 10000 1 160 01:20 20.07.2019
4885 Clouds 28 1011 78 10000 1 160 00:45 20.07.2019
4886 Clouds 24 1010 94 10000 2.39 37.066 00:18 20.07.2019
4887 Clouds 24 1010 94 10000 2.39 37.066 00:18 20.07.2019
4888 Clouds 24 1010 94 10000 2.39 37.066 23:43 19.07.2019
4889 Clouds 24 1010 94 10000 2.39 37.066 23:22 19.07.2019
4890 Clouds 23 1010 100 10000 2.39 37.066 22:43 19.07.2019
4891 Clouds 23 1010 100 10000 2.39 37.066 22:24 19.07.2019
4892 Clouds 23 1009 100 10000 2.39 37.066 21:45 19.07.2019
4893 Clouds 23 1009 100 10000 1.86 62.568 21:27 19.07.2019
4894 Clouds 23 1009 100 10000 3.65 109.67 20:49 19.07.2019
4895 Clouds 23 1009 100 10000 3.65 109.67 20:31 19.07.2019
4896 Clouds 24 1009 94 10000 3.65 109.67 19:48 19.07.2019
4897 Clouds 24 1009 94 10000 3.65 109.67 19:27 19.07.2019
4898 Clouds 24 1009 100 10000 3.65 109.67 18:42 19.07.2019
4899 Clouds 24 1009 100 10000 5.67 127.918 18:22 19.07.2019
4900 Clouds 24 1009 100 10000 5.67 127.918 17:54 19.07.2019
4901 Clouds 24 1009 100 10000 5.67 127.918 17:27 19.07.2019
4902 Clouds 24 1010 100 10000 1.5 180 16:49 19.07.2019
4903 Clouds 24 1010 100 10000 1.5 180 16:26 19.07.2019
4904 Clouds 24 1010 100 10000 2.1 180 15:52 19.07.2019
4905 Clouds 24 1010 100 10000 2.1 180 15:31 19.07.2019
4906 Clouds 24 1010 94 10000 1.5 140 14:57 19.07.2019
4907 Clouds 24 1010 94 10000 1.5 140 14:39 19.07.2019
4908 Clouds 24 1010 94 10000 1.5 180 14:21 19.07.2019
4909 Clouds 24 1010 94 10000 1.5 180 13:44 19.07.2019
4910 Clouds 24 1010 94 10000 1.5 180 13:44 19.07.2019
4911 Clouds 24 1010 94 10000 1.5 180 13:44 19.07.2019
4912 Clouds 24 1010 94 10000 1.5 180 13:44 19.07.2019
4913 Clouds 24 1010 94 10000 1.5 180 13:44 19.07.2019
4914 Clouds 25 1010 94 10000 1.5 140 13:25 19.07.2019
4915 Clouds 25 1010 94 10000 1.5 140 12:55 19.07.2019
4916 Clouds 25 1010 94 10000 1.5 140 12:31 19.07.2019
4917 Clouds 26 1009 88 10000 2.6 140 11:59 19.07.2019
4918 Clouds 26 1009 88 10000 2.6 140 11:41 19.07.2019
4919 Clouds 27 1008 83 10000 1.5 160 11:18 19.07.2019
4920 Clouds 27 1008 83 10000 1.5 160 10:41 19.07.2019
4921 Rain 28 1010 79 0 7.37 142.856 10:21 19.07.2019
4922 Rain 28 1010 79 0 7.37 142.856 09:44 19.07.2019
4923 Clouds 30 1007 74 10000 3.6 110 09:22 19.07.2019
4924 Clouds 30 1007 74 10000 3.6 110 08:59 19.07.2019
4925 Clouds 30 1007 74 10000 3.6 110 08:40 19.07.2019
4926 Clouds 31 1007 70 10000 4.1 70 07:48 19.07.2019
4927 Clouds 31 1007 70 10000 4.1 70 07:26 19.07.2019
4928 Clouds 31 1008 70 10000 4.6 90 05:55 19.07.2019
4929 Clouds 28 1011 83 10000 1.5 110 02:23 19.07.2019
4930 Clouds 27 1011 88 10000 4.04 137.32 00:59 19.07.2019
4931 Clouds 27 1011 88 10000 4.04 137.32 00:26 19.07.2019
4932 Clouds 27 1010 80 0 4.44 133.036 23:43 18.07.2019
4933 Clouds 27 1010 80 0 4.44 133.036 23:23 18.07.2019
4934 Clouds 27 1010 80 0 4.44 133.036 22:59 18.07.2019
4935 Clouds 27 1010 80 0 4.44 133.036 22:39 18.07.2019
4936 Clouds 27 1010 80 0 4.44 133.036 22:39 18.07.2019
4937 Clouds 27 1010 80 0 4.44 133.036 22:18 18.07.2019
4938 Clouds 27 1010 80 0 4.44 133.036 21:40 18.07.2019
4939 Clouds 23 1009 100 10000 1.5 200 21:20 18.07.2019
4940 Clouds 23 1009 100 10000 1.5 200 20:49 18.07.2019
4941 Clouds 23 1009 100 10000 1.5 200 20:27 18.07.2019
4942 Rain 27 1009 81 0 4.06 135.918 19:52 18.07.2019
4943 Clouds 24 1009 94 10000 1.5 180 19:30 18.07.2019
4944 Clouds 24 1009 94 10000 1.5 180 18:57 18.07.2019
4945 Clouds 27 1009 80 0 3.33 124.196 18:25 18.07.2019
4946 Clouds 27 1009 80 0 3.33 124.196 17:58 18.07.2019
4947 Clouds 27 1009 80 0 3.33 124.196 17:39 18.07.2019
4948 Clouds 24 1010 100 10000 1.5 160 17:19 18.07.2019
4949 Clouds 24 1010 100 10000 1.5 160 16:53 18.07.2019
4950 Clouds 24 1010 100 10000 1.5 160 16:26 18.07.2019
4951 Clouds 25 1010 94 10000 3.33 124.196 15:58 18.07.2019
4952 Clouds 25 1010 94 10000 3.33 124.196 15:36 18.07.2019
4953 Clouds 25 1010 94 10000 1 230 14:56 18.07.2019
4954 Clouds 25 1010 94 10000 1 230 14:38 18.07.2019
4955 Clouds 25 1010 94 10000 2.87 109.718 14:19 18.07.2019
4956 Clouds 25 1010 94 10000 2.87 109.718 13:42 18.07.2019
4957 Clouds 25 1010 94 10000 1 180 13:21 18.07.2019
4958 Clouds 25 1010 94 10000 1 180 12:46 18.07.2019
4959 Clouds 25 1009 94 10000 1 110 12:21 18.07.2019
4960 Clouds 25 1009 94 10000 1 110 11:51 18.07.2019
4961 Clouds 25 1009 94 10000 1 110 11:33 18.07.2019
4962 Clouds 26 1009 88 10000 1 140 10:52 18.07.2019
4963 Clouds 27 1009 78 10000 4.91 125.242 10:23 18.07.2019
4964 Clouds 27 1009 78 10000 4.91 125.242 09:45 18.07.2019
4965 Clouds 28 1008 78 10000 2.1 110 09:23 18.07.2019
4966 Clouds 28 1008 78 10000 2.1 110 08:46 18.07.2019
4967 Clouds 28 1008 78 10000 2.1 110 08:19 18.07.2019
4968 Clouds 29 1008 79 10000 3.6 90 07:39 18.07.2019
4969 Clouds 29 1008 79 10000 3.6 90 07:19 18.07.2019
4970 Clouds 32 1008 62 10000 2.6 200 06:35 18.07.2019
4971 Drizzle 28 1010 83 10000 3.6 70 04:20 18.07.2019
4972 Clouds 27 1011 83 10000 1 340 02:52 18.07.2019
4973 Clouds 28 1010 83 10000 1 340 01:37 18.07.2019
4974 Clouds 26 1010 94 10000 5.37 128.606 00:26 18.07.2019
4975 Clouds 24 1010 100 10000 5.37 128.606 23:49 17.07.2019
4976 Clouds 23 1009 100 10000 5.37 128.606 23:18 17.07.2019
4977 Clouds 23 1009 100 10000 5.37 128.606 22:43 17.07.2019
4978 Clouds 23 1009 100 10000 5.37 128.606 22:23 17.07.2019
4979 Clouds 23 1009 100 10000 5.37 128.606 21:58 17.07.2019
4980 Clouds 23 1009 100 10000 5.37 128.606 21:40 17.07.2019
4981 Clouds 23 1009 100 10000 5.37 128.606 21:40 17.07.2019
4982 Clouds 23 1008 100 10000 5.62 130.056 21:21 17.07.2019
4983 Rain 27 1009 83 0 6.91 142.301 20:57 17.07.2019
4984 Rain 27 1009 83 0 6.91 142.301 20:39 17.07.2019
4985 Rain 27 1009 83 0 6.91 142.301 20:20 17.07.2019
4986 Rain 27 1009 83 0 6.91 142.301 19:42 17.07.2019
4987 Rain 27 1009 83 0 6.91 142.301 19:20 17.07.2019
4988 Rain 27 1009 83 0 6.91 142.301 18:46 17.07.2019
4989 Rain 27 1009 83 0 6.91 142.301 18:46 17.07.2019
4990 Clouds 23 1009 100 10000 5.39 137.205 18:21 17.07.2019
4991 Clouds 23 1009 100 10000 5.39 137.205 18:21 17.07.2019
4992 Clouds 23 1009 100 10000 5.39 137.205 18:21 17.07.2019
4993 Clouds 23 1009 100 10000 5.39 137.205 17:59 17.07.2019
4994 Clouds 23 1009 100 10000 5.39 137.205 17:41 17.07.2019
4995 Clouds 23 1009 100 10000 5.39 137.205 17:22 17.07.2019
4996 Clouds 24 1009 100 10000 2.1 200 16:41 17.07.2019
4997 Clouds 24 1009 100 10000 5.39 137.205 16:22 17.07.2019
4998 Clouds 24 1009 100 10000 5.39 137.205 15:51 17.07.2019
4999 Clouds 24 1009 100 10000 5.39 137.205 15:31 17.07.2019
5000 Clouds 24 1010 100 10000 1 140 14:57 17.07.2019
5001 Clouds 24 1010 100 10000 1 140 14:39 17.07.2019
5002 Clouds 25 1010 94 10000 4.45 138.949 14:20 17.07.2019
5003 Clouds 25 1010 94 10000 4.45 138.949 13:49 17.07.2019
5004 Clouds 25 1010 94 10000 5.81 137.651 13:31 17.07.2019
5005 Clouds 25 1010 100 10000 1 110 12:56 17.07.2019
5006 Clouds 25 1010 100 10000 1 110 12:38 17.07.2019
5007 Clouds 26 1009 94 10000 2.1 110 12:19 17.07.2019
5008 Clouds 26 1009 94 10000 2.1 110 11:40 17.07.2019
5009 Clouds 26 1009 94 10000 2.1 110 11:40 17.07.2019
5010 Clouds 27 1008 88 10000 1.5 90 11:19 17.07.2019
5011 Clouds 27 1008 88 10000 1.5 90 10:43 17.07.2019
5012 Clouds 28 1008 83 10000 5.31 128.043 10:21 17.07.2019
5013 Clouds 28 1008 83 10000 5.31 128.043 09:45 17.07.2019
5014 Clouds 28 1008 83 10000 5.31 128.043 09:26 17.07.2019
5015 Clouds 28 1008 83 10000 5.31 128.043 09:26 17.07.2019
5016 Clouds 28 1007 88 10000 2.1 160 08:44 17.07.2019
5017 Clouds 27 1007 94 10000 2.1 20 08:23 17.07.2019
5018 Clouds 27 1007 94 10000 2.1 20 07:53 17.07.2019
5019 Clouds 27 1007 94 10000 2.1 20 07:28 17.07.2019
5020 Clouds 30 1008 79 10000 6.71 136.745 06:59 17.07.2019
5021 Clouds 30 1008 79 10000 6.71 136.745 06:37 17.07.2019
5022 Clouds 27 1009 88 10000 1 320 06:18 17.07.2019
5023 Clouds 27 1009 88 10000 1 320 05:32 17.07.2019
5024 Drizzle 27 1009 88 10000 7.18 142.918 04:49 17.07.2019
5025 Clouds 28 1010 83 10000 1 50 03:46 17.07.2019
5026 Clouds 26 1011 94 10000 1.5 230 02:31 17.07.2019
5027 Drizzle 26 1012 94 10000 5.43 139.716 01:28 17.07.2019
5028 Clouds 25 1011 100 10000 5.43 139.716 00:59 17.07.2019
5029 Clouds 25 1011 100 10000 5.43 139.716 00:59 17.07.2019
5030 Clouds 25 1011 100 10000 5.43 139.716 00:38 17.07.2019
5031 Clouds 24 1011 100 10000 1.5 180 00:19 17.07.2019
5032 Clouds 24 1011 100 10000 1.5 180 23:41 16.07.2019
5033 Clouds 23 1010 100 10000 1 180 23:21 16.07.2019
5034 Clouds 23 1010 100 10000 1 180 22:43 16.07.2019
5035 Clouds 23 1010 100 10000 1 180 22:24 16.07.2019
5036 Clouds 23 1009 100 10000 1 140 21:48 16.07.2019
5037 Clouds 23 1009 100 10000 1 140 21:25 16.07.2019
5038 Clouds 24 1009 100 10000 1.5 160 20:59 16.07.2019
5039 Clouds 24 1009 100 10000 1.5 160 20:40 16.07.2019
5040 Clouds 24 1009 100 10000 9.5 140.467 20:22 16.07.2019
5041 Clouds 24 1009 100 10000 9.5 140.467 19:54 16.07.2019
5042 Clouds 24 1009 100 10000 9.5 140.467 19:30 16.07.2019
5043 Clouds 24 1009 100 10000 1 180 18:58 16.07.2019
5044 Clouds 24 1009 100 10000 1 180 18:39 16.07.2019
5045 Clouds 24 1009 100 10000 1.5 230 18:20 16.07.2019
5046 Clouds 24 1009 100 10000 1.5 230 18:20 16.07.2019
5047 Clouds 24 1009 100 10000 1.5 230 17:44 16.07.2019
5048 Clouds 24 1009 100 10000 1.5 230 17:44 16.07.2019
5049 Clouds 24 1009 100 10000 1.5 230 17:24 16.07.2019
5050 Rain 24 1010 100 10000 1.5 140 16:49 16.07.2019
5051 Rain 24 1010 100 10000 1.5 140 16:25 16.07.2019
5052 Rain 24 1011 100 10000 1.5 140 15:56 16.07.2019
5053 Rain 24 1011 100 10000 1.5 140 15:38 16.07.2019
5054 Clouds 25 1011 94 10000 1.5 140 15:18 16.07.2019
5055 Clouds 25 1011 94 10000 1.5 140 14:45 16.07.2019
5056 Clouds 25 1011 94 10000 1.5 140 14:27 16.07.2019
5057 Clouds 25 1011 94 10000 1.5 230 13:48 16.07.2019
5058 Clouds 25 1011 94 10000 1.5 230 13:27 16.07.2019
5059 Clouds 25 1010 94 10000 2.1 140 12:58 16.07.2019
5060 Clouds 25 1010 94 10000 2.1 140 12:39 16.07.2019
5061 Rain 25 1010 94 10000 2.6 200 12:19 16.07.2019
5062 Rain 25 1010 94 10000 2.6 200 11:44 16.07.2019
5063 Rain 25 1010 94 10000 2.6 200 11:24 16.07.2019
5064 Rain 25 1010 94 10000 2.6 200 10:57 16.07.2019
5065 Clouds 25 1009 100 10000 2.6 160 10:39 16.07.2019
5066 Clouds 27 1008 88 10000 1.5 180 10:18 16.07.2019
5067 Clouds 27 1008 88 10000 1.5 180 09:42 16.07.2019
5068 Clouds 28 1007 78 10000 4.1 200 09:20 16.07.2019
5069 Clouds 28 1007 78 10000 4.1 200 08:46 16.07.2019
5070 Clouds 31 1007 70 10000 7.7 140 08:23 16.07.2019
5071 Clouds 31 1007 70 10000 7.7 140 07:50 16.07.2019
5072 Clouds 31 1007 70 10000 7.7 140 07:32 16.07.2019
5073 Clouds 31 1007 70 10000 3.6 70 06:57 16.07.2019
5074 Clouds 32 1007 66 10000 4.1 50 06:35 16.07.2019
5075 Clouds 31 1007 66 10000 5.1 50 05:44 16.07.2019
5076 Clouds 31 1007 66 10000 5.1 50 05:24 16.07.2019
5077 Clouds 30 1008 74 10000 5.1 50 04:23 16.07.2019
5078 Clouds 31 1009 74 10000 4.1 70 03:28 16.07.2019
5079 Clouds 31 1010 62 10000 3.1 50 02:36 16.07.2019
5080 Clouds 29 1011 79 10000 3.6 110 01:49 16.07.2019
5081 Clouds 25 1011 94 10000 2.7 166.062 00:53 16.07.2019
5082 Clouds 23 1010 100 10000 2.6 96.817 00:22 16.07.2019
5083 Clouds 23 1010 100 10000 2.6 96.817 23:54 15.07.2019
5084 Clouds 23 1010 100 10000 2.6 96.817 23:36 15.07.2019
5085 Clouds 23 1009 100 10000 1 180 22:55 15.07.2019
5086 Clouds 23 1009 100 10000 1 180 22:37 15.07.2019
5087 Clouds 23 1009 100 10000 1 180 22:18 15.07.2019
5088 Clouds 23 1009 100 10000 1 180 21:42 15.07.2019
5089 Clouds 23 1008 94 10000 1.5 180 21:20 15.07.2019
5090 Clouds 23 1008 94 10000 1.5 180 20:57 15.07.2019
5091 Clouds 23 1008 94 10000 1.5 180 20:38 15.07.2019
5092 Clouds 23 1008 100 10000 2.1 160 20:20 15.07.2019
5093 Clouds 23 1008 100 10000 2.1 160 19:43 15.07.2019
5094 Clouds 23 1008 100 10000 2.1 180 19:21 15.07.2019
5095 Clouds 23 1008 100 10000 2.1 180 18:55 15.07.2019
5096 Clouds 23 1008 100 10000 2.1 180 18:37 15.07.2019
5097 Clouds 23 1009 94 10000 2.1 200 18:18 15.07.2019
5098 Clouds 23 1009 94 10000 2.1 200 18:18 15.07.2019
5099 Clouds 23 1009 94 10000 2.1 200 18:18 15.07.2019
5100 Clouds 23 1009 94 10000 2.1 200 17:44 15.07.2019
5101 Clouds 23 1009 94 10000 2.1 200 17:26 15.07.2019
5102 Clouds 23 1009 100 10000 0.78 255.804 16:59 15.07.2019
5103 Clouds 23 1009 100 10000 0.78 255.804 16:38 15.07.2019
5104 Clouds 23 1009 100 10000 0.78 255.804 16:20 15.07.2019
5105 Clouds 23 1009 100 10000 0.78 255.804 15:54 15.07.2019
5106 Clouds 23 1009 100 10000 0.78 255.804 15:36 15.07.2019
5107 Clouds 24 1010 94 10000 0.93 321.234 15:18 15.07.2019
5108 Clouds 24 1010 94 10000 0.93 321.234 14:41 15.07.2019
5109 Clouds 24 1010 94 10000 0.93 321.234 14:22 15.07.2019
5110 Clouds 24 1010 100 10000 0.93 321.234 13:49 15.07.2019
5111 Clouds 24 1010 100 10000 0.32 350.096 13:21 15.07.2019
5112 Clouds 24 1010 100 10000 0.32 350.096 12:57 15.07.2019
5113 Clouds 24 1009 100 10000 1.5 160 12:39 15.07.2019
5114 Clouds 25 1009 94 10000 1.5 180 12:20 15.07.2019
5115 Clouds 25 1009 94 10000 1.5 180 11:41 15.07.2019
5116 Clouds 25 1009 94 10000 1.5 180 11:41 15.07.2019
5117 Clouds 27 1009 83 10000 0.49 310.091 11:20 15.07.2019
5118 Clouds 27 1009 83 10000 0.49 310.091 10:43 15.07.2019
5119 Clouds 27 1009 83 10000 0.49 310.091 10:24 15.07.2019
5120 Clouds 28 1008 78 10000 0.49 310.091 09:43 15.07.2019
5121 Clouds 28 1008 78 10000 0.25 18.214 09:23 15.07.2019
5122 Clouds 30 1007 70 10000 2.1 360 08:47 15.07.2019
5123 Clouds 30 1007 70 10000 2.1 360 08:25 15.07.2019
5124 Clouds 30 1007 74 10000 2.6 90 07:52 15.07.2019
5125 Clouds 30 1007 74 10000 2.6 90 07:32 15.07.2019
5126 Clouds 30 1007 74 10000 1 90 06:41 15.07.2019
5127 Clouds 30 1008 79 10000 2.1 360 06:20 15.07.2019
5128 Clouds 30 1008 79 10000 2.1 360 05:42 15.07.2019
5129 Clouds 28 1009 83 10000 2.6 360 04:46 15.07.2019
5130 Clouds 28 1009 83 10000 2.6 360 04:26 15.07.2019
5131 Clouds 28 1009 83 10000 0.66 2.512 03:23 15.07.2019
5132 Clouds 26 1011 88 10000 0.66 2.512 02:18 15.07.2019
5133 Clouds 26 1011 88 10000 0.44 17.7 01:34 15.07.2019
5134 Clouds 25 1010 94 10000 0.44 17.7 00:53 15.07.2019
5135 Clouds 25 1010 94 10000 0.44 17.7 00:28 15.07.2019
5136 Clouds 23 1009 100 10000 2.38 80.85 23:58 14.07.2019
5137 Clouds 23 1009 100 10000 2.38 80.85 23:40 14.07.2019
5138 Clouds 23 1008 100 10000 2.38 80.85 23:19 14.07.2019
5139 Clouds 23 1008 100 10000 2.38 80.85 22:57 14.07.2019
5140 Clouds 23 1008 100 10000 2.38 80.85 22:38 14.07.2019
5141 Clouds 23 1008 100 10000 2.38 80.85 22:19 14.07.2019
5142 Clouds 23 1008 100 10000 2.38 80.85 21:42 14.07.2019
5143 Clouds 23 1008 100 10000 2.38 80.85 21:42 14.07.2019
5144 Clouds 22 1008 100 10000 3.05 101.653 21:19 14.07.2019
5145 Clouds 22 1008 100 10000 3.05 101.653 20:57 14.07.2019
5146 Clouds 22 1008 100 10000 3.05 101.653 20:38 14.07.2019
5147 Clouds 22 1007 100 10000 3.05 101.653 20:19 14.07.2019
5148 Clouds 22 1007 100 10000 3.05 101.653 19:45 14.07.2019
5149 Clouds 22 1007 100 10000 3.05 101.653 19:45 14.07.2019
5150 Clouds 22 1007 100 10000 3.05 101.653 19:27 14.07.2019
5151 Clouds 22 1008 100 10000 3.05 101.653 18:58 14.07.2019
5152 Clouds 22 1008 100 10000 3.05 101.653 18:39 14.07.2019
5153 Clouds 23 1008 94 10000 5.12 142.253 18:21 14.07.2019
5154 Clouds 23 1008 94 10000 5.12 142.253 17:53 14.07.2019
5155 Clouds 27 1008 80 0 5.12 142.253 17:22 14.07.2019
5156 Clouds 27 1008 80 0 5.12 142.253 16:52 14.07.2019
5157 Clouds 23 1009 100 10000 1 140 16:24 14.07.2019
5158 Clouds 23 1009 100 10000 1 140 15:56 14.07.2019
5159 Clouds 23 1009 100 10000 1 140 15:34 14.07.2019
5160 Clouds 23 1010 100 10000 1 160 14:51 14.07.2019
5161 Clouds 23 1010 100 10000 1 160 14:22 14.07.2019
5162 Clouds 23 1010 100 10000 3.19 184.935 13:58 14.07.2019
5163 Clouds 23 1010 100 10000 3.19 184.935 13:38 14.07.2019
5164 Clouds 23 1010 100 10000 3.29 175.656 13:20 14.07.2019
5165 Clouds 23 1010 100 10000 3.29 175.656 12:43 14.07.2019
5166 Clouds 23 1009 100 10000 1 230 12:22 14.07.2019
5167 Clouds 23 1009 100 10000 1 230 11:55 14.07.2019
5168 Clouds 23 1009 100 10000 1 230 11:29 14.07.2019
5169 Drizzle 23 1008 100 10000 2.1 320 10:59 14.07.2019
5170 Drizzle 23 1008 100 10000 2.1 320 10:40 14.07.2019
5171 Drizzle 23 1008 100 10000 2.1 230 10:19 14.07.2019
5172 Drizzle 23 1008 100 10000 2.1 230 09:42 14.07.2019
5173 Drizzle 23 1008 100 10000 2.1 230 09:23 14.07.2019
5174 Clouds 23 1009 100 0 3.1 200 08:43 14.07.2019
5175 Clouds 24 1007 100 0 4.1 110 07:58 14.07.2019
5176 Clouds 24 1007 100 0 4.1 110 07:38 14.07.2019
5177 Clouds 25 1007 100 0 5.1 70 06:55 14.07.2019
5178 Clouds 30 1007 70 10000 2.6 50 05:44 14.07.2019
5179 Drizzle 28 1008 78 10000 2.1 360 03:46 14.07.2019
5180 Drizzle 28 1008 78 10000 2.1 360 03:28 14.07.2019
5181 Clouds 30 1009 70 10000 2.1 50 02:39 14.07.2019
5182 Clouds 30 1010 70 10000 2.6 50 02:20 14.07.2019
5183 Clouds 30 1010 70 10000 2.42 130.901 01:31 14.07.2019
5184 Clouds 28 1010 78 10000 1 160 00:55 14.07.2019
5185 Clouds 28 1010 78 10000 1 160 00:37 14.07.2019
5186 Clouds 28 1010 78 10000 1 160 00:19 14.07.2019
5187 Clouds 25 1009 88 10000 3.16 135.256 23:43 13.07.2019
5188 Clouds 25 1009 88 10000 3.16 135.256 23:23 13.07.2019
5189 Clouds 23 1008 94 10000 1.5 160 22:43 13.07.2019
5190 Clouds 23 1008 94 10000 1.5 160 22:22 13.07.2019
5191 Clouds 22 1008 100 10000 3.16 135.256 21:54 13.07.2019
5192 Clouds 23 1007 100 10000 2.38 118.075 21:23 13.07.2019
5193 Clouds 23 1007 100 10000 1.73 98.496 21:23 13.07.2019
5194 Clouds 23 1007 100 10000 2.38 118.075 20:59 13.07.2019
5195 Clouds 23 1007 100 10000 2.38 118.075 20:39 13.07.2019
5196 Clouds 23 1007 100 10000 1.5 110 20:21 13.07.2019
5197 Rain 28 1008 78 0 2.38 118.075 19:41 13.07.2019
5198 Clouds 23 1008 100 10000 2.38 118.075 19:23 13.07.2019
5199 Clouds 23 1008 100 10000 2.38 118.075 18:40 13.07.2019
5200 Clouds 24 1008 94 10000 2.2 64.589 18:19 13.07.2019
5201 Clouds 24 1008 94 10000 2.2 64.589 17:38 13.07.2019
5202 Clouds 24 1008 100 10000 2.2 64.589 17:19 13.07.2019
5203 Clouds 24 1008 100 10000 2.2 64.589 16:45 13.07.2019
5204 Clouds 24 1009 100 10000 2.2 64.589 16:26 13.07.2019
5205 Clouds 24 1009 100 10000 2.2 64.589 15:48 13.07.2019
5206 Clouds 24 1009 100 10000 2.54 80.118 15:25 13.07.2019
5207 Clouds 24 1010 100 10000 1.5 140 14:57 13.07.2019
5208 Clouds 24 1010 100 10000 1.5 140 14:39 13.07.2019
5209 Clouds 25 1010 94 10000 2.54 80.118 14:20 13.07.2019
5210 Clouds 25 1010 94 10000 2.54 80.118 13:43 13.07.2019
5211 Clouds 25 1010 94 10000 2.83 69.724 13:19 13.07.2019
5212 Clouds 25 1010 94 10000 2.83 69.724 12:41 13.07.2019
5213 Clouds 27 1009 88 10000 1.79 118.84 12:23 13.07.2019
5214 Clouds 27 1009 88 10000 1.79 118.84 11:57 13.07.2019
5215 Clouds 28 1008 83 10000 1.79 118.84 11:20 13.07.2019
5216 Clouds 28 1008 83 10000 1.79 118.84 10:58 13.07.2019
5217 Clouds 28 1008 83 10000 1.79 118.84 10:39 13.07.2019
5218 Clouds 30 1007 74 10000 2.1 90 10:21 13.07.2019
5219 Clouds 30 1007 74 10000 2.1 90 09:41 13.07.2019
5220 Clouds 30 1007 74 10000 2.1 90 09:23 13.07.2019
5221 Clouds 31 1007 62 10000 4.1 110 08:47 13.07.2019
5222 Clouds 31 1007 62 10000 4.1 110 08:26 13.07.2019
5223 Clouds 32 1007 66 10000 4.6 70 07:31 13.07.2019
5224 Clouds 33 1007 63 10000 3.6 90 06:55 13.07.2019
5225 Clouds 33 1007 63 10000 3.6 90 06:29 13.07.2019
5226 Clouds 33 1007 59 10000 6.2 90 05:38 13.07.2019
5227 Clouds 32 1008 70 10000 4.6 90 04:36 13.07.2019
5228 Clouds 31 1009 70 10000 5.1 90 04:18 13.07.2019
5229 Clouds 31 1009 70 10000 4.6 90 03:40 13.07.2019
5230 Clouds 30 1009 74 10000 2.6 50 02:28 13.07.2019
5231 Clouds 28 1010 78 10000 2.6 90 01:44 13.07.2019
5232 Clouds 26 1010 88 10000 0.9 332.555 01:20 13.07.2019
5233 Clouds 26 1010 88 10000 0.9 332.555 00:57 13.07.2019
5234 Clouds 23 1009 100 10000 3.07 107.798 00:20 13.07.2019
5235 Clouds 23 1009 100 10000 3.07 107.798 23:49 12.07.2019
5236 Clouds 23 1009 100 10000 3.07 107.798 23:29 12.07.2019
5237 Clouds 27 1010 75 0 3.07 107.798 22:47 12.07.2019
5238 Clouds 22 1008 100 10000 3.07 107.798 22:25 12.07.2019
5239 Clouds 22 1008 100 10000 3.07 107.798 22:25 12.07.2019
5240 Clouds 22 1008 100 10000 3.07 107.798 21:57 12.07.2019
5241 Clouds 22 1008 100 10000 3.07 107.798 21:39 12.07.2019
5242 Clouds 23 1008 100 10000 2.1 140 21:19 12.07.2019
5243 Clouds 23 1008 100 10000 2.1 140 21:19 12.07.2019
5244 Clouds 23 1008 100 10000 2.1 140 20:42 12.07.2019
5245 Clouds 23 1008 100 10000 2.1 140 20:21 12.07.2019
5246 Clouds 23 1008 100 10000 2.1 140 19:42 12.07.2019
5247 Clouds 23 1008 100 10000 2.1 140 19:24 12.07.2019
5248 Clouds 23 1008 100 10000 2.59 134.389 18:46 12.07.2019
5249 Clouds 23 1009 100 10000 2.35 102.746 18:22 12.07.2019
5250 Clouds 23 1009 100 10000 2.35 102.746 17:55 12.07.2019
5251 Clouds 23 1009 100 10000 2.35 102.746 17:30 12.07.2019
5252 Clouds 23 1009 100 10000 2.35 102.746 17:30 12.07.2019
5253 Clouds 24 1009 100 10000 2.35 102.746 16:52 12.07.2019
5254 Clouds 24 1009 100 10000 2.35 102.746 16:25 12.07.2019
5255 Clouds 24 1010 100 10000 2.35 102.746 15:56 12.07.2019
5256 Clouds 24 1010 100 10000 2.35 102.746 15:36 12.07.2019
5257 Clouds 24 1010 100 10000 2.3 51.465 15:18 12.07.2019
5258 Clouds 24 1010 100 10000 2.3 51.465 14:43 12.07.2019
5259 Clouds 25 1010 100 10000 2.3 51.465 14:20 12.07.2019
5260 Clouds 25 1010 100 10000 2.3 51.465 13:43 12.07.2019
5261 Clouds 26 1010 94 10000 2.1 140 13:21 12.07.2019
5262 Clouds 26 1010 94 10000 2.1 140 12:41 12.07.2019
5263 Clouds 26 1010 88 10000 1 110 12:23 12.07.2019
5264 Clouds 26 1010 88 10000 1 110 11:46 12.07.2019
5265 Clouds 26 1010 88 10000 1 110 11:24 12.07.2019
5266 Clouds 27 1009 88 10000 2.21 57.992 10:55 12.07.2019
5267 Clouds 27 1009 88 10000 2.21 57.992 10:37 12.07.2019
5268 Clouds 28 1009 83 10000 2.1 230 10:19 12.07.2019
5269 Clouds 28 1009 83 10000 2.1 230 09:51 12.07.2019
5270 Clouds 28 1009 83 10000 2.1 230 09:24 12.07.2019
5271 Clouds 31 1008 70 10000 2.6 110 08:45 12.07.2019
5272 Clouds 31 1007 74 10000 5.1 70 08:22 12.07.2019
5273 Thunderstorm 31 1008 74 10000 5.1 70 07:47 12.07.2019
5274 Thunderstorm 31 1008 74 10000 5.1 70 07:28 12.07.2019
5275 Clouds 31 1007 74 10000 4.1 50 06:29 12.07.2019
5276 Clouds 32 1008 70 10000 4.1 50 05:50 12.07.2019
5277 Clouds 31 1010 74 10000 3.1 140 03:46 12.07.2019
5278 Clouds 25 1012 100 10000 1.5 270 01:48 12.07.2019
5279 Clouds 25 1012 100 10000 1.5 270 01:28 12.07.2019
5280 Drizzle 24 1012 100 10000 1.5 270 00:34 12.07.2019
5281 Clouds 24 1012 100 0 2.1 110 23:50 11.07.2019
5282 Clouds 24 1012 100 0 2.1 110 23:28 11.07.2019
5283 Clouds 24 1011 100 10000 2 112.201 22:59 11.07.2019
5284 Thunderstorm 24 1010 100 10000 2 112.201 22:40 11.07.2019
5285 Clouds 24 1010 100 10000 1.5 90 22:21 11.07.2019
5286 Clouds 23 1010 100 10000 2.1 110 21:42 11.07.2019
5287 Clouds 23 1010 100 10000 2.1 110 21:42 11.07.2019
5288 Clouds 23 1009 100 10000 1 140 21:19 11.07.2019
5289 Clouds 23 1009 100 10000 1 140 20:55 11.07.2019
5290 Clouds 23 1009 100 10000 1 140 20:37 11.07.2019
5291 Clouds 23 1009 100 10000 3.65 108.361 20:18 11.07.2019
5292 Clouds 23 1009 100 10000 3.65 108.361 19:44 11.07.2019
5293 Clouds 24 1009 100 10000 1.5 110 19:24 11.07.2019
5294 Clouds 24 1009 100 10000 1.5 110 18:49 11.07.2019
5295 Clouds 24 1009 100 10000 1.5 110 18:31 11.07.2019
5296 Clouds 24 1009 100 10000 2.6 180 17:55 11.07.2019
5297 Clouds 24 1009 100 10000 2.6 180 17:37 11.07.2019
5298 Clouds 24 1010 100 10000 1.5 140 17:19 11.07.2019
5299 Clouds 24 1010 100 10000 1.5 140 16:43 11.07.2019
5300 Clouds 24 1010 100 10000 2.1 160 16:21 11.07.2019
5301 Clouds 24 1010 100 10000 2.1 160 15:44 11.07.2019
5302 Clouds 25 1011 94 10000 7.8 141.333 15:25 11.07.2019
5303 Clouds 25 1011 94 10000 7.8 141.333 14:59 11.07.2019
5304 Clouds 25 1011 94 10000 7.8 141.333 14:39 11.07.2019
5305 Clouds 25 1011 94 10000 7.8 141.333 14:19 11.07.2019
5306 Clouds 25 1011 94 10000 7.8 141.333 14:19 11.07.2019
5307 Clouds 25 1011 94 10000 7.8 141.333 13:42 11.07.2019
5308 Clouds 26 1010 88 10000 7.56 141.108 13:23 11.07.2019
5309 Clouds 26 1010 88 10000 7.56 141.108 12:39 11.07.2019
5310 Clouds 26 1010 88 10000 10.37 147.528 12:19 11.07.2019
5311 Clouds 26 1010 88 10000 1.5 140 11:50 11.07.2019
5312 Clouds 26 1010 88 10000 1.5 140 11:30 11.07.2019
5313 Rain 27 1011 84 0 10.37 147.528 10:54 11.07.2019
5314 Clouds 29 1009 79 10000 4.1 90 10:20 11.07.2019
5315 Clouds 29 1009 79 10000 4.1 90 10:20 11.07.2019
5316 Clouds 29 1009 79 10000 4.1 90 10:20 11.07.2019
5317 Clouds 29 1009 79 10000 4.1 90 09:56 11.07.2019
5318 Clouds 29 1009 79 10000 4.1 90 09:36 11.07.2019
5319 Clouds 29 1009 79 10000 4.1 90 09:36 11.07.2019
5320 Clouds 29 1009 79 10000 4.1 90 09:18 11.07.2019
5321 Clouds 29 1009 79 10000 3.1 50 08:42 11.07.2019
5322 Clouds 29 1009 79 10000 3.1 50 08:20 11.07.2019
5323 Clouds 30 1008 79 10000 4.6 70 07:45 11.07.2019
5324 Clouds 30 1008 79 10000 4.6 70 07:23 11.07.2019
5325 Clouds 29 1008 79 10000 2.6 90 06:19 11.07.2019
5326 Clouds 29 1008 79 10000 2.6 90 05:32 11.07.2019
5327 Clouds 30 1009 79 10000 3.6 340 04:56 11.07.2019
5328 Clouds 30 1010 79 10000 3.1 340 03:57 11.07.2019
5329 Clouds 30 1011 74 10000 1 110 02:25 11.07.2019
5330 Clouds 26 1011 94 10000 10.32 150.991 00:35 11.07.2019
5331 Clouds 24 1011 94 10000 9.66 147.088 23:51 10.07.2019
5332 Clouds 24 1011 94 10000 9.66 147.088 23:27 10.07.2019
5333 Clouds 23 1011 100 10000 9.66 147.088 22:57 10.07.2019
5334 Clouds 23 1011 100 10000 9.66 147.088 22:26 10.07.2019
5335 Clouds 23 1010 100 10000 1 140 21:57 10.07.2019
5336 Clouds 23 1010 100 10000 1 140 21:38 10.07.2019
5337 Clouds 24 1010 94 10000 1 200 21:20 10.07.2019
5338 Clouds 24 1010 94 10000 1 200 20:46 10.07.2019
5339 Clouds 24 1010 94 10000 1 200 20:26 10.07.2019
5340 Drizzle 23 1009 100 10000 2.1 320 19:57 10.07.2019
5341 Drizzle 23 1009 100 10000 2.1 320 19:38 10.07.2019
5342 Clouds 23 1009 100 10000 2.1 180 19:20 10.07.2019
5343 Clouds 23 1009 100 10000 2.1 180 18:46 10.07.2019
5344 Drizzle 24 1009 94 10000 1 70 18:23 10.07.2019
5345 Drizzle 24 1009 94 10000 1 70 17:46 10.07.2019
5346 Drizzle 24 1009 94 10000 1 70 17:27 10.07.2019
5347 Rain 24 1009 94 10000 2.6 50 16:47 10.07.2019
5348 Rain 25 1010 100 10000 3.1 140 16:21 10.07.2019
5349 Rain 25 1010 100 10000 3.1 140 15:47 10.07.2019
5350 Rain 25 1010 100 10000 3.1 140 15:25 10.07.2019
5351 Rain 25 1011 94 10000 3.1 140 14:48 10.07.2019
5352 Rain 25 1011 94 10000 3.1 140 14:29 10.07.2019
5353 Drizzle 26 1011 94 10000 1 90 13:56 10.07.2019
5354 Drizzle 26 1011 94 10000 1 90 13:36 10.07.2019
5355 Clouds 26 1010 94 10000 12.13 145.806 13:18 10.07.2019
5356 Clouds 26 1010 94 10000 12.13 145.806 13:18 10.07.2019
5357 Clouds 26 1010 94 10000 12.13 145.806 12:40 10.07.2019
5358 Clouds 26 1009 94 10000 13.67 147.916 12:21 10.07.2019
5359 Clouds 26 1009 94 10000 13.67 147.916 11:47 10.07.2019
5360 Clouds 27 1009 88 10000 1 200 11:22 10.07.2019
5361 Clouds 27 1009 88 10000 1 200 10:56 10.07.2019
5362 Clouds 27 1009 88 10000 1 200 10:24 10.07.2019
5363 Clouds 28 1009 74 10000 1 290 09:45 10.07.2019
5364 Clouds 28 1009 74 10000 1 290 09:45 10.07.2019
5365 Clouds 29 1008 70 10000 4.1 290 09:21 10.07.2019
5366 Clouds 29 1008 70 10000 4.1 290 09:21 10.07.2019
5367 Clouds 29 1008 70 10000 4.1 290 08:57 10.07.2019
5368 Clouds 29 1008 70 10000 4.1 290 08:38 10.07.2019
5369 Clouds 29 1007 79 10000 3.1 290 08:20 10.07.2019
5370 Clouds 29 1007 79 10000 3.1 290 07:42 10.07.2019
5371 Clouds 30 1008 70 10000 2.1 290 07:22 10.07.2019
5372 Clouds 30 1008 70 10000 2.1 290 06:31 10.07.2019
5373 Clouds 29 1008 74 10000 1.5 320 05:40 10.07.2019
5374 Clouds 29 1008 79 10000 3.1 90 04:30 10.07.2019
5375 Clouds 25 1010 88 10000 1.5 70 01:25 10.07.2019
5376 Clouds 24 1010 94 10000 13.2 152.476 00:42 10.07.2019
5377 Clouds 24 1010 94 10000 2.6 180 23:42 09.07.2019
5378 Clouds 24 1010 94 10000 2.6 180 23:22 09.07.2019
5379 Clouds 24 1010 100 10000 12.69 147.045 22:43 09.07.2019
5380 Clouds 24 1008 94 10000 12.69 147.045 22:25 09.07.2019
5381 Clouds 24 1008 94 10000 12.69 147.045 21:59 09.07.2019
5382 Clouds 24 1008 94 10000 12.69 147.045 21:41 09.07.2019
5383 Clouds 24 1008 94 10000 1 140 21:23 09.07.2019
5384 Clouds 24 1008 94 10000 1 140 20:43 09.07.2019
5385 Clouds 24 1008 94 10000 1 140 20:25 09.07.2019
5386 Clouds 23 1008 100 10000 12.61 145.262 19:43 09.07.2019
5387 Clouds 23 1008 100 10000 12.61 145.262 19:24 09.07.2019
5388 Clouds 24 1008 94 10000 12.61 145.262 18:49 09.07.2019
5389 Clouds 24 1008 94 10000 12.75 148.172 18:27 09.07.2019
5390 Clouds 24 1008 94 10000 12.75 148.172 17:57 09.07.2019
5391 Clouds 24 1008 94 10000 12.75 148.172 17:39 09.07.2019
5392 Clouds 24 1009 100 10000 12.75 148.172 17:19 09.07.2019
5393 Clouds 24 1009 100 10000 12.75 148.172 16:50 09.07.2019
5394 Clouds 24 1009 100 10000 12.75 148.172 16:25 09.07.2019
5395 Clouds 24 1009 100 10000 1.5 140 15:50 09.07.2019
5396 Clouds 24 1009 100 10000 1.5 140 15:32 09.07.2019
5397 Clouds 25 1009 94 10000 1.5 90 14:58 09.07.2019
5398 Clouds 25 1009 94 10000 1.5 90 14:39 09.07.2019
5399 Clouds 25 1010 100 10000 12.16 145.897 14:18 09.07.2019
5400 Clouds 25 1010 100 10000 12.16 145.897 13:43 09.07.2019
5401 Clouds 25 1010 100 10000 12.5 145.915 13:24 09.07.2019
5402 Clouds 25 1010 100 10000 1.5 90 12:40 09.07.2019
5403 Clouds 25 1010 100 10000 1.5 90 12:40 09.07.2019
5404 Rain 25 1009 94 10000 1.5 140 12:22 09.07.2019
5405 Rain 25 1009 94 10000 1.5 140 11:58 09.07.2019
5406 Rain 25 1009 94 10000 1.5 140 11:38 09.07.2019
5407 Clouds 26 1009 88 10000 1.5 180 11:20 09.07.2019
5408 Clouds 26 1009 88 10000 1.5 180 10:49 09.07.2019
5409 Clouds 26 1009 88 10000 1.5 180 10:30 09.07.2019
5410 Fog 27 1008 88 10000 13.09 146.753 09:41 09.07.2019
5411 Clouds 27 1007 83 10000 1.5 290 09:21 09.07.2019
5412 Clouds 27 1007 83 10000 1.5 290 08:45 09.07.2019
5413 Clouds 27 1007 83 10000 1.5 290 08:22 09.07.2019
5414 Clouds 32 1010 62 10000 5.7 50 03:54 05.07.2019
5415 Clouds 32 1010 62 10000 5.7 50 03:25 05.07.2019
5416 Clouds 31 1011 62 10000 2.6 50 02:59 05.07.2019
5417 Clouds 31 1011 62 10000 2.6 50 02:37 05.07.2019
5418 Clouds 31 1012 62 10000 3.1 70 01:37 05.07.2019
5419 Clouds 29 1012 74 10000 1.67 158.536 00:57 05.07.2019
5420 Clouds 29 1012 74 10000 1.67 158.536 00:39 05.07.2019
5421 Clouds 24 1011 94 10000 3.18 96.571 23:48 04.07.2019
5422 Clouds 22 1011 100 10000 3.18 96.571 23:20 04.07.2019
5423 Clouds 22 1011 100 10000 3.18 96.571 22:43 04.07.2019
5424 Clouds 22 1011 100 10000 3.18 96.571 22:24 04.07.2019
5425 Clouds 22 1010 100 10000 3.18 96.571 21:55 04.07.2019
5426 Clouds 22 1010 100 10000 3.18 96.571 21:36 04.07.2019
5427 Clouds 22 1010 100 10000 1.5 110 21:18 04.07.2019
5428 Clouds 22 1010 100 10000 1.5 110 20:38 04.07.2019
5429 Clouds 22 1010 100 10000 5.37 121.377 20:20 04.07.2019
5430 Clouds 22 1010 100 10000 5.37 121.377 19:42 04.07.2019
5431 Clouds 23 1010 94 10000 5.37 121.377 19:22 04.07.2019
5432 Clouds 23 1010 94 10000 5.37 121.377 18:57 04.07.2019
5433 Clouds 23 1010 94 10000 5.37 121.377 18:38 04.07.2019
5434 Clouds 23 1011 100 10000 4.1 136.493 18:20 04.07.2019
5435 Clouds 23 1011 100 10000 4.1 136.493 17:43 04.07.2019
5436 Clouds 23 1011 100 10000 1.5 110 17:19 04.07.2019
5437 Clouds 24 1011 94 10000 1.5 200 15:57 04.07.2019
5438 Clouds 24 1011 94 10000 1.5 200 15:39 04.07.2019
5439 Clouds 25 1011 94 10000 4.86 120.709 15:18 04.07.2019
5440 Clouds 25 1011 94 10000 4.86 120.709 15:18 04.07.2019
5441 Clouds 25 1011 94 10000 4.86 120.709 14:41 04.07.2019
5442 Clouds 25 1011 94 10000 4.86 120.709 14:22 04.07.2019
5443 Clouds 25 1011 94 10000 4.86 120.709 13:58 04.07.2019
5444 Clouds 25 1011 94 10000 4.86 120.709 13:39 04.07.2019
5445 Clouds 26 1012 88 10000 4.41 133.815 13:20 04.07.2019
5446 Clouds 26 1012 88 10000 4.41 133.815 12:40 04.07.2019
5447 Clouds 27 1011 83 10000 3.1 110 12:21 04.07.2019
5448 Clouds 27 1011 83 10000 3.1 110 11:56 04.07.2019
5449 Clouds 27 1011 83 10000 3.1 110 11:37 04.07.2019
5450 Clouds 28 1010 78 10000 6.2 90 11:18 04.07.2019
5451 Clouds 28 1010 78 10000 6.2 90 10:39 04.07.2019
5452 Clouds 28 1009 78 10000 5.1 90 10:18 04.07.2019
5453 Clouds 28 1009 78 10000 5.1 90 09:39 04.07.2019
5454 Clouds 29 1009 79 10000 6.7 70 09:19 04.07.2019
5455 Clouds 29 1009 79 10000 6.7 70 08:53 04.07.2019
5456 Clouds 32 1009 70 10000 7.7 70 08:19 04.07.2019
5457 Clouds 32 1009 70 10000 7.7 70 07:42 04.07.2019
5458 Clouds 32 1009 70 10000 6.2 70 07:19 04.07.2019
5459 Clouds 32 1009 70 10000 6.2 70 06:33 04.07.2019
5460 Clouds 31 1009 70 10000 6.7 70 05:43 04.07.2019
5461 Clouds 32 1010 66 10000 6.2 70 04:59 04.07.2019
5462 Clouds 32 1012 59 10000 5.1 90 02:23 04.07.2019
5463 Clouds 31 1012 70 10000 6.2 110 01:27 04.07.2019
5464 Clouds 28 1012 83 10000 2.1 160 00:51 04.07.2019
5465 Clouds 25 1012 94 10000 1.5 110 23:52 03.07.2019
5466 Clouds 25 1012 94 10000 1.5 110 23:21 03.07.2019
5467 -273 0 0 0 0 0 22:57 03.07.2019
5468 Clouds 23 1011 100 10000 1.5 160 22:38 03.07.2019
5469 Clouds 23 1011 100 10000 1.5 160 22:38 03.07.2019
5470 Clouds 23 1010 100 10000 1.5 70 22:20 03.07.2019
5471 Clouds 23 1010 100 10000 1.5 70 22:20 03.07.2019
5472 Clouds 23 1010 100 10000 1.5 70 21:54 03.07.2019
5473 Clouds 23 1010 100 10000 1.5 70 21:36 03.07.2019
5474 Clouds 24 1010 94 10000 1.5 160 20:49 03.07.2019
5475 Clouds 24 1010 94 10000 1.5 160 20:31 03.07.2019
5476 Clouds 24 1010 94 10000 1.5 160 19:59 03.07.2019
5477 Rain 27 1011 79 0 4.88 123.436 19:40 03.07.2019
5478 Clouds 24 1010 94 10000 4.88 123.436 18:58 03.07.2019
5479 Clouds 24 1010 94 10000 4.88 123.436 18:39 03.07.2019
5480 Clouds 24 1010 94 10000 3.32 136.843 18:21 03.07.2019
5481 Clouds 24 1011 94 10000 3.32 136.843 17:49 03.07.2019
5482 Clouds 24 1011 100 10000 1.5 180 17:19 03.07.2019
5483 Clouds 24 1011 100 10000 1.5 180 16:45 03.07.2019
5484 Clouds 24 1011 100 10000 1.5 180 16:25 03.07.2019
5485 Clouds 24 1011 100 10000 3.32 136.843 15:55 03.07.2019
5486 Clouds 24 1011 100 10000 3.32 136.843 15:37 03.07.2019
5487 Clouds 25 1011 94 10000 1 70 15:18 03.07.2019
5488 Clouds 25 1011 94 10000 1 70 14:43 03.07.2019
5489 Clouds 25 1012 94 10000 1 180 14:20 03.07.2019
5490 Clouds 25 1012 94 10000 1 180 13:43 03.07.2019
5491 Clouds 25 1012 94 10000 1 180 13:24 03.07.2019
5492 Clouds 25 1012 94 10000 1 180 13:24 03.07.2019
5493 Clouds 26 1011 88 10000 1 140 12:46 03.07.2019
5494 Clouds 27 1011 83 10000 1 180 12:18 03.07.2019
5495 Clouds 27 1011 83 10000 1 180 11:43 03.07.2019
5496 Clouds 27 1011 83 10000 1 180 11:23 03.07.2019
5497 Clouds 27 1010 83 10000 2.6 140 10:57 03.07.2019
5498 Clouds 27 1010 83 10000 2.6 140 10:36 03.07.2019
5499 Clouds 29 1010 74 10000 3.6 90 10:18 03.07.2019
5500 Clouds 29 1010 74 10000 3.6 90 09:39 03.07.2019
5501 Clouds 31 1009 62 10000 5.1 90 09:20 03.07.2019
5502 Clouds 31 1009 62 10000 5.1 90 08:50 03.07.2019
5503 Clouds 31 1009 62 10000 5.1 90 08:26 03.07.2019
5504 Clouds 31 1009 70 10000 3.6 90 07:40 03.07.2019
5505 Clouds 30 1009 79 10000 4.1 110 07:20 03.07.2019
5506 Clouds 30 1009 79 10000 4.1 110 06:25 03.07.2019
5507 Drizzle 28 1009 88 10000 1.5 180 05:32 03.07.2019
5508 Clouds 29 1010 89 10000 8.7 70 04:34 03.07.2019
5509 Clouds 30 1012 70 10000 1 90 03:23 03.07.2019
5510 Clouds 28 1012 83 10000 1 90 01:46 03.07.2019
5511 Clouds 28 1012 83 10000 1 90 01:21 03.07.2019
5512 Clouds 26 1012 88 10000 5.48 135.488 00:42 03.07.2019
5513 Clouds 24 1012 94 10000 7.61 142.403 23:58 02.07.2019
5514 Clouds 24 1012 94 10000 7.61 142.403 23:37 02.07.2019
5515 Clouds 24 1012 94 10000 7.61 142.403 23:19 02.07.2019
5516 Clouds 24 1011 94 10000 2.1 180 22:55 02.07.2019
5517 Clouds 24 1011 94 10000 2.1 180 22:36 02.07.2019
5518 Clouds 24 1011 94 10000 2.1 180 22:18 02.07.2019
5519 Clouds 24 1011 94 10000 7.61 142.403 21:41 02.07.2019
5520 Clouds 24 1011 94 10000 4.95 134.632 21:20 02.07.2019
5521 Clouds 24 1010 94 10000 1.5 180 20:57 02.07.2019
5522 Clouds 24 1010 94 10000 1.5 180 20:39 02.07.2019
5523 Clouds 24 1010 94 10000 1.5 180 20:19 02.07.2019
5524 Clouds 24 1010 100 10000 1.5 160 19:42 02.07.2019
5525 Clouds 25 1010 94 10000 2.1 340 19:23 02.07.2019
5526 Clouds 25 1010 94 10000 2.1 340 18:47 02.07.2019
5527 Clouds 25 1010 94 10000 2.1 340 18:18 02.07.2019
5528 Clouds 24 1011 100 10000 3.37 92.582 17:43 02.07.2019
5529 Clouds 24 1011 100 10000 3.37 92.582 17:22 02.07.2019
5530 Clouds 24 1012 100 10000 3.37 92.582 16:52 02.07.2019
5531 Clouds 24 1012 100 10000 3.37 92.582 16:34 02.07.2019
5532 Clouds 25 1012 94 10000 3.37 92.582 15:47 02.07.2019
5533 Clouds 25 1012 94 10000 4.99 115.698 15:27 02.07.2019
5534 Clouds 25 1012 94 10000 2.1 140 14:57 02.07.2019
5535 Clouds 25 1012 94 10000 2.1 140 14:57 02.07.2019
5536 Clouds 25 1012 94 10000 2.1 140 14:38 02.07.2019
5537 Clouds 25 1012 94 10000 2.1 140 14:19 02.07.2019
5538 Clouds 25 1012 94 10000 5.04 134.646 13:38 02.07.2019
5539 Clouds 25 1012 94 10000 5.04 134.646 13:18 02.07.2019
5540 Clouds 25 1012 94 10000 5.04 134.646 12:44 02.07.2019
5541 Clouds 25 1012 94 10000 7.77 139.738 12:22 02.07.2019
5542 Clouds 26 1011 94 10000 2.1 230 11:43 02.07.2019
5543 Clouds 26 1011 94 10000 2.1 230 11:43 02.07.2019
5544 Clouds 26 1010 88 10000 7.77 139.738 11:23 02.07.2019
5545 Clouds 26 1010 88 10000 7.77 139.738 10:51 02.07.2019
5546 Clouds 27 1009 83 10000 1.5 200 10:26 02.07.2019
5547 Clouds 27 1009 83 10000 1.5 200 09:49 02.07.2019
5548 Clouds 28 1009 74 10000 3.1 200 09:22 02.07.2019
5549 Clouds 28 1009 74 10000 3.1 200 08:55 02.07.2019
5550 Clouds 28 1009 74 10000 3.1 200 08:35 02.07.2019
5551 Clouds 30 1009 70 10000 2.6 70 07:57 02.07.2019
5552 Clouds 30 1009 70 10000 2.6 70 07:21 02.07.2019
5553 Clouds 31 1008 70 10000 5.7 70 06:54 02.07.2019
5554 Clouds 31 1008 70 10000 5.7 70 06:35 02.07.2019
5555 Clouds 30 1010 79 10000 5.1 70 04:59 02.07.2019
5556 Clouds 31 1011 70 10000 3.1 50 02:28 02.07.2019
5557 Clouds 27 1011 88 10000 1 160 00:23 02.07.2019
5558 Clouds 25 1011 94 10000 7.81 148.76 23:24 01.07.2019
5559 Clouds 24 1011 100 10000 7.81 148.76 22:48 01.07.2019
5560 Clouds 24 1011 100 10000 7.81 148.76 22:28 01.07.2019
5561 Clouds 24 1009 100 10000 7.81 148.76 21:49 01.07.2019
5562 Clouds 24 1009 100 10000 7.81 148.76 21:28 01.07.2019
5563 Clouds 24 1009 100 10000 7.63 144.606 20:57 01.07.2019
5564 Clouds 24 1009 100 10000 8.09 147.687 20:39 01.07.2019
5565 Clouds 24 1009 100 10000 1.5 200 20:19 01.07.2019
5566 Clouds 24 1009 100 10000 1.5 200 19:42 01.07.2019
5567 Clouds 24 1009 100 10000 1.5 200 19:24 01.07.2019
5568 Clouds 25 1009 94 10000 8.09 147.687 18:55 01.07.2019
5569 Clouds 25 1009 94 10000 8.09 147.687 18:37 01.07.2019
5570 Clouds 25 1009 100 10000 7.53 145.763 18:18 01.07.2019
5571 Clouds 25 1009 100 10000 7.53 145.763 17:42 01.07.2019
5572 Clouds 25 1009 100 10000 7.53 145.763 17:22 01.07.2019
5573 Clouds 25 1010 100 10000 2.1 270 16:47 01.07.2019
5574 Clouds 26 1011 94 10000 2.6 290 16:26 01.07.2019
5575 Clouds 26 1011 94 10000 2.6 290 15:55 01.07.2019
5576 Clouds 26 1011 94 10000 2.6 290 15:36 01.07.2019
5577 Clouds 26 1011 94 10000 2.6 290 15:36 01.07.2019
5578 Clouds 26 1011 94 10000 3.1 270 15:18 01.07.2019
5579 Clouds 25 1011 94 10000 1.5 250 14:42 01.07.2019
5580 Clouds 25 1011 94 10000 8.16 149.997 14:19 01.07.2019
5581 Clouds 25 1011 94 10000 8.16 149.997 13:41 01.07.2019
5582 Clouds 25 1011 94 10000 8.31 148.327 13:22 01.07.2019
5583 Clouds 25 1011 94 10000 8.31 148.327 12:49 01.07.2019
5584 Clouds 25 1011 94 10000 8.31 148.327 12:30 01.07.2019
5585 -273 0 0 0 0 0 11:59 01.07.2019
5586 Clouds 26 1010 88 10000 1.5 110 11:39 01.07.2019
5587 Clouds 26 1010 88 10000 1.5 110 11:19 01.07.2019
5588 Clouds 27 1010 83 10000 8.86 147.675 10:46 01.07.2019
5589 Clouds 27 1010 83 10000 8.86 147.675 10:22 01.07.2019
5590 Clouds 29 1009 74 10000 2.6 90 09:45 01.07.2019
5591 Clouds 29 1009 74 10000 2.6 90 09:27 01.07.2019
5592 Clouds 30 1008 66 10000 3.1 110 08:59 01.07.2019
5593 Clouds 30 1008 66 10000 3.1 110 08:35 01.07.2019
5594 Clouds 30 1008 74 10000 4.6 70 07:39 01.07.2019
5595 Clouds 31 1008 70 10000 5.1 50 06:51 01.07.2019
5596 Clouds 30 1009 70 10000 2.1 20 05:23 01.07.2019
5597 Rain 27 1011 83 0 9.63 151.371 01:22 01.07.2019
5598 Rain 27 1011 83 0 9.63 151.371 00:44 01.07.2019
5599 Rain 27 1011 83 0 9.63 151.371 00:44 01.07.2019
5600 Clouds 24 1010 94 10000 1 110 00:21 01.07.2019
5601 Clouds 24 1010 100 10000 2.1 110 23:27 30.06.2019
5602 Clouds 24 1010 100 10000 2.1 110 22:58 30.06.2019
5603 Clouds 24 1010 100 10000 2.1 110 22:38 30.06.2019
5604 Clouds 24 1009 100 10000 2.1 110 22:18 30.06.2019
5605 Clouds 24 1009 100 10000 2.1 110 21:41 30.06.2019
5606 Clouds 25 1009 94 10000 2.1 160 21:19 30.06.2019
5607 Clouds 25 1009 94 10000 2.1 160 20:43 30.06.2019
5608 Clouds 25 1009 94 10000 2.1 180 20:24 30.06.2019
5609 Clouds 25 1009 94 10000 2.1 180 20:24 30.06.2019
5610 Clouds 25 1009 94 10000 2.1 180 19:55 30.06.2019
5611 Clouds 25 1009 94 10000 2.1 180 19:37 30.06.2019
5612 Clouds 25 1009 94 10000 1 200 19:18 30.06.2019
5613 Rain 27 1010 84 0 9.76 152.077 18:26 30.06.2019
5614 Rain 27 1010 84 0 9.76 152.077 17:56 30.06.2019
5615 Clouds 25 1009 94 10000 9.76 152.077 17:37 30.06.2019
5616 Clouds 25 1009 94 10000 9.76 152.077 17:18 30.06.2019
5617 Clouds 25 1009 94 10000 9.76 152.077 16:44 30.06.2019
5618 Clouds 25 1009 94 10000 9.76 152.077 16:25 30.06.2019
5619 Clouds 25 1009 94 10000 9.76 152.077 15:37 30.06.2019
5620 Clouds 25 1010 94 10000 1.5 140 15:18 30.06.2019
5621 Clouds 25 1010 94 10000 1.5 140 14:49 30.06.2019
5622 Clouds 25 1010 94 10000 1.5 140 14:29 30.06.2019
5623 Clouds 25 1010 94 10000 1.5 180 13:46 30.06.2019
5624 Clouds 25 1010 94 10000 1.5 180 13:24 30.06.2019
5625 Clouds 25 1010 94 10000 1.5 180 12:50 30.06.2019
5626 Clouds 25 1010 94 10000 1.5 180 12:25 30.06.2019
5627 Clouds 26 1009 94 10000 1.5 180 11:55 30.06.2019
5628 Clouds 26 1009 94 10000 1.5 180 11:37 30.06.2019
5629 Clouds 26 1009 94 10000 1.5 180 11:18 30.06.2019
5630 Clouds 26 1009 94 10000 1.5 180 11:18 30.06.2019
5631 Clouds 27 1008 88 10000 2.6 160 10:40 30.06.2019
5632 Clouds 29 1008 79 10000 3.1 50 10:19 30.06.2019
5633 Clouds 29 1008 79 10000 3.1 50 09:44 30.06.2019
5634 Clouds 30 1008 74 10000 3.1 50 09:23 30.06.2019
5635 Clouds 30 1008 74 10000 3.1 50 08:59 30.06.2019
5636 Clouds 30 1008 74 10000 3.1 50 08:32 30.06.2019
5637 Clouds 31 1007 70 10000 3.6 50 07:59 30.06.2019
5638 Clouds 31 1007 70 10000 3.6 50 07:29 30.06.2019
5639 Clouds 31 1007 70 10000 3.6 50 06:51 30.06.2019
5640 Clouds 31 1008 70 10000 3.1 70 05:34 30.06.2019
5641 Clouds 30 1011 70 10000 2.6 50 02:59 30.06.2019
5642 Clouds 31 1011 70 10000 2.1 70 01:30 30.06.2019
5643 Clouds 28 1011 83 10000 2.8 154.194 00:32 30.06.2019
5644 Clouds 28 1011 83 10000 2.99 122.493 23:55 29.06.2019
5645 Clouds 24 1010 94 10000 2.99 122.493 23:25 29.06.2019
5646 Clouds 23 1010 100 10000 2.99 122.493 22:57 29.06.2019
5647 Clouds 23 1010 100 10000 2.99 122.493 22:38 29.06.2019
5648 Clouds 23 1010 100 10000 2.99 122.493 22:19 29.06.2019
5649 Clouds 23 1009 100 10000 2.92 126.242 21:42 29.06.2019
5650 Clouds 23 1009 100 10000 2.9 126.419 21:22 29.06.2019
5651 Clouds 23 1009 100 10000 2.9 126.419 20:41 29.06.2019
5652 Clouds 23 1009 100 10000 2.9 126.419 20:23 29.06.2019
5653 Clouds 23 1009 100 10000 2.9 126.419 19:48 29.06.2019
5654 Clouds 23 1009 100 10000 2.9 126.419 19:24 29.06.2019
5655 Clouds 23 1009 100 10000 2.9 126.419 18:51 29.06.2019
5656 Clouds 23 1009 100 10000 2.58 113.429 18:26 29.06.2019
5657 Clouds 24 1010 94 10000 1 180 17:42 29.06.2019
5658 Clouds 24 1010 100 10000 2.58 113.429 17:23 29.06.2019
5659 Clouds 24 1010 100 10000 2.58 113.429 16:58 29.06.2019
5660 Clouds 24 1010 100 10000 2.58 113.429 16:36 29.06.2019
5661 Clouds 24 1010 100 10000 2.58 113.429 15:50 29.06.2019
5662 Clouds 24 1010 100 10000 2.58 113.429 15:30 29.06.2019
5663 Clouds 24 1011 100 10000 3.42 129.018 14:44 29.06.2019
5664 Clouds 24 1011 100 10000 3.42 129.018 14:25 29.06.2019
5665 Clouds 24 1011 100 10000 3.42 129.018 13:47 29.06.2019
5666 Clouds 24 1011 100 10000 3.88 125.037 13:26 29.06.2019
5667 Clouds 24 1011 100 10000 3.88 125.037 12:52 29.06.2019
5668 Clouds 24 1011 100 10000 3.88 125.037 12:34 29.06.2019
5669 Clouds 24 1011 100 10000 4.1 180 11:54 29.06.2019
5670 Clouds 24 1011 100 10000 4.1 180 11:34 29.06.2019
5671 Clouds 25 1011 94 10000 4.6 290 10:57 29.06.2019
5672 Thunderstorm 26 1010 88 10000 2.1 200 10:38 29.06.2019
5673 Thunderstorm 27 1010 88 10000 2.6 140 10:20 29.06.2019
5674 Thunderstorm 28 1009 83 10000 4.6 140 09:44 29.06.2019
5675 Clouds 29 1008 79 10000 4.1 70 08:50 29.06.2019
5676 Clouds 30 1008 74 10000 3.1 70 07:59 29.06.2019
5677 Clouds 30 1008 74 10000 3.1 70 07:36 29.06.2019
5678 Clouds 28 1009 77 0 3.92 152.389 06:45 29.06.2019
5679 Clouds 32 1008 70 10000 5.1 50 06:23 29.06.2019
5680 Clouds 32 1011 62 10000 5.1 90 02:51 29.06.2019
5681 Clouds 31 1011 70 10000 4.1 110 01:21 29.06.2019
5682 Clouds 26 1011 88 10000 1.5 180 00:24 29.06.2019
5683 Clouds 26 1011 88 10000 1.5 180 23:27 28.06.2019
5684 Clouds 23 1010 100 10000 1 110 22:57 28.06.2019
5685 Clouds 23 1010 100 10000 1 110 22:37 28.06.2019
5686 Clouds 23 1010 100 10000 1.65 99.343 21:52 28.06.2019
5687 Clouds 23 1009 94 10000 1 140 21:24 28.06.2019
5688 Clouds 23 1009 94 10000 1 140 20:48 28.06.2019
5689 Clouds 23 1009 100 10000 1 180 20:27 28.06.2019
5690 Clouds 23 1009 100 10000 1 180 19:53 28.06.2019
5691 Clouds 23 1009 100 10000 1 180 19:28 28.06.2019
5692 Clouds 24 1009 100 10000 1.71 77.221 18:57 28.06.2019
5693 Clouds 24 1009 100 10000 1.71 77.221 18:38 28.06.2019
5694 Clouds 24 1009 100 10000 2.57 61.791 18:20 28.06.2019
5695 Clouds 24 1010 100 10000 1 230 17:30 28.06.2019
5696 Clouds 24 1010 100 10000 1 140 16:51 28.06.2019
5697 Clouds 25 1010 94 10000 2.1 160 16:27 28.06.2019
5698 Clouds 25 1010 94 10000 2.1 160 15:48 28.06.2019
5699 Clouds 25 1010 94 10000 2.1 160 15:48 28.06.2019
5700 Clouds 25 1010 94 10000 2.1 160 15:24 28.06.2019
5701 Clouds 25 1011 94 10000 4.52 130.522 14:56 28.06.2019
5702 Clouds 25 1011 94 10000 4.52 130.522 14:37 28.06.2019
5703 Clouds 25 1011 94 10000 4.52 130.522 14:18 28.06.2019
5704 Clouds 25 1011 94 10000 4.52 130.522 13:42 28.06.2019
5705 Clouds 26 1011 94 10000 1 180 13:20 28.06.2019
5706 Clouds 26 1011 94 10000 1 180 12:47 28.06.2019
5707 Clouds 27 1010 78 10000 1.5 160 11:56 28.06.2019
5708 Clouds 27 1010 78 10000 1.5 160 11:25 28.06.2019
5709 Clouds 28 1009 83 10000 2.96 112.815 10:46 28.06.2019
5710 Rain 28 1010 77 0 2.96 112.815 10:21 28.06.2019
5711 Rain 28 1010 77 0 2.96 112.815 09:49 28.06.2019
5712 Clouds 30 1008 66 10000 3.1 320 09:29 28.06.2019
5713 Clouds 30 1008 66 10000 3.1 320 08:47 28.06.2019
5714 Clouds 30 1008 66 10000 3.1 320 08:26 28.06.2019
5715 Clouds 32 1008 62 10000 2.6 320 07:47 28.06.2019
5716 Clouds 32 1008 62 10000 2.6 320 07:28 28.06.2019
5717 Clouds 31 1008 62 10000 3.1 50 06:21 28.06.2019
5718 Clouds 30 1011 74 10000 3.6 110 01:23 28.06.2019
5719 Clouds 28 1011 83 10000 2.1 160 00:39 28.06.2019
5720 Clouds 24 1010 100 10000 1 160 23:49 27.06.2019
5721 Clouds 23 1010 100 10000 1.87 122.022 23:25 27.06.2019
5722 Clouds 23 1010 100 10000 1.87 122.022 22:56 27.06.2019
5723 Clouds 23 1010 100 10000 1.87 122.022 22:37 27.06.2019
5724 Clouds 28 1010 71 0 1.87 122.022 22:18 27.06.2019
5725 Clouds 28 1010 71 0 1.87 122.022 21:47 27.06.2019
5726 Clouds 23 1009 94 10000 1 140 21:29 27.06.2019
5727 Clouds 23 1009 94 10000 1 140 20:55 27.06.2019
5728 Clouds 23 1009 94 10000 1 140 20:36 27.06.2019
5729 Clouds 28 1009 73 0 1.16 158.051 20:18 27.06.2019
5730 Clouds 28 1009 73 0 1.16 158.051 19:42 27.06.2019
5731 Clouds 23 1009 100 10000 1.16 158.051 19:23 27.06.2019
5732 Clouds 23 1009 100 10000 1.16 158.051 18:42 27.06.2019
5733 Clouds 23 1009 100 10000 1 160 18:19 27.06.2019
5734 Clouds 23 1009 100 10000 1 160 17:43 27.06.2019
5735 Clouds 24 1009 94 10000 0.33 91.054 17:22 27.06.2019
5736 Clouds 24 1009 94 10000 0.33 91.054 16:39 27.06.2019
5737 Clouds 24 1009 94 10000 0.33 91.054 16:19 27.06.2019
5738 Clouds 24 1009 94 10000 0.33 91.054 16:19 27.06.2019
5739 Clouds 24 1009 94 10000 0.33 91.054 15:51 27.06.2019
5740 Clouds 24 1009 94 10000 0.33 91.054 15:31 27.06.2019
5741 Clouds 25 1010 94 10000 1.53 326.487 14:57 27.06.2019
5742 Clouds 25 1010 94 10000 1.53 326.487 14:31 27.06.2019
5743 Clouds 25 1010 94 10000 1.53 326.487 13:57 27.06.2019
5744 Clouds 25 1010 94 10000 1.53 326.487 13:38 27.06.2019
5745 Clouds 26 1010 88 10000 1.5 160 13:20 27.06.2019
5746 Clouds 26 1010 88 10000 1.5 160 12:41 27.06.2019
5747 Clouds 25 1011 94 10000 2.1 160 12:22 27.06.2019
5748 Clouds 25 1011 94 10000 2.1 160 11:44 27.06.2019
5749 Clouds 27 1011 83 10000 3.6 110 11:21 27.06.2019
5750 Clouds 27 1011 83 10000 3.6 110 10:56 27.06.2019
5751 Clouds 27 1011 83 10000 3.6 110 10:36 27.06.2019
5752 Clouds 29 1009 79 10000 3.1 110 10:18 27.06.2019
5753 Clouds 29 1009 79 10000 3.1 110 09:37 27.06.2019
5754 Clouds 31 1009 66 10000 4.1 90 09:19 27.06.2019
5755 Clouds 31 1009 66 10000 4.1 90 08:44 27.06.2019
5756 Clouds 32 1008 66 10000 8.2 90 08:22 27.06.2019
5757 Clouds 32 1008 66 10000 8.2 90 07:39 27.06.2019
5758 Clouds 32 1008 70 10000 7.2 70 06:54 27.06.2019
5759 Clouds 32 1008 70 10000 7.2 70 06:28 27.06.2019
5760 Clouds 32 1010 66 10000 2.6 20 03:22 27.06.2019
5761 Clouds 32 1010 66 10000 2.6 20 02:39 27.06.2019
5762 Clouds 29 1010 79 10000 0.8 280.523 01:18 27.06.2019
5763 Clouds 29 1010 79 10000 0.8 280.523 00:42 27.06.2019
5764 Clouds 29 1010 79 10000 1.69 85.687 00:19 27.06.2019
5765 Clouds 25 1010 94 10000 2.6 180 23:42 26.06.2019
5766 Clouds 25 1010 100 10000 1.69 85.687 23:22 26.06.2019
5767 Clouds 25 1010 100 10000 1.69 85.687 22:46 26.06.2019
5768 Clouds 25 1010 100 10000 1.69 85.687 22:28 26.06.2019
5769 Clouds 23 1009 100 10000 1.69 85.687 21:59 26.06.2019
5770 Clouds 23 1009 100 10000 1.69 85.687 21:39 26.06.2019
5771 Clouds 23 1009 100 10000 1.5 180 21:19 26.06.2019
5772 Clouds 23 1009 100 10000 1.5 180 21:19 26.06.2019
5773 Clouds 23 1009 100 10000 1.5 180 20:49 26.06.2019
5774 Clouds 23 1009 100 10000 1.5 180 20:30 26.06.2019
5775 Clouds 23 1009 100 10000 1.98 100.691 19:50 26.06.2019
5776 Clouds 23 1009 100 10000 1.98 100.691 19:31 26.06.2019
5777 Clouds 23 1009 100 10000 1.98 100.691 18:57 26.06.2019
5778 Clouds 23 1009 100 10000 1.98 100.691 18:39 26.06.2019
5779 Clouds 24 1009 100 10000 1.74 113.639 18:19 26.06.2019
5780 Clouds 24 1009 100 10000 1.74 113.639 17:46 26.06.2019
5781 Clouds 24 1009 100 10000 1.74 113.639 17:27 26.06.2019
5782 Clouds 24 1010 100 10000 1.74 113.639 16:52 26.06.2019
5783 Clouds 24 1010 100 10000 1.74 113.639 16:29 26.06.2019
5784 Clouds 24 1010 100 10000 1.74 113.639 15:53 26.06.2019
5785 Clouds 24 1010 100 10000 1.74 113.639 15:28 26.06.2019
5786 Clouds 25 1011 94 10000 2.2 47.796 14:43 26.06.2019
5787 Clouds 25 1011 94 10000 2.2 47.796 14:23 26.06.2019
5788 Clouds 25 1010 100 10000 1.5 160 13:46 26.06.2019
5789 Clouds 25 1010 100 10000 1.5 160 13:23 26.06.2019
5790 Clouds 26 1010 94 10000 1 110 12:57 26.06.2019
5791 Clouds 26 1010 94 10000 1 110 12:57 26.06.2019
5792 Clouds 26 1010 94 10000 1 110 12:39 26.06.2019
5793 Clouds 26 1010 94 10000 1 110 12:19 26.06.2019
5794 Clouds 26 1009 94 10000 1.5 160 11:25 26.06.2019
5795 Clouds 26 1009 94 10000 1.5 160 10:51 26.06.2019
5796 Clouds 26 1009 94 10000 1.5 160 10:31 26.06.2019
5797 Clouds 28 1009 83 10000 2.6 270 09:59 26.06.2019
5798 Clouds 28 1009 83 10000 2.6 270 09:30 26.06.2019
5799 Clouds 31 1008 66 10000 2.1 200 08:55 26.06.2019
5800 Clouds 31 1008 66 10000 2.1 200 08:22 26.06.2019
5801 Clouds 31 1008 66 10000 2.1 200 07:57 26.06.2019
5802 Clouds 32 1008 70 10000 4.6 70 07:38 26.06.2019
5803 Thunderstorm 32 1008 70 10000 5.1 70 06:33 26.06.2019
5804 Clouds 32 1011 70 10000 3.6 70 01:59 26.06.2019
5805 Clouds 30 1011 74 10000 2.1 110 00:35 26.06.2019
5806 Clouds 26 1011 88 10000 1.59 143.742 23:52 25.06.2019
5807 Clouds 26 1011 88 10000 1.59 143.742 23:32 25.06.2019
5808 Clouds 24 1011 94 10000 1.5 160 22:59 25.06.2019
5809 Clouds 24 1011 94 10000 1.5 160 22:41 25.06.2019
5810 Clouds 23 1011 100 10000 2.6 140 22:22 25.06.2019
5811 Clouds 23 1011 100 10000 2.6 140 21:46 25.06.2019
5812 Clouds 23 1011 100 10000 2.6 140 21:25 25.06.2019
5813 Clouds 23 1010 94 10000 1.65 60.117 20:48 25.06.2019
5814 Clouds 23 1010 94 10000 1.65 60.117 20:48 25.06.2019
5815 Clouds 23 1009 100 10000 1 200 20:24 25.06.2019
5816 Clouds 23 1009 100 10000 1 200 19:56 25.06.2019
5817 Clouds 23 1009 100 10000 1 200 19:37 25.06.2019
5818 Clouds 23 1009 100 10000 1 200 19:19 25.06.2019
5819 Clouds 24 1009 94 10000 1.65 60.117 18:41 25.06.2019
5820 Clouds 24 1010 94 10000 2.34 35.603 18:22 25.06.2019
5821 -273 0 0 0 0 0 17:42 25.06.2019
5822 -273 0 0 0 0 0 17:42 25.06.2019
5823 -273 0 0 0 0 0 17:22 25.06.2019
5824 Clouds 24 1010 94 10000 2.34 35.603 17:22 25.06.2019
5825 Clouds 24 1010 94 10000 2.34 35.603 17:21 25.06.2019
5826 Clouds 24 1010 94 10000 2.34 35.603 16:43 25.06.2019
5827 Clouds 24 1010 94 10000 2.34 35.603 16:25 25.06.2019
5828 Clouds 24 1011 94 10000 1.5 140 15:43 25.06.2019
5829 Clouds 24 1011 94 10000 1.5 140 15:24 25.06.2019
5830 Clouds 25 1011 88 10000 1.5 140 14:55 25.06.2019
5831 Clouds 25 1011 88 10000 1.5 140 14:36 25.06.2019
5832 Clouds 25 1012 94 10000 1.5 140 13:50 25.06.2019
5833 Clouds 25 1012 94 10000 1.5 140 13:30 25.06.2019
5834 Clouds 25 1012 94 10000 1.5 140 12:58 25.06.2019
5835 Clouds 25 1012 94 10000 1.5 140 12:38 25.06.2019
5836 Clouds 26 1011 88 10000 1.5 140 12:20 25.06.2019
5837 Clouds 26 1011 88 10000 1.5 140 11:44 25.06.2019
5838 Clouds 26 1011 88 10000 1.5 140 11:21 25.06.2019
5839 Clouds 27 1011 83 10000 1.5 110 10:45 25.06.2019
5840 Clouds 29 1011 74 10000 2.6 90 10:23 25.06.2019
5841 Clouds 29 1011 74 10000 2.6 90 09:56 25.06.2019
5842 Clouds 29 1011 74 10000 2.6 90 09:38 25.06.2019
5843 Haze 31 1010 62 10000 4.1 90 09:19 25.06.2019
5844 Haze 31 1010 62 10000 4.1 90 08:43 25.06.2019
5845 Clouds 32 1009 62 10000 6.2 90 08:24 25.06.2019
5846 Clouds 32 1009 62 10000 6.2 90 07:40 25.06.2019
5847 Clouds 33 1009 55 10000 5.7 70 06:57 25.06.2019
5848 Clouds 33 1009 55 10000 5.7 70 06:39 25.06.2019
5849 Haze 32 1011 59 10000 6.2 90 02:47 25.06.2019
5850 Clouds 30 1011 74 10000 5.1 90 01:50 25.06.2019
5851 Clouds 29 1012 74 10000 3.1 140 00:37 25.06.2019
5852 Clouds 29 1012 74 10000 3.1 140 23:56 24.06.2019
5853 Clouds 25 1011 88 10000 1.61 137.702 23:38 24.06.2019
5854 Clouds 25 1011 88 10000 1.61 137.702 23:38 24.06.2019
5855 Clouds 25 1011 88 10000 1.61 137.702 23:20 24.06.2019
5856 Clouds 22 1011 100 10000 1.5 180 22:41 24.06.2019
5857 Clouds 22 1011 100 10000 1.61 137.702 22:19 24.06.2019
5858 Clouds 22 1011 100 10000 1.61 137.702 21:39 24.06.2019
5859 Haze 22 1011 100 10000 2.1 140 21:19 24.06.2019
5860 Haze 22 1011 100 10000 2.1 140 20:56 24.06.2019
5861 Haze 22 1011 100 10000 2.1 140 20:38 24.06.2019
5862 Haze 23 1011 94 10000 1.55 103.659 20:20 24.06.2019
5863 Haze 23 1011 94 10000 1.55 103.659 19:44 24.06.2019
5864 Haze 23 1011 94 10000 1.5 160 19:21 24.06.2019
5865 Haze 23 1011 94 10000 1.5 160 18:45 24.06.2019
5866 Haze 23 1011 94 10000 2.1 140 18:26 24.06.2019
5867 Haze 23 1011 94 10000 2.1 140 17:47 24.06.2019
5868 Haze 23 1011 94 10000 2.1 140 17:25 24.06.2019
5869 Clouds 24 1012 94 10000 2.06 117.97 16:48 24.06.2019
5870 Clouds 24 1012 94 10000 1.5 200 16:20 24.06.2019
5871 Clouds 24 1012 94 10000 1.5 200 15:49 24.06.2019
5872 Clouds 24 1012 94 10000 1.5 200 15:30 24.06.2019
5873 Clouds 24 1012 94 10000 1.5 180 14:55 24.06.2019
5874 Clouds 24 1012 94 10000 1.5 180 14:31 24.06.2019
5875 Clouds 25 1012 94 10000 1.55 110.591 13:46 24.06.2019
5876 Clouds 26 1012 88 10000 2.34 114.045 13:24 24.06.2019
5877 Clouds 26 1012 88 10000 2.34 114.045 12:43 24.06.2019
5878 Clouds 27 1011 83 10000 1.5 140 12:21 24.06.2019
5879 Clouds 27 1011 83 10000 1.5 140 11:46 24.06.2019
5880 Clouds 27 1011 83 10000 1.5 140 11:28 24.06.2019
5881 Clouds 28 1011 78 10000 1 110 10:57 24.06.2019
5882 Clouds 28 1011 78 10000 1 110 10:36 24.06.2019
5883 Clouds 29 1010 74 10000 2.6 70 10:18 24.06.2019
5884 Clouds 29 1010 74 10000 2.6 70 09:43 24.06.2019
5885 Clouds 31 1009 62 10000 4.6 70 09:19 24.06.2019
5886 Clouds 31 1009 62 10000 4.6 70 08:50 24.06.2019
5887 Clouds 32 1009 66 10000 5.1 70 08:18 24.06.2019
5888 Clouds 32 1009 66 10000 5.1 70 07:41 24.06.2019
5889 Clouds 32 1009 66 10000 4.6 50 07:22 24.06.2019
5890 Haze 32 1009 62 10000 4.6 70 06:24 24.06.2019
5891 Haze 32 1009 62 10000 4.6 70 05:41 24.06.2019
5892 Clouds 32 1010 66 10000 5.7 50 04:43 24.06.2019
5893 Clouds 32 1010 66 10000 4.1 50 03:48 24.06.2019
5894 Clouds 31 1011 62 10000 4.6 90 02:47 24.06.2019
5895 Clouds 30 1011 70 10000 3.1 110 01:55 24.06.2019
5896 Clouds 30 1011 70 10000 3.1 110 01:33 24.06.2019
5897 Clouds 26 1012 83 10000 1.5 160 00:50 24.06.2019
5898 Clouds 22 1011 94 10000 2.42 95.092 00:20 24.06.2019
5899 Clouds 22 1011 94 10000 2.42 95.092 23:48 23.06.2019
5900 Clouds 22 1011 94 10000 2.42 95.092 23:28 23.06.2019
5901 Clouds 22 1011 94 10000 2.42 95.092 22:58 23.06.2019
5902 Clouds 21 1011 94 10000 1.5 140 22:39 23.06.2019
5903 Clouds 21 1011 94 10000 1.5 140 22:20 23.06.2019
5904 Clouds 22 1010 88 10000 1 140 21:41 23.06.2019
5905 Clouds 21 1010 94 10000 2.1 180 21:22 23.06.2019
5906 Clouds 21 1010 94 10000 2.1 180 20:51 23.06.2019
5907 Clouds 21 1010 94 10000 2.1 180 20:29 23.06.2019
5908 Clouds 21 1010 94 10000 1.5 160 19:54 23.06.2019
5909 Clouds 21 1010 94 10000 1.5 160 19:36 23.06.2019
5910 Clouds 22 1010 88 10000 1 160 19:18 23.06.2019
5911 Clouds 22 1010 88 10000 1 160 18:41 23.06.2019
5912 Clouds 22 1011 94 10000 1.5 200 18:19 23.06.2019
5913 Clouds 22 1011 94 10000 1.5 200 17:41 23.06.2019
5914 Clouds 22 1011 94 10000 1.5 200 17:21 23.06.2019
5915 Haze 22 1011 94 10000 1.5 200 16:44 23.06.2019
5916 Haze 22 1011 94 10000 1.5 200 16:44 23.06.2019
5917 Haze 23 1011 88 10000 2.09 87.808 16:24 23.06.2019
5918 Haze 23 1011 88 10000 2.09 87.808 15:43 23.06.2019
5919 Haze 23 1011 88 10000 1.01 144.966 15:24 23.06.2019
5920 Haze 24 1010 83 10000 1.01 144.966 14:59 23.06.2019
5921 Haze 24 1010 83 10000 1.01 144.966 14:37 23.06.2019
5922 Clouds 23 1010 94 10000 1.5 160 14:19 23.06.2019
5923 Clouds 23 1010 94 10000 1.5 160 13:42 23.06.2019
5924 Clouds 23 1010 94 10000 1.5 160 13:42 23.06.2019
5925 Clouds 24 1010 94 10000 1 180 13:20 23.06.2019
5926 Clouds 24 1010 94 10000 1 180 12:56 23.06.2019
5927 Clouds 24 1010 94 10000 1 180 12:37 23.06.2019
5928 Clouds 25 1010 94 10000 2.85 178.752 12:18 23.06.2019
5929 Clouds 25 1010 94 10000 2.85 178.752 11:44 23.06.2019
5930 Clouds 26 1009 88 10000 1 160 11:24 23.06.2019
5931 Clouds 26 1009 88 10000 1 160 10:47 23.06.2019
5932 Clouds 28 1009 78 10000 2.6 90 10:20 23.06.2019
5933 Clouds 28 1009 78 10000 2.6 90 09:54 23.06.2019
5934 Clouds 28 1009 78 10000 2.6 90 09:22 23.06.2019
5935 Clouds 30 1008 62 10000 4.6 90 08:46 23.06.2019
5936 Clouds 30 1008 62 10000 4.6 90 08:27 23.06.2019
5937 Haze 31 1007 66 10000 4.1 90 07:55 23.06.2019
5938 Haze 31 1007 66 10000 4.1 90 07:24 23.06.2019
5939 Clouds 33 1007 55 10000 5.7 90 06:54 23.06.2019
5940 Clouds 32 1007 59 10000 6.2 70 05:55 23.06.2019
5941 Clouds 32 1007 59 10000 6.2 70 05:55 23.06.2019
5942 Clouds 32 1008 62 10000 6.7 70 04:38 23.06.2019
5943 Haze 31 1010 70 10000 6.2 110 02:19 23.06.2019
5944 Haze 31 1010 70 10000 6.2 110 01:37 23.06.2019
5945 Haze 30 1010 74 10000 4.1 110 00:37 23.06.2019
5946 Haze 27 1010 83 10000 1 140 23:57 22.06.2019
5947 Haze 27 1010 83 10000 1 140 23:38 22.06.2019
5948 Haze 23 1009 100 10000 1 180 23:19 22.06.2019
5949 Haze 23 1009 100 10000 1 180 22:44 22.06.2019
5950 Haze 23 1009 100 10000 1 180 22:19 22.06.2019
5951 Haze 23 1008 100 10000 2.1 140 21:38 22.06.2019
5952 Haze 23 1008 100 10000 1 160 21:19 22.06.2019
5953 Haze 23 1008 100 10000 1 160 20:50 22.06.2019
5954 Haze 23 1008 100 10000 1 160 20:25 22.06.2019
5955 Haze 23 1007 100 10000 1 140 19:47 22.06.2019
5956 Haze 23 1007 100 10000 1 140 19:23 22.06.2019
5957 Haze 24 1007 94 10000 1 140 18:50 22.06.2019
5958 Haze 24 1007 94 10000 1 140 18:32 22.06.2019
5959 Haze 24 1008 100 10000 1 160 17:57 22.06.2019
5960 Haze 24 1008 100 10000 1 160 17:35 22.06.2019
5961 Haze 24 1008 100 10000 1.5 160 16:51 22.06.2019
5962 Haze 24 1008 100 10000 1.5 160 16:25 22.06.2019
5963 Haze 25 1009 94 10000 1.5 160 15:56 22.06.2019
5964 Haze 25 1009 94 10000 1.5 160 15:37 22.06.2019
5965 Haze 25 1009 94 10000 1.5 160 15:19 22.06.2019
5966 Haze 25 1009 94 10000 1.5 140 14:35 22.06.2019
5967 Haze 25 1009 94 10000 1.48 35.277 14:00 22.06.2019
5968 Haze 25 1009 94 10000 1.48 35.277 13:40 22.06.2019
5969 Haze 25 1009 94 10000 1.82 36.687 13:19 22.06.2019
5970 Haze 25 1009 100 10000 1.82 36.687 12:50 22.06.2019
5971 Haze 25 1009 100 10000 1.82 36.687 12:31 22.06.2019
5972 Haze 26 1008 94 10000 1.5 160 11:57 22.06.2019
5973 Haze 26 1008 94 10000 1.5 160 11:31 22.06.2019
5974 Haze 27 1008 88 10000 1.5 140 10:48 22.06.2019
5975 Haze 28 1007 83 10000 2.1 160 10:19 22.06.2019
5976 Haze 28 1007 83 10000 2.1 160 09:46 22.06.2019
5977 Haze 31 1007 66 10000 4.1 90 09:18 22.06.2019
5978 Haze 31 1007 66 10000 4.1 90 08:41 22.06.2019
5979 Clouds 32 1006 70 10000 6.2 70 08:19 22.06.2019
5980 Clouds 32 1006 70 10000 6.2 70 07:30 22.06.2019
5981 Clouds 32 1006 66 10000 5.1 50 06:46 22.06.2019
5982 Clouds 33 1007 63 10000 5.1 70 04:38 22.06.2019
5983 Clouds 33 1008 59 10000 6.2 90 02:31 22.06.2019
5984 Haze 30 1009 74 10000 3.6 110 00:57 22.06.2019
5985 Haze 30 1009 74 10000 3.6 110 00:35 22.06.2019
5986 Haze 27 1009 83 10000 1.5 140 23:51 21.06.2019
5987 Haze 25 1008 94 10000 1 140 23:25 21.06.2019
5988 Haze 25 1008 94 10000 1 140 22:58 21.06.2019
5989 Haze 24 1008 94 10000 2.1 140 22:40 21.06.2019
5990 Haze 24 1007 100 10000 2.1 160 22:20 21.06.2019
5991 Haze 24 1007 100 10000 2.1 160 21:40 21.06.2019
5992 Clouds 25 1007 94 10000 1.5 140 21:21 21.06.2019
5993 Clouds 25 1007 94 10000 1.5 140 20:48 21.06.2019
5994 Clouds 25 1007 94 10000 1.5 140 20:26 21.06.2019
5995 Clouds 28 1007 75 0 2.41 48.917 19:54 21.06.2019
5996 Clouds 28 1007 75 0 2.41 48.917 19:22 21.06.2019
5997 Clouds 28 1007 75 0 2.41 48.917 18:41 21.06.2019
5998 Clouds 25 1008 94 10000 1.5 140 18:23 21.06.2019
5999 Clouds 25 1008 94 10000 1.5 140 17:31 21.06.2019
6000 Clouds 26 1008 94 10000 1 140 16:59 21.06.2019
6001 Clouds 26 1008 94 10000 1 140 16:37 21.06.2019
6002 Clouds 26 1008 94 10000 1.5 110 16:18 21.06.2019
6003 Clouds 26 1008 94 10000 1.5 110 15:37 21.06.2019
6004 Clouds 26 1009 94 10000 2.1 140 14:57 21.06.2019
6005 Clouds 26 1009 94 10000 2.1 140 14:39 21.06.2019
6006 Clouds 26 1009 94 10000 2.1 140 14:20 21.06.2019
6007 Clouds 26 1009 94 10000 4.01 134.152 13:39 21.06.2019
6008 Clouds 26 1009 94 10000 1 110 13:21 21.06.2019
6009 Clouds 26 1009 94 10000 1 110 12:50 21.06.2019
6010 Clouds 27 1009 88 10000 1.5 160 12:23 21.06.2019
6011 Clouds 27 1009 88 10000 1.5 160 12:23 21.06.2019
6012 Clouds 27 1009 88 10000 1.5 160 12:23 21.06.2019
6013 Clouds 27 1009 88 10000 1.5 160 11:49 21.06.2019
6014 Clouds 27 1009 88 10000 1.5 160 11:28 21.06.2019
6015 Haze 27 1008 88 10000 2.1 140 10:59 21.06.2019
6016 Haze 27 1008 88 10000 2.1 140 10:40 21.06.2019
6017 Haze 28 1007 83 10000 4.1 110 10:20 21.06.2019
6018 Haze 28 1007 83 10000 4.1 110 09:43 21.06.2019
6019 Haze 28 1007 83 10000 4.1 110 09:22 21.06.2019
6020 Haze 28 1007 83 10000 4.1 110 08:55 21.06.2019
6021 Haze 30 1007 70 10000 3.6 110 08:37 21.06.2019
6022 Haze 31 1006 70 10000 4.1 90 08:18 21.06.2019
6023 Haze 31 1006 70 10000 4.1 90 07:40 21.06.2019
6024 Haze 32 1006 70 10000 5.1 70 07:19 21.06.2019
6025 Haze 32 1006 62 10000 5.1 110 06:25 21.06.2019
6026 Haze 32 1006 62 10000 5.1 110 05:33 21.06.2019
6027 Clouds 32 1007 70 10000 6.2 90 04:36 21.06.2019
6028 Clouds 32 1007 66 10000 5.7 90 03:35 21.06.2019
6029 Clouds 30 1008 79 10000 3.1 110 02:59 21.06.2019
6030 Clouds 28 1009 83 10000 2.1 110 01:59 21.06.2019
6031 Clouds 28 1009 83 10000 2.1 110 01:25 21.06.2019
6032 Clouds 27 1010 94 10000 5.53 147.923 00:29 21.06.2019
6033 Clouds 25 1010 94 10000 1.5 160 23:54 20.06.2019
6034 Clouds 24 1010 100 10000 5.11 132.891 23:24 20.06.2019
6035 Clouds 24 1010 100 10000 5.11 132.891 22:59 20.06.2019
6036 Clouds 24 1010 100 10000 5.11 132.891 22:40 20.06.2019
6037 Haze 24 1009 100 10000 1.5 140 22:21 20.06.2019
6038 Haze 24 1009 100 10000 1.5 140 21:52 20.06.2019
6039 Haze 24 1009 100 10000 2.63 92.547 21:20 20.06.2019
6040 Haze 24 1009 100 10000 2.63 92.547 20:59 20.06.2019
6041 Haze 24 1009 100 10000 2.13 99.263 20:40 20.06.2019
6042 Clouds 24 1008 100 10000 2.13 99.263 20:20 20.06.2019
6043 Clouds 24 1008 100 10000 2.13 99.263 19:40 20.06.2019
6044 Drizzle 25 1008 100 10000 1.5 110 19:19 20.06.2019
6045 Drizzle 25 1008 100 10000 1.5 110 18:44 20.06.2019
6046 Drizzle 25 1009 94 10000 2.33 111.163 18:24 20.06.2019
6047 Drizzle 25 1009 94 10000 2.33 111.163 17:59 20.06.2019
6048 Drizzle 25 1009 94 10000 2.33 111.163 17:41 20.06.2019
6049 Clouds 25 1009 100 10000 2.6 200 16:58 20.06.2019
6050 Clouds 25 1009 100 10000 2.6 200 16:40 20.06.2019
6051 Clouds 25 1009 100 10000 2.6 200 16:19 20.06.2019
6052 Clouds 25 1010 100 10000 1 200 15:43 20.06.2019
6053 Clouds 25 1010 100 10000 2.72 127.69 15:23 20.06.2019
6054 Thunderstorm 25 1010 100 10000 2.72 127.69 14:54 20.06.2019
6055 Thunderstorm 25 1010 100 10000 2.72 127.69 14:24 20.06.2019
6056 Thunderstorm 25 1010 100 10000 1.5 160 13:56 20.06.2019
6057 Thunderstorm 25 1010 100 10000 1.5 160 13:37 20.06.2019
6058 Haze 26 1010 94 10000 2.1 230 13:18 20.06.2019
6059 Haze 26 1010 94 10000 2.1 230 12:40 20.06.2019
6060 Haze 27 1009 94 10000 1.5 180 12:19 20.06.2019
6061 Haze 27 1009 94 10000 1.5 180 11:40 20.06.2019
6062 Haze 27 1009 83 10000 1.5 140 11:22 20.06.2019
6063 Haze 27 1009 83 10000 1.5 140 10:43 20.06.2019
6064 Haze 29 1008 79 10000 1.5 140 10:23 20.06.2019
6065 Haze 29 1008 79 10000 1.5 140 09:41 20.06.2019
6066 Haze 29 1008 79 10000 1.5 140 09:41 20.06.2019
6067 Haze 29 1008 79 10000 1.5 140 09:41 20.06.2019
6068 Clouds 31 1007 70 10000 3.1 50 09:23 20.06.2019
6069 Clouds 31 1007 70 10000 3.1 50 08:47 20.06.2019
6070 Clouds 31 1007 74 10000 3.6 50 08:28 20.06.2019
6071 Clouds 31 1007 74 10000 3.6 50 07:55 20.06.2019
6072 Clouds 31 1007 74 10000 3.6 50 07:31 20.06.2019
6073 Clouds 31 1007 74 10000 3.1 50 06:43 20.06.2019
6074 Clouds 31 1007 74 10000 2.6 70 06:18 20.06.2019
6075 Drizzle 30 1008 84 10000 2.6 50 03:37 20.06.2019
6076 Haze 29 1010 79 10000 2.6 110 00:34 20.06.2019
6077 Clouds 26 1009 94 10000 2.31 87.892 23:59 19.06.2019
6078 Clouds 26 1009 94 10000 2.31 87.892 23:41 19.06.2019
6079 Clouds 26 1009 94 10000 2.31 87.892 23:23 19.06.2019
6080 Haze 24 1008 94 10000 2.31 87.892 22:47 19.06.2019
6081 Haze 23 1008 100 10000 1.5 180 22:20 19.06.2019
6082 Haze 23 1008 100 10000 1.5 180 21:47 19.06.2019
6083 Haze 23 1008 100 10000 3.07 141.396 21:27 19.06.2019
6084 Haze 23 1008 100 10000 3.07 141.396 20:57 19.06.2019
6085 Haze 23 1008 100 10000 3.07 141.396 20:37 19.06.2019
6086 Haze 23 1008 100 10000 3.07 141.396 20:19 19.06.2019
6087 Haze 23 1007 100 10000 3.07 141.396 19:41 19.06.2019
6088 Haze 23 1007 100 10000 3.07 141.396 19:21 19.06.2019
6089 Haze 23 1007 100 10000 3.07 141.396 18:49 19.06.2019
6090 Haze 23 1008 100 10000 1 180 18:21 19.06.2019
6091 Haze 23 1008 100 10000 1 180 17:38 19.06.2019
6092 Haze 24 1008 100 10000 1.5 180 17:18 19.06.2019
6093 Haze 24 1008 100 10000 1.5 180 16:40 19.06.2019
6094 Haze 24 1009 100 10000 1 140 16:21 19.06.2019
6095 Haze 24 1009 100 10000 1 140 15:54 19.06.2019
6096 -273 0 0 0 0 0 15:28 19.06.2019
6097 Haze 24 1009 100 10000 2.77 68.675 14:57 19.06.2019
6098 Haze 24 1009 100 10000 2.77 68.675 14:57 19.06.2019
6099 Haze 24 1009 100 10000 2.77 68.675 14:38 19.06.2019
6100 Haze 25 1009 100 10000 2.77 68.675 14:20 19.06.2019
6101 Haze 25 1009 100 10000 2.77 68.675 13:43 19.06.2019
6102 Haze 25 1009 100 10000 1 160 13:24 19.06.2019
6103 Haze 25 1009 100 10000 1 160 12:44 19.06.2019
6104 Haze 25 1009 100 10000 1 160 12:22 19.06.2019
6105 Haze 25 1009 100 10000 1 160 11:56 19.06.2019
6106 Haze 26 1009 94 10000 1.5 160 11:37 19.06.2019
6107 Haze 27 1008 88 10000 2.1 160 11:19 19.06.2019
6108 Haze 27 1008 88 10000 2.1 160 10:43 19.06.2019
6109 Haze 27 1008 88 10000 2.1 160 10:43 19.06.2019
6110 Haze 29 1008 79 10000 1.5 50 10:24 19.06.2019
6111 Haze 29 1008 79 10000 1.5 50 09:42 19.06.2019
6112 Haze 31 1007 66 10000 2.1 360 09:21 19.06.2019
6113 Haze 31 1007 66 10000 2.1 360 08:50 19.06.2019
6114 Haze 31 1007 66 10000 2.1 360 08:29 19.06.2019
6115 Haze 32 1007 66 10000 1 360 07:48 19.06.2019
6116 Haze 32 1007 66 10000 1 360 07:29 19.06.2019
6117 Haze 32 1007 66 10000 2.1 70 06:53 19.06.2019
6118 Haze 32 1007 66 10000 2.1 70 06:29 19.06.2019
6119 Haze 32 1007 62 10000 2.1 70 05:49 19.06.2019
6120 Haze 29 1008 83 10000 2.1 70 04:41 19.06.2019
6121 Clouds 29 1009 83 10000 3.1 70 03:33 19.06.2019
6122 Haze 31 1010 74 10000 4.1 110 02:26 19.06.2019
6123 Haze 29 1010 83 10000 3.1 90 01:23 19.06.2019
6124 Haze 29 1010 83 10000 3.1 90 00:43 19.06.2019
6125 Clouds 26 1009 94 10000 3.26 165.555 00:20 19.06.2019
6126 Clouds 26 1009 94 10000 3.26 165.555 23:52 18.06.2019
6127 Clouds 26 1009 94 10000 3.26 165.555 23:28 18.06.2019
6128 Clouds 25 1008 100 10000 1.5 160 22:49 18.06.2019
6129 Clouds 25 1008 100 10000 1.5 160 22:25 18.06.2019
6130 Clouds 25 1008 100 10000 1.5 160 21:57 18.06.2019
6131 Clouds 25 1009 100 10000 1.5 200 21:39 18.06.2019
6132 Clouds 25 1008 100 10000 1.5 90 21:20 18.06.2019
6133 Clouds 25 1008 100 10000 1.5 90 20:43 18.06.2019
6134 Clouds 25 1008 100 10000 1.5 90 20:25 18.06.2019
6135 Clouds 25 1007 100 10000 3.78 140.173 19:42 18.06.2019
6136 Clouds 25 1007 100 10000 3.78 140.173 19:23 18.06.2019
6137 Clouds 25 1007 100 10000 3.78 140.173 18:59 18.06.2019
6138 Clouds 25 1007 100 10000 1.5 140 18:37 18.06.2019
6139 Clouds 25 1007 100 10000 1.5 140 18:18 18.06.2019
6140 Rain 25 1008 100 10000 2.1 160 17:39 18.06.2019
6141 Rain 25 1008 100 10000 2.1 160 17:19 18.06.2019
6142 Clouds 25 1009 100 10000 2.1 110 16:43 18.06.2019
6143 Clouds 25 1009 100 10000 2.1 110 16:24 18.06.2019
6144 Clouds 25 1009 100 10000 1.5 140 15:43 18.06.2019
6145 Clouds 25 1009 100 10000 1 110 15:24 18.06.2019
6146 Clouds 25 1009 100 10000 1 110 14:58 18.06.2019
6147 Clouds 26 1009 94 10000 9.44 156.899 14:40 18.06.2019
6148 Clouds 26 1009 94 10000 1 200 14:20 18.06.2019
6149 Clouds 26 1009 94 10000 1 200 13:52 18.06.2019
6150 Clouds 26 1009 94 10000 1 200 13:31 18.06.2019
6151 Clouds 26 1009 94 10000 7.94 141.232 12:47 18.06.2019
6152 Clouds 26 1009 94 10000 7.94 141.232 12:29 18.06.2019
6153 Clouds 26 1008 94 10000 10.03 145.96 11:56 18.06.2019
6154 Clouds 26 1008 94 10000 10.03 145.96 11:38 18.06.2019
6155 Clouds 26 1007 94 10000 1 140 11:20 18.06.2019
6156 Clouds 26 1007 94 10000 1 140 10:43 18.06.2019
6157 Clouds 27 1007 94 10000 1 140 10:22 18.06.2019
6158 Clouds 27 1007 94 10000 1 140 09:52 18.06.2019
6159 Clouds 27 1007 94 10000 1 140 09:25 18.06.2019
6160 Clouds 28 1007 83 10000 11.86 153.658 08:56 18.06.2019
6161 Clouds 28 1007 83 10000 11.86 153.658 08:38 18.06.2019
6162 Drizzle 28 1007 88 10000 3.1 90 08:20 18.06.2019
6163 Drizzle 28 1007 88 10000 3.1 90 07:26 18.06.2019
6164 Clouds 31 1006 70 10000 3.1 360 06:55 18.06.2019
6165 Clouds 31 1008 70 10000 4.6 340 05:27 18.06.2019
6166 Haze 32 1009 66 10000 4.1 340 04:21 18.06.2019
6167 Clouds 31 1009 66 10000 3.1 340 02:48 18.06.2019
6168 Clouds 31 1009 66 10000 3.1 340 01:28 18.06.2019
6169 Clouds 31 1009 66 10000 3.1 340 00:58 18.06.2019
6170 Clouds 28 1010 78 10000 1 180 00:30 18.06.2019
6171 Clouds 25 1009 88 10000 1 200 23:58 17.06.2019
6172 Clouds 25 1009 88 10000 1 200 23:37 17.06.2019
6173 Clouds 23 1009 100 10000 7.48 138.573 23:18 17.06.2019
6174 Clouds 23 1009 100 10000 7.48 138.573 22:40 17.06.2019
6175 Clouds 23 1009 100 10000 7.48 138.573 22:21 17.06.2019
6176 Clouds 22 1008 100 10000 7.48 138.573 21:45 17.06.2019
6177 Clouds 22 1008 100 10000 6.61 140.348 21:23 17.06.2019
6178 Clouds 22 1008 100 10000 6.61 140.348 20:43 17.06.2019
6179 Clouds 23 1008 100 10000 5.71 140.933 20:24 17.06.2019
6180 Clouds 23 1008 100 10000 5.71 140.933 19:57 17.06.2019
6181 Clouds 23 1008 100 10000 5.71 140.933 19:39 17.06.2019
6182 Clouds 23 1008 100 10000 5.71 140.933 19:20 17.06.2019
6183 Clouds 23 1008 100 10000 5.71 140.933 18:39 17.06.2019
6184 Clouds 23 1008 100 10000 5.71 140.933 18:39 17.06.2019
6185 Clouds 23 1009 100 10000 3.92 133.14 18:18 17.06.2019
6186 Clouds 23 1009 100 10000 3.92 133.14 18:18 17.06.2019
6187 Clouds 23 1009 100 10000 3.92 133.14 17:48 17.06.2019
6188 Clouds 23 1009 100 10000 3.92 133.14 17:29 17.06.2019
6189 Clouds 23 1009 100 10000 3.92 133.14 16:59 17.06.2019
6190 Haze 24 1009 94 10000 2.1 180 16:39 17.06.2019
6191 Haze 24 1009 94 10000 2.1 180 16:21 17.06.2019
6192 Haze 24 1010 94 10000 2.6 140 15:44 17.06.2019
6193 Haze 24 1010 94 10000 1 270 15:20 17.06.2019
6194 Haze 24 1010 94 10000 1 270 14:56 17.06.2019
6195 Haze 24 1010 94 10000 1 270 14:37 17.06.2019
6196 Haze 25 1010 88 10000 1 110 14:18 17.06.2019
6197 Haze 25 1010 88 10000 1 110 13:40 17.06.2019
6198 Haze 25 1010 94 10000 1 140 13:20 17.06.2019
6199 Haze 25 1010 94 10000 1 140 12:40 17.06.2019
6200 Haze 26 1009 88 10000 2.1 110 12:19 17.06.2019
6201 Haze 26 1009 88 10000 2.1 110 12:19 17.06.2019
6202 Haze 26 1009 88 10000 2.1 110 11:43 17.06.2019
6203 Haze 26 1009 88 10000 2.1 110 11:25 17.06.2019
6204 Haze 27 1008 83 10000 1 90 10:47 17.06.2019
6205 Haze 27 1008 83 10000 1 90 10:29 17.06.2019
6206 Haze 28 1008 78 10000 4.1 90 09:56 17.06.2019
6207 Haze 28 1008 78 10000 4.1 90 09:33 17.06.2019
6208 Haze 31 1008 62 10000 5.7 90 08:48 17.06.2019
6209 Haze 31 1008 62 10000 5.7 90 08:25 17.06.2019
6210 Haze 31 1008 62 10000 5.7 90 07:58 17.06.2019
6211 Haze 32 1007 62 10000 5.1 90 07:32 17.06.2019
6212 Haze 32 1007 62 10000 5.1 90 06:59 17.06.2019
6213 Haze 32 1008 62 10000 6.7 70 06:18 17.06.2019
6214 Haze 32 1008 62 10000 6.7 70 05:26 17.06.2019
6215 Haze 32 1009 62 10000 6.7 110 04:23 17.06.2019
6216 Haze 32 1009 62 10000 6.7 110 03:31 17.06.2019
6217 Clouds 31 1010 66 10000 7.2 110 02:43 17.06.2019
6218 Clouds 30 1010 74 10000 5.1 110 02:25 17.06.2019
6219 Clouds 30 1010 74 10000 5.1 110 01:35 17.06.2019
6220 Clouds 28 1010 83 10000 7.2 110 00:57 17.06.2019
6221 Clouds 28 1010 83 10000 7.2 110 00:36 17.06.2019
6222 Clouds 26 1010 88 10000 3.6 140 00:18 17.06.2019
6223 Clouds 26 1010 88 10000 3.6 140 23:39 16.06.2019
6224 Clouds 24 1009 100 10000 4.1 160 23:19 16.06.2019
6225 Clouds 24 1009 100 10000 4.1 160 23:19 16.06.2019
6226 Clouds 24 1009 100 10000 4.1 160 22:44 16.06.2019
6227 Clouds 24 1009 94 10000 4.1 140 22:20 16.06.2019
6228 Clouds 24 1009 94 10000 4.1 140 22:20 16.06.2019
6229 Clouds 24 1009 94 10000 4.1 140 21:57 16.06.2019
6230 Clouds 24 1009 94 10000 4.1 140 21:39 16.06.2019
6231 Rain 25 1008 94 10000 5.1 70 21:20 16.06.2019
6232 Rain 25 1008 94 10000 5.1 70 21:20 16.06.2019
6233 Rain 25 1008 94 10000 5.1 70 20:38 16.06.2019
6234 Clouds 24 1008 100 10000 1.5 110 20:19 16.06.2019
6235 Clouds 24 1008 100 10000 1.5 110 19:58 16.06.2019
6236 Clouds 24 1008 100 10000 1.5 110 19:39 16.06.2019
6237 Clouds 24 1009 100 10000 2.1 110 19:19 16.06.2019
6238 Clouds 24 1009 100 10000 2.1 110 18:41 16.06.2019
6239 Clouds 24 1009 94 10000 1.5 110 18:21 16.06.2019
6240 Clouds 24 1009 94 10000 1.5 110 17:49 16.06.2019
6241 Clouds 25 1010 88 10000 3.6 140 17:24 16.06.2019
6242 Clouds 25 1010 88 10000 3.6 140 16:58 16.06.2019
6243 Clouds 25 1010 88 10000 3.6 140 16:39 16.06.2019
6244 Clouds 25 1010 88 10000 3.6 140 16:21 16.06.2019
6245 Clouds 25 1010 88 10000 3.6 110 15:45 16.06.2019
6246 Clouds 25 1010 88 10000 3.6 110 15:26 16.06.2019
6247 Clouds 25 1011 88 10000 2.6 110 14:56 16.06.2019
6248 Clouds 25 1011 88 10000 2.6 110 14:36 16.06.2019
6249 Clouds 25 1011 88 10000 2.6 110 14:18 16.06.2019
6250 Haze 26 1011 83 10000 3.6 110 13:44 16.06.2019
6251 Haze 26 1011 83 10000 3.6 110 13:24 16.06.2019
6252 Haze 26 1011 83 10000 4.1 110 12:43 16.06.2019
6253 Haze 26 1010 83 10000 2.6 110 12:22 16.06.2019
6254 Haze 26 1010 83 10000 2.6 110 11:54 16.06.2019
6255 Haze 26 1010 83 10000 2.6 110 11:36 16.06.2019
6256 Haze 26 1009 88 10000 3.1 110 11:18 16.06.2019
6257 Haze 26 1009 88 10000 3.1 110 10:43 16.06.2019
6258 Haze 27 1008 83 10000 4.1 110 10:19 16.06.2019
6259 Haze 27 1008 83 10000 4.1 110 09:42 16.06.2019
6260 Haze 29 1008 74 10000 3.6 110 09:23 16.06.2019
6261 Haze 29 1008 74 10000 3.6 110 08:45 16.06.2019
6262 Clouds 29 1008 79 10000 5.1 90 08:19 16.06.2019
6263 Clouds 29 1008 79 10000 5.1 90 07:44 16.06.2019
6264 Clouds 29 1008 79 10000 5.1 90 07:20 16.06.2019
6265 Clouds 30 1008 74 10000 3.08 106.612 06:49 16.06.2019
6266 Haze 30 1008 70 10000 3.6 110 05:52 16.06.2019
6267 Haze 29 1009 79 10000 5.7 90 05:18 16.06.2019
6268 Haze 29 1009 74 10000 4.51 136.853 03:58 16.06.2019
6269 Haze 29 1009 74 10000 4.51 136.853 03:33 16.06.2019
6270 Haze 28 1010 74 10000 2.1 360 02:36 16.06.2019
6271 Clouds 28 1010 76 0 8.46 142.609 01:47 16.06.2019
6272 Clouds 25 1011 94 10000 2.1 200 01:27 16.06.2019
6273 Clouds 25 1011 94 10000 2.1 200 00:41 16.06.2019
6274 Clouds 24 1011 94 10000 1 140 00:22 16.06.2019
6275 Clouds 24 1011 94 10000 1 140 23:46 15.06.2019
6276 Haze 24 1010 94 10000 10.51 143.297 23:25 15.06.2019
6277 Haze 24 1010 94 10000 10.51 143.297 22:50 15.06.2019
6278 Haze 24 1010 94 10000 10.51 143.297 22:28 15.06.2019
6279 Haze 23 1009 100 10000 10.51 143.297 21:58 15.06.2019
6280 Haze 23 1009 100 10000 10.51 143.297 21:40 15.06.2019
6281 Clouds 23 1008 100 10000 1 110 21:20 15.06.2019
6282 Clouds 23 1008 100 10000 1 110 20:43 15.06.2019
6283 Haze 24 1008 94 10000 8.02 139.361 20:22 15.06.2019
6284 Haze 24 1008 94 10000 8.02 139.361 19:46 15.06.2019
6285 Haze 23 1008 100 10000 1.5 160 19:24 15.06.2019
6286 Haze 23 1008 100 10000 1.5 160 18:41 15.06.2019
6287 Haze 24 1009 100 10000 1.5 200 18:21 15.06.2019
6288 Haze 24 1009 100 10000 1.5 200 17:43 15.06.2019
6289 Haze 24 1009 100 10000 7.85 139.036 17:25 15.06.2019
6290 Haze 24 1009 100 10000 7.85 139.036 16:48 15.06.2019
6291 Haze 24 1010 100 10000 7.85 139.036 16:20 15.06.2019
6292 Haze 24 1010 100 10000 7.85 139.036 15:44 15.06.2019
6293 Haze 24 1010 100 10000 7.85 139.036 15:44 15.06.2019
6294 Haze 24 1010 94 10000 6.56 136.378 15:24 15.06.2019
6295 Haze 24 1010 94 10000 6.56 136.378 14:44 15.06.2019
6296 Haze 25 1010 94 10000 6.56 136.378 14:20 15.06.2019
6297 Haze 25 1010 94 10000 6.56 136.378 13:58 15.06.2019
6298 Haze 25 1010 94 10000 6.56 136.378 13:40 15.06.2019
6299 Haze 25 1010 94 10000 6.56 136.378 13:19 15.06.2019
6300 Haze 25 1010 94 10000 6.56 136.378 12:51 15.06.2019
6301 Haze 25 1010 94 10000 7.5 142.664 12:26 15.06.2019
6302 Haze 26 1009 88 10000 1.5 140 11:53 15.06.2019
6303 Haze 26 1009 88 10000 1.5 140 11:53 15.06.2019
6304 Haze 26 1009 88 10000 1.5 140 11:33 15.06.2019
6305 Haze 27 1009 83 10000 5.13 144.939 10:54 15.06.2019
6306 Haze 27 1009 83 10000 5.13 144.939 10:36 15.06.2019
6307 Haze 27 1009 83 10000 5.13 144.939 10:18 15.06.2019
6308 Haze 28 1008 78 10000 2.6 290 09:42 15.06.2019
6309 Haze 31 1008 66 10000 2.1 320 09:21 15.06.2019
6310 Haze 31 1008 66 10000 2.1 320 08:46 15.06.2019
6311 Haze 31 1008 66 10000 2.1 320 08:27 15.06.2019
6312 Haze 31 1008 66 10000 2.6 360 07:43 15.06.2019
6313 Haze 31 1008 66 10000 2.6 360 07:21 15.06.2019
6314 Haze 32 1008 62 10000 1.5 320 06:38 15.06.2019
6315 Haze 31 1008 62 10000 3.1 360 05:48 15.06.2019
6316 Haze 31 1008 62 10000 3.1 360 05:20 15.06.2019
6317 Haze 30 1009 70 10000 1 360 04:34 15.06.2019
6318 Haze 31 1010 66 10000 1.5 290 03:38 15.06.2019
6319 Haze 29 1011 66 10000 2.1 320 02:47 15.06.2019
6320 Clouds 27 1011 83 10000 7.38 139.822 01:59 15.06.2019
6321 Clouds 27 1011 83 10000 7.38 139.822 01:27 15.06.2019
6322 Clouds 25 1011 88 10000 7.38 139.822 00:43 15.06.2019
6323 Clouds 25 1011 88 10000 8.4 140.092 00:25 15.06.2019
6324 Clouds 22 1010 100 10000 6.53 131.424 23:51 14.06.2019
6325 Clouds 21 1009 100 10000 6.53 131.424 23:23 14.06.2019
6326 Clouds 21 1009 100 10000 6.53 131.424 22:42 14.06.2019
6327 Clouds 21 1009 100 10000 6.53 131.424 22:21 14.06.2019
6328 Clouds 21 1009 100 10000 6.53 131.424 21:49 14.06.2019
6329 Clouds 21 1009 100 10000 6.53 131.424 21:30 14.06.2019
6330 Clouds 21 1008 100 10000 7.23 133.487 20:58 14.06.2019
6331 Clouds 21 1008 100 10000 7.23 133.487 20:39 14.06.2019
6332 Clouds 22 1008 94 10000 7.23 133.487 20:18 14.06.2019
6333 Clouds 22 1008 94 10000 7.23 133.487 19:42 14.06.2019
6334 Clouds 23 1008 94 10000 2.1 160 19:22 14.06.2019
6335 Clouds 23 1008 94 10000 2.1 160 18:54 14.06.2019
6336 Clouds 23 1008 94 10000 2.1 160 18:36 14.06.2019
6337 Clouds 23 1009 94 10000 7.69 139.324 18:18 14.06.2019
6338 Clouds 23 1009 94 10000 7.69 139.324 17:45 14.06.2019
6339 Clouds 23 1009 94 10000 7.69 139.324 17:23 14.06.2019
6340 Clouds 23 1009 94 10000 7.69 139.324 16:50 14.06.2019
6341 Clouds 23 1010 100 10000 7.69 139.324 16:24 14.06.2019
6342 Clouds 23 1010 100 10000 7.69 139.324 16:24 14.06.2019
6343 Clouds 23 1010 100 10000 7.69 139.324 16:24 14.06.2019
6344 Clouds 23 1010 100 10000 7.69 139.324 15:59 14.06.2019
6345 Clouds 23 1010 100 10000 7.69 139.324 15:39 14.06.2019
6346 Clouds 23 1010 100 10000 7.69 139.324 15:39 14.06.2019
6347 Clouds 23 1010 100 10000 5.75 142.606 15:19 14.06.2019
6348 Clouds 23 1010 100 10000 5.75 142.606 14:46 14.06.2019
6349 Clouds 23 1010 100 10000 5.75 142.606 14:46 14.06.2019
6350 Clouds 23 1010 100 10000 5.75 142.606 14:27 14.06.2019
6351 Clouds 24 1010 94 10000 1.5 180 13:46 14.06.2019
6352 Clouds 24 1010 94 10000 1.5 180 13:28 14.06.2019
6353 -273 0 0 0 0 0 12:57 14.06.2019
6354 Clouds 26 1010 83 10000 1.5 70 12:39 14.06.2019
6355 Clouds 26 1010 83 10000 1.5 70 12:20 14.06.2019
6356 Clouds 26 1009 88 10000 6.11 130.98 11:42 14.06.2019
6357 Clouds 26 1009 88 10000 6.11 130.98 11:42 14.06.2019
6358 Clouds 26 1009 88 10000 6.11 130.98 11:42 14.06.2019
6359 Clouds 26 1009 88 10000 6.11 130.98 11:42 14.06.2019
6360 Clouds 27 1008 78 10000 1 110 11:23 14.06.2019
6361 Clouds 27 1008 78 10000 1 110 10:47 14.06.2019
6362 Clouds 28 1008 74 10000 1.5 160 10:21 14.06.2019
6363 Clouds 28 1008 74 10000 1.5 160 09:55 14.06.2019
6364 Clouds 28 1008 74 10000 1.5 160 09:33 14.06.2019
6365 Clouds 30 1006 66 10000 5.1 70 08:48 14.06.2019
6366 Clouds 31 1006 66 10000 6.2 70 08:21 14.06.2019
6367 -273 0 0 0 0 0 07:55 14.06.2019
6368 Clouds 32 1006 62 10000 7.2 70 07:23 14.06.2019
6369 Clouds 32 1006 62 10000 7.2 70 06:53 14.06.2019
6370 Clouds 32 1006 62 10000 7.2 70 06:19 14.06.2019
6371 Haze 33 1007 63 10000 7.2 70 05:42 14.06.2019
6372 Clouds 32 1008 62 10000 7.7 70 04:51 14.06.2019
6373 Clouds 33 1008 63 10000 5.1 20 04:23 14.06.2019
6374 Clouds 33 1008 63 10000 5.1 20 03:38 14.06.2019
6375 Clouds 30 1010 62 10000 3.6 20 03:19 14.06.2019
6376 Clouds 30 1010 62 10000 3.6 20 02:36 14.06.2019
6377 Clouds 31 1010 58 10000 2.1 50 01:47 14.06.2019
6378 Haze 28 1010 69 10000 3.48 157.302 00:37 14.06.2019
6379 Clouds 24 1010 83 10000 2.6 180 00:19 14.06.2019
6380 Clouds 24 1010 83 10000 2.6 180 23:49 13.06.2019
6381 Clouds 24 1010 83 10000 2.6 180 23:25 13.06.2019
6382 Haze 21 1010 100 10000 2.1 160 22:40 13.06.2019
6383 Haze 21 1009 100 10000 4.23 137.827 22:22 13.06.2019
6384 Haze 21 1009 100 10000 4.23 137.827 21:58 13.06.2019
6385 Haze 21 1009 100 10000 4.23 137.827 21:37 13.06.2019
6386 Haze 21 1008 100 10000 4.79 141.697 21:18 13.06.2019
6387 Haze 21 1008 100 10000 4.79 141.697 20:44 13.06.2019
6388 Haze 21 1008 100 10000 4.79 141.697 20:20 13.06.2019
6389 Haze 21 1008 100 10000 4.79 141.697 19:43 13.06.2019
6390 Haze 21 1008 100 10000 1.5 140 19:24 13.06.2019
6391 Haze 21 1008 100 10000 1.5 140 18:58 13.06.2019
6392 Haze 21 1008 100 10000 1.5 140 18:40 13.06.2019
6393 Haze 21 1008 100 10000 1.5 140 18:21 13.06.2019
6394 Haze 22 1009 94 10000 5.02 142.655 17:44 13.06.2019
6395 Haze 22 1009 94 10000 5.02 142.655 17:21 13.06.2019
6396 Haze 22 1009 100 10000 5.02 142.655 16:56 13.06.2019
6397 Haze 22 1009 100 10000 5.02 142.655 16:36 13.06.2019
6398 Haze 23 1010 94 10000 5.02 142.655 16:18 13.06.2019
6399 Haze 23 1010 94 10000 5.02 142.655 15:40 13.06.2019
6400 Haze 23 1010 94 10000 5.56 141.2 15:19 13.06.2019
6401 Haze 23 1010 94 10000 1 200 14:49 13.06.2019
6402 Haze 23 1010 94 10000 1 200 14:49 13.06.2019
6403 Haze 23 1010 94 10000 1 200 14:30 13.06.2019
6404 Haze 23 1010 88 10000 1 180 13:47 13.06.2019
6405 Haze 24 1010 83 10000 2.1 90 13:22 13.06.2019
6406 Haze 24 1010 83 10000 2.1 90 12:59 13.06.2019
6407 Haze 24 1010 83 10000 2.1 90 12:39 13.06.2019
6408 Haze 25 1009 88 10000 3.1 160 12:21 13.06.2019
6409 Haze 25 1009 88 10000 3.1 160 11:44 13.06.2019
6410 Haze 26 1008 78 10000 1 160 11:25 13.06.2019
6411 Haze 26 1008 78 10000 1 160 10:48 13.06.2019
6412 Haze 26 1008 78 10000 1 160 10:28 13.06.2019
6413 Clouds 29 1008 66 10000 2.6 90 09:52 13.06.2019
6414 -273 0 0 0 0 0 09:29 13.06.2019
6415 Clouds 29 1008 66 10000 2.6 90 08:55 13.06.2019
6416 Clouds 29 1008 66 10000 2.6 90 08:55 13.06.2019
6417 Clouds 29 1008 66 10000 2.6 90 08:55 13.06.2019
6418 Clouds 31 1007 62 10000 4.6 70 08:37 13.06.2019
6419 Clouds 31 1007 62 10000 4.6 70 08:19 13.06.2019
6420 Clouds 31 1007 70 10000 5.7 70 07:32 13.06.2019
6421 Clouds 32 1007 66 10000 7.2 50 06:54 13.06.2019
6422 Clouds 32 1007 66 10000 7.2 50 06:36 13.06.2019
6423 Clouds 32 1007 66 10000 6.2 70 06:18 13.06.2019
6424 Clouds 32 1007 66 10000 6.2 70 05:38 13.06.2019
6425 Clouds 32 1008 66 10000 3.1 340 05:18 13.06.2019
6426 Clouds 32 1009 66 10000 2.6 20 03:44 13.06.2019
6427 Clouds 31 1010 66 10000 1 270 01:55 13.06.2019
6428 Clouds 29 1011 74 10000 1.5 50 00:30 13.06.2019
6429 Clouds 29 1011 74 10000 1.5 50 00:30 13.06.2019
6430 Clouds 26 1010 88 10000 7.33 147.255 23:26 12.06.2019
6431 Clouds 26 1010 88 10000 7.33 147.255 22:58 12.06.2019
6432 Clouds 24 1010 94 10000 1 110 22:39 12.06.2019
6433 Clouds 24 1010 94 10000 1 110 22:39 12.06.2019
6434 Clouds 24 1009 94 10000 2.1 200 22:21 12.06.2019
6435 Clouds 24 1009 94 10000 2.1 200 21:42 12.06.2019
6436 Clouds 24 1009 94 10000 2.1 200 21:42 12.06.2019
6437 Clouds 24 1009 94 10000 2.1 200 21:22 12.06.2019
6438 Clouds 23 1009 100 10000 1 140 20:48 12.06.2019
6439 Clouds 23 1009 100 10000 1 140 20:48 12.06.2019
6440 Clouds 23 1009 100 10000 1 140 20:29 12.06.2019
6441 Clouds 23 1009 100 10000 1 140 19:57 12.06.2019
6442 Clouds 23 1009 100 10000 7.33 150.244 19:38 12.06.2019
6443 Clouds 23 1009 100 10000 7.33 150.244 19:19 12.06.2019
6444 Clouds 23 1009 100 10000 7.33 150.244 18:44 12.06.2019
6445 Clouds 24 1009 100 10000 7.1 150.414 18:24 12.06.2019
6446 Clouds 24 1009 100 10000 7.1 150.414 17:46 12.06.2019
6447 Clouds 24 1010 100 10000 1 200 17:23 12.06.2019
6448 Clouds 24 1010 100 10000 1 200 16:43 12.06.2019
6449 Clouds 24 1010 100 10000 1 200 16:25 12.06.2019
6450 Clouds 24 1010 100 10000 2.1 110 15:58 12.06.2019
6451 Clouds 24 1010 100 10000 2.1 110 15:33 12.06.2019
6452 Clouds 25 1010 94 10000 7.67 150.377 14:55 12.06.2019
6453 Clouds 25 1010 94 10000 7.67 150.377 14:55 12.06.2019
6454 Clouds 25 1010 94 10000 7.67 150.377 14:31 12.06.2019
6455 Haze 26 1010 88 10000 7.67 150.377 13:56 12.06.2019
6456 Haze 26 1010 88 10000 7.67 150.377 13:37 12.06.2019
6457 Haze 26 1010 94 10000 2.1 90 13:18 12.06.2019
6458 Haze 26 1010 94 10000 2.1 90 12:40 12.06.2019
6459 Haze 28 1009 83 10000 1.5 180 12:20 12.06.2019
6460 Haze 28 1009 83 10000 1.5 180 11:48 12.06.2019
6461 Haze 28 1009 83 10000 1.5 180 11:29 12.06.2019
6462 Haze 29 1009 83 10000 8.64 148.771 10:55 12.06.2019
6463 Haze 29 1009 83 10000 8.64 148.771 10:36 12.06.2019
6464 Haze 30 1008 79 10000 2.1 290 09:59 12.06.2019
6465 Haze 30 1008 79 10000 2.1 290 09:40 12.06.2019
6466 Haze 31 1007 70 10000 3.6 290 09:18 12.06.2019
6467 Haze 31 1007 70 10000 3.6 290 08:27 12.06.2019
6468 Haze 32 1007 70 10000 4.1 290 07:52 12.06.2019
6469 Clouds 28 1010 79 0 9.17 153.323 06:57 12.06.2019
6470 Haze 32 1008 62 10000 3.6 320 06:33 12.06.2019
6471 Haze 32 1009 66 10000 3.1 320 05:25 12.06.2019
6472 Clouds 29 1010 79 10000 1 20 02:20 12.06.2019
6473 Clouds 29 1011 79 10000 7.63 154.318 00:41 12.06.2019
6474 Clouds 26 1010 88 10000 7.08 151.412 23:53 11.06.2019
6475 Clouds 26 1010 88 10000 7.08 151.412 23:35 11.06.2019
6476 Clouds 24 1010 94 10000 1.5 200 22:45 11.06.2019
6477 Clouds 23 1009 100 10000 6.83 151.945 22:24 11.06.2019
6478 Clouds 23 1009 100 10000 6.83 151.945 21:59 11.06.2019
6479 Clouds 23 1009 100 10000 6.83 151.945 21:40 11.06.2019
6480 Clouds 23 1009 100 10000 1 180 21:22 11.06.2019
6481 Clouds 23 1009 100 10000 1 180 20:50 11.06.2019
6482 Clouds 24 1009 100 0 6 151.89 20:27 11.06.2019
6483 Clouds 24 1009 100 0 6 151.89 19:58 11.06.2019
6484 -273 0 0 0 0 0 19:40 11.06.2019
6485 Clouds 24 1009 100 0 6 151.89 19:21 11.06.2019
6486 Clouds 24 1009 100 0 6 151.89 18:40 11.06.2019
6487 Clouds 24 1009 100 0 5.79 145.785 18:18 11.06.2019
6488 Clouds 24 1010 100 10000 2.1 200 17:41 11.06.2019
6489 Clouds 24 1011 100 10000 1.5 230 17:19 11.06.2019
6490 Clouds 24 1011 100 10000 1.5 230 16:42 11.06.2019
6491 Clouds 24 1011 100 10000 1.5 90 16:23 11.06.2019
6492 Clouds 24 1011 100 10000 1.5 90 16:23 11.06.2019
6493 Clouds 24 1011 100 10000 1.5 90 15:43 11.06.2019
6494 Clouds 24 1011 100 10000 1.5 90 15:43 11.06.2019
6495 Clouds 24 1011 100 10000 6.18 145.839 15:25 11.06.2019
6496 Clouds 24 1011 100 10000 6.18 145.839 14:54 11.06.2019
6497 Haze 25 1011 94 10000 1 110 14:23 11.06.2019
6498 Haze 25 1011 94 10000 1 110 13:58 11.06.2019
6499 Haze 25 1011 94 10000 1 110 13:37 11.06.2019
6500 Haze 25 1011 94 10000 1 110 13:19 11.06.2019
6501 Haze 25 1011 94 10000 1.5 140 12:41 11.06.2019
6502 Haze 26 1010 94 10000 6.52 148.813 12:21 11.06.2019
6503 Haze 26 1010 94 10000 6.52 148.813 11:41 11.06.2019
6504 Haze 26 1010 94 10000 6.52 148.813 11:21 11.06.2019
6505 Haze 26 1010 94 10000 6.52 148.813 10:50 11.06.2019
6506 Haze 26 1010 94 10000 6.52 148.813 10:26 11.06.2019
6507 Clouds 27 1009 88 10000 1 230 09:51 11.06.2019
6508 Clouds 27 1009 88 10000 1 230 09:25 11.06.2019
6509 Clouds 28 1009 83 10000 5.29 155.525 08:49 11.06.2019
6510 Clouds 28 1009 83 10000 5.29 155.525 08:30 11.06.2019
6511 Clouds 28 1009 83 10000 1.5 230 07:55 11.06.2019
6512 Clouds 28 1009 83 10000 1.5 230 07:31 11.06.2019
6513 Clouds 32 1008 70 10000 6.2 70 06:51 11.06.2019
6514 Clouds 32 1008 70 10000 2.6 360 05:00 11.06.2019
6515 Haze 32 1010 70 10000 5.1 70 03:47 11.06.2019
6516 Clouds 29 1012 79 10000 2.6 110 01:41 11.06.2019
6517 Clouds 27 1012 88 10000 3.1 140 00:48 11.06.2019
6518 Clouds 25 1011 100 10000 1.5 160 23:56 10.06.2019
6519 Clouds 25 1011 100 10000 1.5 160 23:38 10.06.2019
6520 Haze 24 1011 100 10000 1.5 140 22:58 10.06.2019
6521 Haze 24 1011 100 10000 1.5 140 22:40 10.06.2019
6522 Clouds 29 1011 76 0 2.44 129.739 22:22 10.06.2019
6523 Haze 24 1010 100 10000 1.5 110 21:41 10.06.2019
6524 Haze 24 1010 100 10000 1.5 110 21:22 10.06.2019
6525 Haze 24 1010 100 10000 1.5 110 20:46 10.06.2019
6526 Haze 24 1010 100 10000 1.5 110 20:25 10.06.2019
6527 Haze 24 1009 100 10000 1.5 140 19:56 10.06.2019
6528 Haze 24 1009 100 10000 1.5 140 19:36 10.06.2019
6529 Haze 25 1009 94 10000 1.5 140 19:18 10.06.2019
6530 Haze 25 1009 94 10000 1.5 140 18:55 10.06.2019
6531 Haze 25 1009 94 10000 1.5 140 18:37 10.06.2019
6532 Haze 25 1010 100 10000 1.5 110 18:18 10.06.2019
6533 Haze 25 1010 100 10000 1.5 110 17:39 10.06.2019
6534 Haze 25 1010 94 10000 1 140 17:20 10.06.2019
6535 Haze 25 1010 94 10000 1 140 16:44 10.06.2019
6536 Haze 25 1010 94 10000 1 140 16:25 10.06.2019
6537 Clouds 28 1010 76 0 1.96 104.994 15:42 10.06.2019
6538 Haze 25 1011 100 10000 2.6 160 15:24 10.06.2019
6539 Haze 25 1011 100 10000 2.6 160 14:58 10.06.2019
6540 Haze 25 1011 100 10000 2.6 160 14:38 10.06.2019
6541 Haze 25 1011 100 10000 2.6 160 14:20 10.06.2019
6542 Haze 25 1011 100 10000 1 160 13:43 10.06.2019
6543 Haze 26 1011 94 10000 1 160 13:21 10.06.2019
6544 Haze 26 1011 94 10000 1 160 12:44 10.06.2019
6545 Haze 27 1011 88 10000 2.1 90 12:25 10.06.2019
6546 Haze 27 1011 88 10000 2.1 90 11:44 10.06.2019
6547 Haze 27 1011 88 10000 2.1 90 11:26 10.06.2019
6548 Haze 28 1010 88 10000 2.66 124.856 10:43 10.06.2019
6549 Haze 28 1009 88 10000 2.1 90 10:21 10.06.2019
6550 Haze 28 1009 88 10000 2.1 90 09:57 10.06.2019
6551 Haze 28 1009 88 10000 2.1 90 09:38 10.06.2019
6552 Haze 30 1008 74 10000 2.1 90 09:19 10.06.2019
6553 Haze 30 1008 74 10000 2.1 90 08:45 10.06.2019
6554 Clouds 30 1008 79 10000 5.1 110 08:25 10.06.2019
6555 Clouds 31 1008 74 10000 5.1 70 07:20 10.06.2019
6556 Clouds 31 1010 74 10000 3.1 50 04:29 10.06.2019
6557 Clouds 28 1012 83 10000 4.1 140 01:59 10.06.2019
6558 Clouds 28 1012 83 10000 4.1 140 01:26 10.06.2019
6559 Haze 26 1012 94 10000 3.1 160 00:56 10.06.2019
6560 Haze 25 1011 94 10000 2.1 140 00:19 10.06.2019
6561 Haze 25 1011 94 10000 2.1 140 23:42 09.06.2019
6562 Haze 25 1011 94 10000 5.05 141.993 23:19 09.06.2019
6563 Haze 25 1011 94 10000 5.05 141.993 22:44 09.06.2019
6564 Haze 25 1011 94 10000 5.05 141.993 22:25 09.06.2019
6565 Haze 25 1010 94 10000 4.1 90 21:43 09.06.2019
6566 Haze 24 1009 94 10000 1 140 21:23 09.06.2019
6567 Haze 24 1009 94 10000 1 140 20:43 09.06.2019
6568 Haze 24 1009 94 10000 1 140 20:23 09.06.2019
6569 Haze 24 1009 100 10000 2.1 110 19:47 09.06.2019
6570 Haze 24 1009 100 10000 4.46 144.866 19:19 09.06.2019
6571 Haze 24 1009 100 10000 4.46 144.866 18:58 09.06.2019
6572 Haze 24 1009 100 10000 4.46 144.866 18:58 09.06.2019
6573 Haze 24 1009 100 10000 4.46 144.866 18:40 09.06.2019
6574 Haze 25 1010 100 10000 1.5 140 18:22 09.06.2019
6575 Haze 25 1010 100 10000 1.5 140 17:46 09.06.2019
6576 Haze 25 1010 100 10000 1.5 140 17:27 09.06.2019
6577 Clouds 25 1010 94 10000 1 160 16:54 09.06.2019
6578 Clouds 25 1010 94 10000 1 160 16:36 09.06.2019
6579 Clouds 25 1011 94 10000 2.1 110 16:18 09.06.2019
6580 Clouds 25 1011 94 10000 2.1 110 15:42 09.06.2019
6581 Clouds 26 1010 94 10000 3.67 130.495 15:20 09.06.2019
6582 Clouds 26 1010 94 10000 3.67 130.495 14:43 09.06.2019
6583 Clouds 26 1010 88 10000 2.1 140 14:21 09.06.2019
6584 Clouds 26 1010 88 10000 2.1 140 13:50 09.06.2019
6585 Clouds 27 1010 83 10000 3.6 110 13:22 09.06.2019
6586 Clouds 27 1010 83 10000 3.6 110 12:41 09.06.2019
6587 Clouds 27 1009 83 10000 4.1 110 12:22 09.06.2019
6588 Clouds 27 1009 83 10000 4.1 110 11:39 09.06.2019
6589 Clouds 28 1009 78 10000 6.7 110 11:21 09.06.2019
6590 Clouds 28 1009 78 10000 6.7 110 10:45 09.06.2019
6591 Haze 29 1008 74 10000 5.1 110 10:23 09.06.2019
6592 Haze 29 1008 74 10000 5.1 110 09:41 09.06.2019
6593 Haze 29 1008 74 10000 5.1 110 09:41 09.06.2019
6594 Haze 31 1008 74 10000 8.2 90 09:22 09.06.2019
6595 Haze 31 1008 74 10000 8.2 90 08:53 09.06.2019
6596 Haze 31 1008 74 10000 8.2 90 08:34 09.06.2019
6597 Haze 33 1007 66 10000 8.2 70 07:27 09.06.2019
6598 Haze 33 1007 66 10000 8.2 70 06:30 09.06.2019
6599 Clouds 32 1008 70 10000 6.2 90 04:59 09.06.2019
6600 Haze 30 1010 74 10000 2.1 360 01:46 09.06.2019
6601 Haze 29 1010 79 10000 2.57 151.837 01:21 09.06.2019
6602 Haze 29 1010</